<?xml version="1.0" encoding="UTF-8" standalone="no" ?>
<gpx xmlns="http://www.topografix.com/GPX/1/1" xmlns:xsi="http://www.w3.org/2001/XMLSchema-instance" xsi:schemaLocation="http://www.topografix.com/GPX/1/1 http://www.topografix.com/GPX/1/1/gpx.xsd" version="1.1" creator="VisuGPX - https://www.visugpx.com">
  <metadata>
    <name>2015-11-05 Walk from Ball Trap(Chénas)</name>
    <desc><![CDATA[2015-11-05 Walk from Ball Trap(Chénas)]]></desc>
  </metadata>
  <wpt lat="46.2184" lon="4.69644">
    <ele>540.7</ele>
    <name><![CDATA[2015-11-05 09:37 (Start)]]></name>
  </wpt>
  <wpt lat="46.21838" lon="4.69633">
    <ele>512.2</ele>
    <name><![CDATA[2015-11-05 09:37 (End)]]></name>
    <desc><![CDATA[Created by Google My Tracks on Android  Name: 2015-11-05 09:37 Activity type: walking Description: - Total distance: 22.74 km (14.1 mi) Total time: 6:10:52 Moving time: 5:43:30 Average speed: 3.68 km/h (2.3 mi/h) Average moving speed: 3.97 km/h (2.5 mi/h) Max speed: 5.75 km/h (3.6 mi/h) Average pace: 16:18 min/km (26:15 min/mi) Average moving pace: 15:06 min/km (24:18 min/mi) Fastest pace: 10:26 min/km (16:48 min/mi) Max elevation: 800 m (2626 ft) Min elevation: 300 m (984 ft) Elevation gain: 1300 m (4267 ft) Max grade: 24 % Min grade: -34 % Recorded: 05/11/2015 09:37]]></desc>
  </wpt>
  <trk>
    <name><![CDATA[2015-11-05 09:37]]></name>
    <trkseg>
      <trkpt lat="46.2184" lon="4.69644">
        <ele>540.748840332</ele>
        <time>2015-11-05T08:37:12.135Z</time>
      </trkpt>
      <trkpt lat="46.21845" lon="4.69644">
        <ele>523.436523438</ele>
        <time>2015-11-05T08:39:47.326Z</time>
      </trkpt>
      <trkpt lat="46.21846" lon="4.69633">
        <ele>523.445129395</ele>
        <time>2015-11-05T08:39:48.277Z</time>
      </trkpt>
      <trkpt lat="46.21847" lon="4.69622">
        <ele>523.162536621</ele>
        <time>2015-11-05T08:40:02.298Z</time>
      </trkpt>
      <trkpt lat="46.21849" lon="4.69615">
        <ele>523.115905762</ele>
        <time>2015-11-05T08:40:03.276Z</time>
      </trkpt>
      <trkpt lat="46.21852" lon="4.69603">
        <ele>522.55682373</ele>
        <time>2015-11-05T08:40:17.3Z</time>
      </trkpt>
      <trkpt lat="46.21856" lon="4.69598">
        <ele>522.51184082</ele>
        <time>2015-11-05T08:40:18.28Z</time>
      </trkpt>
      <trkpt lat="46.21862" lon="4.6959">
        <ele>522.434509277</ele>
        <time>2015-11-05T08:40:25.303Z</time>
      </trkpt>
      <trkpt lat="46.21863" lon="4.69587">
        <ele>522.341125488</ele>
        <time>2015-11-05T08:40:26.286Z</time>
      </trkpt>
      <trkpt lat="46.21867" lon="4.69577">
        <ele>521.288879395</ele>
        <time>2015-11-05T08:40:35.327Z</time>
      </trkpt>
      <trkpt lat="46.21868" lon="4.69575">
        <ele>521.221679688</ele>
        <time>2015-11-05T08:40:36.287Z</time>
      </trkpt>
      <trkpt lat="46.21872" lon="4.69567">
        <ele>520.94732666</ele>
        <time>2015-11-05T08:40:42.324Z</time>
      </trkpt>
      <trkpt lat="46.21873" lon="4.69564">
        <ele>520.795593262</ele>
        <time>2015-11-05T08:40:43.281Z</time>
      </trkpt>
      <trkpt lat="46.21876" lon="4.69553">
        <ele>519.481994629</ele>
        <time>2015-11-05T08:40:53.318Z</time>
      </trkpt>
      <trkpt lat="46.21876" lon="4.69552">
        <ele>519.395141602</ele>
        <time>2015-11-05T08:40:54.312Z</time>
      </trkpt>
      <trkpt lat="46.21879" lon="4.69539">
        <ele>518.825744629</ele>
        <time>2015-11-05T08:41:03.311Z</time>
      </trkpt>
      <trkpt lat="46.21879" lon="4.69539">
        <ele>518.775634766</ele>
        <time>2015-11-05T08:41:04.293Z</time>
      </trkpt>
      <trkpt lat="46.21878" lon="4.69526">
        <ele>517.895263672</ele>
        <time>2015-11-05T08:41:10.297Z</time>
      </trkpt>
      <trkpt lat="46.21878" lon="4.69525">
        <ele>517.729492188</ele>
        <time>2015-11-05T08:41:11.289Z</time>
      </trkpt>
      <trkpt lat="46.21881" lon="4.69513">
        <ele>516.594970703</ele>
        <time>2015-11-05T08:41:18.294Z</time>
      </trkpt>
      <trkpt lat="46.21881" lon="4.69512">
        <ele>516.428283691</ele>
        <time>2015-11-05T08:41:19.298Z</time>
      </trkpt>
      <trkpt lat="46.2188" lon="4.695">
        <ele>515.380310059</ele>
        <time>2015-11-05T08:41:26.296Z</time>
      </trkpt>
      <trkpt lat="46.2188" lon="4.69498">
        <ele>515.166015625</ele>
        <time>2015-11-05T08:41:27.284Z</time>
      </trkpt>
      <trkpt lat="46.21881" lon="4.69486">
        <ele>514.31439209</ele>
        <time>2015-11-05T08:41:35.319Z</time>
      </trkpt>
      <trkpt lat="46.21881" lon="4.69484">
        <ele>514.19732666</ele>
        <time>2015-11-05T08:41:36.283Z</time>
      </trkpt>
      <trkpt lat="46.21882" lon="4.69473">
        <ele>513.214416504</ele>
        <time>2015-11-05T08:41:43.313Z</time>
      </trkpt>
      <trkpt lat="46.21882" lon="4.69471">
        <ele>513.086791992</ele>
        <time>2015-11-05T08:41:44.291Z</time>
      </trkpt>
      <trkpt lat="46.21883" lon="4.69459">
        <ele>511.472106934</ele>
        <time>2015-11-05T08:41:55.293Z</time>
      </trkpt>
      <trkpt lat="46.21883" lon="4.69457">
        <ele>511.451690674</ele>
        <time>2015-11-05T08:41:56.288Z</time>
      </trkpt>
      <trkpt lat="46.21883" lon="4.69444">
        <ele>510.586608887</ele>
        <time>2015-11-05T08:42:04.307Z</time>
      </trkpt>
      <trkpt lat="46.21883" lon="4.69443">
        <ele>510.442108154</ele>
        <time>2015-11-05T08:42:05.288Z</time>
      </trkpt>
      <trkpt lat="46.21883" lon="4.69431">
        <ele>509.56362915</ele>
        <time>2015-11-05T08:42:12.281Z</time>
      </trkpt>
      <trkpt lat="46.21883" lon="4.69428">
        <ele>509.372467041</ele>
        <time>2015-11-05T08:42:13.283Z</time>
      </trkpt>
      <trkpt lat="46.21882" lon="4.69416">
        <ele>508.451385498</ele>
        <time>2015-11-05T08:42:20.295Z</time>
      </trkpt>
      <trkpt lat="46.21882" lon="4.69414">
        <ele>508.319732666</ele>
        <time>2015-11-05T08:42:21.284Z</time>
      </trkpt>
      <trkpt lat="46.21881" lon="4.69402">
        <ele>506.858825684</ele>
        <time>2015-11-05T08:42:29.292Z</time>
      </trkpt>
      <trkpt lat="46.2188" lon="4.694">
        <ele>506.621887207</ele>
        <time>2015-11-05T08:42:30.278Z</time>
      </trkpt>
      <trkpt lat="46.21877" lon="4.69389">
        <ele>505.102630615</ele>
        <time>2015-11-05T08:42:37.304Z</time>
      </trkpt>
      <trkpt lat="46.21876" lon="4.69386">
        <ele>504.873687744</ele>
        <time>2015-11-05T08:42:38.303Z</time>
      </trkpt>
      <trkpt lat="46.21873" lon="4.69375">
        <ele>503.350616455</ele>
        <time>2015-11-05T08:42:45.3Z</time>
      </trkpt>
      <trkpt lat="46.21873" lon="4.69374">
        <ele>503.219299316</ele>
        <time>2015-11-05T08:42:46.273Z</time>
      </trkpt>
      <trkpt lat="46.21867" lon="4.69364">
        <ele>501.499755859</ele>
        <time>2015-11-05T08:42:55.307Z</time>
      </trkpt>
      <trkpt lat="46.21866" lon="4.69361">
        <ele>501.350036621</ele>
        <time>2015-11-05T08:42:56.298Z</time>
      </trkpt>
      <trkpt lat="46.21863" lon="4.69351">
        <ele>500.030731201</ele>
        <time>2015-11-05T08:43:02.291Z</time>
      </trkpt>
      <trkpt lat="46.21862" lon="4.69349">
        <ele>499.877410889</ele>
        <time>2015-11-05T08:43:03.278Z</time>
      </trkpt>
      <trkpt lat="46.21858" lon="4.6934">
        <ele>498.644989014</ele>
        <time>2015-11-05T08:43:09.289Z</time>
      </trkpt>
      <trkpt lat="46.21857" lon="4.69338">
        <ele>498.411010742</ele>
        <time>2015-11-05T08:43:10.286Z</time>
      </trkpt>
      <trkpt lat="46.21856" lon="4.69326">
        <ele>497.128387451</ele>
        <time>2015-11-05T08:43:17.29Z</time>
      </trkpt>
      <trkpt lat="46.21856" lon="4.69324">
        <ele>496.871734619</ele>
        <time>2015-11-05T08:43:18.276Z</time>
      </trkpt>
      <trkpt lat="46.21855" lon="4.69313">
        <ele>495.577880859</ele>
        <time>2015-11-05T08:43:23.305Z</time>
      </trkpt>
      <trkpt lat="46.21855" lon="4.69311">
        <ele>495.320495605</ele>
        <time>2015-11-05T08:43:24.277Z</time>
      </trkpt>
      <trkpt lat="46.21854" lon="4.693">
        <ele>494.271575928</ele>
        <time>2015-11-05T08:43:29.339Z</time>
      </trkpt>
      <trkpt lat="46.21855" lon="4.69297">
        <ele>494.140686035</ele>
        <time>2015-11-05T08:43:30.281Z</time>
      </trkpt>
      <trkpt lat="46.21857" lon="4.69285">
        <ele>494.137451172</ele>
        <time>2015-11-05T08:43:40.292Z</time>
      </trkpt>
      <trkpt lat="46.21857" lon="4.69284">
        <ele>494.271514893</ele>
        <time>2015-11-05T08:43:41.279Z</time>
      </trkpt>
      <trkpt lat="46.21863" lon="4.69275">
        <ele>495.277862549</ele>
        <time>2015-11-05T08:43:51.289Z</time>
      </trkpt>
      <trkpt lat="46.21863" lon="4.69274">
        <ele>495.297058105</ele>
        <time>2015-11-05T08:43:52.281Z</time>
      </trkpt>
      <trkpt lat="46.21866" lon="4.69267">
        <ele>495.063903809</ele>
        <time>2015-11-05T08:43:56.335Z</time>
      </trkpt>
      <trkpt lat="46.21867" lon="4.69262">
        <ele>495.083831787</ele>
        <time>2015-11-05T08:43:57.283Z</time>
      </trkpt>
      <trkpt lat="46.21872" lon="4.69251">
        <ele>495.34173584</ele>
        <time>2015-11-05T08:44:03.3Z</time>
      </trkpt>
      <trkpt lat="46.21873" lon="4.69248">
        <ele>495.303619385</ele>
        <time>2015-11-05T08:44:04.295Z</time>
      </trkpt>
      <trkpt lat="46.21876" lon="4.69239">
        <ele>495.279876709</ele>
        <time>2015-11-05T08:44:08.424Z</time>
      </trkpt>
      <trkpt lat="46.21876" lon="4.69236">
        <ele>495.15222168</ele>
        <time>2015-11-05T08:44:09.289Z</time>
      </trkpt>
      <trkpt lat="46.21878" lon="4.69224">
        <ele>494.481262207</ele>
        <time>2015-11-05T08:44:15.302Z</time>
      </trkpt>
      <trkpt lat="46.21878" lon="4.69221">
        <ele>494.251495361</ele>
        <time>2015-11-05T08:44:16.304Z</time>
      </trkpt>
      <trkpt lat="46.2188" lon="4.69209">
        <ele>493.41293335</ele>
        <time>2015-11-05T08:44:21.308Z</time>
      </trkpt>
      <trkpt lat="46.2188" lon="4.69206">
        <ele>493.277038574</ele>
        <time>2015-11-05T08:44:22.297Z</time>
      </trkpt>
      <trkpt lat="46.21883" lon="4.69196">
        <ele>492.059570312</ele>
        <time>2015-11-05T08:44:30.296Z</time>
      </trkpt>
      <trkpt lat="46.21883" lon="4.69193">
        <ele>491.835968018</ele>
        <time>2015-11-05T08:44:31.289Z</time>
      </trkpt>
      <trkpt lat="46.21883" lon="4.69182">
        <ele>490.575592041</ele>
        <time>2015-11-05T08:44:38.3Z</time>
      </trkpt>
      <trkpt lat="46.21883" lon="4.69179">
        <ele>490.269744873</ele>
        <time>2015-11-05T08:44:39.288Z</time>
      </trkpt>
      <trkpt lat="46.21884" lon="4.69166">
        <ele>488.992431641</ele>
        <time>2015-11-05T08:44:45.296Z</time>
      </trkpt>
      <trkpt lat="46.21884" lon="4.69164">
        <ele>488.881256104</ele>
        <time>2015-11-05T08:44:46.289Z</time>
      </trkpt>
      <trkpt lat="46.21886" lon="4.69152">
        <ele>488.202514648</ele>
        <time>2015-11-05T08:44:52.302Z</time>
      </trkpt>
      <trkpt lat="46.21886" lon="4.69149">
        <ele>488.073608398</ele>
        <time>2015-11-05T08:44:53.321Z</time>
      </trkpt>
      <trkpt lat="46.21887" lon="4.69137">
        <ele>487.198364258</ele>
        <time>2015-11-05T08:45:01.295Z</time>
      </trkpt>
      <trkpt lat="46.21888" lon="4.69135">
        <ele>487.026550293</ele>
        <time>2015-11-05T08:45:02.312Z</time>
      </trkpt>
      <trkpt lat="46.21889" lon="4.69123">
        <ele>485.779846191</ele>
        <time>2015-11-05T08:45:08.301Z</time>
      </trkpt>
      <trkpt lat="46.21889" lon="4.69122">
        <ele>485.563873291</ele>
        <time>2015-11-05T08:45:09.285Z</time>
      </trkpt>
      <trkpt lat="46.21887" lon="4.69109">
        <ele>484.017791748</ele>
        <time>2015-11-05T08:45:18.335Z</time>
      </trkpt>
      <trkpt lat="46.21887" lon="4.69108">
        <ele>483.846710205</ele>
        <time>2015-11-05T08:45:19.284Z</time>
      </trkpt>
      <trkpt lat="46.21888" lon="4.69096">
        <ele>482.239471436</ele>
        <time>2015-11-05T08:45:25.33Z</time>
      </trkpt>
      <trkpt lat="46.21888" lon="4.69094">
        <ele>481.873474121</ele>
        <time>2015-11-05T08:45:26.287Z</time>
      </trkpt>
      <trkpt lat="46.21889" lon="4.69083">
        <ele>480.840362549</ele>
        <time>2015-11-05T08:45:31.298Z</time>
      </trkpt>
      <trkpt lat="46.21889" lon="4.69081">
        <ele>480.672210693</ele>
        <time>2015-11-05T08:45:32.293Z</time>
      </trkpt>
      <trkpt lat="46.21892" lon="4.69069">
        <ele>479.238586426</ele>
        <time>2015-11-05T08:45:39.3Z</time>
      </trkpt>
      <trkpt lat="46.21892" lon="4.69068">
        <ele>479.061340332</ele>
        <time>2015-11-05T08:45:40.283Z</time>
      </trkpt>
      <trkpt lat="46.21897" lon="4.69057">
        <ele>478.190246582</ele>
        <time>2015-11-05T08:45:47.3Z</time>
      </trkpt>
      <trkpt lat="46.21898" lon="4.69056">
        <ele>478.061737061</ele>
        <time>2015-11-05T08:45:48.281Z</time>
      </trkpt>
      <trkpt lat="46.21901" lon="4.69047">
        <ele>476.897277832</ele>
        <time>2015-11-05T08:45:54.318Z</time>
      </trkpt>
      <trkpt lat="46.21903" lon="4.69045">
        <ele>476.652526855</ele>
        <time>2015-11-05T08:45:55.317Z</time>
      </trkpt>
      <trkpt lat="46.21907" lon="4.69035">
        <ele>475.537078857</ele>
        <time>2015-11-05T08:46:01.304Z</time>
      </trkpt>
      <trkpt lat="46.21908" lon="4.69033">
        <ele>475.350189209</ele>
        <time>2015-11-05T08:46:02.289Z</time>
      </trkpt>
      <trkpt lat="46.21913" lon="4.69023">
        <ele>474.600585938</ele>
        <time>2015-11-05T08:46:07.308Z</time>
      </trkpt>
      <trkpt lat="46.21914" lon="4.69021">
        <ele>474.447021484</ele>
        <time>2015-11-05T08:46:08.287Z</time>
      </trkpt>
      <trkpt lat="46.21919" lon="4.69013">
        <ele>473.545257568</ele>
        <time>2015-11-05T08:46:14.297Z</time>
      </trkpt>
      <trkpt lat="46.2192" lon="4.6901">
        <ele>473.353790283</ele>
        <time>2015-11-05T08:46:15.285Z</time>
      </trkpt>
      <trkpt lat="46.21924" lon="4.69">
        <ele>472.299621582</ele>
        <time>2015-11-05T08:46:22.318Z</time>
      </trkpt>
      <trkpt lat="46.21925" lon="4.68998">
        <ele>472.127960205</ele>
        <time>2015-11-05T08:46:23.289Z</time>
      </trkpt>
      <trkpt lat="46.21929" lon="4.68988">
        <ele>471.198028564</ele>
        <time>2015-11-05T08:46:28.344Z</time>
      </trkpt>
      <trkpt lat="46.2193" lon="4.68986">
        <ele>470.976531982</ele>
        <time>2015-11-05T08:46:29.301Z</time>
      </trkpt>
      <trkpt lat="46.21934" lon="4.68976">
        <ele>469.711608887</ele>
        <time>2015-11-05T08:46:34.296Z</time>
      </trkpt>
      <trkpt lat="46.21934" lon="4.68974">
        <ele>469.486236572</ele>
        <time>2015-11-05T08:46:35.289Z</time>
      </trkpt>
      <trkpt lat="46.21939" lon="4.68964">
        <ele>468.104156494</ele>
        <time>2015-11-05T08:46:41.31Z</time>
      </trkpt>
      <trkpt lat="46.2194" lon="4.68962">
        <ele>467.915405273</ele>
        <time>2015-11-05T08:46:42.284Z</time>
      </trkpt>
      <trkpt lat="46.21946" lon="4.68954">
        <ele>466.562164307</ele>
        <time>2015-11-05T08:46:50.307Z</time>
      </trkpt>
      <trkpt lat="46.21947" lon="4.68954">
        <ele>466.448120117</ele>
        <time>2015-11-05T08:46:51.285Z</time>
      </trkpt>
      <trkpt lat="46.21955" lon="4.68949">
        <ele>465.591125488</ele>
        <time>2015-11-05T08:46:58.308Z</time>
      </trkpt>
      <trkpt lat="46.21957" lon="4.68949">
        <ele>465.435760498</ele>
        <time>2015-11-05T08:46:59.291Z</time>
      </trkpt>
      <trkpt lat="46.21965" lon="4.68945">
        <ele>464.094726562</ele>
        <time>2015-11-05T08:47:07.366Z</time>
      </trkpt>
      <trkpt lat="46.21966" lon="4.68944">
        <ele>463.956665039</ele>
        <time>2015-11-05T08:47:08.356Z</time>
      </trkpt>
      <trkpt lat="46.21974" lon="4.6894">
        <ele>463.233123779</ele>
        <time>2015-11-05T08:47:16.377Z</time>
      </trkpt>
      <trkpt lat="46.21975" lon="4.6894">
        <ele>463.142730713</ele>
        <time>2015-11-05T08:47:17.268Z</time>
      </trkpt>
      <trkpt lat="46.21984" lon="4.68936">
        <ele>462.637420654</ele>
        <time>2015-11-05T08:47:23.306Z</time>
      </trkpt>
      <trkpt lat="46.21985" lon="4.68935">
        <ele>462.524230957</ele>
        <time>2015-11-05T08:47:24.298Z</time>
      </trkpt>
      <trkpt lat="46.21992" lon="4.68935">
        <ele>461.845855713</ele>
        <time>2015-11-05T08:47:29.28Z</time>
      </trkpt>
      <trkpt lat="46.21995" lon="4.68934">
        <ele>461.666320801</ele>
        <time>2015-11-05T08:47:30.275Z</time>
      </trkpt>
      <trkpt lat="46.22003" lon="4.68935">
        <ele>460.479492188</ele>
        <time>2015-11-05T08:47:37.278Z</time>
      </trkpt>
      <trkpt lat="46.22004" lon="4.68935">
        <ele>460.3515625</ele>
        <time>2015-11-05T08:47:38.268Z</time>
      </trkpt>
      <trkpt lat="46.22013" lon="4.68933">
        <ele>459.117462158</ele>
        <time>2015-11-05T08:47:44.286Z</time>
      </trkpt>
      <trkpt lat="46.22014" lon="4.68933">
        <ele>458.914520264</ele>
        <time>2015-11-05T08:47:45.263Z</time>
      </trkpt>
      <trkpt lat="46.22022" lon="4.68931">
        <ele>458.007202148</ele>
        <time>2015-11-05T08:47:52.286Z</time>
      </trkpt>
      <trkpt lat="46.22023" lon="4.68931">
        <ele>457.94140625</ele>
        <time>2015-11-05T08:47:53.273Z</time>
      </trkpt>
      <trkpt lat="46.22032" lon="4.6893">
        <ele>457.2762146</ele>
        <time>2015-11-05T08:48:01.263Z</time>
      </trkpt>
      <trkpt lat="46.22033" lon="4.68929">
        <ele>457.130218506</ele>
        <time>2015-11-05T08:48:02.269Z</time>
      </trkpt>
      <trkpt lat="46.2204" lon="4.68928">
        <ele>456.496795654</ele>
        <time>2015-11-05T08:48:07.305Z</time>
      </trkpt>
      <trkpt lat="46.22042" lon="4.68928">
        <ele>456.367401123</ele>
        <time>2015-11-05T08:48:08.282Z</time>
      </trkpt>
      <trkpt lat="46.2205" lon="4.68925">
        <ele>455.753448486</ele>
        <time>2015-11-05T08:48:14.278Z</time>
      </trkpt>
      <trkpt lat="46.22052" lon="4.68925">
        <ele>455.676879883</ele>
        <time>2015-11-05T08:48:15.265Z</time>
      </trkpt>
      <trkpt lat="46.2206" lon="4.68923">
        <ele>455.496307373</ele>
        <time>2015-11-05T08:48:20.284Z</time>
      </trkpt>
      <trkpt lat="46.22061" lon="4.68922">
        <ele>455.509063721</ele>
        <time>2015-11-05T08:48:21.271Z</time>
      </trkpt>
      <trkpt lat="46.22067" lon="4.68913">
        <ele>454.562469482</ele>
        <time>2015-11-05T08:48:28.279Z</time>
      </trkpt>
      <trkpt lat="46.22068" lon="4.68912">
        <ele>454.323272705</ele>
        <time>2015-11-05T08:48:29.269Z</time>
      </trkpt>
      <trkpt lat="46.22071" lon="4.68902">
        <ele>453.101013184</ele>
        <time>2015-11-05T08:48:35.29Z</time>
      </trkpt>
      <trkpt lat="46.22072" lon="4.689">
        <ele>452.924407959</ele>
        <time>2015-11-05T08:48:36.286Z</time>
      </trkpt>
      <trkpt lat="46.22075" lon="4.68889">
        <ele>451.78515625</ele>
        <time>2015-11-05T08:48:42.323Z</time>
      </trkpt>
      <trkpt lat="46.22076" lon="4.68887">
        <ele>451.567230225</ele>
        <time>2015-11-05T08:48:43.271Z</time>
      </trkpt>
      <trkpt lat="46.2208" lon="4.68877">
        <ele>450.365692139</ele>
        <time>2015-11-05T08:48:50.303Z</time>
      </trkpt>
      <trkpt lat="46.22081" lon="4.68876">
        <ele>450.249237061</ele>
        <time>2015-11-05T08:48:51.27Z</time>
      </trkpt>
      <trkpt lat="46.22084" lon="4.68865">
        <ele>449.67288208</ele>
        <time>2015-11-05T08:48:59.291Z</time>
      </trkpt>
      <trkpt lat="46.22084" lon="4.68861">
        <ele>449.525848389</ele>
        <time>2015-11-05T08:49:00.271Z</time>
      </trkpt>
      <trkpt lat="46.22086" lon="4.6885">
        <ele>448.920959473</ele>
        <time>2015-11-05T08:49:05.307Z</time>
      </trkpt>
      <trkpt lat="46.22086" lon="4.68849">
        <ele>448.804504395</ele>
        <time>2015-11-05T08:49:06.268Z</time>
      </trkpt>
      <trkpt lat="46.22091" lon="4.68838">
        <ele>448.178710938</ele>
        <time>2015-11-05T08:49:12.27Z</time>
      </trkpt>
      <trkpt lat="46.22091" lon="4.68837">
        <ele>448.060058594</ele>
        <time>2015-11-05T08:49:13.277Z</time>
      </trkpt>
      <trkpt lat="46.22094" lon="4.68827">
        <ele>446.430236816</ele>
        <time>2015-11-05T08:49:21.287Z</time>
      </trkpt>
      <trkpt lat="46.22094" lon="4.68824">
        <ele>446.169586182</ele>
        <time>2015-11-05T08:49:22.272Z</time>
      </trkpt>
      <trkpt lat="46.22092" lon="4.68812">
        <ele>444.375152588</ele>
        <time>2015-11-05T08:49:30.306Z</time>
      </trkpt>
      <trkpt lat="46.22091" lon="4.6881">
        <ele>444.118225098</ele>
        <time>2015-11-05T08:49:31.288Z</time>
      </trkpt>
      <trkpt lat="46.22085" lon="4.68803">
        <ele>442.559020996</ele>
        <time>2015-11-05T08:49:38.298Z</time>
      </trkpt>
      <trkpt lat="46.22083" lon="4.68802">
        <ele>442.378448486</ele>
        <time>2015-11-05T08:49:39.288Z</time>
      </trkpt>
      <trkpt lat="46.22076" lon="4.68799">
        <ele>441.468566895</ele>
        <time>2015-11-05T08:49:45.302Z</time>
      </trkpt>
      <trkpt lat="46.22075" lon="4.68798">
        <ele>441.231536865</ele>
        <time>2015-11-05T08:49:46.293Z</time>
      </trkpt>
      <trkpt lat="46.22067" lon="4.68795">
        <ele>440.749206543</ele>
        <time>2015-11-05T08:49:52.314Z</time>
      </trkpt>
      <trkpt lat="46.22065" lon="4.68794">
        <ele>440.613983154</ele>
        <time>2015-11-05T08:49:53.292Z</time>
      </trkpt>
      <trkpt lat="46.22058" lon="4.68791">
        <ele>439.229064941</ele>
        <time>2015-11-05T08:49:58.296Z</time>
      </trkpt>
      <trkpt lat="46.22057" lon="4.68791">
        <ele>438.901062012</ele>
        <time>2015-11-05T08:49:59.279Z</time>
      </trkpt>
      <trkpt lat="46.22048" lon="4.68788">
        <ele>437.952362061</ele>
        <time>2015-11-05T08:50:05.304Z</time>
      </trkpt>
      <trkpt lat="46.22046" lon="4.68788">
        <ele>437.858825684</ele>
        <time>2015-11-05T08:50:06.278Z</time>
      </trkpt>
      <trkpt lat="46.22039" lon="4.68788">
        <ele>437.62310791</ele>
        <time>2015-11-05T08:50:11.27Z</time>
      </trkpt>
      <trkpt lat="46.22037" lon="4.68788">
        <ele>437.582672119</ele>
        <time>2015-11-05T08:50:12.259Z</time>
      </trkpt>
      <trkpt lat="46.2203" lon="4.68786">
        <ele>436.998413086</ele>
        <time>2015-11-05T08:50:18.331Z</time>
      </trkpt>
      <trkpt lat="46.22028" lon="4.68785">
        <ele>436.862701416</ele>
        <time>2015-11-05T08:50:19.272Z</time>
      </trkpt>
      <trkpt lat="46.22021" lon="4.68785">
        <ele>436.467529297</ele>
        <time>2015-11-05T08:50:23.308Z</time>
      </trkpt>
      <trkpt lat="46.22019" lon="4.68785">
        <ele>436.371459961</ele>
        <time>2015-11-05T08:50:24.284Z</time>
      </trkpt>
      <trkpt lat="46.2201" lon="4.68784">
        <ele>435.675079346</ele>
        <time>2015-11-05T08:50:30.414Z</time>
      </trkpt>
      <trkpt lat="46.22009" lon="4.68784">
        <ele>435.549957275</ele>
        <time>2015-11-05T08:50:31.28Z</time>
      </trkpt>
      <trkpt lat="46.22" lon="4.68785">
        <ele>434.920135498</ele>
        <time>2015-11-05T08:50:37.296Z</time>
      </trkpt>
      <trkpt lat="46.21999" lon="4.68786">
        <ele>434.891601562</ele>
        <time>2015-11-05T08:50:38.279Z</time>
      </trkpt>
      <trkpt lat="46.21991" lon="4.68786">
        <ele>434.758789062</ele>
        <time>2015-11-05T08:50:43.291Z</time>
      </trkpt>
      <trkpt lat="46.2199" lon="4.68786">
        <ele>434.730895996</ele>
        <time>2015-11-05T08:50:44.278Z</time>
      </trkpt>
      <trkpt lat="46.21981" lon="4.68787">
        <ele>434.621429443</ele>
        <time>2015-11-05T08:50:50.292Z</time>
      </trkpt>
      <trkpt lat="46.2198" lon="4.68787">
        <ele>434.570007324</ele>
        <time>2015-11-05T08:50:51.274Z</time>
      </trkpt>
      <trkpt lat="46.21971" lon="4.68788">
        <ele>434.26953125</ele>
        <time>2015-11-05T08:50:58.292Z</time>
      </trkpt>
      <trkpt lat="46.21969" lon="4.68788">
        <ele>434.218383789</ele>
        <time>2015-11-05T08:50:59.28Z</time>
      </trkpt>
      <trkpt lat="46.21961" lon="4.68789">
        <ele>434.029418945</ele>
        <time>2015-11-05T08:51:05.296Z</time>
      </trkpt>
      <trkpt lat="46.21959" lon="4.68789">
        <ele>434.00894165</ele>
        <time>2015-11-05T08:51:06.287Z</time>
      </trkpt>
      <trkpt lat="46.21951" lon="4.6879">
        <ele>433.698364258</ele>
        <time>2015-11-05T08:51:12.278Z</time>
      </trkpt>
      <trkpt lat="46.2195" lon="4.68791">
        <ele>433.67868042</ele>
        <time>2015-11-05T08:51:13.28Z</time>
      </trkpt>
      <trkpt lat="46.21941" lon="4.68793">
        <ele>433.390808105</ele>
        <time>2015-11-05T08:51:19.313Z</time>
      </trkpt>
      <trkpt lat="46.21939" lon="4.68793">
        <ele>433.412658691</ele>
        <time>2015-11-05T08:51:20.291Z</time>
      </trkpt>
      <trkpt lat="46.21931" lon="4.68793">
        <ele>433.430908203</ele>
        <time>2015-11-05T08:51:26.293Z</time>
      </trkpt>
      <trkpt lat="46.21929" lon="4.68793">
        <ele>433.388061523</ele>
        <time>2015-11-05T08:51:27.281Z</time>
      </trkpt>
      <trkpt lat="46.21922" lon="4.68795">
        <ele>433.274963379</ele>
        <time>2015-11-05T08:51:33.383Z</time>
      </trkpt>
      <trkpt lat="46.2192" lon="4.68797">
        <ele>433.245361328</ele>
        <time>2015-11-05T08:51:34.288Z</time>
      </trkpt>
      <trkpt lat="46.21912" lon="4.688">
        <ele>433.271636963</ele>
        <time>2015-11-05T08:51:40.298Z</time>
      </trkpt>
      <trkpt lat="46.21911" lon="4.688">
        <ele>433.337005615</ele>
        <time>2015-11-05T08:51:41.285Z</time>
      </trkpt>
      <trkpt lat="46.21903" lon="4.68802">
        <ele>433.282653809</ele>
        <time>2015-11-05T08:51:47.306Z</time>
      </trkpt>
      <trkpt lat="46.21902" lon="4.68803">
        <ele>433.315185547</ele>
        <time>2015-11-05T08:51:48.282Z</time>
      </trkpt>
      <trkpt lat="46.21895" lon="4.68805">
        <ele>433.246551514</ele>
        <time>2015-11-05T08:51:53.307Z</time>
      </trkpt>
      <trkpt lat="46.21893" lon="4.68806">
        <ele>433.21887207</ele>
        <time>2015-11-05T08:51:54.282Z</time>
      </trkpt>
      <trkpt lat="46.21885" lon="4.68809">
        <ele>433.129364014</ele>
        <time>2015-11-05T08:52:00.314Z</time>
      </trkpt>
      <trkpt lat="46.21884" lon="4.6881">
        <ele>433.182250977</ele>
        <time>2015-11-05T08:52:01.275Z</time>
      </trkpt>
      <trkpt lat="46.21877" lon="4.68814">
        <ele>433.444366455</ele>
        <time>2015-11-05T08:52:07.304Z</time>
      </trkpt>
      <trkpt lat="46.21875" lon="4.68815">
        <ele>433.441070557</ele>
        <time>2015-11-05T08:52:08.285Z</time>
      </trkpt>
      <trkpt lat="46.21867" lon="4.68819">
        <ele>433.446655273</ele>
        <time>2015-11-05T08:52:14.296Z</time>
      </trkpt>
      <trkpt lat="46.21865" lon="4.6882">
        <ele>433.50592041</ele>
        <time>2015-11-05T08:52:15.295Z</time>
      </trkpt>
      <trkpt lat="46.21858" lon="4.68825">
        <ele>433.485198975</ele>
        <time>2015-11-05T08:52:21.307Z</time>
      </trkpt>
      <trkpt lat="46.21857" lon="4.68826">
        <ele>433.384094238</ele>
        <time>2015-11-05T08:52:22.275Z</time>
      </trkpt>
      <trkpt lat="46.2185" lon="4.68832">
        <ele>432.721832275</ele>
        <time>2015-11-05T08:52:27.294Z</time>
      </trkpt>
      <trkpt lat="46.21849" lon="4.68833">
        <ele>432.706848145</ele>
        <time>2015-11-05T08:52:28.273Z</time>
      </trkpt>
      <trkpt lat="46.21841" lon="4.68838">
        <ele>432.527832031</ele>
        <time>2015-11-05T08:52:34.297Z</time>
      </trkpt>
      <trkpt lat="46.21841" lon="4.68838">
        <ele>432.586639404</ele>
        <time>2015-11-05T08:52:35.278Z</time>
      </trkpt>
      <trkpt lat="46.21833" lon="4.6884">
        <ele>432.4190979</ele>
        <time>2015-11-05T08:52:40.313Z</time>
      </trkpt>
      <trkpt lat="46.21831" lon="4.6884">
        <ele>432.451782227</ele>
        <time>2015-11-05T08:52:41.275Z</time>
      </trkpt>
      <trkpt lat="46.21823" lon="4.68847">
        <ele>432.36050415</ele>
        <time>2015-11-05T08:52:48.28Z</time>
      </trkpt>
      <trkpt lat="46.21822" lon="4.68849">
        <ele>432.238250732</ele>
        <time>2015-11-05T08:52:49.268Z</time>
      </trkpt>
      <trkpt lat="46.21814" lon="4.68854">
        <ele>432.185211182</ele>
        <time>2015-11-05T08:52:54.277Z</time>
      </trkpt>
      <trkpt lat="46.21814" lon="4.68855">
        <ele>432.205230713</ele>
        <time>2015-11-05T08:52:55.273Z</time>
      </trkpt>
      <trkpt lat="46.21806" lon="4.6886">
        <ele>431.853363037</ele>
        <time>2015-11-05T08:53:02.288Z</time>
      </trkpt>
      <trkpt lat="46.21804" lon="4.6886">
        <ele>431.757446289</ele>
        <time>2015-11-05T08:53:03.268Z</time>
      </trkpt>
      <trkpt lat="46.21796" lon="4.68861">
        <ele>431.405761719</ele>
        <time>2015-11-05T08:53:08.277Z</time>
      </trkpt>
      <trkpt lat="46.21795" lon="4.68861">
        <ele>431.305175781</ele>
        <time>2015-11-05T08:53:09.268Z</time>
      </trkpt>
      <trkpt lat="46.21787" lon="4.68866">
        <ele>430.578308105</ele>
        <time>2015-11-05T08:53:16.281Z</time>
      </trkpt>
      <trkpt lat="46.21786" lon="4.68867">
        <ele>430.5105896</ele>
        <time>2015-11-05T08:53:17.252Z</time>
      </trkpt>
      <trkpt lat="46.21778" lon="4.68871">
        <ele>430.248931885</ele>
        <time>2015-11-05T08:53:23.299Z</time>
      </trkpt>
      <trkpt lat="46.21776" lon="4.68872">
        <ele>430.265258789</ele>
        <time>2015-11-05T08:53:24.308Z</time>
      </trkpt>
      <trkpt lat="46.21768" lon="4.68876">
        <ele>430.022125244</ele>
        <time>2015-11-05T08:53:30.288Z</time>
      </trkpt>
      <trkpt lat="46.21767" lon="4.68877">
        <ele>429.975921631</ele>
        <time>2015-11-05T08:53:31.304Z</time>
      </trkpt>
      <trkpt lat="46.21758" lon="4.68879">
        <ele>429.365447998</ele>
        <time>2015-11-05T08:53:37.296Z</time>
      </trkpt>
      <trkpt lat="46.21756" lon="4.6888">
        <ele>429.199188232</ele>
        <time>2015-11-05T08:53:38.277Z</time>
      </trkpt>
      <trkpt lat="46.2175" lon="4.68885">
        <ele>429.13067627</ele>
        <time>2015-11-05T08:53:44.286Z</time>
      </trkpt>
      <trkpt lat="46.21748" lon="4.68886">
        <ele>429.09286499</ele>
        <time>2015-11-05T08:53:45.278Z</time>
      </trkpt>
      <trkpt lat="46.2174" lon="4.68892">
        <ele>428.813232422</ele>
        <time>2015-11-05T08:53:53.3Z</time>
      </trkpt>
      <trkpt lat="46.21739" lon="4.68893">
        <ele>428.749420166</ele>
        <time>2015-11-05T08:53:54.28Z</time>
      </trkpt>
      <trkpt lat="46.21731" lon="4.68895">
        <ele>428.66418457</ele>
        <time>2015-11-05T08:53:59.289Z</time>
      </trkpt>
      <trkpt lat="46.2173" lon="4.68896">
        <ele>428.572631836</ele>
        <time>2015-11-05T08:54:00.293Z</time>
      </trkpt>
      <trkpt lat="46.21723" lon="4.68903">
        <ele>428.320129395</ele>
        <time>2015-11-05T08:54:09.301Z</time>
      </trkpt>
      <trkpt lat="46.21722" lon="4.68904">
        <ele>428.438812256</ele>
        <time>2015-11-05T08:54:10.29Z</time>
      </trkpt>
      <trkpt lat="46.21713" lon="4.68903">
        <ele>428.813201904</ele>
        <time>2015-11-05T08:54:23.296Z</time>
      </trkpt>
      <trkpt lat="46.21713" lon="4.68901">
        <ele>428.776184082</ele>
        <time>2015-11-05T08:54:24.289Z</time>
      </trkpt>
      <trkpt lat="46.21709" lon="4.68891">
        <ele>427.693481445</ele>
        <time>2015-11-05T08:54:31.29Z</time>
      </trkpt>
      <trkpt lat="46.21709" lon="4.68888">
        <ele>427.506408691</ele>
        <time>2015-11-05T08:54:32.278Z</time>
      </trkpt>
      <trkpt lat="46.21707" lon="4.68875">
        <ele>427.317932129</ele>
        <time>2015-11-05T08:54:38.32Z</time>
      </trkpt>
      <trkpt lat="46.21706" lon="4.68874">
        <ele>427.313537598</ele>
        <time>2015-11-05T08:54:39.271Z</time>
      </trkpt>
      <trkpt lat="46.21702" lon="4.68863">
        <ele>427.083892822</ele>
        <time>2015-11-05T08:54:46.291Z</time>
      </trkpt>
      <trkpt lat="46.21702" lon="4.68861">
        <ele>426.970825195</ele>
        <time>2015-11-05T08:54:47.292Z</time>
      </trkpt>
      <trkpt lat="46.21697" lon="4.68852">
        <ele>426.565979004</ele>
        <time>2015-11-05T08:54:55.29Z</time>
      </trkpt>
      <trkpt lat="46.21696" lon="4.68851">
        <ele>426.646942139</ele>
        <time>2015-11-05T08:54:56.29Z</time>
      </trkpt>
      <trkpt lat="46.2169" lon="4.68842">
        <ele>426.527954102</ele>
        <time>2015-11-05T08:55:02.267Z</time>
      </trkpt>
      <trkpt lat="46.21688" lon="4.6884">
        <ele>426.527160645</ele>
        <time>2015-11-05T08:55:03.278Z</time>
      </trkpt>
      <trkpt lat="46.21684" lon="4.68829">
        <ele>426.441375732</ele>
        <time>2015-11-05T08:55:10.298Z</time>
      </trkpt>
      <trkpt lat="46.21683" lon="4.68826">
        <ele>426.541625977</ele>
        <time>2015-11-05T08:55:11.288Z</time>
      </trkpt>
      <trkpt lat="46.2168" lon="4.68814">
        <ele>427.482391357</ele>
        <time>2015-11-05T08:55:19.288Z</time>
      </trkpt>
      <trkpt lat="46.2168" lon="4.68813">
        <ele>427.603607178</ele>
        <time>2015-11-05T08:55:20.279Z</time>
      </trkpt>
      <trkpt lat="46.21681" lon="4.68801">
        <ele>429.507080078</ele>
        <time>2015-11-05T08:55:30.297Z</time>
      </trkpt>
      <trkpt lat="46.21681" lon="4.68799">
        <ele>429.67276001</ele>
        <time>2015-11-05T08:55:31.292Z</time>
      </trkpt>
      <trkpt lat="46.21682" lon="4.68787">
        <ele>429.55645752</ele>
        <time>2015-11-05T08:55:37.291Z</time>
      </trkpt>
      <trkpt lat="46.21682" lon="4.68785">
        <ele>429.507751465</ele>
        <time>2015-11-05T08:55:38.28Z</time>
      </trkpt>
      <trkpt lat="46.21683" lon="4.68772">
        <ele>429.336273193</ele>
        <time>2015-11-05T08:55:42.329Z</time>
      </trkpt>
      <trkpt lat="46.21684" lon="4.6877">
        <ele>429.25112915</ele>
        <time>2015-11-05T08:55:43.279Z</time>
      </trkpt>
      <trkpt lat="46.21686" lon="4.68758">
        <ele>428.972290039</ele>
        <time>2015-11-05T08:55:47.294Z</time>
      </trkpt>
      <trkpt lat="46.21686" lon="4.68755">
        <ele>428.802032471</ele>
        <time>2015-11-05T08:55:48.287Z</time>
      </trkpt>
      <trkpt lat="46.21685" lon="4.68743">
        <ele>427.886810303</ele>
        <time>2015-11-05T08:55:53.29Z</time>
      </trkpt>
      <trkpt lat="46.21685" lon="4.6874">
        <ele>427.729400635</ele>
        <time>2015-11-05T08:55:54.282Z</time>
      </trkpt>
      <trkpt lat="46.21684" lon="4.6873">
        <ele>426.2784729</ele>
        <time>2015-11-05T08:56:01.303Z</time>
      </trkpt>
      <trkpt lat="46.21683" lon="4.68727">
        <ele>426.121307373</ele>
        <time>2015-11-05T08:56:02.267Z</time>
      </trkpt>
      <trkpt lat="46.2168" lon="4.68715">
        <ele>425.351074219</ele>
        <time>2015-11-05T08:56:08.327Z</time>
      </trkpt>
      <trkpt lat="46.21679" lon="4.68713">
        <ele>425.157684326</ele>
        <time>2015-11-05T08:56:09.275Z</time>
      </trkpt>
      <trkpt lat="46.21676" lon="4.68702">
        <ele>424.088348389</ele>
        <time>2015-11-05T08:56:15.291Z</time>
      </trkpt>
      <trkpt lat="46.21675" lon="4.687">
        <ele>423.734832764</ele>
        <time>2015-11-05T08:56:16.28Z</time>
      </trkpt>
      <trkpt lat="46.21672" lon="4.6869">
        <ele>421.998138428</ele>
        <time>2015-11-05T08:56:23.291Z</time>
      </trkpt>
      <trkpt lat="46.21671" lon="4.68688">
        <ele>421.790466309</ele>
        <time>2015-11-05T08:56:24.278Z</time>
      </trkpt>
      <trkpt lat="46.21669" lon="4.68677">
        <ele>421.325195312</ele>
        <time>2015-11-05T08:56:30.291Z</time>
      </trkpt>
      <trkpt lat="46.21668" lon="4.68675">
        <ele>421.281616211</ele>
        <time>2015-11-05T08:56:31.286Z</time>
      </trkpt>
      <trkpt lat="46.21665" lon="4.68664">
        <ele>420.68069458</ele>
        <time>2015-11-05T08:56:37.287Z</time>
      </trkpt>
      <trkpt lat="46.21665" lon="4.68662">
        <ele>420.535308838</ele>
        <time>2015-11-05T08:56:38.28Z</time>
      </trkpt>
      <trkpt lat="46.21662" lon="4.68651">
        <ele>419.667022705</ele>
        <time>2015-11-05T08:56:44.29Z</time>
      </trkpt>
      <trkpt lat="46.21662" lon="4.68649">
        <ele>419.516052246</ele>
        <time>2015-11-05T08:56:45.307Z</time>
      </trkpt>
      <trkpt lat="46.21659" lon="4.68637">
        <ele>418.764251709</ele>
        <time>2015-11-05T08:56:52.292Z</time>
      </trkpt>
      <trkpt lat="46.21658" lon="4.68635">
        <ele>418.658172607</ele>
        <time>2015-11-05T08:56:53.282Z</time>
      </trkpt>
      <trkpt lat="46.21653" lon="4.68625">
        <ele>417.707794189</ele>
        <time>2015-11-05T08:57:01.292Z</time>
      </trkpt>
      <trkpt lat="46.21652" lon="4.68624">
        <ele>417.583526611</ele>
        <time>2015-11-05T08:57:02.267Z</time>
      </trkpt>
      <trkpt lat="46.21645" lon="4.6862">
        <ele>417.151245117</ele>
        <time>2015-11-05T08:57:09.292Z</time>
      </trkpt>
      <trkpt lat="46.21643" lon="4.68619">
        <ele>417.024536133</ele>
        <time>2015-11-05T08:57:10.282Z</time>
      </trkpt>
      <trkpt lat="46.21635" lon="4.68615">
        <ele>416.346557617</ele>
        <time>2015-11-05T08:57:18.294Z</time>
      </trkpt>
      <trkpt lat="46.21634" lon="4.68614">
        <ele>416.233459473</ele>
        <time>2015-11-05T08:57:19.281Z</time>
      </trkpt>
      <trkpt lat="46.21627" lon="4.6861">
        <ele>416.346221924</ele>
        <time>2015-11-05T08:57:26.331Z</time>
      </trkpt>
      <trkpt lat="46.21626" lon="4.68609">
        <ele>416.265167236</ele>
        <time>2015-11-05T08:57:27.28Z</time>
      </trkpt>
      <trkpt lat="46.21618" lon="4.68605">
        <ele>415.890838623</ele>
        <time>2015-11-05T08:57:33.304Z</time>
      </trkpt>
      <trkpt lat="46.21615" lon="4.68603">
        <ele>415.945861816</ele>
        <time>2015-11-05T08:57:34.298Z</time>
      </trkpt>
      <trkpt lat="46.2161" lon="4.68594">
        <ele>415.422973633</ele>
        <time>2015-11-05T08:57:42.324Z</time>
      </trkpt>
      <trkpt lat="46.2161" lon="4.68592">
        <ele>415.366149902</ele>
        <time>2015-11-05T08:57:43.332Z</time>
      </trkpt>
      <trkpt lat="46.21609" lon="4.68581">
        <ele>416.446624756</ele>
        <time>2015-11-05T08:57:51.381Z</time>
      </trkpt>
      <trkpt lat="46.21609" lon="4.68579">
        <ele>416.498596191</ele>
        <time>2015-11-05T08:57:52.277Z</time>
      </trkpt>
      <trkpt lat="46.21611" lon="4.68567">
        <ele>415.785644531</ele>
        <time>2015-11-05T08:58:00.294Z</time>
      </trkpt>
      <trkpt lat="46.21611" lon="4.68566">
        <ele>415.721405029</ele>
        <time>2015-11-05T08:58:01.299Z</time>
      </trkpt>
      <trkpt lat="46.21615" lon="4.68557">
        <ele>415.342102051</ele>
        <time>2015-11-05T08:58:08.264Z</time>
      </trkpt>
      <trkpt lat="46.21616" lon="4.68555">
        <ele>415.301147461</ele>
        <time>2015-11-05T08:58:09.268Z</time>
      </trkpt>
      <trkpt lat="46.21622" lon="4.68547">
        <ele>414.948425293</ele>
        <time>2015-11-05T08:58:15.278Z</time>
      </trkpt>
      <trkpt lat="46.21623" lon="4.68546">
        <ele>414.805419922</ele>
        <time>2015-11-05T08:58:16.265Z</time>
      </trkpt>
      <trkpt lat="46.21629" lon="4.68539">
        <ele>414.286712646</ele>
        <time>2015-11-05T08:58:21.29Z</time>
      </trkpt>
      <trkpt lat="46.21631" lon="4.68537">
        <ele>414.149536133</ele>
        <time>2015-11-05T08:58:22.294Z</time>
      </trkpt>
      <trkpt lat="46.21637" lon="4.6853">
        <ele>413.724884033</ele>
        <time>2015-11-05T08:58:29.316Z</time>
      </trkpt>
      <trkpt lat="46.21638" lon="4.68529">
        <ele>413.799377441</ele>
        <time>2015-11-05T08:58:30.275Z</time>
      </trkpt>
      <trkpt lat="46.21645" lon="4.68521">
        <ele>413.770507812</ele>
        <time>2015-11-05T08:58:35.288Z</time>
      </trkpt>
      <trkpt lat="46.21646" lon="4.68519">
        <ele>413.642578125</ele>
        <time>2015-11-05T08:58:36.277Z</time>
      </trkpt>
      <trkpt lat="46.21653" lon="4.68514">
        <ele>413.20715332</ele>
        <time>2015-11-05T08:58:41.319Z</time>
      </trkpt>
      <trkpt lat="46.21655" lon="4.68512">
        <ele>413.12487793</ele>
        <time>2015-11-05T08:58:42.266Z</time>
      </trkpt>
      <trkpt lat="46.21663" lon="4.68508">
        <ele>412.054931641</ele>
        <time>2015-11-05T08:58:50.326Z</time>
      </trkpt>
      <trkpt lat="46.21664" lon="4.68508">
        <ele>411.825012207</ele>
        <time>2015-11-05T08:58:51.276Z</time>
      </trkpt>
      <trkpt lat="46.21671" lon="4.68505">
        <ele>411.018188477</ele>
        <time>2015-11-05T08:58:55.288Z</time>
      </trkpt>
      <trkpt lat="46.21672" lon="4.68504">
        <ele>410.790893555</ele>
        <time>2015-11-05T08:58:56.277Z</time>
      </trkpt>
      <trkpt lat="46.21677" lon="4.68495">
        <ele>409.594848633</ele>
        <time>2015-11-05T08:59:01.304Z</time>
      </trkpt>
      <trkpt lat="46.21678" lon="4.68493">
        <ele>409.383087158</ele>
        <time>2015-11-05T08:59:02.279Z</time>
      </trkpt>
      <trkpt lat="46.21684" lon="4.68484">
        <ele>408.427337646</ele>
        <time>2015-11-05T08:59:08.293Z</time>
      </trkpt>
      <trkpt lat="46.21684" lon="4.68482">
        <ele>408.272796631</ele>
        <time>2015-11-05T08:59:09.284Z</time>
      </trkpt>
      <trkpt lat="46.2169" lon="4.68472">
        <ele>407.157653809</ele>
        <time>2015-11-05T08:59:15.353Z</time>
      </trkpt>
      <trkpt lat="46.2169" lon="4.68471">
        <ele>406.989593506</ele>
        <time>2015-11-05T08:59:16.288Z</time>
      </trkpt>
      <trkpt lat="46.21695" lon="4.68462">
        <ele>406.075073242</ele>
        <time>2015-11-05T08:59:22.297Z</time>
      </trkpt>
      <trkpt lat="46.21696" lon="4.6846">
        <ele>405.892120361</ele>
        <time>2015-11-05T08:59:23.279Z</time>
      </trkpt>
      <trkpt lat="46.21701" lon="4.6845">
        <ele>404.068908691</ele>
        <time>2015-11-05T08:59:31.289Z</time>
      </trkpt>
      <trkpt lat="46.21702" lon="4.68448">
        <ele>403.866760254</ele>
        <time>2015-11-05T08:59:32.284Z</time>
      </trkpt>
      <trkpt lat="46.21706" lon="4.68437">
        <ele>402.691253662</ele>
        <time>2015-11-05T08:59:38.291Z</time>
      </trkpt>
      <trkpt lat="46.21707" lon="4.68435">
        <ele>402.492675781</ele>
        <time>2015-11-05T08:59:39.278Z</time>
      </trkpt>
      <trkpt lat="46.21713" lon="4.68425">
        <ele>401.524871826</ele>
        <time>2015-11-05T08:59:45.294Z</time>
      </trkpt>
      <trkpt lat="46.21713" lon="4.68423">
        <ele>401.320068359</ele>
        <time>2015-11-05T08:59:46.278Z</time>
      </trkpt>
      <trkpt lat="46.21717" lon="4.68414">
        <ele>400.248077393</ele>
        <time>2015-11-05T08:59:52.309Z</time>
      </trkpt>
      <trkpt lat="46.21717" lon="4.68412">
        <ele>400.111602783</ele>
        <time>2015-11-05T08:59:53.29Z</time>
      </trkpt>
      <trkpt lat="46.21723" lon="4.68401">
        <ele>399.226196289</ele>
        <time>2015-11-05T08:59:59.299Z</time>
      </trkpt>
      <trkpt lat="46.21724" lon="4.68399">
        <ele>399.057220459</ele>
        <time>2015-11-05T09:00:00.259Z</time>
      </trkpt>
      <trkpt lat="46.21729" lon="4.68389">
        <ele>398.299987793</ele>
        <time>2015-11-05T09:00:06.265Z</time>
      </trkpt>
      <trkpt lat="46.21729" lon="4.68387">
        <ele>398.200286865</ele>
        <time>2015-11-05T09:00:07.279Z</time>
      </trkpt>
      <trkpt lat="46.21733" lon="4.68377">
        <ele>397.595001221</ele>
        <time>2015-11-05T09:00:12.314Z</time>
      </trkpt>
      <trkpt lat="46.21733" lon="4.68375">
        <ele>397.477111816</ele>
        <time>2015-11-05T09:00:13.267Z</time>
      </trkpt>
      <trkpt lat="46.21736" lon="4.68364">
        <ele>396.670654297</ele>
        <time>2015-11-05T09:00:18.301Z</time>
      </trkpt>
      <trkpt lat="46.21736" lon="4.68361">
        <ele>396.494476318</ele>
        <time>2015-11-05T09:00:19.28Z</time>
      </trkpt>
      <trkpt lat="46.21737" lon="4.6835">
        <ele>395.409362793</ele>
        <time>2015-11-05T09:00:26.292Z</time>
      </trkpt>
      <trkpt lat="46.21737" lon="4.68348">
        <ele>395.345062256</ele>
        <time>2015-11-05T09:00:27.279Z</time>
      </trkpt>
      <trkpt lat="46.2174" lon="4.68336">
        <ele>394.193389893</ele>
        <time>2015-11-05T09:00:34.29Z</time>
      </trkpt>
      <trkpt lat="46.21741" lon="4.68333">
        <ele>394.005004883</ele>
        <time>2015-11-05T09:00:35.282Z</time>
      </trkpt>
      <trkpt lat="46.21745" lon="4.68323">
        <ele>393.313171387</ele>
        <time>2015-11-05T09:00:40.291Z</time>
      </trkpt>
      <trkpt lat="46.21747" lon="4.68321">
        <ele>393.287231445</ele>
        <time>2015-11-05T09:00:41.311Z</time>
      </trkpt>
      <trkpt lat="46.21751" lon="4.68313">
        <ele>393.224212646</ele>
        <time>2015-11-05T09:00:45.291Z</time>
      </trkpt>
      <trkpt lat="46.21752" lon="4.6831">
        <ele>393.133514404</ele>
        <time>2015-11-05T09:00:46.28Z</time>
      </trkpt>
      <trkpt lat="46.21757" lon="4.68299">
        <ele>392.658416748</ele>
        <time>2015-11-05T09:00:52.29Z</time>
      </trkpt>
      <trkpt lat="46.21757" lon="4.68297">
        <ele>392.560058594</ele>
        <time>2015-11-05T09:00:53.283Z</time>
      </trkpt>
      <trkpt lat="46.21763" lon="4.68289">
        <ele>391.46697998</ele>
        <time>2015-11-05T09:00:59.347Z</time>
      </trkpt>
      <trkpt lat="46.21764" lon="4.68288">
        <ele>391.310516357</ele>
        <time>2015-11-05T09:01:00.274Z</time>
      </trkpt>
      <trkpt lat="46.21771" lon="4.68284">
        <ele>391.200256348</ele>
        <time>2015-11-05T09:01:05.29Z</time>
      </trkpt>
      <trkpt lat="46.21773" lon="4.68283">
        <ele>391.207519531</ele>
        <time>2015-11-05T09:01:06.262Z</time>
      </trkpt>
      <trkpt lat="46.21781" lon="4.68282">
        <ele>391.171417236</ele>
        <time>2015-11-05T09:01:12.277Z</time>
      </trkpt>
      <trkpt lat="46.21783" lon="4.68282">
        <ele>391.112854004</ele>
        <time>2015-11-05T09:01:13.261Z</time>
      </trkpt>
      <trkpt lat="46.2179" lon="4.6828">
        <ele>390.63885498</ele>
        <time>2015-11-05T09:01:24.293Z</time>
      </trkpt>
      <trkpt lat="46.21792" lon="4.68279">
        <ele>390.530944824</ele>
        <time>2015-11-05T09:01:25.293Z</time>
      </trkpt>
      <trkpt lat="46.21801" lon="4.68278">
        <ele>389.809448242</ele>
        <time>2015-11-05T09:01:31.295Z</time>
      </trkpt>
      <trkpt lat="46.21801" lon="4.68279">
        <ele>389.654510498</ele>
        <time>2015-11-05T09:01:32.285Z</time>
      </trkpt>
      <trkpt lat="46.21809" lon="4.68281">
        <ele>388.931762695</ele>
        <time>2015-11-05T09:01:38.293Z</time>
      </trkpt>
      <trkpt lat="46.21811" lon="4.68282">
        <ele>388.817443848</ele>
        <time>2015-11-05T09:01:39.279Z</time>
      </trkpt>
      <trkpt lat="46.21819" lon="4.68283">
        <ele>387.989715576</ele>
        <time>2015-11-05T09:01:45.289Z</time>
      </trkpt>
      <trkpt lat="46.2182" lon="4.68284">
        <ele>387.826141357</ele>
        <time>2015-11-05T09:01:46.282Z</time>
      </trkpt>
      <trkpt lat="46.21828" lon="4.68286">
        <ele>386.715576172</ele>
        <time>2015-11-05T09:01:53.307Z</time>
      </trkpt>
      <trkpt lat="46.21829" lon="4.68287">
        <ele>386.581695557</ele>
        <time>2015-11-05T09:01:54.28Z</time>
      </trkpt>
      <trkpt lat="46.21838" lon="4.68287">
        <ele>385.914733887</ele>
        <time>2015-11-05T09:02:01.307Z</time>
      </trkpt>
      <trkpt lat="46.2184" lon="4.68287">
        <ele>385.79284668</ele>
        <time>2015-11-05T09:02:02.289Z</time>
      </trkpt>
      <trkpt lat="46.21848" lon="4.68284">
        <ele>385.204223633</ele>
        <time>2015-11-05T09:02:07.301Z</time>
      </trkpt>
      <trkpt lat="46.21848" lon="4.68283">
        <ele>385.098876953</ele>
        <time>2015-11-05T09:02:08.28Z</time>
      </trkpt>
      <trkpt lat="46.21854" lon="4.68273">
        <ele>384.543212891</ele>
        <time>2015-11-05T09:02:14.305Z</time>
      </trkpt>
      <trkpt lat="46.21855" lon="4.68271">
        <ele>384.470581055</ele>
        <time>2015-11-05T09:02:15.281Z</time>
      </trkpt>
      <trkpt lat="46.21859" lon="4.6826">
        <ele>384.025177002</ele>
        <time>2015-11-05T09:02:22.296Z</time>
      </trkpt>
      <trkpt lat="46.2186" lon="4.68258">
        <ele>383.969421387</ele>
        <time>2015-11-05T09:02:23.285Z</time>
      </trkpt>
      <trkpt lat="46.21864" lon="4.68247">
        <ele>383.447296143</ele>
        <time>2015-11-05T09:02:29.329Z</time>
      </trkpt>
      <trkpt lat="46.21864" lon="4.68246">
        <ele>383.356933594</ele>
        <time>2015-11-05T09:02:30.279Z</time>
      </trkpt>
      <trkpt lat="46.21869" lon="4.68236">
        <ele>382.947998047</ele>
        <time>2015-11-05T09:02:36.302Z</time>
      </trkpt>
      <trkpt lat="46.2187" lon="4.68235">
        <ele>382.941894531</ele>
        <time>2015-11-05T09:02:37.284Z</time>
      </trkpt>
      <trkpt lat="46.21877" lon="4.68232">
        <ele>382.51940918</ele>
        <time>2015-11-05T09:02:43.295Z</time>
      </trkpt>
      <trkpt lat="46.21878" lon="4.68232">
        <ele>382.377227783</ele>
        <time>2015-11-05T09:02:44.283Z</time>
      </trkpt>
      <trkpt lat="46.21887" lon="4.6823">
        <ele>381.450286865</ele>
        <time>2015-11-05T09:02:51.288Z</time>
      </trkpt>
      <trkpt lat="46.21889" lon="4.6823">
        <ele>381.332427979</ele>
        <time>2015-11-05T09:02:52.267Z</time>
      </trkpt>
      <trkpt lat="46.21897" lon="4.68228">
        <ele>380.963348389</ele>
        <time>2015-11-05T09:02:58.315Z</time>
      </trkpt>
      <trkpt lat="46.21899" lon="4.68227">
        <ele>380.900268555</ele>
        <time>2015-11-05T09:02:59.269Z</time>
      </trkpt>
      <trkpt lat="46.21906" lon="4.68222">
        <ele>380.455078125</ele>
        <time>2015-11-05T09:03:05.29Z</time>
      </trkpt>
      <trkpt lat="46.21907" lon="4.68221">
        <ele>380.377716064</ele>
        <time>2015-11-05T09:03:06.27Z</time>
      </trkpt>
      <trkpt lat="46.21915" lon="4.68215">
        <ele>379.36541748</ele>
        <time>2015-11-05T09:03:23.278Z</time>
      </trkpt>
      <trkpt lat="46.21915" lon="4.68215">
        <ele>379.309265137</ele>
        <time>2015-11-05T09:03:24.294Z</time>
      </trkpt>
      <trkpt lat="46.21924" lon="4.68212">
        <ele>378.407043457</ele>
        <time>2015-11-05T09:03:34.29Z</time>
      </trkpt>
      <trkpt lat="46.21925" lon="4.68211">
        <ele>378.284515381</ele>
        <time>2015-11-05T09:03:35.282Z</time>
      </trkpt>
      <trkpt lat="46.21933" lon="4.68208">
        <ele>377.64743042</ele>
        <time>2015-11-05T09:03:41.296Z</time>
      </trkpt>
      <trkpt lat="46.21935" lon="4.68208">
        <ele>377.539733887</ele>
        <time>2015-11-05T09:03:42.279Z</time>
      </trkpt>
      <trkpt lat="46.21943" lon="4.68204">
        <ele>376.829498291</ele>
        <time>2015-11-05T09:03:48.289Z</time>
      </trkpt>
      <trkpt lat="46.21944" lon="4.68204">
        <ele>376.691070557</ele>
        <time>2015-11-05T09:03:49.278Z</time>
      </trkpt>
      <trkpt lat="46.21952" lon="4.68199">
        <ele>375.909423828</ele>
        <time>2015-11-05T09:03:56.282Z</time>
      </trkpt>
      <trkpt lat="46.21954" lon="4.68198">
        <ele>375.843048096</ele>
        <time>2015-11-05T09:03:57.269Z</time>
      </trkpt>
      <trkpt lat="46.21962" lon="4.68197">
        <ele>375.270019531</ele>
        <time>2015-11-05T09:04:04.287Z</time>
      </trkpt>
      <trkpt lat="46.21964" lon="4.68197">
        <ele>375.226013184</ele>
        <time>2015-11-05T09:04:05.289Z</time>
      </trkpt>
      <trkpt lat="46.21972" lon="4.68199">
        <ele>374.635009766</ele>
        <time>2015-11-05T09:04:11.288Z</time>
      </trkpt>
      <trkpt lat="46.21974" lon="4.682">
        <ele>374.522277832</ele>
        <time>2015-11-05T09:04:12.253Z</time>
      </trkpt>
      <trkpt lat="46.2198" lon="4.68208">
        <ele>374.028015137</ele>
        <time>2015-11-05T09:04:18.289Z</time>
      </trkpt>
      <trkpt lat="46.21981" lon="4.68209">
        <ele>373.96484375</ele>
        <time>2015-11-05T09:04:19.279Z</time>
      </trkpt>
      <trkpt lat="46.21982" lon="4.68222">
        <ele>373.347015381</ele>
        <time>2015-11-05T09:04:26.292Z</time>
      </trkpt>
      <trkpt lat="46.21982" lon="4.68224">
        <ele>373.198577881</ele>
        <time>2015-11-05T09:04:27.277Z</time>
      </trkpt>
      <trkpt lat="46.21982" lon="4.68236">
        <ele>372.399688721</ele>
        <time>2015-11-05T09:04:32.336Z</time>
      </trkpt>
      <trkpt lat="46.21982" lon="4.68238">
        <ele>372.248291016</ele>
        <time>2015-11-05T09:04:33.279Z</time>
      </trkpt>
      <trkpt lat="46.21981" lon="4.6825">
        <ele>371.492218018</ele>
        <time>2015-11-05T09:04:39.331Z</time>
      </trkpt>
      <trkpt lat="46.2198" lon="4.68251">
        <ele>371.361755371</ele>
        <time>2015-11-05T09:04:40.278Z</time>
      </trkpt>
      <trkpt lat="46.21979" lon="4.68264">
        <ele>370.559112549</ele>
        <time>2015-11-05T09:04:46.304Z</time>
      </trkpt>
      <trkpt lat="46.21979" lon="4.68265">
        <ele>370.430999756</ele>
        <time>2015-11-05T09:04:47.278Z</time>
      </trkpt>
      <trkpt lat="46.21978" lon="4.68277">
        <ele>369.742340088</ele>
        <time>2015-11-05T09:04:53.292Z</time>
      </trkpt>
      <trkpt lat="46.21977" lon="4.68279">
        <ele>369.644165039</ele>
        <time>2015-11-05T09:04:54.277Z</time>
      </trkpt>
      <trkpt lat="46.21975" lon="4.68291">
        <ele>369.002685547</ele>
        <time>2015-11-05T09:05:00.297Z</time>
      </trkpt>
      <trkpt lat="46.21975" lon="4.68294">
        <ele>368.890258789</ele>
        <time>2015-11-05T09:05:01.277Z</time>
      </trkpt>
      <trkpt lat="46.21973" lon="4.68305">
        <ele>368.366638184</ele>
        <time>2015-11-05T09:05:06.288Z</time>
      </trkpt>
      <trkpt lat="46.21972" lon="4.68307">
        <ele>368.34588623</ele>
        <time>2015-11-05T09:05:07.259Z</time>
      </trkpt>
      <trkpt lat="46.2197" lon="4.68317">
        <ele>368.188537598</ele>
        <time>2015-11-05T09:05:12.288Z</time>
      </trkpt>
      <trkpt lat="46.2197" lon="4.68319">
        <ele>368.129364014</ele>
        <time>2015-11-05T09:05:13.278Z</time>
      </trkpt>
      <trkpt lat="46.21967" lon="4.68331">
        <ele>367.743743896</ele>
        <time>2015-11-05T09:05:19.286Z</time>
      </trkpt>
      <trkpt lat="46.21967" lon="4.68333">
        <ele>367.648376465</ele>
        <time>2015-11-05T09:05:20.272Z</time>
      </trkpt>
      <trkpt lat="46.21963" lon="4.68344">
        <ele>367.210083008</ele>
        <time>2015-11-05T09:05:26.323Z</time>
      </trkpt>
      <trkpt lat="46.21963" lon="4.68346">
        <ele>367.138061523</ele>
        <time>2015-11-05T09:05:27.278Z</time>
      </trkpt>
      <trkpt lat="46.21959" lon="4.68357">
        <ele>366.401153564</ele>
        <time>2015-11-05T09:05:34.291Z</time>
      </trkpt>
      <trkpt lat="46.21958" lon="4.68358">
        <ele>366.307861328</ele>
        <time>2015-11-05T09:05:35.315Z</time>
      </trkpt>
      <trkpt lat="46.21952" lon="4.68368">
        <ele>365.757446289</ele>
        <time>2015-11-05T09:05:41.292Z</time>
      </trkpt>
      <trkpt lat="46.21951" lon="4.6837">
        <ele>365.657867432</ele>
        <time>2015-11-05T09:05:42.282Z</time>
      </trkpt>
      <trkpt lat="46.21946" lon="4.68377">
        <ele>365.448699951</ele>
        <time>2015-11-05T09:05:47.29Z</time>
      </trkpt>
      <trkpt lat="46.21945" lon="4.68379">
        <ele>365.382751465</ele>
        <time>2015-11-05T09:05:48.268Z</time>
      </trkpt>
      <trkpt lat="46.2194" lon="4.68386">
        <ele>364.950042725</ele>
        <time>2015-11-05T09:05:53.291Z</time>
      </trkpt>
      <trkpt lat="46.21938" lon="4.68388">
        <ele>364.896057129</ele>
        <time>2015-11-05T09:05:54.286Z</time>
      </trkpt>
      <trkpt lat="46.21933" lon="4.68397">
        <ele>364.108917236</ele>
        <time>2015-11-05T09:06:00.293Z</time>
      </trkpt>
      <trkpt lat="46.21931" lon="4.68399">
        <ele>363.876190186</ele>
        <time>2015-11-05T09:06:01.285Z</time>
      </trkpt>
      <trkpt lat="46.21924" lon="4.68404">
        <ele>363.276702881</ele>
        <time>2015-11-05T09:06:06.292Z</time>
      </trkpt>
      <trkpt lat="46.21923" lon="4.68405">
        <ele>363.265167236</ele>
        <time>2015-11-05T09:06:07.259Z</time>
      </trkpt>
      <trkpt lat="46.21916" lon="4.68411">
        <ele>363.259338379</ele>
        <time>2015-11-05T09:06:12.272Z</time>
      </trkpt>
      <trkpt lat="46.21914" lon="4.68413">
        <ele>363.272003174</ele>
        <time>2015-11-05T09:06:13.274Z</time>
      </trkpt>
      <trkpt lat="46.21909" lon="4.68423">
        <ele>361.940826416</ele>
        <time>2015-11-05T09:06:21.32Z</time>
      </trkpt>
      <trkpt lat="46.21909" lon="4.68424">
        <ele>361.794342041</ele>
        <time>2015-11-05T09:06:22.275Z</time>
      </trkpt>
      <trkpt lat="46.21905" lon="4.68435">
        <ele>361.167144775</ele>
        <time>2015-11-05T09:06:27.291Z</time>
      </trkpt>
      <trkpt lat="46.21905" lon="4.68437">
        <ele>361.043762207</ele>
        <time>2015-11-05T09:06:28.283Z</time>
      </trkpt>
      <trkpt lat="46.21905" lon="4.68448">
        <ele>360.807312012</ele>
        <time>2015-11-05T09:06:33.294Z</time>
      </trkpt>
      <trkpt lat="46.21906" lon="4.68451">
        <ele>360.773071289</ele>
        <time>2015-11-05T09:06:34.28Z</time>
      </trkpt>
      <trkpt lat="46.21908" lon="4.68462">
        <ele>360.705322266</ele>
        <time>2015-11-05T09:06:40.315Z</time>
      </trkpt>
      <trkpt lat="46.21908" lon="4.68464">
        <ele>360.754119873</ele>
        <time>2015-11-05T09:06:41.276Z</time>
      </trkpt>
      <trkpt lat="46.21912" lon="4.68473">
        <ele>361.057220459</ele>
        <time>2015-11-05T09:06:46.29Z</time>
      </trkpt>
      <trkpt lat="46.21913" lon="4.68476">
        <ele>361.063659668</ele>
        <time>2015-11-05T09:06:47.283Z</time>
      </trkpt>
      <trkpt lat="46.21919" lon="4.68484">
        <ele>361.078338623</ele>
        <time>2015-11-05T09:06:51.29Z</time>
      </trkpt>
      <trkpt lat="46.2192" lon="4.68484">
        <ele>361.024017334</ele>
        <time>2015-11-05T09:06:52.28Z</time>
      </trkpt>
      <trkpt lat="46.21928" lon="4.68487">
        <ele>360.674438477</ele>
        <time>2015-11-05T09:06:58.297Z</time>
      </trkpt>
      <trkpt lat="46.2193" lon="4.68487">
        <ele>360.579681396</ele>
        <time>2015-11-05T09:06:59.319Z</time>
      </trkpt>
      <trkpt lat="46.21937" lon="4.68485">
        <ele>360.200256348</ele>
        <time>2015-11-05T09:07:04.337Z</time>
      </trkpt>
      <trkpt lat="46.21939" lon="4.68485">
        <ele>360.134307861</ele>
        <time>2015-11-05T09:07:05.281Z</time>
      </trkpt>
      <trkpt lat="46.21947" lon="4.68481">
        <ele>359.531433105</ele>
        <time>2015-11-05T09:07:12.29Z</time>
      </trkpt>
      <trkpt lat="46.21948" lon="4.68481">
        <ele>359.473358154</ele>
        <time>2015-11-05T09:07:13.288Z</time>
      </trkpt>
      <trkpt lat="46.21956" lon="4.68475">
        <ele>358.742675781</ele>
        <time>2015-11-05T09:07:29.299Z</time>
      </trkpt>
      <trkpt lat="46.21956" lon="4.68474">
        <ele>358.627471924</ele>
        <time>2015-11-05T09:07:30.282Z</time>
      </trkpt>
      <trkpt lat="46.21965" lon="4.68472">
        <ele>356.779693604</ele>
        <time>2015-11-05T09:08:57.3Z</time>
      </trkpt>
      <trkpt lat="46.21965" lon="4.68471">
        <ele>356.685058594</ele>
        <time>2015-11-05T09:08:58.281Z</time>
      </trkpt>
      <trkpt lat="46.21972" lon="4.68467">
        <ele>356.112640381</ele>
        <time>2015-11-05T09:09:04.256Z</time>
      </trkpt>
      <trkpt lat="46.21974" lon="4.68466">
        <ele>355.990386963</ele>
        <time>2015-11-05T09:09:05.297Z</time>
      </trkpt>
      <trkpt lat="46.21981" lon="4.68461">
        <ele>355.429107666</ele>
        <time>2015-11-05T09:09:12.264Z</time>
      </trkpt>
      <trkpt lat="46.21983" lon="4.6846">
        <ele>355.340148926</ele>
        <time>2015-11-05T09:09:13.278Z</time>
      </trkpt>
      <trkpt lat="46.21991" lon="4.68457">
        <ele>354.902587891</ele>
        <time>2015-11-05T09:09:19.297Z</time>
      </trkpt>
      <trkpt lat="46.21992" lon="4.68456">
        <ele>354.776672363</ele>
        <time>2015-11-05T09:09:20.269Z</time>
      </trkpt>
      <trkpt lat="46.22" lon="4.68452">
        <ele>353.739562988</ele>
        <time>2015-11-05T09:09:27.278Z</time>
      </trkpt>
      <trkpt lat="46.22002" lon="4.68452">
        <ele>353.636413574</ele>
        <time>2015-11-05T09:09:28.275Z</time>
      </trkpt>
      <trkpt lat="46.2201" lon="4.6845">
        <ele>352.995391846</ele>
        <time>2015-11-05T09:09:33.286Z</time>
      </trkpt>
      <trkpt lat="46.22011" lon="4.6845">
        <ele>352.874298096</ele>
        <time>2015-11-05T09:09:34.269Z</time>
      </trkpt>
      <trkpt lat="46.2202" lon="4.68448">
        <ele>352.156677246</ele>
        <time>2015-11-05T09:09:40.324Z</time>
      </trkpt>
      <trkpt lat="46.22021" lon="4.68448">
        <ele>352.075317383</ele>
        <time>2015-11-05T09:09:41.27Z</time>
      </trkpt>
      <trkpt lat="46.2203" lon="4.68446">
        <ele>351.702636719</ele>
        <time>2015-11-05T09:09:47.287Z</time>
      </trkpt>
      <trkpt lat="46.2203" lon="4.68446">
        <ele>351.635559082</ele>
        <time>2015-11-05T09:09:48.27Z</time>
      </trkpt>
      <trkpt lat="46.22038" lon="4.68443">
        <ele>351.328155518</ele>
        <time>2015-11-05T09:09:55.279Z</time>
      </trkpt>
      <trkpt lat="46.2204" lon="4.68443">
        <ele>351.27142334</ele>
        <time>2015-11-05T09:09:56.274Z</time>
      </trkpt>
      <trkpt lat="46.22048" lon="4.68442">
        <ele>350.789794922</ele>
        <time>2015-11-05T09:10:02.28Z</time>
      </trkpt>
      <trkpt lat="46.2205" lon="4.68441">
        <ele>350.699371338</ele>
        <time>2015-11-05T09:10:03.275Z</time>
      </trkpt>
      <trkpt lat="46.22058" lon="4.68439">
        <ele>350.51348877</ele>
        <time>2015-11-05T09:10:08.304Z</time>
      </trkpt>
      <trkpt lat="46.22061" lon="4.68438">
        <ele>350.432434082</ele>
        <time>2015-11-05T09:10:09.252Z</time>
      </trkpt>
      <trkpt lat="46.22068" lon="4.68435">
        <ele>350.248962402</ele>
        <time>2015-11-05T09:10:15.298Z</time>
      </trkpt>
      <trkpt lat="46.2207" lon="4.68434">
        <ele>350.221435547</ele>
        <time>2015-11-05T09:10:16.27Z</time>
      </trkpt>
      <trkpt lat="46.22078" lon="4.68431">
        <ele>350.001403809</ele>
        <time>2015-11-05T09:10:21.285Z</time>
      </trkpt>
      <trkpt lat="46.22079" lon="4.6843">
        <ele>349.932250977</ele>
        <time>2015-11-05T09:10:22.282Z</time>
      </trkpt>
      <trkpt lat="46.22087" lon="4.68427">
        <ele>349.389587402</ele>
        <time>2015-11-05T09:10:27.289Z</time>
      </trkpt>
      <trkpt lat="46.22089" lon="4.68427">
        <ele>349.299316406</ele>
        <time>2015-11-05T09:10:28.278Z</time>
      </trkpt>
      <trkpt lat="46.22096" lon="4.68425">
        <ele>348.748962402</ele>
        <time>2015-11-05T09:10:34.281Z</time>
      </trkpt>
      <trkpt lat="46.22097" lon="4.68424">
        <ele>348.640655518</ele>
        <time>2015-11-05T09:10:35.279Z</time>
      </trkpt>
      <trkpt lat="46.22105" lon="4.68423">
        <ele>348.059631348</ele>
        <time>2015-11-05T09:10:41.354Z</time>
      </trkpt>
      <trkpt lat="46.22107" lon="4.68423">
        <ele>347.971008301</ele>
        <time>2015-11-05T09:10:42.28Z</time>
      </trkpt>
      <trkpt lat="46.22115" lon="4.68421">
        <ele>347.226623535</ele>
        <time>2015-11-05T09:10:48.337Z</time>
      </trkpt>
      <trkpt lat="46.22117" lon="4.6842">
        <ele>347.080230713</ele>
        <time>2015-11-05T09:10:49.271Z</time>
      </trkpt>
      <trkpt lat="46.22125" lon="4.68418">
        <ele>346.382141113</ele>
        <time>2015-11-05T09:10:55.286Z</time>
      </trkpt>
      <trkpt lat="46.22127" lon="4.68417">
        <ele>346.289489746</ele>
        <time>2015-11-05T09:10:56.272Z</time>
      </trkpt>
      <trkpt lat="46.22135" lon="4.68415">
        <ele>345.725280762</ele>
        <time>2015-11-05T09:11:01.418Z</time>
      </trkpt>
      <trkpt lat="46.22136" lon="4.68414">
        <ele>345.588989258</ele>
        <time>2015-11-05T09:11:02.275Z</time>
      </trkpt>
      <trkpt lat="46.22144" lon="4.6841">
        <ele>345.02255249</ele>
        <time>2015-11-05T09:11:07.284Z</time>
      </trkpt>
      <trkpt lat="46.22146" lon="4.68409">
        <ele>344.892913818</ele>
        <time>2015-11-05T09:11:08.283Z</time>
      </trkpt>
      <trkpt lat="46.22154" lon="4.68406">
        <ele>344.29498291</ele>
        <time>2015-11-05T09:11:14.269Z</time>
      </trkpt>
      <trkpt lat="46.22155" lon="4.68405">
        <ele>344.20880127</ele>
        <time>2015-11-05T09:11:15.274Z</time>
      </trkpt>
      <trkpt lat="46.22162" lon="4.68401">
        <ele>343.824371338</ele>
        <time>2015-11-05T09:11:20.304Z</time>
      </trkpt>
      <trkpt lat="46.22163" lon="4.684">
        <ele>343.755249023</ele>
        <time>2015-11-05T09:11:21.272Z</time>
      </trkpt>
      <trkpt lat="46.22171" lon="4.68396">
        <ele>343.400970459</ele>
        <time>2015-11-05T09:11:27.292Z</time>
      </trkpt>
      <trkpt lat="46.22173" lon="4.68396">
        <ele>343.384643555</ele>
        <time>2015-11-05T09:11:28.283Z</time>
      </trkpt>
      <trkpt lat="46.22181" lon="4.68391">
        <ele>343.155334473</ele>
        <time>2015-11-05T09:11:34.42Z</time>
      </trkpt>
      <trkpt lat="46.22182" lon="4.6839">
        <ele>343.104095459</ele>
        <time>2015-11-05T09:11:35.284Z</time>
      </trkpt>
      <trkpt lat="46.22189" lon="4.68388">
        <ele>342.988433838</ele>
        <time>2015-11-05T09:11:40.274Z</time>
      </trkpt>
      <trkpt lat="46.22191" lon="4.68387">
        <ele>342.953979492</ele>
        <time>2015-11-05T09:11:41.276Z</time>
      </trkpt>
      <trkpt lat="46.22199" lon="4.68386">
        <ele>342.579467773</ele>
        <time>2015-11-05T09:11:46.295Z</time>
      </trkpt>
      <trkpt lat="46.22201" lon="4.68386">
        <ele>342.49407959</ele>
        <time>2015-11-05T09:11:47.296Z</time>
      </trkpt>
      <trkpt lat="46.2221" lon="4.68385">
        <ele>342.007354736</ele>
        <time>2015-11-05T09:11:53.291Z</time>
      </trkpt>
      <trkpt lat="46.2221" lon="4.68385">
        <ele>341.904327393</ele>
        <time>2015-11-05T09:11:54.331Z</time>
      </trkpt>
      <trkpt lat="46.22219" lon="4.68386">
        <ele>341.09262085</ele>
        <time>2015-11-05T09:12:00.291Z</time>
      </trkpt>
      <trkpt lat="46.2222" lon="4.68386">
        <ele>340.955718994</ele>
        <time>2015-11-05T09:12:01.28Z</time>
      </trkpt>
      <trkpt lat="46.22229" lon="4.68388">
        <ele>340.310455322</ele>
        <time>2015-11-05T09:12:06.291Z</time>
      </trkpt>
      <trkpt lat="46.2223" lon="4.68388">
        <ele>340.185882568</ele>
        <time>2015-11-05T09:12:07.281Z</time>
      </trkpt>
      <trkpt lat="46.22238" lon="4.68393">
        <ele>339.375946045</ele>
        <time>2015-11-05T09:12:14.274Z</time>
      </trkpt>
      <trkpt lat="46.22239" lon="4.68394">
        <ele>339.278869629</ele>
        <time>2015-11-05T09:12:15.276Z</time>
      </trkpt>
      <trkpt lat="46.22248" lon="4.68397">
        <ele>338.489959717</ele>
        <time>2015-11-05T09:12:21.299Z</time>
      </trkpt>
      <trkpt lat="46.2225" lon="4.68398">
        <ele>338.35748291</ele>
        <time>2015-11-05T09:12:22.281Z</time>
      </trkpt>
      <trkpt lat="46.22258" lon="4.68401">
        <ele>337.803253174</ele>
        <time>2015-11-05T09:12:27.347Z</time>
      </trkpt>
      <trkpt lat="46.22259" lon="4.68402">
        <ele>337.725982666</ele>
        <time>2015-11-05T09:12:28.282Z</time>
      </trkpt>
      <trkpt lat="46.22266" lon="4.68407">
        <ele>337.247070312</ele>
        <time>2015-11-05T09:12:33.293Z</time>
      </trkpt>
      <trkpt lat="46.22267" lon="4.68408">
        <ele>337.122924805</ele>
        <time>2015-11-05T09:12:34.284Z</time>
      </trkpt>
      <trkpt lat="46.22275" lon="4.68413">
        <ele>336.499023438</ele>
        <time>2015-11-05T09:12:40.291Z</time>
      </trkpt>
      <trkpt lat="46.22276" lon="4.68414">
        <ele>336.43069458</ele>
        <time>2015-11-05T09:12:41.284Z</time>
      </trkpt>
      <trkpt lat="46.22284" lon="4.68419">
        <ele>335.909637451</ele>
        <time>2015-11-05T09:12:47.328Z</time>
      </trkpt>
      <trkpt lat="46.22286" lon="4.6842">
        <ele>335.801605225</ele>
        <time>2015-11-05T09:12:48.283Z</time>
      </trkpt>
      <trkpt lat="46.22293" lon="4.68426">
        <ele>335.087097168</ele>
        <time>2015-11-05T09:12:54.351Z</time>
      </trkpt>
      <trkpt lat="46.22294" lon="4.68426">
        <ele>334.923217773</ele>
        <time>2015-11-05T09:12:55.282Z</time>
      </trkpt>
      <trkpt lat="46.223" lon="4.68433">
        <ele>334.244262695</ele>
        <time>2015-11-05T09:13:00.295Z</time>
      </trkpt>
      <trkpt lat="46.22301" lon="4.68434">
        <ele>334.142486572</ele>
        <time>2015-11-05T09:13:01.283Z</time>
      </trkpt>
      <trkpt lat="46.22309" lon="4.6844">
        <ele>333.516693115</ele>
        <time>2015-11-05T09:13:07.293Z</time>
      </trkpt>
      <trkpt lat="46.2231" lon="4.68442">
        <ele>333.41317749</ele>
        <time>2015-11-05T09:13:08.282Z</time>
      </trkpt>
      <trkpt lat="46.22317" lon="4.6845">
        <ele>332.466888428</ele>
        <time>2015-11-05T09:13:14.306Z</time>
      </trkpt>
      <trkpt lat="46.22318" lon="4.68451">
        <ele>332.321563721</ele>
        <time>2015-11-05T09:13:15.303Z</time>
      </trkpt>
      <trkpt lat="46.22324" lon="4.6846">
        <ele>331.518280029</ele>
        <time>2015-11-05T09:13:21.287Z</time>
      </trkpt>
      <trkpt lat="46.22325" lon="4.68462">
        <ele>331.404449463</ele>
        <time>2015-11-05T09:13:22.278Z</time>
      </trkpt>
      <trkpt lat="46.2233" lon="4.6847">
        <ele>330.904327393</ele>
        <time>2015-11-05T09:13:27.29Z</time>
      </trkpt>
      <trkpt lat="46.22331" lon="4.68471">
        <ele>330.812072754</ele>
        <time>2015-11-05T09:13:28.278Z</time>
      </trkpt>
      <trkpt lat="46.22336" lon="4.6848">
        <ele>330.389556885</ele>
        <time>2015-11-05T09:13:34.298Z</time>
      </trkpt>
      <trkpt lat="46.22338" lon="4.68482">
        <ele>330.332183838</ele>
        <time>2015-11-05T09:13:35.278Z</time>
      </trkpt>
      <trkpt lat="46.22344" lon="4.6849">
        <ele>330.316040039</ele>
        <time>2015-11-05T09:13:41.29Z</time>
      </trkpt>
      <trkpt lat="46.22346" lon="4.68491">
        <ele>330.317626953</ele>
        <time>2015-11-05T09:13:42.278Z</time>
      </trkpt>
      <trkpt lat="46.22352" lon="4.68497">
        <ele>330.424560547</ele>
        <time>2015-11-05T09:13:46.287Z</time>
      </trkpt>
      <trkpt lat="46.22353" lon="4.68498">
        <ele>330.519622803</ele>
        <time>2015-11-05T09:13:47.282Z</time>
      </trkpt>
      <trkpt lat="46.2236" lon="4.68504">
        <ele>331.340484619</ele>
        <time>2015-11-05T09:13:53.325Z</time>
      </trkpt>
      <trkpt lat="46.22361" lon="4.68505">
        <ele>331.459075928</ele>
        <time>2015-11-05T09:13:54.272Z</time>
      </trkpt>
      <trkpt lat="46.22367" lon="4.68512">
        <ele>331.99041748</ele>
        <time>2015-11-05T09:13:59.284Z</time>
      </trkpt>
      <trkpt lat="46.22368" lon="4.68513">
        <ele>332.116668701</ele>
        <time>2015-11-05T09:14:00.279Z</time>
      </trkpt>
      <trkpt lat="46.22375" lon="4.68521">
        <ele>332.759857178</ele>
        <time>2015-11-05T09:14:06.288Z</time>
      </trkpt>
      <trkpt lat="46.22376" lon="4.68523">
        <ele>332.83505249</ele>
        <time>2015-11-05T09:14:07.266Z</time>
      </trkpt>
      <trkpt lat="46.22383" lon="4.68529">
        <ele>333.274536133</ele>
        <time>2015-11-05T09:14:12.259Z</time>
      </trkpt>
      <trkpt lat="46.22385" lon="4.68531">
        <ele>333.347625732</ele>
        <time>2015-11-05T09:14:13.303Z</time>
      </trkpt>
      <trkpt lat="46.22392" lon="4.6854">
        <ele>333.936218262</ele>
        <time>2015-11-05T09:14:19.289Z</time>
      </trkpt>
      <trkpt lat="46.22392" lon="4.68541">
        <ele>333.986663818</ele>
        <time>2015-11-05T09:14:20.277Z</time>
      </trkpt>
      <trkpt lat="46.22397" lon="4.6855">
        <ele>334.026000977</ele>
        <time>2015-11-05T09:14:26.292Z</time>
      </trkpt>
      <trkpt lat="46.22398" lon="4.68552">
        <ele>334.064819336</ele>
        <time>2015-11-05T09:14:27.271Z</time>
      </trkpt>
      <trkpt lat="46.22403" lon="4.6856">
        <ele>334.091918945</ele>
        <time>2015-11-05T09:14:32.299Z</time>
      </trkpt>
      <trkpt lat="46.22404" lon="4.68562">
        <ele>334.118255615</ele>
        <time>2015-11-05T09:14:33.272Z</time>
      </trkpt>
      <trkpt lat="46.22409" lon="4.68569">
        <ele>334.115447998</ele>
        <time>2015-11-05T09:14:38.303Z</time>
      </trkpt>
      <trkpt lat="46.2241" lon="4.68572">
        <ele>334.13369751</ele>
        <time>2015-11-05T09:14:39.278Z</time>
      </trkpt>
      <trkpt lat="46.22415" lon="4.68581">
        <ele>334.178985596</ele>
        <time>2015-11-05T09:14:44.413Z</time>
      </trkpt>
      <trkpt lat="46.22417" lon="4.68584">
        <ele>334.202331543</ele>
        <time>2015-11-05T09:14:45.267Z</time>
      </trkpt>
      <trkpt lat="46.22421" lon="4.68594">
        <ele>334.133575439</ele>
        <time>2015-11-05T09:14:50.281Z</time>
      </trkpt>
      <trkpt lat="46.22422" lon="4.68596">
        <ele>334.070953369</ele>
        <time>2015-11-05T09:14:51.278Z</time>
      </trkpt>
      <trkpt lat="46.22425" lon="4.68606">
        <ele>334.04977417</ele>
        <time>2015-11-05T09:14:57.284Z</time>
      </trkpt>
      <trkpt lat="46.22426" lon="4.68608">
        <ele>334.006256104</ele>
        <time>2015-11-05T09:14:58.294Z</time>
      </trkpt>
      <trkpt lat="46.2243" lon="4.6862">
        <ele>334.353118896</ele>
        <time>2015-11-05T09:15:09.292Z</time>
      </trkpt>
      <trkpt lat="46.2243" lon="4.6862">
        <ele>334.422546387</ele>
        <time>2015-11-05T09:15:10.27Z</time>
      </trkpt>
      <trkpt lat="46.22429" lon="4.68633">
        <ele>334.70703125</ele>
        <time>2015-11-05T09:15:23.283Z</time>
      </trkpt>
      <trkpt lat="46.22429" lon="4.68635">
        <ele>334.749603271</ele>
        <time>2015-11-05T09:15:24.274Z</time>
      </trkpt>
      <trkpt lat="46.22433" lon="4.68646">
        <ele>334.854125977</ele>
        <time>2015-11-05T09:15:27.293Z</time>
      </trkpt>
      <trkpt lat="46.22434" lon="4.6865">
        <ele>334.839630127</ele>
        <time>2015-11-05T09:15:28.27Z</time>
      </trkpt>
      <trkpt lat="46.22437" lon="4.68662">
        <ele>334.478790283</ele>
        <time>2015-11-05T09:15:35.29Z</time>
      </trkpt>
      <trkpt lat="46.22437" lon="4.68664">
        <ele>334.427185059</ele>
        <time>2015-11-05T09:15:36.265Z</time>
      </trkpt>
      <trkpt lat="46.2244" lon="4.68674">
        <ele>334.215454102</ele>
        <time>2015-11-05T09:15:40.282Z</time>
      </trkpt>
      <trkpt lat="46.22441" lon="4.68677">
        <ele>334.097290039</ele>
        <time>2015-11-05T09:15:41.271Z</time>
      </trkpt>
      <trkpt lat="46.22447" lon="4.68685">
        <ele>333.584259033</ele>
        <time>2015-11-05T09:15:45.304Z</time>
      </trkpt>
      <trkpt lat="46.22448" lon="4.68687">
        <ele>333.48638916</ele>
        <time>2015-11-05T09:15:46.281Z</time>
      </trkpt>
      <trkpt lat="46.22452" lon="4.68697">
        <ele>333.466766357</ele>
        <time>2015-11-05T09:15:50.283Z</time>
      </trkpt>
      <trkpt lat="46.22452" lon="4.68698">
        <ele>333.526184082</ele>
        <time>2015-11-05T09:15:51.28Z</time>
      </trkpt>
      <trkpt lat="46.22455" lon="4.68709">
        <ele>333.588226318</ele>
        <time>2015-11-05T09:15:56.308Z</time>
      </trkpt>
      <trkpt lat="46.22456" lon="4.68712">
        <ele>333.621551514</ele>
        <time>2015-11-05T09:15:57.272Z</time>
      </trkpt>
      <trkpt lat="46.22458" lon="4.68724">
        <ele>334.252685547</ele>
        <time>2015-11-05T09:16:06.283Z</time>
      </trkpt>
      <trkpt lat="46.22459" lon="4.68725">
        <ele>334.21697998</ele>
        <time>2015-11-05T09:16:07.273Z</time>
      </trkpt>
      <trkpt lat="46.22462" lon="4.68733">
        <ele>333.971862793</ele>
        <time>2015-11-05T09:16:10.283Z</time>
      </trkpt>
      <trkpt lat="46.22464" lon="4.68737">
        <ele>333.89263916</ele>
        <time>2015-11-05T09:16:11.262Z</time>
      </trkpt>
      <trkpt lat="46.22467" lon="4.68749">
        <ele>333.275512695</ele>
        <time>2015-11-05T09:16:17.29Z</time>
      </trkpt>
      <trkpt lat="46.22468" lon="4.68752">
        <ele>333.187591553</ele>
        <time>2015-11-05T09:16:18.276Z</time>
      </trkpt>
      <trkpt lat="46.22472" lon="4.68763">
        <ele>332.540740967</ele>
        <time>2015-11-05T09:16:24.286Z</time>
      </trkpt>
      <trkpt lat="46.22473" lon="4.68764">
        <ele>332.471496582</ele>
        <time>2015-11-05T09:16:25.272Z</time>
      </trkpt>
      <trkpt lat="46.22478" lon="4.68774">
        <ele>332.204803467</ele>
        <time>2015-11-05T09:16:29.267Z</time>
      </trkpt>
      <trkpt lat="46.22479" lon="4.68777">
        <ele>332.06942749</ele>
        <time>2015-11-05T09:16:30.277Z</time>
      </trkpt>
      <trkpt lat="46.22483" lon="4.68786">
        <ele>331.194244385</ele>
        <time>2015-11-05T09:16:34.296Z</time>
      </trkpt>
      <trkpt lat="46.22484" lon="4.68788">
        <ele>330.95300293</ele>
        <time>2015-11-05T09:16:35.305Z</time>
      </trkpt>
      <trkpt lat="46.2249" lon="4.68796">
        <ele>329.886047363</ele>
        <time>2015-11-05T09:16:41.289Z</time>
      </trkpt>
      <trkpt lat="46.22491" lon="4.68799">
        <ele>329.713012695</ele>
        <time>2015-11-05T09:16:42.273Z</time>
      </trkpt>
      <trkpt lat="46.22496" lon="4.68809">
        <ele>328.712493896</ele>
        <time>2015-11-05T09:16:48.288Z</time>
      </trkpt>
      <trkpt lat="46.22497" lon="4.68811">
        <ele>328.620513916</ele>
        <time>2015-11-05T09:16:49.28Z</time>
      </trkpt>
      <trkpt lat="46.22501" lon="4.68821">
        <ele>328.474395752</ele>
        <time>2015-11-05T09:16:55.328Z</time>
      </trkpt>
      <trkpt lat="46.22502" lon="4.68823">
        <ele>328.44442749</ele>
        <time>2015-11-05T09:16:56.275Z</time>
      </trkpt>
      <trkpt lat="46.22506" lon="4.68833">
        <ele>328.508270264</ele>
        <time>2015-11-05T09:17:03.289Z</time>
      </trkpt>
      <trkpt lat="46.22507" lon="4.68835">
        <ele>328.551452637</ele>
        <time>2015-11-05T09:17:04.292Z</time>
      </trkpt>
      <trkpt lat="46.22512" lon="4.68845">
        <ele>328.755554199</ele>
        <time>2015-11-05T09:17:10.298Z</time>
      </trkpt>
      <trkpt lat="46.22512" lon="4.68847">
        <ele>328.758392334</ele>
        <time>2015-11-05T09:17:11.282Z</time>
      </trkpt>
      <trkpt lat="46.22515" lon="4.68857">
        <ele>329.065643311</ele>
        <time>2015-11-05T09:17:17.292Z</time>
      </trkpt>
      <trkpt lat="46.22516" lon="4.6886">
        <ele>329.110107422</ele>
        <time>2015-11-05T09:17:18.275Z</time>
      </trkpt>
      <trkpt lat="46.22519" lon="4.6887">
        <ele>328.926086426</ele>
        <time>2015-11-05T09:17:24.301Z</time>
      </trkpt>
      <trkpt lat="46.2252" lon="4.68872">
        <ele>328.839599609</ele>
        <time>2015-11-05T09:17:25.274Z</time>
      </trkpt>
      <trkpt lat="46.22522" lon="4.68881">
        <ele>328.87197876</ele>
        <time>2015-11-05T09:17:30.293Z</time>
      </trkpt>
      <trkpt lat="46.22523" lon="4.68884">
        <ele>328.974761963</ele>
        <time>2015-11-05T09:17:31.277Z</time>
      </trkpt>
      <trkpt lat="46.22528" lon="4.68892">
        <ele>329.450195312</ele>
        <time>2015-11-05T09:17:35.31Z</time>
      </trkpt>
      <trkpt lat="46.22529" lon="4.68894">
        <ele>329.543701172</ele>
        <time>2015-11-05T09:17:36.276Z</time>
      </trkpt>
      <trkpt lat="46.22533" lon="4.68904">
        <ele>329.669158936</ele>
        <time>2015-11-05T09:17:40.293Z</time>
      </trkpt>
      <trkpt lat="46.22534" lon="4.68906">
        <ele>329.625152588</ele>
        <time>2015-11-05T09:17:41.276Z</time>
      </trkpt>
      <trkpt lat="46.22538" lon="4.68916">
        <ele>329.190551758</ele>
        <time>2015-11-05T09:17:47.307Z</time>
      </trkpt>
      <trkpt lat="46.22539" lon="4.68918">
        <ele>329.129455566</ele>
        <time>2015-11-05T09:17:48.281Z</time>
      </trkpt>
      <trkpt lat="46.22542" lon="4.68929">
        <ele>328.761871338</ele>
        <time>2015-11-05T09:17:54.323Z</time>
      </trkpt>
      <trkpt lat="46.22543" lon="4.68931">
        <ele>328.751251221</ele>
        <time>2015-11-05T09:17:55.277Z</time>
      </trkpt>
      <trkpt lat="46.22546" lon="4.68942">
        <ele>329.055633545</ele>
        <time>2015-11-05T09:18:02.29Z</time>
      </trkpt>
      <trkpt lat="46.22547" lon="4.68944">
        <ele>329.128112793</ele>
        <time>2015-11-05T09:18:03.276Z</time>
      </trkpt>
      <trkpt lat="46.2255" lon="4.68956">
        <ele>329.384765625</ele>
        <time>2015-11-05T09:18:09.295Z</time>
      </trkpt>
      <trkpt lat="46.2255" lon="4.68958">
        <ele>329.369995117</ele>
        <time>2015-11-05T09:18:10.278Z</time>
      </trkpt>
      <trkpt lat="46.22555" lon="4.68968">
        <ele>329.458312988</ele>
        <time>2015-11-05T09:18:16.299Z</time>
      </trkpt>
      <trkpt lat="46.22555" lon="4.68969">
        <ele>329.449645996</ele>
        <time>2015-11-05T09:18:17.278Z</time>
      </trkpt>
      <trkpt lat="46.22559" lon="4.68981">
        <ele>329.834625244</ele>
        <time>2015-11-05T09:18:24.302Z</time>
      </trkpt>
      <trkpt lat="46.2256" lon="4.68983">
        <ele>329.840301514</ele>
        <time>2015-11-05T09:18:25.277Z</time>
      </trkpt>
      <trkpt lat="46.22563" lon="4.68995">
        <ele>330.021179199</ele>
        <time>2015-11-05T09:18:31.311Z</time>
      </trkpt>
      <trkpt lat="46.22564" lon="4.68998">
        <ele>329.983398438</ele>
        <time>2015-11-05T09:18:32.254Z</time>
      </trkpt>
      <trkpt lat="46.22567" lon="4.69006">
        <ele>329.860351562</ele>
        <time>2015-11-05T09:18:34.274Z</time>
      </trkpt>
      <trkpt lat="46.22568" lon="4.6901">
        <ele>329.776306152</ele>
        <time>2015-11-05T09:18:35.267Z</time>
      </trkpt>
      <trkpt lat="46.22574" lon="4.69019">
        <ele>329.388244629</ele>
        <time>2015-11-05T09:18:40.278Z</time>
      </trkpt>
      <trkpt lat="46.22575" lon="4.69021">
        <ele>329.268280029</ele>
        <time>2015-11-05T09:18:41.268Z</time>
      </trkpt>
      <trkpt lat="46.2258" lon="4.69029">
        <ele>327.988616943</ele>
        <time>2015-11-05T09:18:49.277Z</time>
      </trkpt>
      <trkpt lat="46.22581" lon="4.69032">
        <ele>327.814819336</ele>
        <time>2015-11-05T09:18:50.267Z</time>
      </trkpt>
      <trkpt lat="46.22587" lon="4.69042">
        <ele>326.618103027</ele>
        <time>2015-11-05T09:18:56.281Z</time>
      </trkpt>
      <trkpt lat="46.22588" lon="4.69042">
        <ele>326.388061523</ele>
        <time>2015-11-05T09:18:57.279Z</time>
      </trkpt>
      <trkpt lat="46.22595" lon="4.69036">
        <ele>324.034210205</ele>
        <time>2015-11-05T09:19:19.286Z</time>
      </trkpt>
      <trkpt lat="46.22596" lon="4.69034">
        <ele>323.956939697</ele>
        <time>2015-11-05T09:19:20.269Z</time>
      </trkpt>
      <trkpt lat="46.22597" lon="4.69023">
        <ele>322.922912598</ele>
        <time>2015-11-05T09:19:27.279Z</time>
      </trkpt>
      <trkpt lat="46.22598" lon="4.6902">
        <ele>322.708557129</ele>
        <time>2015-11-05T09:19:28.268Z</time>
      </trkpt>
      <trkpt lat="46.22604" lon="4.69013">
        <ele>321.928222656</ele>
        <time>2015-11-05T09:19:34.323Z</time>
      </trkpt>
      <trkpt lat="46.22605" lon="4.69013">
        <ele>322.054077148</ele>
        <time>2015-11-05T09:19:35.265Z</time>
      </trkpt>
      <trkpt lat="46.22614" lon="4.69013">
        <ele>321.242950439</ele>
        <time>2015-11-05T09:19:46.29Z</time>
      </trkpt>
      <trkpt lat="46.22615" lon="4.69012">
        <ele>321.130401611</ele>
        <time>2015-11-05T09:19:47.269Z</time>
      </trkpt>
      <trkpt lat="46.22622" lon="4.69005">
        <ele>321.030822754</ele>
        <time>2015-11-05T09:19:53.296Z</time>
      </trkpt>
      <trkpt lat="46.22623" lon="4.69004">
        <ele>320.974731445</ele>
        <time>2015-11-05T09:19:54.268Z</time>
      </trkpt>
      <trkpt lat="46.22631" lon="4.68999">
        <ele>320.774871826</ele>
        <time>2015-11-05T09:20:00.282Z</time>
      </trkpt>
      <trkpt lat="46.22632" lon="4.68998">
        <ele>320.707855225</ele>
        <time>2015-11-05T09:20:01.272Z</time>
      </trkpt>
      <trkpt lat="46.22637" lon="4.68988">
        <ele>319.755371094</ele>
        <time>2015-11-05T09:20:09.281Z</time>
      </trkpt>
      <trkpt lat="46.22638" lon="4.68987">
        <ele>319.532928467</ele>
        <time>2015-11-05T09:20:10.268Z</time>
      </trkpt>
      <trkpt lat="46.22646" lon="4.6899">
        <ele>318.00100708</ele>
        <time>2015-11-05T09:20:26.309Z</time>
      </trkpt>
      <trkpt lat="46.22647" lon="4.6899">
        <ele>318.07925415</ele>
        <time>2015-11-05T09:20:27.265Z</time>
      </trkpt>
      <trkpt lat="46.22654" lon="4.68995">
        <ele>317.827972412</ele>
        <time>2015-11-05T09:20:34.284Z</time>
      </trkpt>
      <trkpt lat="46.22655" lon="4.68996">
        <ele>317.760650635</ele>
        <time>2015-11-05T09:20:35.27Z</time>
      </trkpt>
      <trkpt lat="46.22662" lon="4.69003">
        <ele>317.262084961</ele>
        <time>2015-11-05T09:20:42.29Z</time>
      </trkpt>
      <trkpt lat="46.22663" lon="4.69003">
        <ele>317.176574707</ele>
        <time>2015-11-05T09:20:43.3Z</time>
      </trkpt>
      <trkpt lat="46.2267" lon="4.69011">
        <ele>316.880157471</ele>
        <time>2015-11-05T09:20:49.409Z</time>
      </trkpt>
      <trkpt lat="46.22672" lon="4.69012">
        <ele>316.837768555</ele>
        <time>2015-11-05T09:20:50.27Z</time>
      </trkpt>
      <trkpt lat="46.22678" lon="4.69018">
        <ele>316.593231201</ele>
        <time>2015-11-05T09:20:55.28Z</time>
      </trkpt>
      <trkpt lat="46.22679" lon="4.69019">
        <ele>316.556335449</ele>
        <time>2015-11-05T09:20:56.281Z</time>
      </trkpt>
      <trkpt lat="46.22686" lon="4.69027">
        <ele>316.121063232</ele>
        <time>2015-11-05T09:21:02.309Z</time>
      </trkpt>
      <trkpt lat="46.22687" lon="4.69028">
        <ele>316.032470703</ele>
        <time>2015-11-05T09:21:03.279Z</time>
      </trkpt>
      <trkpt lat="46.22693" lon="4.69036">
        <ele>315.42300415</ele>
        <time>2015-11-05T09:21:09.287Z</time>
      </trkpt>
      <trkpt lat="46.22694" lon="4.69038">
        <ele>315.334564209</ele>
        <time>2015-11-05T09:21:10.271Z</time>
      </trkpt>
      <trkpt lat="46.227" lon="4.69045">
        <ele>314.994445801</ele>
        <time>2015-11-05T09:21:15.281Z</time>
      </trkpt>
      <trkpt lat="46.22701" lon="4.69046">
        <ele>314.936065674</ele>
        <time>2015-11-05T09:21:16.272Z</time>
      </trkpt>
      <trkpt lat="46.22709" lon="4.69052">
        <ele>314.823730469</ele>
        <time>2015-11-05T09:21:22.292Z</time>
      </trkpt>
      <trkpt lat="46.2271" lon="4.69053">
        <ele>314.805541992</ele>
        <time>2015-11-05T09:21:23.271Z</time>
      </trkpt>
      <trkpt lat="46.22718" lon="4.69057">
        <ele>314.817901611</ele>
        <time>2015-11-05T09:21:29.285Z</time>
      </trkpt>
      <trkpt lat="46.22719" lon="4.69058">
        <ele>314.784179688</ele>
        <time>2015-11-05T09:21:30.261Z</time>
      </trkpt>
      <trkpt lat="46.22727" lon="4.69062">
        <ele>314.807739258</ele>
        <time>2015-11-05T09:21:37.297Z</time>
      </trkpt>
      <trkpt lat="46.22729" lon="4.69063">
        <ele>314.742370605</ele>
        <time>2015-11-05T09:21:38.286Z</time>
      </trkpt>
      <trkpt lat="46.22737" lon="4.69066">
        <ele>314.592803955</ele>
        <time>2015-11-05T09:21:45.299Z</time>
      </trkpt>
      <trkpt lat="46.22739" lon="4.69067">
        <ele>314.583190918</ele>
        <time>2015-11-05T09:21:46.271Z</time>
      </trkpt>
      <trkpt lat="46.22747" lon="4.6907">
        <ele>314.619750977</ele>
        <time>2015-11-05T09:21:52.286Z</time>
      </trkpt>
      <trkpt lat="46.22748" lon="4.6907">
        <ele>314.634185791</ele>
        <time>2015-11-05T09:21:53.271Z</time>
      </trkpt>
      <trkpt lat="46.22755" lon="4.69076">
        <ele>315.033966064</ele>
        <time>2015-11-05T09:21:58.283Z</time>
      </trkpt>
      <trkpt lat="46.22757" lon="4.69077">
        <ele>315.170623779</ele>
        <time>2015-11-05T09:21:59.276Z</time>
      </trkpt>
      <trkpt lat="46.22763" lon="4.69084">
        <ele>315.393280029</ele>
        <time>2015-11-05T09:22:05.353Z</time>
      </trkpt>
      <trkpt lat="46.22764" lon="4.69086">
        <ele>315.363952637</ele>
        <time>2015-11-05T09:22:06.274Z</time>
      </trkpt>
      <trkpt lat="46.22769" lon="4.69093">
        <ele>314.905487061</ele>
        <time>2015-11-05T09:22:11.288Z</time>
      </trkpt>
      <trkpt lat="46.2277" lon="4.69095">
        <ele>314.835540771</ele>
        <time>2015-11-05T09:22:12.285Z</time>
      </trkpt>
      <trkpt lat="46.22777" lon="4.69101">
        <ele>314.667694092</ele>
        <time>2015-11-05T09:22:16.296Z</time>
      </trkpt>
      <trkpt lat="46.22778" lon="4.69102">
        <ele>314.578063965</ele>
        <time>2015-11-05T09:22:17.274Z</time>
      </trkpt>
      <trkpt lat="46.22784" lon="4.6911">
        <ele>314.155792236</ele>
        <time>2015-11-05T09:22:24.322Z</time>
      </trkpt>
      <trkpt lat="46.22785" lon="4.69111">
        <ele>314.099853516</ele>
        <time>2015-11-05T09:22:25.28Z</time>
      </trkpt>
      <trkpt lat="46.22792" lon="4.69119">
        <ele>314.001800537</ele>
        <time>2015-11-05T09:22:30.27Z</time>
      </trkpt>
      <trkpt lat="46.22793" lon="4.6912">
        <ele>313.881988525</ele>
        <time>2015-11-05T09:22:31.291Z</time>
      </trkpt>
      <trkpt lat="46.22799" lon="4.69127">
        <ele>313.57901001</ele>
        <time>2015-11-05T09:22:37.424Z</time>
      </trkpt>
      <trkpt lat="46.228" lon="4.69128">
        <ele>313.522521973</ele>
        <time>2015-11-05T09:22:38.289Z</time>
      </trkpt>
      <trkpt lat="46.22808" lon="4.69133">
        <ele>313.02947998</ele>
        <time>2015-11-05T09:22:45.3Z</time>
      </trkpt>
      <trkpt lat="46.22809" lon="4.69134">
        <ele>312.951507568</ele>
        <time>2015-11-05T09:22:46.274Z</time>
      </trkpt>
      <trkpt lat="46.22817" lon="4.6914">
        <ele>312.844085693</ele>
        <time>2015-11-05T09:22:51.289Z</time>
      </trkpt>
      <trkpt lat="46.22818" lon="4.69142">
        <ele>312.895446777</ele>
        <time>2015-11-05T09:22:52.281Z</time>
      </trkpt>
      <trkpt lat="46.22825" lon="4.69149">
        <ele>312.833831787</ele>
        <time>2015-11-05T09:22:57.299Z</time>
      </trkpt>
      <trkpt lat="46.22826" lon="4.6915">
        <ele>312.787536621</ele>
        <time>2015-11-05T09:22:58.278Z</time>
      </trkpt>
      <trkpt lat="46.22834" lon="4.69154">
        <ele>312.583496094</ele>
        <time>2015-11-05T09:23:05.319Z</time>
      </trkpt>
      <trkpt lat="46.22835" lon="4.69155">
        <ele>312.501434326</ele>
        <time>2015-11-05T09:23:06.289Z</time>
      </trkpt>
      <trkpt lat="46.22841" lon="4.69162">
        <ele>312.114593506</ele>
        <time>2015-11-05T09:23:10.295Z</time>
      </trkpt>
      <trkpt lat="46.22843" lon="4.69164">
        <ele>312.062469482</ele>
        <time>2015-11-05T09:23:11.281Z</time>
      </trkpt>
      <trkpt lat="46.22849" lon="4.69171">
        <ele>311.593658447</ele>
        <time>2015-11-05T09:23:16.287Z</time>
      </trkpt>
      <trkpt lat="46.2285" lon="4.69172">
        <ele>311.470092773</ele>
        <time>2015-11-05T09:23:17.281Z</time>
      </trkpt>
      <trkpt lat="46.22855" lon="4.69179">
        <ele>311.090057373</ele>
        <time>2015-11-05T09:23:22.312Z</time>
      </trkpt>
      <trkpt lat="46.22856" lon="4.69181">
        <ele>311.047424316</ele>
        <time>2015-11-05T09:23:23.288Z</time>
      </trkpt>
      <trkpt lat="46.22862" lon="4.69187">
        <ele>310.67855835</ele>
        <time>2015-11-05T09:23:28.301Z</time>
      </trkpt>
      <trkpt lat="46.22864" lon="4.69188">
        <ele>310.610229492</ele>
        <time>2015-11-05T09:23:29.281Z</time>
      </trkpt>
      <trkpt lat="46.22871" lon="4.69196">
        <ele>310.628143311</ele>
        <time>2015-11-05T09:23:36.295Z</time>
      </trkpt>
      <trkpt lat="46.22871" lon="4.69197">
        <ele>310.746429443</ele>
        <time>2015-11-05T09:23:37.288Z</time>
      </trkpt>
      <trkpt lat="46.22877" lon="4.69204">
        <ele>311.439880371</ele>
        <time>2015-11-05T09:23:44.316Z</time>
      </trkpt>
      <trkpt lat="46.22878" lon="4.69206">
        <ele>311.447418213</ele>
        <time>2015-11-05T09:23:45.285Z</time>
      </trkpt>
      <trkpt lat="46.22884" lon="4.69214">
        <ele>311.18460083</ele>
        <time>2015-11-05T09:23:50.282Z</time>
      </trkpt>
      <trkpt lat="46.22886" lon="4.69215">
        <ele>311.093414307</ele>
        <time>2015-11-05T09:23:51.27Z</time>
      </trkpt>
      <trkpt lat="46.2289" lon="4.69222">
        <ele>310.721221924</ele>
        <time>2015-11-05T09:23:55.286Z</time>
      </trkpt>
      <trkpt lat="46.22892" lon="4.69225">
        <ele>310.696716309</ele>
        <time>2015-11-05T09:23:56.274Z</time>
      </trkpt>
      <trkpt lat="46.22898" lon="4.69232">
        <ele>310.302642822</ele>
        <time>2015-11-05T09:24:01.283Z</time>
      </trkpt>
      <trkpt lat="46.22899" lon="4.69234">
        <ele>310.207977295</ele>
        <time>2015-11-05T09:24:02.277Z</time>
      </trkpt>
      <trkpt lat="46.22905" lon="4.69243">
        <ele>309.904052734</ele>
        <time>2015-11-05T09:24:08.322Z</time>
      </trkpt>
      <trkpt lat="46.22906" lon="4.69244">
        <ele>309.860351562</ele>
        <time>2015-11-05T09:24:09.266Z</time>
      </trkpt>
      <trkpt lat="46.22913" lon="4.69251">
        <ele>309.674163818</ele>
        <time>2015-11-05T09:24:15.296Z</time>
      </trkpt>
      <trkpt lat="46.22914" lon="4.69252">
        <ele>309.607696533</ele>
        <time>2015-11-05T09:24:16.267Z</time>
      </trkpt>
      <trkpt lat="46.22921" lon="4.69259">
        <ele>309.324066162</ele>
        <time>2015-11-05T09:24:22.294Z</time>
      </trkpt>
      <trkpt lat="46.22922" lon="4.6926">
        <ele>309.274871826</ele>
        <time>2015-11-05T09:24:23.26Z</time>
      </trkpt>
      <trkpt lat="46.22929" lon="4.69267">
        <ele>309.148132324</ele>
        <time>2015-11-05T09:24:29.272Z</time>
      </trkpt>
      <trkpt lat="46.2293" lon="4.69268">
        <ele>309.115325928</ele>
        <time>2015-11-05T09:24:30.247Z</time>
      </trkpt>
      <trkpt lat="46.22938" lon="4.69272">
        <ele>309.032440186</ele>
        <time>2015-11-05T09:24:35.333Z</time>
      </trkpt>
      <trkpt lat="46.2294" lon="4.69273">
        <ele>309.020751953</ele>
        <time>2015-11-05T09:24:36.279Z</time>
      </trkpt>
      <trkpt lat="46.22947" lon="4.69277">
        <ele>309.013793945</ele>
        <time>2015-11-05T09:24:41.299Z</time>
      </trkpt>
      <trkpt lat="46.22948" lon="4.69278">
        <ele>309.030212402</ele>
        <time>2015-11-05T09:24:42.27Z</time>
      </trkpt>
      <trkpt lat="46.22956" lon="4.69282">
        <ele>309.203918457</ele>
        <time>2015-11-05T09:24:49.291Z</time>
      </trkpt>
      <trkpt lat="46.22957" lon="4.69283">
        <ele>309.245513916</ele>
        <time>2015-11-05T09:24:50.273Z</time>
      </trkpt>
      <trkpt lat="46.22966" lon="4.69285">
        <ele>309.026672363</ele>
        <time>2015-11-05T09:24:56.281Z</time>
      </trkpt>
      <trkpt lat="46.22967" lon="4.69285">
        <ele>308.946624756</ele>
        <time>2015-11-05T09:24:57.274Z</time>
      </trkpt>
      <trkpt lat="46.22975" lon="4.69282">
        <ele>308.438720703</ele>
        <time>2015-11-05T09:25:04.292Z</time>
      </trkpt>
      <trkpt lat="46.22976" lon="4.6928">
        <ele>308.454986572</ele>
        <time>2015-11-05T09:25:05.268Z</time>
      </trkpt>
      <trkpt lat="46.22978" lon="4.69269">
        <ele>308.89831543</ele>
        <time>2015-11-05T09:25:10.275Z</time>
      </trkpt>
      <trkpt lat="46.22978" lon="4.69266">
        <ele>308.983825684</ele>
        <time>2015-11-05T09:25:11.281Z</time>
      </trkpt>
      <trkpt lat="46.2298" lon="4.69255">
        <ele>309.349182129</ele>
        <time>2015-11-05T09:25:16.291Z</time>
      </trkpt>
      <trkpt lat="46.2298" lon="4.69253">
        <ele>309.347015381</ele>
        <time>2015-11-05T09:25:17.263Z</time>
      </trkpt>
      <trkpt lat="46.22981" lon="4.6924">
        <ele>309.314025879</ele>
        <time>2015-11-05T09:25:23.301Z</time>
      </trkpt>
      <trkpt lat="46.22981" lon="4.69239">
        <ele>309.317810059</ele>
        <time>2015-11-05T09:25:24.262Z</time>
      </trkpt>
      <trkpt lat="46.22983" lon="4.69227">
        <ele>309.217071533</ele>
        <time>2015-11-05T09:25:31.287Z</time>
      </trkpt>
      <trkpt lat="46.22983" lon="4.69224">
        <ele>309.201141357</ele>
        <time>2015-11-05T09:25:32.262Z</time>
      </trkpt>
      <trkpt lat="46.22983" lon="4.69212">
        <ele>309.222106934</ele>
        <time>2015-11-05T09:25:38.276Z</time>
      </trkpt>
      <trkpt lat="46.22984" lon="4.6921">
        <ele>309.211975098</ele>
        <time>2015-11-05T09:25:39.264Z</time>
      </trkpt>
      <trkpt lat="46.22983" lon="4.69199">
        <ele>309.447814941</ele>
        <time>2015-11-05T09:25:44.276Z</time>
      </trkpt>
      <trkpt lat="46.22983" lon="4.69197">
        <ele>309.55569458</ele>
        <time>2015-11-05T09:25:45.263Z</time>
      </trkpt>
      <trkpt lat="46.22984" lon="4.69184">
        <ele>309.857299805</ele>
        <time>2015-11-05T09:25:51.309Z</time>
      </trkpt>
      <trkpt lat="46.22984" lon="4.69182">
        <ele>309.893249512</ele>
        <time>2015-11-05T09:25:52.266Z</time>
      </trkpt>
      <trkpt lat="46.22985" lon="4.6917">
        <ele>310.325531006</ele>
        <time>2015-11-05T09:25:59.298Z</time>
      </trkpt>
      <trkpt lat="46.22985" lon="4.69168">
        <ele>310.384246826</ele>
        <time>2015-11-05T09:26:00.28Z</time>
      </trkpt>
      <trkpt lat="46.22984" lon="4.69155">
        <ele>310.999176025</ele>
        <time>2015-11-05T09:26:07.285Z</time>
      </trkpt>
      <trkpt lat="46.22984" lon="4.69153">
        <ele>311.099456787</ele>
        <time>2015-11-05T09:26:08.268Z</time>
      </trkpt>
      <trkpt lat="46.22984" lon="4.69141">
        <ele>311.689117432</ele>
        <time>2015-11-05T09:26:14.287Z</time>
      </trkpt>
      <trkpt lat="46.22983" lon="4.69139">
        <ele>311.750671387</ele>
        <time>2015-11-05T09:26:15.27Z</time>
      </trkpt>
      <trkpt lat="46.22982" lon="4.69126">
        <ele>311.681671143</ele>
        <time>2015-11-05T09:26:20.28Z</time>
      </trkpt>
      <trkpt lat="46.22982" lon="4.69124">
        <ele>311.579315186</ele>
        <time>2015-11-05T09:26:21.273Z</time>
      </trkpt>
      <trkpt lat="46.22983" lon="4.69112">
        <ele>310.990264893</ele>
        <time>2015-11-05T09:26:28.29Z</time>
      </trkpt>
      <trkpt lat="46.22983" lon="4.6911">
        <ele>310.912719727</ele>
        <time>2015-11-05T09:26:29.271Z</time>
      </trkpt>
      <trkpt lat="46.22987" lon="4.691">
        <ele>310.478912354</ele>
        <time>2015-11-05T09:26:39.283Z</time>
      </trkpt>
      <trkpt lat="46.22988" lon="4.69098">
        <ele>310.530395508</ele>
        <time>2015-11-05T09:26:40.271Z</time>
      </trkpt>
      <trkpt lat="46.22992" lon="4.69089">
        <ele>310.975128174</ele>
        <time>2015-11-05T09:26:46.282Z</time>
      </trkpt>
      <trkpt lat="46.22993" lon="4.69087">
        <ele>311.04510498</ele>
        <time>2015-11-05T09:26:47.271Z</time>
      </trkpt>
      <trkpt lat="46.22997" lon="4.69077">
        <ele>311.542877197</ele>
        <time>2015-11-05T09:26:53.284Z</time>
      </trkpt>
      <trkpt lat="46.22998" lon="4.69075">
        <ele>311.631835938</ele>
        <time>2015-11-05T09:26:54.293Z</time>
      </trkpt>
      <trkpt lat="46.23004" lon="4.69066">
        <ele>312.351501465</ele>
        <time>2015-11-05T09:27:01.287Z</time>
      </trkpt>
      <trkpt lat="46.23005" lon="4.69064">
        <ele>312.608642578</ele>
        <time>2015-11-05T09:27:02.272Z</time>
      </trkpt>
      <trkpt lat="46.23008" lon="4.69054">
        <ele>313.749298096</ele>
        <time>2015-11-05T09:27:07.291Z</time>
      </trkpt>
      <trkpt lat="46.2301" lon="4.69051">
        <ele>313.913085938</ele>
        <time>2015-11-05T09:27:08.272Z</time>
      </trkpt>
      <trkpt lat="46.23013" lon="4.69041">
        <ele>314.216003418</ele>
        <time>2015-11-05T09:27:14.283Z</time>
      </trkpt>
      <trkpt lat="46.23013" lon="4.69039">
        <ele>314.190093994</ele>
        <time>2015-11-05T09:27:15.271Z</time>
      </trkpt>
      <trkpt lat="46.23017" lon="4.69029">
        <ele>314.205749512</ele>
        <time>2015-11-05T09:27:19.3Z</time>
      </trkpt>
      <trkpt lat="46.23018" lon="4.69027">
        <ele>314.223510742</ele>
        <time>2015-11-05T09:27:20.271Z</time>
      </trkpt>
      <trkpt lat="46.23021" lon="4.69016">
        <ele>314.411529541</ele>
        <time>2015-11-05T09:27:27.281Z</time>
      </trkpt>
      <trkpt lat="46.23022" lon="4.69013">
        <ele>314.416534424</ele>
        <time>2015-11-05T09:27:28.275Z</time>
      </trkpt>
      <trkpt lat="46.23025" lon="4.69002">
        <ele>314.475006104</ele>
        <time>2015-11-05T09:27:33.295Z</time>
      </trkpt>
      <trkpt lat="46.23026" lon="4.68999">
        <ele>314.472076416</ele>
        <time>2015-11-05T09:27:34.259Z</time>
      </trkpt>
      <trkpt lat="46.23029" lon="4.68989">
        <ele>315.136352539</ele>
        <time>2015-11-05T09:27:40.291Z</time>
      </trkpt>
      <trkpt lat="46.2303" lon="4.68986">
        <ele>315.256652832</ele>
        <time>2015-11-05T09:27:41.258Z</time>
      </trkpt>
      <trkpt lat="46.23032" lon="4.68976">
        <ele>315.847229004</ele>
        <time>2015-11-05T09:27:46.288Z</time>
      </trkpt>
      <trkpt lat="46.23033" lon="4.68973">
        <ele>315.85168457</ele>
        <time>2015-11-05T09:27:47.278Z</time>
      </trkpt>
      <trkpt lat="46.23035" lon="4.68962">
        <ele>316.070709229</ele>
        <time>2015-11-05T09:27:51.418Z</time>
      </trkpt>
      <trkpt lat="46.23036" lon="4.68959">
        <ele>316.13458252</ele>
        <time>2015-11-05T09:27:52.273Z</time>
      </trkpt>
      <trkpt lat="46.23038" lon="4.68949">
        <ele>316.233276367</ele>
        <time>2015-11-05T09:27:59.289Z</time>
      </trkpt>
      <trkpt lat="46.23039" lon="4.68947">
        <ele>316.17477417</ele>
        <time>2015-11-05T09:28:00.275Z</time>
      </trkpt>
      <trkpt lat="46.2304" lon="4.68935">
        <ele>315.729827881</ele>
        <time>2015-11-05T09:28:06.308Z</time>
      </trkpt>
      <trkpt lat="46.2304" lon="4.68932">
        <ele>315.615386963</ele>
        <time>2015-11-05T09:28:07.292Z</time>
      </trkpt>
      <trkpt lat="46.23042" lon="4.6892">
        <ele>315.283691406</ele>
        <time>2015-11-05T09:28:13.299Z</time>
      </trkpt>
      <trkpt lat="46.23042" lon="4.68918">
        <ele>315.344543457</ele>
        <time>2015-11-05T09:28:14.274Z</time>
      </trkpt>
      <trkpt lat="46.23043" lon="4.68906">
        <ele>315.828094482</ele>
        <time>2015-11-05T09:28:21.293Z</time>
      </trkpt>
      <trkpt lat="46.23044" lon="4.68904">
        <ele>315.926818848</ele>
        <time>2015-11-05T09:28:22.275Z</time>
      </trkpt>
      <trkpt lat="46.23046" lon="4.68893">
        <ele>316.315124512</ele>
        <time>2015-11-05T09:28:29.292Z</time>
      </trkpt>
      <trkpt lat="46.23046" lon="4.68891">
        <ele>316.42388916</ele>
        <time>2015-11-05T09:28:30.274Z</time>
      </trkpt>
      <trkpt lat="46.23046" lon="4.68879">
        <ele>316.844299316</ele>
        <time>2015-11-05T09:28:36.287Z</time>
      </trkpt>
      <trkpt lat="46.23047" lon="4.68876">
        <ele>316.917388916</ele>
        <time>2015-11-05T09:28:37.35Z</time>
      </trkpt>
      <trkpt lat="46.23048" lon="4.68865">
        <ele>317.642456055</ele>
        <time>2015-11-05T09:28:42.294Z</time>
      </trkpt>
      <trkpt lat="46.23047" lon="4.68862">
        <ele>317.814331055</ele>
        <time>2015-11-05T09:28:43.276Z</time>
      </trkpt>
      <trkpt lat="46.23049" lon="4.6885">
        <ele>318.925750732</ele>
        <time>2015-11-05T09:28:50.313Z</time>
      </trkpt>
      <trkpt lat="46.23049" lon="4.68848">
        <ele>319.031219482</ele>
        <time>2015-11-05T09:28:51.275Z</time>
      </trkpt>
      <trkpt lat="46.23052" lon="4.68836">
        <ele>319.70135498</ele>
        <time>2015-11-05T09:28:57.286Z</time>
      </trkpt>
      <trkpt lat="46.23052" lon="4.68834">
        <ele>319.782348633</ele>
        <time>2015-11-05T09:28:58.276Z</time>
      </trkpt>
      <trkpt lat="46.23053" lon="4.68822">
        <ele>320.445251465</ele>
        <time>2015-11-05T09:29:04.285Z</time>
      </trkpt>
      <trkpt lat="46.23053" lon="4.6882">
        <ele>320.462524414</ele>
        <time>2015-11-05T09:29:05.269Z</time>
      </trkpt>
      <trkpt lat="46.23055" lon="4.68807">
        <ele>321.062652588</ele>
        <time>2015-11-05T09:29:12.296Z</time>
      </trkpt>
      <trkpt lat="46.23055" lon="4.68805">
        <ele>321.181060791</ele>
        <time>2015-11-05T09:29:13.265Z</time>
      </trkpt>
      <trkpt lat="46.23055" lon="4.68794">
        <ele>321.545379639</ele>
        <time>2015-11-05T09:29:18.279Z</time>
      </trkpt>
      <trkpt lat="46.23055" lon="4.68792">
        <ele>321.569335938</ele>
        <time>2015-11-05T09:29:19.269Z</time>
      </trkpt>
      <trkpt lat="46.23057" lon="4.6878">
        <ele>321.712310791</ele>
        <time>2015-11-05T09:29:25.282Z</time>
      </trkpt>
      <trkpt lat="46.23057" lon="4.68778">
        <ele>321.746917725</ele>
        <time>2015-11-05T09:29:26.269Z</time>
      </trkpt>
      <trkpt lat="46.23058" lon="4.68766">
        <ele>322.046905518</ele>
        <time>2015-11-05T09:29:31.252Z</time>
      </trkpt>
      <trkpt lat="46.23058" lon="4.68764">
        <ele>322.126586914</ele>
        <time>2015-11-05T09:29:32.27Z</time>
      </trkpt>
      <trkpt lat="46.23059" lon="4.68753">
        <ele>322.353271484</ele>
        <time>2015-11-05T09:29:37.279Z</time>
      </trkpt>
      <trkpt lat="46.23059" lon="4.68751">
        <ele>322.349395752</ele>
        <time>2015-11-05T09:29:38.273Z</time>
      </trkpt>
      <trkpt lat="46.23059" lon="4.68739">
        <ele>322.492095947</ele>
        <time>2015-11-05T09:29:45.28Z</time>
      </trkpt>
      <trkpt lat="46.23059" lon="4.68737">
        <ele>322.468505859</ele>
        <time>2015-11-05T09:29:46.265Z</time>
      </trkpt>
      <trkpt lat="46.23057" lon="4.68726">
        <ele>322.281585693</ele>
        <time>2015-11-05T09:29:51.289Z</time>
      </trkpt>
      <trkpt lat="46.23058" lon="4.68724">
        <ele>322.246246338</ele>
        <time>2015-11-05T09:29:52.268Z</time>
      </trkpt>
      <trkpt lat="46.23058" lon="4.68711">
        <ele>321.959503174</ele>
        <time>2015-11-05T09:29:59.282Z</time>
      </trkpt>
      <trkpt lat="46.23057" lon="4.68708">
        <ele>321.948028564</ele>
        <time>2015-11-05T09:30:00.298Z</time>
      </trkpt>
      <trkpt lat="46.2306" lon="4.68698">
        <ele>322.217681885</ele>
        <time>2015-11-05T09:30:06.28Z</time>
      </trkpt>
      <trkpt lat="46.2306" lon="4.68696">
        <ele>322.276611328</ele>
        <time>2015-11-05T09:30:07.274Z</time>
      </trkpt>
      <trkpt lat="46.23063" lon="4.68685">
        <ele>323.173431396</ele>
        <time>2015-11-05T09:30:13.273Z</time>
      </trkpt>
      <trkpt lat="46.23063" lon="4.68683">
        <ele>323.396392822</ele>
        <time>2015-11-05T09:30:14.272Z</time>
      </trkpt>
      <trkpt lat="46.23065" lon="4.68672">
        <ele>324.6222229</ele>
        <time>2015-11-05T09:30:20.278Z</time>
      </trkpt>
      <trkpt lat="46.23065" lon="4.6867">
        <ele>324.831573486</ele>
        <time>2015-11-05T09:30:21.269Z</time>
      </trkpt>
      <trkpt lat="46.23064" lon="4.68658">
        <ele>325.209442139</ele>
        <time>2015-11-05T09:30:27.314Z</time>
      </trkpt>
      <trkpt lat="46.23063" lon="4.68656">
        <ele>325.181152344</ele>
        <time>2015-11-05T09:30:28.265Z</time>
      </trkpt>
      <trkpt lat="46.23063" lon="4.68645">
        <ele>325.207977295</ele>
        <time>2015-11-05T09:30:33.279Z</time>
      </trkpt>
      <trkpt lat="46.23063" lon="4.68643">
        <ele>325.154144287</ele>
        <time>2015-11-05T09:30:34.283Z</time>
      </trkpt>
      <trkpt lat="46.23064" lon="4.68632">
        <ele>324.865966797</ele>
        <time>2015-11-05T09:30:39.285Z</time>
      </trkpt>
      <trkpt lat="46.23064" lon="4.6863">
        <ele>324.772033691</ele>
        <time>2015-11-05T09:30:40.269Z</time>
      </trkpt>
      <trkpt lat="46.23064" lon="4.68617">
        <ele>324.181152344</ele>
        <time>2015-11-05T09:30:47.277Z</time>
      </trkpt>
      <trkpt lat="46.23064" lon="4.68615">
        <ele>324.141571045</ele>
        <time>2015-11-05T09:30:48.271Z</time>
      </trkpt>
      <trkpt lat="46.23066" lon="4.68603">
        <ele>323.887054443</ele>
        <time>2015-11-05T09:30:54.31Z</time>
      </trkpt>
      <trkpt lat="46.23066" lon="4.68601">
        <ele>323.849029541</ele>
        <time>2015-11-05T09:30:55.266Z</time>
      </trkpt>
      <trkpt lat="46.23069" lon="4.6859">
        <ele>323.707702637</ele>
        <time>2015-11-05T09:31:01.312Z</time>
      </trkpt>
      <trkpt lat="46.2307" lon="4.68588">
        <ele>323.70513916</ele>
        <time>2015-11-05T09:31:02.269Z</time>
      </trkpt>
      <trkpt lat="46.23075" lon="4.68578">
        <ele>323.580291748</ele>
        <time>2015-11-05T09:31:09.286Z</time>
      </trkpt>
      <trkpt lat="46.23075" lon="4.68576">
        <ele>323.607727051</ele>
        <time>2015-11-05T09:31:10.269Z</time>
      </trkpt>
      <trkpt lat="46.23078" lon="4.68565">
        <ele>324.251037598</ele>
        <time>2015-11-05T09:31:17.279Z</time>
      </trkpt>
      <trkpt lat="46.23079" lon="4.68563">
        <ele>324.360443115</ele>
        <time>2015-11-05T09:31:18.27Z</time>
      </trkpt>
      <trkpt lat="46.2308" lon="4.68551">
        <ele>324.818786621</ele>
        <time>2015-11-05T09:31:24.278Z</time>
      </trkpt>
      <trkpt lat="46.23081" lon="4.6855">
        <ele>324.867584229</ele>
        <time>2015-11-05T09:31:25.269Z</time>
      </trkpt>
      <trkpt lat="46.23084" lon="4.68539">
        <ele>325.342407227</ele>
        <time>2015-11-05T09:31:31.294Z</time>
      </trkpt>
      <trkpt lat="46.23085" lon="4.68537">
        <ele>325.467132568</ele>
        <time>2015-11-05T09:31:32.261Z</time>
      </trkpt>
      <trkpt lat="46.2309" lon="4.68527">
        <ele>326.250610352</ele>
        <time>2015-11-05T09:31:39.294Z</time>
      </trkpt>
      <trkpt lat="46.23091" lon="4.68525">
        <ele>326.347839355</ele>
        <time>2015-11-05T09:31:40.267Z</time>
      </trkpt>
      <trkpt lat="46.23094" lon="4.68514">
        <ele>326.915649414</ele>
        <time>2015-11-05T09:31:45.29Z</time>
      </trkpt>
      <trkpt lat="46.23095" lon="4.68512">
        <ele>326.974731445</ele>
        <time>2015-11-05T09:31:46.27Z</time>
      </trkpt>
      <trkpt lat="46.23097" lon="4.68501">
        <ele>327.498596191</ele>
        <time>2015-11-05T09:31:52.29Z</time>
      </trkpt>
      <trkpt lat="46.23098" lon="4.68499">
        <ele>327.576324463</ele>
        <time>2015-11-05T09:31:53.269Z</time>
      </trkpt>
      <trkpt lat="46.23102" lon="4.68488">
        <ele>328.714599609</ele>
        <time>2015-11-05T09:32:25.292Z</time>
      </trkpt>
      <trkpt lat="46.23102" lon="4.68487">
        <ele>328.768493652</ele>
        <time>2015-11-05T09:32:26.271Z</time>
      </trkpt>
      <trkpt lat="46.23104" lon="4.68476">
        <ele>329.15512085</ele>
        <time>2015-11-05T09:32:33.28Z</time>
      </trkpt>
      <trkpt lat="46.23105" lon="4.68474">
        <ele>329.172821045</ele>
        <time>2015-11-05T09:32:34.282Z</time>
      </trkpt>
      <trkpt lat="46.23108" lon="4.68462">
        <ele>329.846374512</ele>
        <time>2015-11-05T09:32:41.284Z</time>
      </trkpt>
      <trkpt lat="46.23109" lon="4.68461">
        <ele>329.991363525</ele>
        <time>2015-11-05T09:32:42.271Z</time>
      </trkpt>
      <trkpt lat="46.23112" lon="4.6845">
        <ele>331.212768555</ele>
        <time>2015-11-05T09:32:48.287Z</time>
      </trkpt>
      <trkpt lat="46.23113" lon="4.68448">
        <ele>331.362823486</ele>
        <time>2015-11-05T09:32:49.272Z</time>
      </trkpt>
      <trkpt lat="46.23117" lon="4.68437">
        <ele>332.345306396</ele>
        <time>2015-11-05T09:32:56.313Z</time>
      </trkpt>
      <trkpt lat="46.23117" lon="4.68435">
        <ele>332.516845703</ele>
        <time>2015-11-05T09:32:57.271Z</time>
      </trkpt>
      <trkpt lat="46.23122" lon="4.68425">
        <ele>333.185028076</ele>
        <time>2015-11-05T09:33:01.286Z</time>
      </trkpt>
      <trkpt lat="46.23123" lon="4.68424">
        <ele>333.317657471</ele>
        <time>2015-11-05T09:33:02.271Z</time>
      </trkpt>
      <trkpt lat="46.23114" lon="4.68425">
        <ele>332.128082275</ele>
        <time>2015-11-05T09:35:01.297Z</time>
      </trkpt>
      <trkpt lat="46.23113" lon="4.68426">
        <ele>332.174285889</ele>
        <time>2015-11-05T09:35:02.267Z</time>
      </trkpt>
      <trkpt lat="46.23106" lon="4.68431">
        <ele>332.611206055</ele>
        <time>2015-11-05T09:35:12.282Z</time>
      </trkpt>
      <trkpt lat="46.23105" lon="4.68432">
        <ele>332.829620361</ele>
        <time>2015-11-05T09:35:13.271Z</time>
      </trkpt>
      <trkpt lat="46.23097" lon="4.68437">
        <ele>333.717437744</ele>
        <time>2015-11-05T09:35:21.279Z</time>
      </trkpt>
      <trkpt lat="46.23096" lon="4.68437">
        <ele>333.823425293</ele>
        <time>2015-11-05T09:35:22.278Z</time>
      </trkpt>
      <trkpt lat="46.23088" lon="4.68442">
        <ele>334.027160645</ele>
        <time>2015-11-05T09:35:32.253Z</time>
      </trkpt>
      <trkpt lat="46.23087" lon="4.68441">
        <ele>334.019470215</ele>
        <time>2015-11-05T09:35:33.282Z</time>
      </trkpt>
      <trkpt lat="46.23079" lon="4.68438">
        <ele>334.560302734</ele>
        <time>2015-11-05T09:36:28.309Z</time>
      </trkpt>
      <trkpt lat="46.23078" lon="4.68438">
        <ele>334.572509766</ele>
        <time>2015-11-05T09:36:29.279Z</time>
      </trkpt>
      <trkpt lat="46.23071" lon="4.68443">
        <ele>334.514709473</ele>
        <time>2015-11-05T09:36:35.262Z</time>
      </trkpt>
      <trkpt lat="46.23069" lon="4.68443">
        <ele>334.511322021</ele>
        <time>2015-11-05T09:36:36.276Z</time>
      </trkpt>
      <trkpt lat="46.23061" lon="4.68446">
        <ele>334.497741699</ele>
        <time>2015-11-05T09:36:42.298Z</time>
      </trkpt>
      <trkpt lat="46.2306" lon="4.68446">
        <ele>334.492614746</ele>
        <time>2015-11-05T09:36:43.277Z</time>
      </trkpt>
      <trkpt lat="46.23068" lon="4.68444">
        <ele>333.35055542</ele>
        <time>2015-11-05T09:37:57.288Z</time>
      </trkpt>
      <trkpt lat="46.23069" lon="4.68444">
        <ele>333.321807861</ele>
        <time>2015-11-05T09:37:58.278Z</time>
      </trkpt>
      <trkpt lat="46.23077" lon="4.6844">
        <ele>333.105987549</ele>
        <time>2015-11-05T09:38:07.291Z</time>
      </trkpt>
      <trkpt lat="46.23078" lon="4.6844">
        <ele>333.081665039</ele>
        <time>2015-11-05T09:38:08.285Z</time>
      </trkpt>
      <trkpt lat="46.2308" lon="4.68429">
        <ele>333.097198486</ele>
        <time>2015-11-05T09:38:19.292Z</time>
      </trkpt>
      <trkpt lat="46.2308" lon="4.68428">
        <ele>333.099639893</ele>
        <time>2015-11-05T09:38:20.278Z</time>
      </trkpt>
      <trkpt lat="46.2308" lon="4.68416">
        <ele>333.339538574</ele>
        <time>2015-11-05T09:38:29.301Z</time>
      </trkpt>
      <trkpt lat="46.23079" lon="4.68414">
        <ele>333.402984619</ele>
        <time>2015-11-05T09:38:30.284Z</time>
      </trkpt>
      <trkpt lat="46.23079" lon="4.68403">
        <ele>334.271270752</ele>
        <time>2015-11-05T09:38:39.286Z</time>
      </trkpt>
      <trkpt lat="46.23079" lon="4.68401">
        <ele>334.393432617</ele>
        <time>2015-11-05T09:38:40.276Z</time>
      </trkpt>
      <trkpt lat="46.23078" lon="4.68389">
        <ele>335.90423584</ele>
        <time>2015-11-05T09:38:51.297Z</time>
      </trkpt>
      <trkpt lat="46.23077" lon="4.68388">
        <ele>336.043426514</ele>
        <time>2015-11-05T09:38:52.276Z</time>
      </trkpt>
      <trkpt lat="46.23077" lon="4.68376">
        <ele>337.11706543</ele>
        <time>2015-11-05T09:39:01.291Z</time>
      </trkpt>
      <trkpt lat="46.23078" lon="4.68375">
        <ele>337.224304199</ele>
        <time>2015-11-05T09:39:02.289Z</time>
      </trkpt>
      <trkpt lat="46.23079" lon="4.68363">
        <ele>338.126464844</ele>
        <time>2015-11-05T09:39:10.294Z</time>
      </trkpt>
      <trkpt lat="46.2308" lon="4.68361">
        <ele>338.241088867</ele>
        <time>2015-11-05T09:39:11.315Z</time>
      </trkpt>
      <trkpt lat="46.23081" lon="4.68349">
        <ele>338.9715271</ele>
        <time>2015-11-05T09:39:19.294Z</time>
      </trkpt>
      <trkpt lat="46.23081" lon="4.68348">
        <ele>339.070983887</ele>
        <time>2015-11-05T09:39:20.29Z</time>
      </trkpt>
      <trkpt lat="46.23084" lon="4.68336">
        <ele>339.743865967</ele>
        <time>2015-11-05T09:39:28.311Z</time>
      </trkpt>
      <trkpt lat="46.23084" lon="4.68335">
        <ele>339.812133789</ele>
        <time>2015-11-05T09:39:29.292Z</time>
      </trkpt>
      <trkpt lat="46.23087" lon="4.68323">
        <ele>340.31262207</ele>
        <time>2015-11-05T09:39:37.281Z</time>
      </trkpt>
      <trkpt lat="46.23088" lon="4.68321">
        <ele>340.380126953</ele>
        <time>2015-11-05T09:39:38.279Z</time>
      </trkpt>
      <trkpt lat="46.23089" lon="4.68309">
        <ele>340.813873291</ele>
        <time>2015-11-05T09:39:46.281Z</time>
      </trkpt>
      <trkpt lat="46.2309" lon="4.68308">
        <ele>340.881713867</ele>
        <time>2015-11-05T09:39:47.279Z</time>
      </trkpt>
      <trkpt lat="46.23092" lon="4.68297">
        <ele>341.541015625</ele>
        <time>2015-11-05T09:39:56.3Z</time>
      </trkpt>
      <trkpt lat="46.23092" lon="4.68296">
        <ele>341.609344482</ele>
        <time>2015-11-05T09:39:57.275Z</time>
      </trkpt>
      <trkpt lat="46.23094" lon="4.68283">
        <ele>342.293670654</ele>
        <time>2015-11-05T09:40:06.309Z</time>
      </trkpt>
      <trkpt lat="46.23095" lon="4.68282">
        <ele>342.378936768</ele>
        <time>2015-11-05T09:40:07.255Z</time>
      </trkpt>
      <trkpt lat="46.23097" lon="4.68271">
        <ele>343.003173828</ele>
        <time>2015-11-05T09:40:15.272Z</time>
      </trkpt>
      <trkpt lat="46.23097" lon="4.68269">
        <ele>343.073272705</ele>
        <time>2015-11-05T09:40:16.263Z</time>
      </trkpt>
      <trkpt lat="46.23098" lon="4.68257">
        <ele>344.557098389</ele>
        <time>2015-11-05T09:40:30.268Z</time>
      </trkpt>
      <trkpt lat="46.23098" lon="4.68256">
        <ele>344.685455322</ele>
        <time>2015-11-05T09:40:31.261Z</time>
      </trkpt>
      <trkpt lat="46.23099" lon="4.68244">
        <ele>345.772613525</ele>
        <time>2015-11-05T09:40:40.278Z</time>
      </trkpt>
      <trkpt lat="46.23099" lon="4.68242">
        <ele>345.888549805</ele>
        <time>2015-11-05T09:40:41.284Z</time>
      </trkpt>
      <trkpt lat="46.231" lon="4.68229">
        <ele>346.972259521</ele>
        <time>2015-11-05T09:40:50.28Z</time>
      </trkpt>
      <trkpt lat="46.231" lon="4.68228">
        <ele>347.083831787</ele>
        <time>2015-11-05T09:40:51.248Z</time>
      </trkpt>
      <trkpt lat="46.23101" lon="4.68216">
        <ele>347.920715332</ele>
        <time>2015-11-05T09:40:59.276Z</time>
      </trkpt>
      <trkpt lat="46.23101" lon="4.68215">
        <ele>348.021331787</ele>
        <time>2015-11-05T09:41:00.269Z</time>
      </trkpt>
      <trkpt lat="46.23103" lon="4.68203">
        <ele>348.903167725</ele>
        <time>2015-11-05T09:41:09.279Z</time>
      </trkpt>
      <trkpt lat="46.23103" lon="4.68202">
        <ele>349.002319336</ele>
        <time>2015-11-05T09:41:10.272Z</time>
      </trkpt>
      <trkpt lat="46.23104" lon="4.6819">
        <ele>349.821899414</ele>
        <time>2015-11-05T09:41:18.277Z</time>
      </trkpt>
      <trkpt lat="46.23104" lon="4.68189">
        <ele>349.915496826</ele>
        <time>2015-11-05T09:41:19.271Z</time>
      </trkpt>
      <trkpt lat="46.23106" lon="4.68177">
        <ele>350.955841064</ele>
        <time>2015-11-05T09:41:29.29Z</time>
      </trkpt>
      <trkpt lat="46.23106" lon="4.68176">
        <ele>351.057067871</ele>
        <time>2015-11-05T09:41:30.269Z</time>
      </trkpt>
      <trkpt lat="46.23107" lon="4.68163">
        <ele>351.958679199</ele>
        <time>2015-11-05T09:41:39.28Z</time>
      </trkpt>
      <trkpt lat="46.23107" lon="4.68161">
        <ele>352.050476074</ele>
        <time>2015-11-05T09:41:40.269Z</time>
      </trkpt>
      <trkpt lat="46.2311" lon="4.68149">
        <ele>352.82913208</ele>
        <time>2015-11-05T09:41:49.292Z</time>
      </trkpt>
      <trkpt lat="46.2311" lon="4.68148">
        <ele>352.931335449</ele>
        <time>2015-11-05T09:41:50.252Z</time>
      </trkpt>
      <trkpt lat="46.23113" lon="4.68136">
        <ele>353.752624512</ele>
        <time>2015-11-05T09:41:59.337Z</time>
      </trkpt>
      <trkpt lat="46.23113" lon="4.68135">
        <ele>353.843048096</ele>
        <time>2015-11-05T09:42:00.266Z</time>
      </trkpt>
      <trkpt lat="46.23115" lon="4.68123">
        <ele>354.535736084</ele>
        <time>2015-11-05T09:42:08.317Z</time>
      </trkpt>
      <trkpt lat="46.23116" lon="4.68121">
        <ele>354.618103027</ele>
        <time>2015-11-05T09:42:09.265Z</time>
      </trkpt>
      <trkpt lat="46.23118" lon="4.6811">
        <ele>355.284240723</ele>
        <time>2015-11-05T09:42:17.282Z</time>
      </trkpt>
      <trkpt lat="46.23119" lon="4.68109">
        <ele>355.364257812</ele>
        <time>2015-11-05T09:42:18.27Z</time>
      </trkpt>
      <trkpt lat="46.2312" lon="4.68097">
        <ele>356.069030762</ele>
        <time>2015-11-05T09:42:26.285Z</time>
      </trkpt>
      <trkpt lat="46.2312" lon="4.68096">
        <ele>356.165527344</ele>
        <time>2015-11-05T09:42:27.27Z</time>
      </trkpt>
      <trkpt lat="46.23122" lon="4.68084">
        <ele>356.955718994</ele>
        <time>2015-11-05T09:42:36.286Z</time>
      </trkpt>
      <trkpt lat="46.23123" lon="4.68083">
        <ele>357.037628174</ele>
        <time>2015-11-05T09:42:37.287Z</time>
      </trkpt>
      <trkpt lat="46.23126" lon="4.68071">
        <ele>357.769500732</ele>
        <time>2015-11-05T09:42:46.3Z</time>
      </trkpt>
      <trkpt lat="46.23126" lon="4.6807">
        <ele>357.852722168</ele>
        <time>2015-11-05T09:42:47.265Z</time>
      </trkpt>
      <trkpt lat="46.23129" lon="4.68058">
        <ele>358.714813232</ele>
        <time>2015-11-05T09:42:56.29Z</time>
      </trkpt>
      <trkpt lat="46.2313" lon="4.68057">
        <ele>358.820800781</ele>
        <time>2015-11-05T09:42:57.27Z</time>
      </trkpt>
      <trkpt lat="46.23132" lon="4.68046">
        <ele>359.55279541</ele>
        <time>2015-11-05T09:43:05.289Z</time>
      </trkpt>
      <trkpt lat="46.23133" lon="4.68045">
        <ele>359.647766113</ele>
        <time>2015-11-05T09:43:06.271Z</time>
      </trkpt>
      <trkpt lat="46.23138" lon="4.68034">
        <ele>360.452423096</ele>
        <time>2015-11-05T09:43:14.282Z</time>
      </trkpt>
      <trkpt lat="46.23138" lon="4.68033">
        <ele>360.557556152</ele>
        <time>2015-11-05T09:43:15.266Z</time>
      </trkpt>
      <trkpt lat="46.23142" lon="4.68023">
        <ele>361.327209473</ele>
        <time>2015-11-05T09:43:23.307Z</time>
      </trkpt>
      <trkpt lat="46.23142" lon="4.68021">
        <ele>361.405456543</ele>
        <time>2015-11-05T09:43:24.271Z</time>
      </trkpt>
      <trkpt lat="46.23145" lon="4.6801">
        <ele>361.981262207</ele>
        <time>2015-11-05T09:43:32.319Z</time>
      </trkpt>
      <trkpt lat="46.23146" lon="4.68008">
        <ele>362.057647705</ele>
        <time>2015-11-05T09:43:33.27Z</time>
      </trkpt>
      <trkpt lat="46.23148" lon="4.67997">
        <ele>362.547515869</ele>
        <time>2015-11-05T09:43:40.307Z</time>
      </trkpt>
      <trkpt lat="46.23149" lon="4.67996">
        <ele>362.613342285</ele>
        <time>2015-11-05T09:43:41.287Z</time>
      </trkpt>
      <trkpt lat="46.23151" lon="4.67984">
        <ele>363.124206543</ele>
        <time>2015-11-05T09:43:49.307Z</time>
      </trkpt>
      <trkpt lat="46.23152" lon="4.67983">
        <ele>363.208892822</ele>
        <time>2015-11-05T09:43:50.273Z</time>
      </trkpt>
      <trkpt lat="46.23154" lon="4.67972">
        <ele>363.917144775</ele>
        <time>2015-11-05T09:43:58.292Z</time>
      </trkpt>
      <trkpt lat="46.23154" lon="4.6797">
        <ele>364.013244629</ele>
        <time>2015-11-05T09:43:59.274Z</time>
      </trkpt>
      <trkpt lat="46.23157" lon="4.67959">
        <ele>364.759643555</ele>
        <time>2015-11-05T09:44:07.287Z</time>
      </trkpt>
      <trkpt lat="46.23157" lon="4.67957">
        <ele>364.84664917</ele>
        <time>2015-11-05T09:44:08.278Z</time>
      </trkpt>
      <trkpt lat="46.2316" lon="4.67946">
        <ele>365.488220215</ele>
        <time>2015-11-05T09:44:15.282Z</time>
      </trkpt>
      <trkpt lat="46.2316" lon="4.67944">
        <ele>365.566558838</ele>
        <time>2015-11-05T09:44:16.273Z</time>
      </trkpt>
      <trkpt lat="46.23163" lon="4.67933">
        <ele>366.233825684</ele>
        <time>2015-11-05T09:44:24.308Z</time>
      </trkpt>
      <trkpt lat="46.23163" lon="4.67931">
        <ele>366.32131958</ele>
        <time>2015-11-05T09:44:25.274Z</time>
      </trkpt>
      <trkpt lat="46.23166" lon="4.6792">
        <ele>366.827056885</ele>
        <time>2015-11-05T09:44:32.298Z</time>
      </trkpt>
      <trkpt lat="46.23166" lon="4.67919">
        <ele>366.911132812</ele>
        <time>2015-11-05T09:44:33.274Z</time>
      </trkpt>
      <trkpt lat="46.2317" lon="4.67908">
        <ele>367.756195068</ele>
        <time>2015-11-05T09:44:42.286Z</time>
      </trkpt>
      <trkpt lat="46.2317" lon="4.67906">
        <ele>367.855194092</ele>
        <time>2015-11-05T09:44:43.278Z</time>
      </trkpt>
      <trkpt lat="46.23173" lon="4.67896">
        <ele>368.556945801</ele>
        <time>2015-11-05T09:44:50.275Z</time>
      </trkpt>
      <trkpt lat="46.23174" lon="4.67894">
        <ele>368.645965576</ele>
        <time>2015-11-05T09:44:51.269Z</time>
      </trkpt>
      <trkpt lat="46.23175" lon="4.67883">
        <ele>369.487121582</ele>
        <time>2015-11-05T09:44:59.281Z</time>
      </trkpt>
      <trkpt lat="46.23175" lon="4.67881">
        <ele>369.602294922</ele>
        <time>2015-11-05T09:45:00.268Z</time>
      </trkpt>
      <trkpt lat="46.23177" lon="4.6787">
        <ele>370.279937744</ele>
        <time>2015-11-05T09:45:07.276Z</time>
      </trkpt>
      <trkpt lat="46.23178" lon="4.67868">
        <ele>370.375244141</ele>
        <time>2015-11-05T09:45:08.268Z</time>
      </trkpt>
      <trkpt lat="46.23179" lon="4.67856">
        <ele>370.92779541</ele>
        <time>2015-11-05T09:45:15.281Z</time>
      </trkpt>
      <trkpt lat="46.2318" lon="4.67854">
        <ele>371.004577637</ele>
        <time>2015-11-05T09:45:16.275Z</time>
      </trkpt>
      <trkpt lat="46.23182" lon="4.67842">
        <ele>371.722991943</ele>
        <time>2015-11-05T09:45:24.281Z</time>
      </trkpt>
      <trkpt lat="46.23182" lon="4.67841">
        <ele>371.828216553</ele>
        <time>2015-11-05T09:45:25.312Z</time>
      </trkpt>
      <trkpt lat="46.23184" lon="4.6783">
        <ele>372.437957764</ele>
        <time>2015-11-05T09:45:31.278Z</time>
      </trkpt>
      <trkpt lat="46.23184" lon="4.67828">
        <ele>372.521606445</ele>
        <time>2015-11-05T09:45:32.272Z</time>
      </trkpt>
      <trkpt lat="46.23185" lon="4.67815">
        <ele>373.288543701</ele>
        <time>2015-11-05T09:45:40.278Z</time>
      </trkpt>
      <trkpt lat="46.23186" lon="4.67813">
        <ele>373.384765625</ele>
        <time>2015-11-05T09:45:41.278Z</time>
      </trkpt>
      <trkpt lat="46.23186" lon="4.67801">
        <ele>374.013275146</ele>
        <time>2015-11-05T09:45:48.281Z</time>
      </trkpt>
      <trkpt lat="46.23186" lon="4.67799">
        <ele>374.101165771</ele>
        <time>2015-11-05T09:45:49.262Z</time>
      </trkpt>
      <trkpt lat="46.23186" lon="4.67788">
        <ele>374.634429932</ele>
        <time>2015-11-05T09:45:56.279Z</time>
      </trkpt>
      <trkpt lat="46.23186" lon="4.67786">
        <ele>374.713623047</ele>
        <time>2015-11-05T09:45:57.268Z</time>
      </trkpt>
      <trkpt lat="46.23184" lon="4.67774">
        <ele>375.328735352</ele>
        <time>2015-11-05T09:46:04.28Z</time>
      </trkpt>
      <trkpt lat="46.23184" lon="4.67772">
        <ele>375.403747559</ele>
        <time>2015-11-05T09:46:05.274Z</time>
      </trkpt>
      <trkpt lat="46.2318" lon="4.6776">
        <ele>376.246429443</ele>
        <time>2015-11-05T09:46:14.285Z</time>
      </trkpt>
      <trkpt lat="46.2318" lon="4.67758">
        <ele>376.353363037</ele>
        <time>2015-11-05T09:46:15.269Z</time>
      </trkpt>
      <trkpt lat="46.23175" lon="4.67748">
        <ele>377.225799561</ele>
        <time>2015-11-05T09:46:24.279Z</time>
      </trkpt>
      <trkpt lat="46.23174" lon="4.67747">
        <ele>377.307617188</ele>
        <time>2015-11-05T09:46:25.269Z</time>
      </trkpt>
      <trkpt lat="46.23168" lon="4.67739">
        <ele>377.991882324</ele>
        <time>2015-11-05T09:46:32.283Z</time>
      </trkpt>
      <trkpt lat="46.23167" lon="4.67737">
        <ele>378.124420166</ele>
        <time>2015-11-05T09:46:33.268Z</time>
      </trkpt>
      <trkpt lat="46.23162" lon="4.67728">
        <ele>379.097717285</ele>
        <time>2015-11-05T09:46:41.284Z</time>
      </trkpt>
      <trkpt lat="46.23161" lon="4.67726">
        <ele>379.203948975</ele>
        <time>2015-11-05T09:46:42.26Z</time>
      </trkpt>
      <trkpt lat="46.23157" lon="4.67716">
        <ele>379.992370605</ele>
        <time>2015-11-05T09:46:49.3Z</time>
      </trkpt>
      <trkpt lat="46.23156" lon="4.67715">
        <ele>380.100006104</ele>
        <time>2015-11-05T09:46:50.284Z</time>
      </trkpt>
      <trkpt lat="46.23151" lon="4.67704">
        <ele>380.819702148</ele>
        <time>2015-11-05T09:46:57.286Z</time>
      </trkpt>
      <trkpt lat="46.2315" lon="4.67702">
        <ele>380.944580078</ele>
        <time>2015-11-05T09:46:58.264Z</time>
      </trkpt>
      <trkpt lat="46.23144" lon="4.67693">
        <ele>381.829406738</ele>
        <time>2015-11-05T09:47:05.28Z</time>
      </trkpt>
      <trkpt lat="46.23144" lon="4.67692">
        <ele>381.938995361</ele>
        <time>2015-11-05T09:47:06.268Z</time>
      </trkpt>
      <trkpt lat="46.23138" lon="4.67681">
        <ele>382.734008789</ele>
        <time>2015-11-05T09:47:14.278Z</time>
      </trkpt>
      <trkpt lat="46.23138" lon="4.6768">
        <ele>382.834350586</ele>
        <time>2015-11-05T09:47:15.265Z</time>
      </trkpt>
      <trkpt lat="46.23133" lon="4.6767">
        <ele>383.516021729</ele>
        <time>2015-11-05T09:47:22.287Z</time>
      </trkpt>
      <trkpt lat="46.23132" lon="4.67669">
        <ele>383.615478516</ele>
        <time>2015-11-05T09:47:23.27Z</time>
      </trkpt>
      <trkpt lat="46.23129" lon="4.67658">
        <ele>384.300109863</ele>
        <time>2015-11-05T09:47:31.282Z</time>
      </trkpt>
      <trkpt lat="46.23128" lon="4.67656">
        <ele>384.371765137</ele>
        <time>2015-11-05T09:47:32.269Z</time>
      </trkpt>
      <trkpt lat="46.23125" lon="4.67646">
        <ele>384.989685059</ele>
        <time>2015-11-05T09:47:39.282Z</time>
      </trkpt>
      <trkpt lat="46.23124" lon="4.67644">
        <ele>385.087158203</ele>
        <time>2015-11-05T09:47:40.273Z</time>
      </trkpt>
      <trkpt lat="46.23123" lon="4.67632">
        <ele>385.848175049</ele>
        <time>2015-11-05T09:47:47.281Z</time>
      </trkpt>
      <trkpt lat="46.23122" lon="4.67631">
        <ele>385.952178955</ele>
        <time>2015-11-05T09:47:48.273Z</time>
      </trkpt>
      <trkpt lat="46.23121" lon="4.67618">
        <ele>386.556274414</ele>
        <time>2015-11-05T09:47:55.285Z</time>
      </trkpt>
      <trkpt lat="46.23121" lon="4.67617">
        <ele>386.658416748</ele>
        <time>2015-11-05T09:47:56.278Z</time>
      </trkpt>
      <trkpt lat="46.2312" lon="4.67605">
        <ele>387.351409912</ele>
        <time>2015-11-05T09:48:03.282Z</time>
      </trkpt>
      <trkpt lat="46.2312" lon="4.67603">
        <ele>387.44229126</ele>
        <time>2015-11-05T09:48:04.268Z</time>
      </trkpt>
      <trkpt lat="46.23119" lon="4.67591">
        <ele>388.114593506</ele>
        <time>2015-11-05T09:48:11.304Z</time>
      </trkpt>
      <trkpt lat="46.23119" lon="4.6759">
        <ele>388.224273682</ele>
        <time>2015-11-05T09:48:12.28Z</time>
      </trkpt>
      <trkpt lat="46.23118" lon="4.67578">
        <ele>388.875823975</ele>
        <time>2015-11-05T09:48:19.346Z</time>
      </trkpt>
      <trkpt lat="46.23118" lon="4.67576">
        <ele>388.976928711</ele>
        <time>2015-11-05T09:48:20.272Z</time>
      </trkpt>
      <trkpt lat="46.23118" lon="4.67564">
        <ele>389.668212891</ele>
        <time>2015-11-05T09:48:27.287Z</time>
      </trkpt>
      <trkpt lat="46.23118" lon="4.67562">
        <ele>389.747955322</ele>
        <time>2015-11-05T09:48:28.288Z</time>
      </trkpt>
      <trkpt lat="46.23117" lon="4.67549">
        <ele>390.5730896</ele>
        <time>2015-11-05T09:48:36.287Z</time>
      </trkpt>
      <trkpt lat="46.23117" lon="4.67547">
        <ele>390.681121826</ele>
        <time>2015-11-05T09:48:37.313Z</time>
      </trkpt>
      <trkpt lat="46.23118" lon="4.67534">
        <ele>391.667633057</ele>
        <time>2015-11-05T09:48:45.289Z</time>
      </trkpt>
      <trkpt lat="46.23118" lon="4.67533">
        <ele>391.798431396</ele>
        <time>2015-11-05T09:48:46.27Z</time>
      </trkpt>
      <trkpt lat="46.23118" lon="4.6752">
        <ele>392.944946289</ele>
        <time>2015-11-05T09:48:54.287Z</time>
      </trkpt>
      <trkpt lat="46.23118" lon="4.67518">
        <ele>393.085906982</ele>
        <time>2015-11-05T09:48:55.282Z</time>
      </trkpt>
      <trkpt lat="46.23119" lon="4.67506">
        <ele>393.909240723</ele>
        <time>2015-11-05T09:49:02.291Z</time>
      </trkpt>
      <trkpt lat="46.23119" lon="4.67504">
        <ele>394.036590576</ele>
        <time>2015-11-05T09:49:03.273Z</time>
      </trkpt>
      <trkpt lat="46.23119" lon="4.67491">
        <ele>394.962615967</ele>
        <time>2015-11-05T09:49:11.291Z</time>
      </trkpt>
      <trkpt lat="46.23119" lon="4.67491">
        <ele>395.071411133</ele>
        <time>2015-11-05T09:49:12.284Z</time>
      </trkpt>
      <trkpt lat="46.23127" lon="4.67485">
        <ele>399.886077881</ele>
        <time>2015-11-05T09:50:30.28Z</time>
      </trkpt>
      <trkpt lat="46.23127" lon="4.67485">
        <ele>400.091644287</ele>
        <time>2015-11-05T09:50:31.27Z</time>
      </trkpt>
      <trkpt lat="46.23135" lon="4.67479">
        <ele>401.137664795</ele>
        <time>2015-11-05T09:50:37.323Z</time>
      </trkpt>
      <trkpt lat="46.23136" lon="4.67478">
        <ele>401.245910645</ele>
        <time>2015-11-05T09:50:38.268Z</time>
      </trkpt>
      <trkpt lat="46.23144" lon="4.67472">
        <ele>401.777709961</ele>
        <time>2015-11-05T09:50:45.278Z</time>
      </trkpt>
      <trkpt lat="46.23144" lon="4.67472">
        <ele>401.848327637</ele>
        <time>2015-11-05T09:50:46.269Z</time>
      </trkpt>
      <trkpt lat="46.23152" lon="4.67468">
        <ele>402.559509277</ele>
        <time>2015-11-05T09:50:54.279Z</time>
      </trkpt>
      <trkpt lat="46.23153" lon="4.67467">
        <ele>402.634429932</ele>
        <time>2015-11-05T09:50:55.268Z</time>
      </trkpt>
      <trkpt lat="46.23161" lon="4.67462">
        <ele>403.238494873</ele>
        <time>2015-11-05T09:51:03.279Z</time>
      </trkpt>
      <trkpt lat="46.23162" lon="4.67461">
        <ele>403.34362793</ele>
        <time>2015-11-05T09:51:04.269Z</time>
      </trkpt>
      <trkpt lat="46.23169" lon="4.67453">
        <ele>404.647247314</ele>
        <time>2015-11-05T09:51:14.297Z</time>
      </trkpt>
      <trkpt lat="46.23169" lon="4.67453">
        <ele>404.769012451</ele>
        <time>2015-11-05T09:51:15.269Z</time>
      </trkpt>
      <trkpt lat="46.23176" lon="4.67446">
        <ele>405.536132812</ele>
        <time>2015-11-05T09:51:22.279Z</time>
      </trkpt>
      <trkpt lat="46.23178" lon="4.67445">
        <ele>405.569976807</ele>
        <time>2015-11-05T09:51:23.269Z</time>
      </trkpt>
      <trkpt lat="46.23184" lon="4.6744">
        <ele>406.689483643</ele>
        <time>2015-11-05T09:51:31.276Z</time>
      </trkpt>
      <trkpt lat="46.23186" lon="4.67439">
        <ele>406.845794678</ele>
        <time>2015-11-05T09:51:32.267Z</time>
      </trkpt>
      <trkpt lat="46.23193" lon="4.67432">
        <ele>407.814208984</ele>
        <time>2015-11-05T09:51:40.279Z</time>
      </trkpt>
      <trkpt lat="46.23194" lon="4.67432">
        <ele>407.902923584</ele>
        <time>2015-11-05T09:51:41.268Z</time>
      </trkpt>
      <trkpt lat="46.232" lon="4.67425">
        <ele>408.580810547</ele>
        <time>2015-11-05T09:51:49.278Z</time>
      </trkpt>
      <trkpt lat="46.23201" lon="4.67424">
        <ele>408.706970215</ele>
        <time>2015-11-05T09:51:50.268Z</time>
      </trkpt>
      <trkpt lat="46.23209" lon="4.67419">
        <ele>410.21887207</ele>
        <time>2015-11-05T09:52:00.282Z</time>
      </trkpt>
      <trkpt lat="46.23211" lon="4.67418">
        <ele>410.348297119</ele>
        <time>2015-11-05T09:52:01.27Z</time>
      </trkpt>
      <trkpt lat="46.23218" lon="4.67412">
        <ele>411.64831543</ele>
        <time>2015-11-05T09:52:10.276Z</time>
      </trkpt>
      <trkpt lat="46.23219" lon="4.67411">
        <ele>411.797088623</ele>
        <time>2015-11-05T09:52:11.274Z</time>
      </trkpt>
      <trkpt lat="46.23226" lon="4.67404">
        <ele>412.788848877</ele>
        <time>2015-11-05T09:52:18.281Z</time>
      </trkpt>
      <trkpt lat="46.23227" lon="4.67403">
        <ele>412.937835693</ele>
        <time>2015-11-05T09:52:19.273Z</time>
      </trkpt>
      <trkpt lat="46.23234" lon="4.67397">
        <ele>414.350952148</ele>
        <time>2015-11-05T09:52:29.28Z</time>
      </trkpt>
      <trkpt lat="46.23235" lon="4.67396">
        <ele>414.521881104</ele>
        <time>2015-11-05T09:52:30.273Z</time>
      </trkpt>
      <trkpt lat="46.23241" lon="4.67389">
        <ele>416.135620117</ele>
        <time>2015-11-05T09:52:40.282Z</time>
      </trkpt>
      <trkpt lat="46.23242" lon="4.67388">
        <ele>416.30178833</ele>
        <time>2015-11-05T09:52:41.35Z</time>
      </trkpt>
      <trkpt lat="46.23249" lon="4.6738">
        <ele>418.70300293</ele>
        <time>2015-11-05T09:52:55.281Z</time>
      </trkpt>
      <trkpt lat="46.23249" lon="4.67379">
        <ele>418.863586426</ele>
        <time>2015-11-05T09:52:56.27Z</time>
      </trkpt>
      <trkpt lat="46.23256" lon="4.67371">
        <ele>420.596710205</ele>
        <time>2015-11-05T09:53:07.259Z</time>
      </trkpt>
      <trkpt lat="46.23256" lon="4.67371">
        <ele>420.746948242</ele>
        <time>2015-11-05T09:53:08.282Z</time>
      </trkpt>
      <trkpt lat="46.23263" lon="4.67363">
        <ele>422.412811279</ele>
        <time>2015-11-05T09:53:18.285Z</time>
      </trkpt>
      <trkpt lat="46.23264" lon="4.67362">
        <ele>422.571899414</ele>
        <time>2015-11-05T09:53:19.271Z</time>
      </trkpt>
      <trkpt lat="46.2327" lon="4.67354">
        <ele>423.858276367</ele>
        <time>2015-11-05T09:53:28.292Z</time>
      </trkpt>
      <trkpt lat="46.2327" lon="4.67353">
        <ele>424.00869751</ele>
        <time>2015-11-05T09:53:29.271Z</time>
      </trkpt>
      <trkpt lat="46.23277" lon="4.67347">
        <ele>426.024017334</ele>
        <time>2015-11-05T09:53:42.285Z</time>
      </trkpt>
      <trkpt lat="46.23278" lon="4.67346">
        <ele>426.206359863</ele>
        <time>2015-11-05T09:53:43.27Z</time>
      </trkpt>
      <trkpt lat="46.23285" lon="4.67339">
        <ele>427.902893066</ele>
        <time>2015-11-05T09:53:53.288Z</time>
      </trkpt>
      <trkpt lat="46.23285" lon="4.67338">
        <ele>428.055450439</ele>
        <time>2015-11-05T09:53:54.272Z</time>
      </trkpt>
      <trkpt lat="46.23293" lon="4.67331">
        <ele>429.578460693</ele>
        <time>2015-11-05T09:54:04.3Z</time>
      </trkpt>
      <trkpt lat="46.23294" lon="4.6733">
        <ele>429.710510254</ele>
        <time>2015-11-05T09:54:05.273Z</time>
      </trkpt>
      <trkpt lat="46.23301" lon="4.67323">
        <ele>431.385192871</ele>
        <time>2015-11-05T09:54:16.33Z</time>
      </trkpt>
      <trkpt lat="46.23301" lon="4.67323">
        <ele>431.554626465</ele>
        <time>2015-11-05T09:54:17.281Z</time>
      </trkpt>
      <trkpt lat="46.23309" lon="4.67317">
        <ele>433.131591797</ele>
        <time>2015-11-05T09:54:26.287Z</time>
      </trkpt>
      <trkpt lat="46.2331" lon="4.67316">
        <ele>433.292480469</ele>
        <time>2015-11-05T09:54:27.272Z</time>
      </trkpt>
      <trkpt lat="46.23317" lon="4.67309">
        <ele>434.519073486</ele>
        <time>2015-11-05T09:54:35.294Z</time>
      </trkpt>
      <trkpt lat="46.23318" lon="4.67309">
        <ele>434.688812256</ele>
        <time>2015-11-05T09:54:36.272Z</time>
      </trkpt>
      <trkpt lat="46.23325" lon="4.67302">
        <ele>435.830810547</ele>
        <time>2015-11-05T09:54:44.349Z</time>
      </trkpt>
      <trkpt lat="46.23326" lon="4.67301">
        <ele>435.962036133</ele>
        <time>2015-11-05T09:54:45.274Z</time>
      </trkpt>
      <trkpt lat="46.23333" lon="4.67295">
        <ele>437.209960938</ele>
        <time>2015-11-05T09:54:54.299Z</time>
      </trkpt>
      <trkpt lat="46.23335" lon="4.67294">
        <ele>437.334289551</ele>
        <time>2015-11-05T09:54:55.273Z</time>
      </trkpt>
      <trkpt lat="46.23342" lon="4.67288">
        <ele>438.329833984</ele>
        <time>2015-11-05T09:55:03.296Z</time>
      </trkpt>
      <trkpt lat="46.23342" lon="4.67287">
        <ele>438.489898682</ele>
        <time>2015-11-05T09:55:04.28Z</time>
      </trkpt>
      <trkpt lat="46.23348" lon="4.67279">
        <ele>439.724365234</ele>
        <time>2015-11-05T09:55:11.299Z</time>
      </trkpt>
      <trkpt lat="46.23349" lon="4.67277">
        <ele>439.878417969</ele>
        <time>2015-11-05T09:55:12.287Z</time>
      </trkpt>
      <trkpt lat="46.23356" lon="4.6727">
        <ele>440.944549561</ele>
        <time>2015-11-05T09:55:19.287Z</time>
      </trkpt>
      <trkpt lat="46.23357" lon="4.67269">
        <ele>441.101379395</ele>
        <time>2015-11-05T09:55:20.258Z</time>
      </trkpt>
      <trkpt lat="46.23362" lon="4.6726">
        <ele>442.198944092</ele>
        <time>2015-11-05T09:55:27.283Z</time>
      </trkpt>
      <trkpt lat="46.23363" lon="4.67259">
        <ele>442.356231689</ele>
        <time>2015-11-05T09:55:28.268Z</time>
      </trkpt>
      <trkpt lat="46.2337" lon="4.67251">
        <ele>443.594390869</ele>
        <time>2015-11-05T09:55:36.281Z</time>
      </trkpt>
      <trkpt lat="46.23371" lon="4.6725">
        <ele>443.722808838</ele>
        <time>2015-11-05T09:55:37.267Z</time>
      </trkpt>
      <trkpt lat="46.23378" lon="4.67241">
        <ele>444.732818604</ele>
        <time>2015-11-05T09:55:45.28Z</time>
      </trkpt>
      <trkpt lat="46.23379" lon="4.67241">
        <ele>444.855499268</ele>
        <time>2015-11-05T09:55:46.267Z</time>
      </trkpt>
      <trkpt lat="46.23385" lon="4.67233">
        <ele>445.748809814</ele>
        <time>2015-11-05T09:55:54.277Z</time>
      </trkpt>
      <trkpt lat="46.23386" lon="4.67231">
        <ele>445.853973389</ele>
        <time>2015-11-05T09:55:55.26Z</time>
      </trkpt>
      <trkpt lat="46.23393" lon="4.67224">
        <ele>446.797241211</ele>
        <time>2015-11-05T09:56:03.27Z</time>
      </trkpt>
      <trkpt lat="46.23393" lon="4.67223">
        <ele>446.920440674</ele>
        <time>2015-11-05T09:56:04.244Z</time>
      </trkpt>
      <trkpt lat="46.23399" lon="4.67215">
        <ele>447.703643799</ele>
        <time>2015-11-05T09:56:11.284Z</time>
      </trkpt>
      <trkpt lat="46.234" lon="4.67214">
        <ele>447.82244873</ele>
        <time>2015-11-05T09:56:12.27Z</time>
      </trkpt>
      <trkpt lat="46.23406" lon="4.67205">
        <ele>449.111206055</ele>
        <time>2015-11-05T09:56:21.277Z</time>
      </trkpt>
      <trkpt lat="46.23407" lon="4.67204">
        <ele>449.246002197</ele>
        <time>2015-11-05T09:56:22.268Z</time>
      </trkpt>
      <trkpt lat="46.23414" lon="4.67197">
        <ele>450.477294922</ele>
        <time>2015-11-05T09:56:31.409Z</time>
      </trkpt>
      <trkpt lat="46.23415" lon="4.67196">
        <ele>450.60736084</ele>
        <time>2015-11-05T09:56:32.26Z</time>
      </trkpt>
      <trkpt lat="46.23422" lon="4.67188">
        <ele>451.441040039</ele>
        <time>2015-11-05T09:56:39.276Z</time>
      </trkpt>
      <trkpt lat="46.23422" lon="4.67188">
        <ele>451.560668945</ele>
        <time>2015-11-05T09:56:40.261Z</time>
      </trkpt>
      <trkpt lat="46.23429" lon="4.6718">
        <ele>452.905609131</ele>
        <time>2015-11-05T09:56:50.281Z</time>
      </trkpt>
      <trkpt lat="46.23429" lon="4.67179">
        <ele>453.080047607</ele>
        <time>2015-11-05T09:56:51.262Z</time>
      </trkpt>
      <trkpt lat="46.23436" lon="4.67172">
        <ele>455.311706543</ele>
        <time>2015-11-05T09:57:09.278Z</time>
      </trkpt>
      <trkpt lat="46.23437" lon="4.67172">
        <ele>455.431518555</ele>
        <time>2015-11-05T09:57:10.251Z</time>
      </trkpt>
      <trkpt lat="46.23445" lon="4.67167">
        <ele>456.693725586</ele>
        <time>2015-11-05T09:57:18.277Z</time>
      </trkpt>
      <trkpt lat="46.23446" lon="4.67166">
        <ele>456.821899414</ele>
        <time>2015-11-05T09:57:19.259Z</time>
      </trkpt>
      <trkpt lat="46.23452" lon="4.67158">
        <ele>458.085357666</ele>
        <time>2015-11-05T09:57:27.275Z</time>
      </trkpt>
      <trkpt lat="46.23453" lon="4.67157">
        <ele>458.25982666</ele>
        <time>2015-11-05T09:57:28.268Z</time>
      </trkpt>
      <trkpt lat="46.23457" lon="4.67146">
        <ele>459.617431641</ele>
        <time>2015-11-05T09:57:36.279Z</time>
      </trkpt>
      <trkpt lat="46.23457" lon="4.67144">
        <ele>459.779449463</ele>
        <time>2015-11-05T09:57:37.268Z</time>
      </trkpt>
      <trkpt lat="46.2346" lon="4.67133">
        <ele>460.929199219</ele>
        <time>2015-11-05T09:57:45.278Z</time>
      </trkpt>
      <trkpt lat="46.23461" lon="4.67132">
        <ele>461.058685303</ele>
        <time>2015-11-05T09:57:46.263Z</time>
      </trkpt>
      <trkpt lat="46.23464" lon="4.67121">
        <ele>462.383544922</ele>
        <time>2015-11-05T09:57:54.281Z</time>
      </trkpt>
      <trkpt lat="46.23464" lon="4.6712">
        <ele>462.555267334</ele>
        <time>2015-11-05T09:57:55.268Z</time>
      </trkpt>
      <trkpt lat="46.23469" lon="4.67109">
        <ele>464.169067383</ele>
        <time>2015-11-05T09:58:04.307Z</time>
      </trkpt>
      <trkpt lat="46.23469" lon="4.67108">
        <ele>464.344268799</ele>
        <time>2015-11-05T09:58:05.269Z</time>
      </trkpt>
      <trkpt lat="46.23474" lon="4.67098">
        <ele>465.929382324</ele>
        <time>2015-11-05T09:58:14.28Z</time>
      </trkpt>
      <trkpt lat="46.23475" lon="4.67097">
        <ele>466.103759766</ele>
        <time>2015-11-05T09:58:15.268Z</time>
      </trkpt>
      <trkpt lat="46.23481" lon="4.67087">
        <ele>467.710418701</ele>
        <time>2015-11-05T09:58:24.288Z</time>
      </trkpt>
      <trkpt lat="46.23481" lon="4.67086">
        <ele>467.867858887</ele>
        <time>2015-11-05T09:58:25.263Z</time>
      </trkpt>
      <trkpt lat="46.23488" lon="4.67079">
        <ele>469.055938721</ele>
        <time>2015-11-05T09:58:33.278Z</time>
      </trkpt>
      <trkpt lat="46.23488" lon="4.67077">
        <ele>469.206970215</ele>
        <time>2015-11-05T09:58:34.27Z</time>
      </trkpt>
      <trkpt lat="46.23495" lon="4.6707">
        <ele>470.389923096</ele>
        <time>2015-11-05T09:58:42.437Z</time>
      </trkpt>
      <trkpt lat="46.23496" lon="4.67069">
        <ele>470.531890869</ele>
        <time>2015-11-05T09:58:43.27Z</time>
      </trkpt>
      <trkpt lat="46.23504" lon="4.67064">
        <ele>471.892059326</ele>
        <time>2015-11-05T09:58:53.305Z</time>
      </trkpt>
      <trkpt lat="46.23505" lon="4.67064">
        <ele>472.024841309</ele>
        <time>2015-11-05T09:58:54.271Z</time>
      </trkpt>
      <trkpt lat="46.23509" lon="4.67052">
        <ele>475.32901001</ele>
        <time>2015-11-05T09:59:49.284Z</time>
      </trkpt>
      <trkpt lat="46.23509" lon="4.67051">
        <ele>475.398773193</ele>
        <time>2015-11-05T09:59:50.277Z</time>
      </trkpt>
      <trkpt lat="46.23511" lon="4.67038">
        <ele>476.075805664</ele>
        <time>2015-11-05T09:59:58.284Z</time>
      </trkpt>
      <trkpt lat="46.23511" lon="4.67036">
        <ele>476.177947998</ele>
        <time>2015-11-05T09:59:59.273Z</time>
      </trkpt>
      <trkpt lat="46.23518" lon="4.67028">
        <ele>476.48626709</ele>
        <time>2015-11-05T10:00:18.292Z</time>
      </trkpt>
      <trkpt lat="46.23518" lon="4.67028">
        <ele>476.494659424</ele>
        <time>2015-11-05T10:00:19.278Z</time>
      </trkpt>
      <trkpt lat="46.23523" lon="4.67017">
        <ele>477.414093018</ele>
        <time>2015-11-05T10:00:32.319Z</time>
      </trkpt>
      <trkpt lat="46.23523" lon="4.67016">
        <ele>477.499633789</ele>
        <time>2015-11-05T10:00:33.276Z</time>
      </trkpt>
      <trkpt lat="46.23529" lon="4.67007">
        <ele>478.142608643</ele>
        <time>2015-11-05T10:00:40.267Z</time>
      </trkpt>
      <trkpt lat="46.23529" lon="4.67006">
        <ele>478.224975586</ele>
        <time>2015-11-05T10:00:41.264Z</time>
      </trkpt>
      <trkpt lat="46.23535" lon="4.66997">
        <ele>478.713806152</ele>
        <time>2015-11-05T10:00:48.268Z</time>
      </trkpt>
      <trkpt lat="46.23536" lon="4.66996">
        <ele>478.753814697</ele>
        <time>2015-11-05T10:00:49.252Z</time>
      </trkpt>
      <trkpt lat="46.23542" lon="4.66989">
        <ele>478.873138428</ele>
        <time>2015-11-05T10:00:55.263Z</time>
      </trkpt>
      <trkpt lat="46.23544" lon="4.66988">
        <ele>478.87878418</ele>
        <time>2015-11-05T10:00:56.259Z</time>
      </trkpt>
      <trkpt lat="46.2355" lon="4.66981">
        <ele>479.276092529</ele>
        <time>2015-11-05T10:01:05.273Z</time>
      </trkpt>
      <trkpt lat="46.23551" lon="4.6698">
        <ele>479.318939209</ele>
        <time>2015-11-05T10:01:06.261Z</time>
      </trkpt>
      <trkpt lat="46.23557" lon="4.66972">
        <ele>479.374389648</ele>
        <time>2015-11-05T10:01:12.273Z</time>
      </trkpt>
      <trkpt lat="46.23558" lon="4.66971">
        <ele>479.366149902</ele>
        <time>2015-11-05T10:01:13.258Z</time>
      </trkpt>
      <trkpt lat="46.23563" lon="4.6696">
        <ele>479.231903076</ele>
        <time>2015-11-05T10:01:22.271Z</time>
      </trkpt>
      <trkpt lat="46.23563" lon="4.66959">
        <ele>479.222351074</ele>
        <time>2015-11-05T10:01:23.263Z</time>
      </trkpt>
      <trkpt lat="46.23564" lon="4.66947">
        <ele>479.199829102</ele>
        <time>2015-11-05T10:01:30.272Z</time>
      </trkpt>
      <trkpt lat="46.23564" lon="4.66945">
        <ele>479.207397461</ele>
        <time>2015-11-05T10:01:31.26Z</time>
      </trkpt>
      <trkpt lat="46.23566" lon="4.66933">
        <ele>479.246612549</ele>
        <time>2015-11-05T10:01:38.332Z</time>
      </trkpt>
      <trkpt lat="46.23566" lon="4.66931">
        <ele>479.252685547</ele>
        <time>2015-11-05T10:01:39.255Z</time>
      </trkpt>
      <trkpt lat="46.23567" lon="4.66919">
        <ele>479.303985596</ele>
        <time>2015-11-05T10:01:47.311Z</time>
      </trkpt>
      <trkpt lat="46.23567" lon="4.66917">
        <ele>479.316436768</ele>
        <time>2015-11-05T10:01:48.256Z</time>
      </trkpt>
      <trkpt lat="46.23569" lon="4.66906">
        <ele>479.406158447</ele>
        <time>2015-11-05T10:01:55.275Z</time>
      </trkpt>
      <trkpt lat="46.23569" lon="4.66904">
        <ele>479.420837402</ele>
        <time>2015-11-05T10:01:56.272Z</time>
      </trkpt>
      <trkpt lat="46.2357" lon="4.66892">
        <ele>479.535217285</ele>
        <time>2015-11-05T10:02:03.272Z</time>
      </trkpt>
      <trkpt lat="46.2357" lon="4.66891">
        <ele>479.55255127</ele>
        <time>2015-11-05T10:02:04.261Z</time>
      </trkpt>
      <trkpt lat="46.23572" lon="4.66879">
        <ele>479.701873779</ele>
        <time>2015-11-05T10:02:11.414Z</time>
      </trkpt>
      <trkpt lat="46.23572" lon="4.66877">
        <ele>479.732177734</ele>
        <time>2015-11-05T10:02:12.262Z</time>
      </trkpt>
      <trkpt lat="46.23573" lon="4.66866">
        <ele>479.962310791</ele>
        <time>2015-11-05T10:02:19.278Z</time>
      </trkpt>
      <trkpt lat="46.23573" lon="4.66864">
        <ele>479.995147705</ele>
        <time>2015-11-05T10:02:20.262Z</time>
      </trkpt>
      <trkpt lat="46.23575" lon="4.66851">
        <ele>480.294403076</ele>
        <time>2015-11-05T10:02:28.279Z</time>
      </trkpt>
      <trkpt lat="46.23575" lon="4.6685">
        <ele>480.340881348</ele>
        <time>2015-11-05T10:02:29.27Z</time>
      </trkpt>
      <trkpt lat="46.23577" lon="4.66838">
        <ele>480.781005859</ele>
        <time>2015-11-05T10:02:37.286Z</time>
      </trkpt>
      <trkpt lat="46.23577" lon="4.66836">
        <ele>480.846130371</ele>
        <time>2015-11-05T10:02:38.256Z</time>
      </trkpt>
      <trkpt lat="46.23578" lon="4.66824">
        <ele>481.508270264</ele>
        <time>2015-11-05T10:02:47.412Z</time>
      </trkpt>
      <trkpt lat="46.23579" lon="4.66822">
        <ele>481.584381104</ele>
        <time>2015-11-05T10:02:48.257Z</time>
      </trkpt>
      <trkpt lat="46.2358" lon="4.6681">
        <ele>482.214141846</ele>
        <time>2015-11-05T10:02:56.279Z</time>
      </trkpt>
      <trkpt lat="46.2358" lon="4.66809">
        <ele>482.299102783</ele>
        <time>2015-11-05T10:02:57.262Z</time>
      </trkpt>
      <trkpt lat="46.23582" lon="4.66796">
        <ele>482.995941162</ele>
        <time>2015-11-05T10:03:05.279Z</time>
      </trkpt>
      <trkpt lat="46.23583" lon="4.66794">
        <ele>483.079101562</ele>
        <time>2015-11-05T10:03:06.272Z</time>
      </trkpt>
      <trkpt lat="46.23584" lon="4.66782">
        <ele>483.811523438</ele>
        <time>2015-11-05T10:03:14.296Z</time>
      </trkpt>
      <trkpt lat="46.23584" lon="4.6678">
        <ele>483.899169922</ele>
        <time>2015-11-05T10:03:15.262Z</time>
      </trkpt>
      <trkpt lat="46.23583" lon="4.66768">
        <ele>484.623382568</ele>
        <time>2015-11-05T10:03:23.272Z</time>
      </trkpt>
      <trkpt lat="46.23582" lon="4.66766">
        <ele>484.724517822</ele>
        <time>2015-11-05T10:03:24.263Z</time>
      </trkpt>
      <trkpt lat="46.23583" lon="4.66754">
        <ele>485.628540039</ele>
        <time>2015-11-05T10:03:33.353Z</time>
      </trkpt>
      <trkpt lat="46.23583" lon="4.66752">
        <ele>485.727874756</ele>
        <time>2015-11-05T10:03:34.269Z</time>
      </trkpt>
      <trkpt lat="46.23587" lon="4.6674">
        <ele>486.572509766</ele>
        <time>2015-11-05T10:03:43.297Z</time>
      </trkpt>
      <trkpt lat="46.23587" lon="4.66739">
        <ele>486.660308838</ele>
        <time>2015-11-05T10:03:44.263Z</time>
      </trkpt>
      <trkpt lat="46.23589" lon="4.66728">
        <ele>487.350524902</ele>
        <time>2015-11-05T10:03:52.278Z</time>
      </trkpt>
      <trkpt lat="46.23589" lon="4.66726">
        <ele>487.445281982</ele>
        <time>2015-11-05T10:03:53.263Z</time>
      </trkpt>
      <trkpt lat="46.2359" lon="4.66715">
        <ele>488.096893311</ele>
        <time>2015-11-05T10:04:01.261Z</time>
      </trkpt>
      <trkpt lat="46.23591" lon="4.66713">
        <ele>488.183380127</ele>
        <time>2015-11-05T10:04:02.265Z</time>
      </trkpt>
      <trkpt lat="46.23593" lon="4.66702">
        <ele>489.013000488</ele>
        <time>2015-11-05T10:04:10.277Z</time>
      </trkpt>
      <trkpt lat="46.23593" lon="4.667">
        <ele>489.127868652</ele>
        <time>2015-11-05T10:04:11.263Z</time>
      </trkpt>
      <trkpt lat="46.23594" lon="4.66687">
        <ele>489.913543701</ele>
        <time>2015-11-05T10:04:19.28Z</time>
      </trkpt>
      <trkpt lat="46.23595" lon="4.66686">
        <ele>490.020111084</ele>
        <time>2015-11-05T10:04:20.265Z</time>
      </trkpt>
      <trkpt lat="46.23598" lon="4.66675">
        <ele>490.631103516</ele>
        <time>2015-11-05T10:04:26.278Z</time>
      </trkpt>
      <trkpt lat="46.23599" lon="4.66674">
        <ele>490.715148926</ele>
        <time>2015-11-05T10:04:27.264Z</time>
      </trkpt>
      <trkpt lat="46.23602" lon="4.66662">
        <ele>491.425628662</ele>
        <time>2015-11-05T10:04:35.276Z</time>
      </trkpt>
      <trkpt lat="46.23602" lon="4.6666">
        <ele>491.511901855</ele>
        <time>2015-11-05T10:04:36.264Z</time>
      </trkpt>
      <trkpt lat="46.23603" lon="4.66649">
        <ele>492.134124756</ele>
        <time>2015-11-05T10:04:43.288Z</time>
      </trkpt>
      <trkpt lat="46.23604" lon="4.66647">
        <ele>492.2215271</ele>
        <time>2015-11-05T10:04:44.265Z</time>
      </trkpt>
      <trkpt lat="46.23605" lon="4.66634">
        <ele>492.805664062</ele>
        <time>2015-11-05T10:04:51.307Z</time>
      </trkpt>
      <trkpt lat="46.23605" lon="4.66633">
        <ele>492.871520996</ele>
        <time>2015-11-05T10:04:52.285Z</time>
      </trkpt>
      <trkpt lat="46.23606" lon="4.66622">
        <ele>493.397369385</ele>
        <time>2015-11-05T10:04:59.286Z</time>
      </trkpt>
      <trkpt lat="46.23606" lon="4.66619">
        <ele>493.468383789</ele>
        <time>2015-11-05T10:05:00.28Z</time>
      </trkpt>
      <trkpt lat="46.23606" lon="4.66606">
        <ele>493.829803467</ele>
        <time>2015-11-05T10:05:07.287Z</time>
      </trkpt>
      <trkpt lat="46.23606" lon="4.66605">
        <ele>493.898223877</ele>
        <time>2015-11-05T10:05:08.279Z</time>
      </trkpt>
      <trkpt lat="46.23606" lon="4.66593">
        <ele>494.288635254</ele>
        <time>2015-11-05T10:05:15.28Z</time>
      </trkpt>
      <trkpt lat="46.23607" lon="4.66591">
        <ele>494.342681885</ele>
        <time>2015-11-05T10:05:16.283Z</time>
      </trkpt>
      <trkpt lat="46.23606" lon="4.66579">
        <ele>494.764831543</ele>
        <time>2015-11-05T10:05:23.289Z</time>
      </trkpt>
      <trkpt lat="46.23606" lon="4.66577">
        <ele>494.82043457</ele>
        <time>2015-11-05T10:05:24.267Z</time>
      </trkpt>
      <trkpt lat="46.23604" lon="4.66565">
        <ele>495.449066162</ele>
        <time>2015-11-05T10:05:32.279Z</time>
      </trkpt>
      <trkpt lat="46.23604" lon="4.66563">
        <ele>495.530395508</ele>
        <time>2015-11-05T10:05:33.267Z</time>
      </trkpt>
      <trkpt lat="46.23603" lon="4.66552">
        <ele>496.084320068</ele>
        <time>2015-11-05T10:05:40.292Z</time>
      </trkpt>
      <trkpt lat="46.23603" lon="4.6655">
        <ele>496.180603027</ele>
        <time>2015-11-05T10:05:41.266Z</time>
      </trkpt>
      <trkpt lat="46.236" lon="4.66539">
        <ele>496.505432129</ele>
        <time>2015-11-05T10:05:46.295Z</time>
      </trkpt>
      <trkpt lat="46.236" lon="4.66537">
        <ele>496.534606934</ele>
        <time>2015-11-05T10:05:47.28Z</time>
      </trkpt>
      <trkpt lat="46.23597" lon="4.66525">
        <ele>497.07019043</ele>
        <time>2015-11-05T10:05:55.288Z</time>
      </trkpt>
      <trkpt lat="46.23596" lon="4.66524">
        <ele>497.131195068</ele>
        <time>2015-11-05T10:05:56.271Z</time>
      </trkpt>
      <trkpt lat="46.23592" lon="4.66514">
        <ele>497.616516113</ele>
        <time>2015-11-05T10:06:03.269Z</time>
      </trkpt>
      <trkpt lat="46.23591" lon="4.66512">
        <ele>497.688476562</ele>
        <time>2015-11-05T10:06:04.257Z</time>
      </trkpt>
      <trkpt lat="46.23585" lon="4.66504">
        <ele>497.815063477</ele>
        <time>2015-11-05T10:06:10.322Z</time>
      </trkpt>
      <trkpt lat="46.23584" lon="4.66502">
        <ele>497.823181152</ele>
        <time>2015-11-05T10:06:11.236Z</time>
      </trkpt>
      <trkpt lat="46.2358" lon="4.66493">
        <ele>497.992095947</ele>
        <time>2015-11-05T10:06:17.272Z</time>
      </trkpt>
      <trkpt lat="46.23579" lon="4.66491">
        <ele>498.043731689</ele>
        <time>2015-11-05T10:06:18.261Z</time>
      </trkpt>
      <trkpt lat="46.23575" lon="4.66481">
        <ele>498.147521973</ele>
        <time>2015-11-05T10:06:26.269Z</time>
      </trkpt>
      <trkpt lat="46.23574" lon="4.6648">
        <ele>498.146636963</ele>
        <time>2015-11-05T10:06:27.265Z</time>
      </trkpt>
      <trkpt lat="46.23568" lon="4.66471">
        <ele>498.210174561</ele>
        <time>2015-11-05T10:06:33.269Z</time>
      </trkpt>
      <trkpt lat="46.23568" lon="4.66469">
        <ele>498.210784912</ele>
        <time>2015-11-05T10:06:34.261Z</time>
      </trkpt>
      <trkpt lat="46.23564" lon="4.66459">
        <ele>498.32913208</ele>
        <time>2015-11-05T10:06:40.282Z</time>
      </trkpt>
      <trkpt lat="46.23563" lon="4.66457">
        <ele>498.367340088</ele>
        <time>2015-11-05T10:06:41.269Z</time>
      </trkpt>
      <trkpt lat="46.23559" lon="4.66446">
        <ele>498.747802734</ele>
        <time>2015-11-05T10:06:49.268Z</time>
      </trkpt>
      <trkpt lat="46.23558" lon="4.66444">
        <ele>498.791900635</ele>
        <time>2015-11-05T10:06:50.261Z</time>
      </trkpt>
      <trkpt lat="46.23553" lon="4.66434">
        <ele>499.345062256</ele>
        <time>2015-11-05T10:06:57.286Z</time>
      </trkpt>
      <trkpt lat="46.23552" lon="4.66432">
        <ele>499.392120361</ele>
        <time>2015-11-05T10:06:58.26Z</time>
      </trkpt>
      <trkpt lat="46.23548" lon="4.66421">
        <ele>500.210540771</ele>
        <time>2015-11-05T10:07:07.256Z</time>
      </trkpt>
      <trkpt lat="46.23548" lon="4.6642">
        <ele>500.380706787</ele>
        <time>2015-11-05T10:07:08.26Z</time>
      </trkpt>
      <trkpt lat="46.23545" lon="4.66409">
        <ele>501.29019165</ele>
        <time>2015-11-05T10:07:15.312Z</time>
      </trkpt>
      <trkpt lat="46.23544" lon="4.66407">
        <ele>501.445037842</ele>
        <time>2015-11-05T10:07:16.267Z</time>
      </trkpt>
      <trkpt lat="46.2354" lon="4.66397">
        <ele>502.47479248</ele>
        <time>2015-11-05T10:07:24.299Z</time>
      </trkpt>
      <trkpt lat="46.2354" lon="4.66395">
        <ele>502.630157471</ele>
        <time>2015-11-05T10:07:25.258Z</time>
      </trkpt>
      <trkpt lat="46.23534" lon="4.66386">
        <ele>503.594970703</ele>
        <time>2015-11-05T10:07:31.293Z</time>
      </trkpt>
      <trkpt lat="46.23534" lon="4.66384">
        <ele>503.78237915</ele>
        <time>2015-11-05T10:07:32.259Z</time>
      </trkpt>
      <trkpt lat="46.23529" lon="4.66373">
        <ele>505.243652344</ele>
        <time>2015-11-05T10:07:39.269Z</time>
      </trkpt>
      <trkpt lat="46.23529" lon="4.66373">
        <ele>505.52822876</ele>
        <time>2015-11-05T10:07:40.268Z</time>
      </trkpt>
      <trkpt lat="46.23523" lon="4.66363">
        <ele>506.885284424</ele>
        <time>2015-11-05T10:07:46.277Z</time>
      </trkpt>
      <trkpt lat="46.23523" lon="4.66362">
        <ele>507.023010254</ele>
        <time>2015-11-05T10:07:47.263Z</time>
      </trkpt>
      <trkpt lat="46.23517" lon="4.66352">
        <ele>508.874969482</ele>
        <time>2015-11-05T10:07:56.283Z</time>
      </trkpt>
      <trkpt lat="46.23516" lon="4.66351">
        <ele>509.096466064</ele>
        <time>2015-11-05T10:07:57.261Z</time>
      </trkpt>
      <trkpt lat="46.2351" lon="4.66342">
        <ele>510.720245361</ele>
        <time>2015-11-05T10:08:05.269Z</time>
      </trkpt>
      <trkpt lat="46.2351" lon="4.66341">
        <ele>510.974731445</ele>
        <time>2015-11-05T10:08:06.253Z</time>
      </trkpt>
      <trkpt lat="46.23503" lon="4.66333">
        <ele>512.174438477</ele>
        <time>2015-11-05T10:08:12.284Z</time>
      </trkpt>
      <trkpt lat="46.23502" lon="4.66332">
        <ele>512.326660156</ele>
        <time>2015-11-05T10:08:13.26Z</time>
      </trkpt>
      <trkpt lat="46.23495" lon="4.66326">
        <ele>514.074157715</ele>
        <time>2015-11-05T10:08:22.255Z</time>
      </trkpt>
      <trkpt lat="46.23494" lon="4.66325">
        <ele>514.270019531</ele>
        <time>2015-11-05T10:08:23.268Z</time>
      </trkpt>
      <trkpt lat="46.23487" lon="4.66318">
        <ele>515.479797363</ele>
        <time>2015-11-05T10:08:31.27Z</time>
      </trkpt>
      <trkpt lat="46.23486" lon="4.66317">
        <ele>515.563354492</ele>
        <time>2015-11-05T10:08:32.264Z</time>
      </trkpt>
      <trkpt lat="46.2348" lon="4.66309">
        <ele>516.570373535</ele>
        <time>2015-11-05T10:08:40.271Z</time>
      </trkpt>
      <trkpt lat="46.23479" lon="4.66308">
        <ele>516.714111328</ele>
        <time>2015-11-05T10:08:41.261Z</time>
      </trkpt>
      <trkpt lat="46.23474" lon="4.66299">
        <ele>518.312744141</ele>
        <time>2015-11-05T10:08:50.275Z</time>
      </trkpt>
      <trkpt lat="46.23473" lon="4.66298">
        <ele>518.560668945</ele>
        <time>2015-11-05T10:08:51.247Z</time>
      </trkpt>
      <trkpt lat="46.2347" lon="4.66286">
        <ele>520.184997559</ele>
        <time>2015-11-05T10:08:59.295Z</time>
      </trkpt>
      <trkpt lat="46.23469" lon="4.66285">
        <ele>520.286865234</ele>
        <time>2015-11-05T10:09:00.262Z</time>
      </trkpt>
      <trkpt lat="46.23464" lon="4.66274">
        <ele>521.260253906</ele>
        <time>2015-11-05T10:09:09.278Z</time>
      </trkpt>
      <trkpt lat="46.23463" lon="4.66273">
        <ele>521.346069336</ele>
        <time>2015-11-05T10:09:10.275Z</time>
      </trkpt>
      <trkpt lat="46.23461" lon="4.66261">
        <ele>523.098815918</ele>
        <time>2015-11-05T10:09:22.286Z</time>
      </trkpt>
      <trkpt lat="46.23461" lon="4.6626">
        <ele>523.357910156</ele>
        <time>2015-11-05T10:09:23.263Z</time>
      </trkpt>
      <trkpt lat="46.23467" lon="4.66252">
        <ele>528.214233398</ele>
        <time>2015-11-05T10:09:42.286Z</time>
      </trkpt>
      <trkpt lat="46.23468" lon="4.66251">
        <ele>528.467773438</ele>
        <time>2015-11-05T10:09:43.271Z</time>
      </trkpt>
      <trkpt lat="46.23476" lon="4.66248">
        <ele>531.166625977</ele>
        <time>2015-11-05T10:09:54.291Z</time>
      </trkpt>
      <trkpt lat="46.23477" lon="4.66247">
        <ele>531.378845215</ele>
        <time>2015-11-05T10:09:55.264Z</time>
      </trkpt>
      <trkpt lat="46.23484" lon="4.66241">
        <ele>533.436645508</ele>
        <time>2015-11-05T10:10:05.263Z</time>
      </trkpt>
      <trkpt lat="46.23485" lon="4.66241">
        <ele>533.713806152</ele>
        <time>2015-11-05T10:10:06.264Z</time>
      </trkpt>
      <trkpt lat="46.23493" lon="4.66235">
        <ele>535.845703125</ele>
        <time>2015-11-05T10:10:15.282Z</time>
      </trkpt>
      <trkpt lat="46.23494" lon="4.66235">
        <ele>536.129150391</ele>
        <time>2015-11-05T10:10:16.265Z</time>
      </trkpt>
      <trkpt lat="46.23502" lon="4.66232">
        <ele>537.950561523</ele>
        <time>2015-11-05T10:10:24.286Z</time>
      </trkpt>
      <trkpt lat="46.23503" lon="4.66231">
        <ele>538.126281738</ele>
        <time>2015-11-05T10:10:25.265Z</time>
      </trkpt>
      <trkpt lat="46.23511" lon="4.66227">
        <ele>539.730041504</ele>
        <time>2015-11-05T10:10:35.28Z</time>
      </trkpt>
      <trkpt lat="46.23512" lon="4.66226">
        <ele>539.90234375</ele>
        <time>2015-11-05T10:10:36.266Z</time>
      </trkpt>
      <trkpt lat="46.23519" lon="4.66221">
        <ele>541.027832031</ele>
        <time>2015-11-05T10:10:42.299Z</time>
      </trkpt>
      <trkpt lat="46.2352" lon="4.6622">
        <ele>541.211669922</ele>
        <time>2015-11-05T10:10:43.266Z</time>
      </trkpt>
      <trkpt lat="46.23527" lon="4.66214">
        <ele>542.086181641</ele>
        <time>2015-11-05T10:10:50.338Z</time>
      </trkpt>
      <trkpt lat="46.23528" lon="4.66212">
        <ele>542.162475586</ele>
        <time>2015-11-05T10:10:51.269Z</time>
      </trkpt>
      <trkpt lat="46.23533" lon="4.66203">
        <ele>542.12689209</ele>
        <time>2015-11-05T10:10:55.284Z</time>
      </trkpt>
      <trkpt lat="46.23533" lon="4.66201">
        <ele>542.106079102</ele>
        <time>2015-11-05T10:10:56.268Z</time>
      </trkpt>
      <trkpt lat="46.23534" lon="4.66189">
        <ele>542.349182129</ele>
        <time>2015-11-05T10:11:03.306Z</time>
      </trkpt>
      <trkpt lat="46.23534" lon="4.66188">
        <ele>542.364624023</ele>
        <time>2015-11-05T10:11:04.268Z</time>
      </trkpt>
      <trkpt lat="46.23534" lon="4.66175">
        <ele>542.450683594</ele>
        <time>2015-11-05T10:11:15.274Z</time>
      </trkpt>
      <trkpt lat="46.23534" lon="4.66175">
        <ele>542.583618164</ele>
        <time>2015-11-05T10:11:16.267Z</time>
      </trkpt>
      <trkpt lat="46.23532" lon="4.66164">
        <ele>543.653808594</ele>
        <time>2015-11-05T10:11:24.287Z</time>
      </trkpt>
      <trkpt lat="46.23532" lon="4.66162">
        <ele>543.73614502</ele>
        <time>2015-11-05T10:11:25.26Z</time>
      </trkpt>
      <trkpt lat="46.23532" lon="4.6615">
        <ele>544.719787598</ele>
        <time>2015-11-05T10:11:35.383Z</time>
      </trkpt>
      <trkpt lat="46.23532" lon="4.66148">
        <ele>544.813049316</ele>
        <time>2015-11-05T10:11:36.256Z</time>
      </trkpt>
      <trkpt lat="46.23529" lon="4.66136">
        <ele>545.47088623</ele>
        <time>2015-11-05T10:11:47.272Z</time>
      </trkpt>
      <trkpt lat="46.23529" lon="4.66135">
        <ele>545.50994873</ele>
        <time>2015-11-05T10:11:48.262Z</time>
      </trkpt>
      <trkpt lat="46.23525" lon="4.66124">
        <ele>545.97869873</ele>
        <time>2015-11-05T10:11:58.271Z</time>
      </trkpt>
      <trkpt lat="46.23525" lon="4.66123">
        <ele>545.986999512</ele>
        <time>2015-11-05T10:11:59.26Z</time>
      </trkpt>
      <trkpt lat="46.23521" lon="4.66112">
        <ele>546.17376709</ele>
        <time>2015-11-05T10:12:08.27Z</time>
      </trkpt>
      <trkpt lat="46.2352" lon="4.6611">
        <ele>546.163635254</ele>
        <time>2015-11-05T10:12:09.259Z</time>
      </trkpt>
      <trkpt lat="46.23517" lon="4.66098">
        <ele>546.737976074</ele>
        <time>2015-11-05T10:12:19.27Z</time>
      </trkpt>
      <trkpt lat="46.23516" lon="4.66097">
        <ele>546.831298828</ele>
        <time>2015-11-05T10:12:20.243Z</time>
      </trkpt>
      <trkpt lat="46.23516" lon="4.66084">
        <ele>547.701782227</ele>
        <time>2015-11-05T10:12:31.27Z</time>
      </trkpt>
      <trkpt lat="46.23515" lon="4.66083">
        <ele>547.810913086</ele>
        <time>2015-11-05T10:12:32.273Z</time>
      </trkpt>
      <trkpt lat="46.23518" lon="4.66072">
        <ele>551.677734375</ele>
        <time>2015-11-05T10:13:37.28Z</time>
      </trkpt>
      <trkpt lat="46.23519" lon="4.66071">
        <ele>551.728088379</ele>
        <time>2015-11-05T10:13:38.256Z</time>
      </trkpt>
      <trkpt lat="46.23522" lon="4.66059">
        <ele>553.573974609</ele>
        <time>2015-11-05T10:14:10.28Z</time>
      </trkpt>
      <trkpt lat="46.23521" lon="4.66057">
        <ele>553.661132812</ele>
        <time>2015-11-05T10:14:11.259Z</time>
      </trkpt>
      <trkpt lat="46.23516" lon="4.66048">
        <ele>553.992004395</ele>
        <time>2015-11-05T10:14:17.279Z</time>
      </trkpt>
      <trkpt lat="46.23515" lon="4.66047">
        <ele>554.047424316</ele>
        <time>2015-11-05T10:14:18.261Z</time>
      </trkpt>
      <trkpt lat="46.23509" lon="4.66037">
        <ele>554.496704102</ele>
        <time>2015-11-05T10:14:25.298Z</time>
      </trkpt>
      <trkpt lat="46.23509" lon="4.66036">
        <ele>554.572570801</ele>
        <time>2015-11-05T10:14:26.262Z</time>
      </trkpt>
      <trkpt lat="46.23504" lon="4.66028">
        <ele>556.006103516</ele>
        <time>2015-11-05T10:14:57.277Z</time>
      </trkpt>
      <trkpt lat="46.23503" lon="4.66025">
        <ele>556.135314941</ele>
        <time>2015-11-05T10:14:58.264Z</time>
      </trkpt>
      <trkpt lat="46.235" lon="4.66015">
        <ele>557.224731445</ele>
        <time>2015-11-05T10:15:04.296Z</time>
      </trkpt>
      <trkpt lat="46.23499" lon="4.66013">
        <ele>557.43737793</ele>
        <time>2015-11-05T10:15:05.264Z</time>
      </trkpt>
      <trkpt lat="46.23496" lon="4.66002">
        <ele>559.072143555</ele>
        <time>2015-11-05T10:15:15.278Z</time>
      </trkpt>
      <trkpt lat="46.23496" lon="4.66001">
        <ele>559.187744141</ele>
        <time>2015-11-05T10:15:16.265Z</time>
      </trkpt>
      <trkpt lat="46.23492" lon="4.6599">
        <ele>559.921203613</ele>
        <time>2015-11-05T10:15:22.287Z</time>
      </trkpt>
      <trkpt lat="46.23492" lon="4.65989">
        <ele>560.021362305</ele>
        <time>2015-11-05T10:15:23.265Z</time>
      </trkpt>
      <trkpt lat="46.23489" lon="4.65979">
        <ele>561.240966797</ele>
        <time>2015-11-05T10:15:30.286Z</time>
      </trkpt>
      <trkpt lat="46.23489" lon="4.65977">
        <ele>561.430541992</ele>
        <time>2015-11-05T10:15:31.268Z</time>
      </trkpt>
      <trkpt lat="46.23487" lon="4.65965">
        <ele>562.467102051</ele>
        <time>2015-11-05T10:15:38.29Z</time>
      </trkpt>
      <trkpt lat="46.23487" lon="4.65964">
        <ele>562.615783691</ele>
        <time>2015-11-05T10:15:39.266Z</time>
      </trkpt>
      <trkpt lat="46.23487" lon="4.65951">
        <ele>564.542602539</ele>
        <time>2015-11-05T10:15:48.279Z</time>
      </trkpt>
      <trkpt lat="46.23486" lon="4.65949">
        <ele>564.736938477</ele>
        <time>2015-11-05T10:15:49.265Z</time>
      </trkpt>
      <trkpt lat="46.23486" lon="4.65937">
        <ele>566.210754395</ele>
        <time>2015-11-05T10:15:58.278Z</time>
      </trkpt>
      <trkpt lat="46.23486" lon="4.65936">
        <ele>566.421691895</ele>
        <time>2015-11-05T10:15:59.305Z</time>
      </trkpt>
      <trkpt lat="46.23484" lon="4.65924">
        <ele>567.622680664</ele>
        <time>2015-11-05T10:16:07.288Z</time>
      </trkpt>
      <trkpt lat="46.23484" lon="4.65922">
        <ele>567.776977539</ele>
        <time>2015-11-05T10:16:08.269Z</time>
      </trkpt>
      <trkpt lat="46.23483" lon="4.6591">
        <ele>568.462585449</ele>
        <time>2015-11-05T10:16:15.282Z</time>
      </trkpt>
      <trkpt lat="46.23483" lon="4.65909">
        <ele>568.622436523</ele>
        <time>2015-11-05T10:16:16.274Z</time>
      </trkpt>
      <trkpt lat="46.2348" lon="4.65898">
        <ele>569.300170898</ele>
        <time>2015-11-05T10:16:23.278Z</time>
      </trkpt>
      <trkpt lat="46.2348" lon="4.65895">
        <ele>569.347045898</ele>
        <time>2015-11-05T10:16:24.237Z</time>
      </trkpt>
      <trkpt lat="46.23479" lon="4.65884">
        <ele>569.921447754</ele>
        <time>2015-11-05T10:16:31.264Z</time>
      </trkpt>
      <trkpt lat="46.23479" lon="4.65882">
        <ele>570.091308594</ele>
        <time>2015-11-05T10:16:32.253Z</time>
      </trkpt>
      <trkpt lat="46.23477" lon="4.65871">
        <ele>570.568908691</ele>
        <time>2015-11-05T10:16:39.286Z</time>
      </trkpt>
      <trkpt lat="46.23477" lon="4.65869">
        <ele>570.713806152</ele>
        <time>2015-11-05T10:16:40.264Z</time>
      </trkpt>
      <trkpt lat="46.23475" lon="4.65857">
        <ele>571.516479492</ele>
        <time>2015-11-05T10:16:45.265Z</time>
      </trkpt>
      <trkpt lat="46.23475" lon="4.65855">
        <ele>571.606750488</ele>
        <time>2015-11-05T10:16:46.25Z</time>
      </trkpt>
      <trkpt lat="46.23474" lon="4.65842">
        <ele>572.663635254</ele>
        <time>2015-11-05T10:16:55.268Z</time>
      </trkpt>
      <trkpt lat="46.23474" lon="4.6584">
        <ele>572.747375488</ele>
        <time>2015-11-05T10:16:56.25Z</time>
      </trkpt>
      <trkpt lat="46.23474" lon="4.65828">
        <ele>573.036193848</ele>
        <time>2015-11-05T10:17:04.273Z</time>
      </trkpt>
      <trkpt lat="46.23474" lon="4.65827">
        <ele>573.142456055</ele>
        <time>2015-11-05T10:17:05.258Z</time>
      </trkpt>
      <trkpt lat="46.23473" lon="4.65816">
        <ele>574.33605957</ele>
        <time>2015-11-05T10:17:13.269Z</time>
      </trkpt>
      <trkpt lat="46.23473" lon="4.65813">
        <ele>574.530761719</ele>
        <time>2015-11-05T10:17:14.247Z</time>
      </trkpt>
      <trkpt lat="46.23473" lon="4.658">
        <ele>574.906005859</ele>
        <time>2015-11-05T10:17:20.258Z</time>
      </trkpt>
      <trkpt lat="46.23473" lon="4.65798">
        <ele>575.016479492</ele>
        <time>2015-11-05T10:17:21.247Z</time>
      </trkpt>
      <trkpt lat="46.23472" lon="4.65787">
        <ele>575.641174316</ele>
        <time>2015-11-05T10:17:28.278Z</time>
      </trkpt>
      <trkpt lat="46.23472" lon="4.65784">
        <ele>575.764282227</ele>
        <time>2015-11-05T10:17:29.249Z</time>
      </trkpt>
      <trkpt lat="46.23472" lon="4.65772">
        <ele>576.924194336</ele>
        <time>2015-11-05T10:17:37.276Z</time>
      </trkpt>
      <trkpt lat="46.23472" lon="4.65771">
        <ele>577.03137207</ele>
        <time>2015-11-05T10:17:38.253Z</time>
      </trkpt>
      <trkpt lat="46.23473" lon="4.65759">
        <ele>578.111328125</ele>
        <time>2015-11-05T10:17:47.283Z</time>
      </trkpt>
      <trkpt lat="46.23473" lon="4.65758">
        <ele>578.224243164</ele>
        <time>2015-11-05T10:17:48.268Z</time>
      </trkpt>
      <trkpt lat="46.23475" lon="4.65745">
        <ele>579.39074707</ele>
        <time>2015-11-05T10:17:57.306Z</time>
      </trkpt>
      <trkpt lat="46.23475" lon="4.65744">
        <ele>579.559631348</ele>
        <time>2015-11-05T10:17:58.254Z</time>
      </trkpt>
      <trkpt lat="46.23478" lon="4.65733">
        <ele>582.401916504</ele>
        <time>2015-11-05T10:18:13.265Z</time>
      </trkpt>
      <trkpt lat="46.23479" lon="4.65731">
        <ele>582.574157715</ele>
        <time>2015-11-05T10:18:14.253Z</time>
      </trkpt>
      <trkpt lat="46.23484" lon="4.6572">
        <ele>583.154541016</ele>
        <time>2015-11-05T10:18:20.27Z</time>
      </trkpt>
      <trkpt lat="46.23485" lon="4.65719">
        <ele>583.203308105</ele>
        <time>2015-11-05T10:18:21.253Z</time>
      </trkpt>
      <trkpt lat="46.2349" lon="4.6571">
        <ele>583.693054199</ele>
        <time>2015-11-05T10:18:29.297Z</time>
      </trkpt>
      <trkpt lat="46.2349" lon="4.65709">
        <ele>583.816162109</ele>
        <time>2015-11-05T10:18:30.257Z</time>
      </trkpt>
      <trkpt lat="46.23495" lon="4.65699">
        <ele>584.189575195</ele>
        <time>2015-11-05T10:18:37.293Z</time>
      </trkpt>
      <trkpt lat="46.23496" lon="4.65697">
        <ele>584.323852539</ele>
        <time>2015-11-05T10:18:38.26Z</time>
      </trkpt>
      <trkpt lat="46.23499" lon="4.65686">
        <ele>584.721130371</ele>
        <time>2015-11-05T10:18:47.266Z</time>
      </trkpt>
      <trkpt lat="46.23499" lon="4.65684">
        <ele>584.803710938</ele>
        <time>2015-11-05T10:18:48.256Z</time>
      </trkpt>
      <trkpt lat="46.23501" lon="4.65673">
        <ele>585.984619141</ele>
        <time>2015-11-05T10:18:58.292Z</time>
      </trkpt>
      <trkpt lat="46.23502" lon="4.65671">
        <ele>586.099853516</ele>
        <time>2015-11-05T10:18:59.25Z</time>
      </trkpt>
      <trkpt lat="46.23504" lon="4.65659">
        <ele>586.811279297</ele>
        <time>2015-11-05T10:19:07.273Z</time>
      </trkpt>
      <trkpt lat="46.23504" lon="4.65658">
        <ele>586.880432129</ele>
        <time>2015-11-05T10:19:08.257Z</time>
      </trkpt>
      <trkpt lat="46.23506" lon="4.65646">
        <ele>588.120300293</ele>
        <time>2015-11-05T10:19:17.294Z</time>
      </trkpt>
      <trkpt lat="46.23507" lon="4.65645">
        <ele>588.281005859</ele>
        <time>2015-11-05T10:19:18.255Z</time>
      </trkpt>
      <trkpt lat="46.23508" lon="4.65633">
        <ele>589.19934082</ele>
        <time>2015-11-05T10:19:29.291Z</time>
      </trkpt>
      <trkpt lat="46.23509" lon="4.65631">
        <ele>589.198364258</ele>
        <time>2015-11-05T10:19:30.269Z</time>
      </trkpt>
      <trkpt lat="46.23512" lon="4.6562">
        <ele>589.725646973</ele>
        <time>2015-11-05T10:19:39.286Z</time>
      </trkpt>
      <trkpt lat="46.23513" lon="4.65619">
        <ele>589.881469727</ele>
        <time>2015-11-05T10:19:40.27Z</time>
      </trkpt>
      <trkpt lat="46.23516" lon="4.65608">
        <ele>591.407348633</ele>
        <time>2015-11-05T10:19:50.28Z</time>
      </trkpt>
      <trkpt lat="46.23516" lon="4.65607">
        <ele>591.515380859</ele>
        <time>2015-11-05T10:19:51.274Z</time>
      </trkpt>
      <trkpt lat="46.2352" lon="4.65597">
        <ele>592.79083252</ele>
        <time>2015-11-05T10:19:58.292Z</time>
      </trkpt>
      <trkpt lat="46.23521" lon="4.65596">
        <ele>592.997375488</ele>
        <time>2015-11-05T10:19:59.287Z</time>
      </trkpt>
      <trkpt lat="46.23526" lon="4.65586">
        <ele>595.05279541</ele>
        <time>2015-11-05T10:20:07.294Z</time>
      </trkpt>
      <trkpt lat="46.23526" lon="4.65585">
        <ele>595.301940918</ele>
        <time>2015-11-05T10:20:08.287Z</time>
      </trkpt>
      <trkpt lat="46.23531" lon="4.65575">
        <ele>596.706298828</ele>
        <time>2015-11-05T10:20:20.32Z</time>
      </trkpt>
      <trkpt lat="46.23531" lon="4.65574">
        <ele>596.736083984</ele>
        <time>2015-11-05T10:20:21.275Z</time>
      </trkpt>
      <trkpt lat="46.23537" lon="4.65565">
        <ele>600.31036377</ele>
        <time>2015-11-05T10:20:39.296Z</time>
      </trkpt>
      <trkpt lat="46.23539" lon="4.65562">
        <ele>600.47869873</ele>
        <time>2015-11-05T10:20:40.263Z</time>
      </trkpt>
      <trkpt lat="46.23544" lon="4.65553">
        <ele>601.479736328</ele>
        <time>2015-11-05T10:20:46.295Z</time>
      </trkpt>
      <trkpt lat="46.23546" lon="4.65551">
        <ele>601.690917969</ele>
        <time>2015-11-05T10:20:47.282Z</time>
      </trkpt>
      <trkpt lat="46.23551" lon="4.65543">
        <ele>603.113769531</ele>
        <time>2015-11-05T10:20:57.291Z</time>
      </trkpt>
      <trkpt lat="46.23552" lon="4.65542">
        <ele>603.331848145</ele>
        <time>2015-11-05T10:20:58.278Z</time>
      </trkpt>
      <trkpt lat="46.23559" lon="4.65536">
        <ele>604.171081543</ele>
        <time>2015-11-05T10:21:04.29Z</time>
      </trkpt>
      <trkpt lat="46.2356" lon="4.65535">
        <ele>604.277770996</ele>
        <time>2015-11-05T10:21:05.276Z</time>
      </trkpt>
      <trkpt lat="46.23568" lon="4.6553">
        <ele>604.66583252</ele>
        <time>2015-11-05T10:21:09.301Z</time>
      </trkpt>
      <trkpt lat="46.23569" lon="4.65529">
        <ele>604.668212891</ele>
        <time>2015-11-05T10:21:10.277Z</time>
      </trkpt>
      <trkpt lat="46.23576" lon="4.65522">
        <ele>605.640319824</ele>
        <time>2015-11-05T10:21:17.298Z</time>
      </trkpt>
      <trkpt lat="46.23577" lon="4.65521">
        <ele>605.83581543</ele>
        <time>2015-11-05T10:21:18.265Z</time>
      </trkpt>
      <trkpt lat="46.23584" lon="4.65516">
        <ele>606.869873047</ele>
        <time>2015-11-05T10:21:28.283Z</time>
      </trkpt>
      <trkpt lat="46.23585" lon="4.65515">
        <ele>607.004699707</ele>
        <time>2015-11-05T10:21:29.278Z</time>
      </trkpt>
      <trkpt lat="46.23593" lon="4.65511">
        <ele>607.50970459</ele>
        <time>2015-11-05T10:21:37.274Z</time>
      </trkpt>
      <trkpt lat="46.23594" lon="4.65511">
        <ele>607.71472168</ele>
        <time>2015-11-05T10:21:38.254Z</time>
      </trkpt>
      <trkpt lat="46.236" lon="4.65505">
        <ele>609.333984375</ele>
        <time>2015-11-05T10:21:46.325Z</time>
      </trkpt>
      <trkpt lat="46.23601" lon="4.65504">
        <ele>609.481811523</ele>
        <time>2015-11-05T10:21:47.255Z</time>
      </trkpt>
      <trkpt lat="46.23609" lon="4.655">
        <ele>610.403686523</ele>
        <time>2015-11-05T10:21:54.277Z</time>
      </trkpt>
      <trkpt lat="46.2361" lon="4.65499">
        <ele>610.686157227</ele>
        <time>2015-11-05T10:21:55.249Z</time>
      </trkpt>
      <trkpt lat="46.23618" lon="4.65495">
        <ele>612.503051758</ele>
        <time>2015-11-05T10:22:03.258Z</time>
      </trkpt>
      <trkpt lat="46.23619" lon="4.65495">
        <ele>612.696411133</ele>
        <time>2015-11-05T10:22:04.246Z</time>
      </trkpt>
      <trkpt lat="46.23627" lon="4.65491">
        <ele>613.661254883</ele>
        <time>2015-11-05T10:22:15.266Z</time>
      </trkpt>
      <trkpt lat="46.23627" lon="4.6549">
        <ele>613.730529785</ele>
        <time>2015-11-05T10:22:16.257Z</time>
      </trkpt>
      <trkpt lat="46.23635" lon="4.65484">
        <ele>614.928405762</ele>
        <time>2015-11-05T10:22:25.246Z</time>
      </trkpt>
      <trkpt lat="46.23635" lon="4.65484">
        <ele>615.137695312</ele>
        <time>2015-11-05T10:22:26.25Z</time>
      </trkpt>
      <trkpt lat="46.23643" lon="4.65479">
        <ele>617.388000488</ele>
        <time>2015-11-05T10:22:36.285Z</time>
      </trkpt>
      <trkpt lat="46.23644" lon="4.65479">
        <ele>617.689025879</ele>
        <time>2015-11-05T10:22:37.251Z</time>
      </trkpt>
      <trkpt lat="46.23652" lon="4.65475">
        <ele>619.131591797</ele>
        <time>2015-11-05T10:22:46.265Z</time>
      </trkpt>
      <trkpt lat="46.23653" lon="4.65475">
        <ele>619.302246094</ele>
        <time>2015-11-05T10:22:47.251Z</time>
      </trkpt>
      <trkpt lat="46.2366" lon="4.65471">
        <ele>620.852783203</ele>
        <time>2015-11-05T10:22:55.284Z</time>
      </trkpt>
      <trkpt lat="46.23661" lon="4.65471">
        <ele>620.961120605</ele>
        <time>2015-11-05T10:22:56.252Z</time>
      </trkpt>
      <trkpt lat="46.23669" lon="4.65467">
        <ele>621.770263672</ele>
        <time>2015-11-05T10:23:04.266Z</time>
      </trkpt>
      <trkpt lat="46.23671" lon="4.65467">
        <ele>621.98260498</ele>
        <time>2015-11-05T10:23:05.258Z</time>
      </trkpt>
      <trkpt lat="46.23678" lon="4.65462">
        <ele>623.65423584</ele>
        <time>2015-11-05T10:23:15.291Z</time>
      </trkpt>
      <trkpt lat="46.23679" lon="4.65462">
        <ele>623.8203125</ele>
        <time>2015-11-05T10:23:16.268Z</time>
      </trkpt>
      <trkpt lat="46.23685" lon="4.65454">
        <ele>625.26751709</ele>
        <time>2015-11-05T10:23:24.269Z</time>
      </trkpt>
      <trkpt lat="46.23686" lon="4.65453">
        <ele>625.369262695</ele>
        <time>2015-11-05T10:23:25.239Z</time>
      </trkpt>
      <trkpt lat="46.23693" lon="4.65446">
        <ele>625.687133789</ele>
        <time>2015-11-05T10:23:32.282Z</time>
      </trkpt>
      <trkpt lat="46.23694" lon="4.65445">
        <ele>625.781738281</ele>
        <time>2015-11-05T10:23:33.254Z</time>
      </trkpt>
      <trkpt lat="46.23701" lon="4.65439">
        <ele>626.241577148</ele>
        <time>2015-11-05T10:23:42.278Z</time>
      </trkpt>
      <trkpt lat="46.23702" lon="4.65438">
        <ele>626.335876465</ele>
        <time>2015-11-05T10:23:43.259Z</time>
      </trkpt>
      <trkpt lat="46.23709" lon="4.65432">
        <ele>627.126403809</ele>
        <time>2015-11-05T10:23:52.29Z</time>
      </trkpt>
      <trkpt lat="46.2371" lon="4.65431">
        <ele>627.227355957</ele>
        <time>2015-11-05T10:23:53.254Z</time>
      </trkpt>
      <trkpt lat="46.23716" lon="4.65423">
        <ele>627.98034668</ele>
        <time>2015-11-05T10:23:59.251Z</time>
      </trkpt>
      <trkpt lat="46.23716" lon="4.65422">
        <ele>628.090698242</ele>
        <time>2015-11-05T10:24:00.256Z</time>
      </trkpt>
      <trkpt lat="46.23722" lon="4.65413">
        <ele>629.507019043</ele>
        <time>2015-11-05T10:24:12.268Z</time>
      </trkpt>
      <trkpt lat="46.23723" lon="4.65412">
        <ele>629.567687988</ele>
        <time>2015-11-05T10:24:13.255Z</time>
      </trkpt>
      <trkpt lat="46.2373" lon="4.65405">
        <ele>630.242248535</ele>
        <time>2015-11-05T10:24:21.267Z</time>
      </trkpt>
      <trkpt lat="46.23731" lon="4.65404">
        <ele>630.388671875</ele>
        <time>2015-11-05T10:24:22.254Z</time>
      </trkpt>
      <trkpt lat="46.23737" lon="4.65395">
        <ele>631.280029297</ele>
        <time>2015-11-05T10:24:30.293Z</time>
      </trkpt>
      <trkpt lat="46.23737" lon="4.65394">
        <ele>631.439208984</ele>
        <time>2015-11-05T10:24:31.256Z</time>
      </trkpt>
      <trkpt lat="46.23743" lon="4.65385">
        <ele>632.243530273</ele>
        <time>2015-11-05T10:24:41.328Z</time>
      </trkpt>
      <trkpt lat="46.23743" lon="4.65384">
        <ele>632.102416992</ele>
        <time>2015-11-05T10:24:42.258Z</time>
      </trkpt>
      <trkpt lat="46.23747" lon="4.65372">
        <ele>633.777282715</ele>
        <time>2015-11-05T10:26:15.28Z</time>
      </trkpt>
      <trkpt lat="46.23747" lon="4.65371">
        <ele>633.838195801</ele>
        <time>2015-11-05T10:26:16.265Z</time>
      </trkpt>
      <trkpt lat="46.23754" lon="4.65379">
        <ele>634.371948242</ele>
        <time>2015-11-05T10:27:04.28Z</time>
      </trkpt>
      <trkpt lat="46.23754" lon="4.6538">
        <ele>634.401733398</ele>
        <time>2015-11-05T10:27:05.249Z</time>
      </trkpt>
      <trkpt lat="46.23745" lon="4.65378">
        <ele>635.244873047</ele>
        <time>2015-11-05T10:27:47.259Z</time>
      </trkpt>
      <trkpt lat="46.23745" lon="4.65379">
        <ele>635.24432373</ele>
        <time>2015-11-05T10:27:48.25Z</time>
      </trkpt>
      <trkpt lat="46.23751" lon="4.6537">
        <ele>635.622619629</ele>
        <time>2015-11-05T10:28:13.269Z</time>
      </trkpt>
      <trkpt lat="46.23752" lon="4.6537">
        <ele>635.614929199</ele>
        <time>2015-11-05T10:28:14.249Z</time>
      </trkpt>
      <trkpt lat="46.2376" lon="4.65368">
        <ele>635.549377441</ele>
        <time>2015-11-05T10:28:40.265Z</time>
      </trkpt>
      <trkpt lat="46.23761" lon="4.65368">
        <ele>635.559875488</ele>
        <time>2015-11-05T10:28:41.252Z</time>
      </trkpt>
      <trkpt lat="46.23761" lon="4.65355">
        <ele>637.798950195</ele>
        <time>2015-11-05T10:29:08.298Z</time>
      </trkpt>
      <trkpt lat="46.2376" lon="4.65353">
        <ele>637.788452148</ele>
        <time>2015-11-05T10:29:09.254Z</time>
      </trkpt>
      <trkpt lat="46.23759" lon="4.65342">
        <ele>637.876281738</ele>
        <time>2015-11-05T10:29:14.266Z</time>
      </trkpt>
      <trkpt lat="46.23758" lon="4.6534">
        <ele>637.970031738</ele>
        <time>2015-11-05T10:29:15.255Z</time>
      </trkpt>
      <trkpt lat="46.23759" lon="4.65328">
        <ele>638.682800293</ele>
        <time>2015-11-05T10:29:22.262Z</time>
      </trkpt>
      <trkpt lat="46.23759" lon="4.65326">
        <ele>638.802185059</ele>
        <time>2015-11-05T10:29:23.253Z</time>
      </trkpt>
      <trkpt lat="46.2376" lon="4.65314">
        <ele>639.36517334</ele>
        <time>2015-11-05T10:29:28.264Z</time>
      </trkpt>
      <trkpt lat="46.23759" lon="4.65312">
        <ele>639.417358398</ele>
        <time>2015-11-05T10:29:29.254Z</time>
      </trkpt>
      <trkpt lat="46.23758" lon="4.65301">
        <ele>639.757019043</ele>
        <time>2015-11-05T10:29:36.282Z</time>
      </trkpt>
      <trkpt lat="46.23759" lon="4.65299">
        <ele>639.825927734</ele>
        <time>2015-11-05T10:29:37.254Z</time>
      </trkpt>
      <trkpt lat="46.23759" lon="4.65287">
        <ele>639.784973145</ele>
        <time>2015-11-05T10:29:44.467Z</time>
      </trkpt>
      <trkpt lat="46.23759" lon="4.65284">
        <ele>639.86907959</ele>
        <time>2015-11-05T10:29:45.255Z</time>
      </trkpt>
      <trkpt lat="46.23759" lon="4.65272">
        <ele>640.042419434</ele>
        <time>2015-11-05T10:29:56.295Z</time>
      </trkpt>
      <trkpt lat="46.23758" lon="4.6527">
        <ele>640.012573242</ele>
        <time>2015-11-05T10:29:57.256Z</time>
      </trkpt>
      <trkpt lat="46.23757" lon="4.65258">
        <ele>640.21282959</ele>
        <time>2015-11-05T10:30:04.299Z</time>
      </trkpt>
      <trkpt lat="46.23757" lon="4.65256">
        <ele>640.136169434</ele>
        <time>2015-11-05T10:30:05.267Z</time>
      </trkpt>
      <trkpt lat="46.23754" lon="4.65244">
        <ele>640.166564941</ele>
        <time>2015-11-05T10:30:14.294Z</time>
      </trkpt>
      <trkpt lat="46.23754" lon="4.65243">
        <ele>640.158874512</ele>
        <time>2015-11-05T10:30:15.267Z</time>
      </trkpt>
      <trkpt lat="46.23751" lon="4.6523">
        <ele>640.039367676</ele>
        <time>2015-11-05T10:30:25.277Z</time>
      </trkpt>
      <trkpt lat="46.23751" lon="4.65229">
        <ele>640.026672363</ele>
        <time>2015-11-05T10:30:26.257Z</time>
      </trkpt>
      <trkpt lat="46.2375" lon="4.65217">
        <ele>640.051025391</ele>
        <time>2015-11-05T10:30:36.256Z</time>
      </trkpt>
      <trkpt lat="46.2375" lon="4.65215">
        <ele>640.096191406</ele>
        <time>2015-11-05T10:30:37.262Z</time>
      </trkpt>
      <trkpt lat="46.23749" lon="4.65204">
        <ele>640.407714844</ele>
        <time>2015-11-05T10:30:46.277Z</time>
      </trkpt>
      <trkpt lat="46.23749" lon="4.65202">
        <ele>640.476074219</ele>
        <time>2015-11-05T10:30:47.262Z</time>
      </trkpt>
      <trkpt lat="46.23747" lon="4.6519">
        <ele>641.39855957</ele>
        <time>2015-11-05T10:30:56.282Z</time>
      </trkpt>
      <trkpt lat="46.23747" lon="4.65189">
        <ele>641.514526367</ele>
        <time>2015-11-05T10:30:57.266Z</time>
      </trkpt>
      <trkpt lat="46.23746" lon="4.65177">
        <ele>642.81439209</ele>
        <time>2015-11-05T10:31:07.285Z</time>
      </trkpt>
      <trkpt lat="46.23746" lon="4.65176">
        <ele>642.984985352</ele>
        <time>2015-11-05T10:31:08.265Z</time>
      </trkpt>
      <trkpt lat="46.23747" lon="4.65165">
        <ele>644.63861084</ele>
        <time>2015-11-05T10:31:16.294Z</time>
      </trkpt>
      <trkpt lat="46.23748" lon="4.65163">
        <ele>644.90637207</ele>
        <time>2015-11-05T10:31:17.252Z</time>
      </trkpt>
      <trkpt lat="46.23748" lon="4.6515">
        <ele>647.573852539</ele>
        <time>2015-11-05T10:31:28.311Z</time>
      </trkpt>
      <trkpt lat="46.23748" lon="4.6515">
        <ele>647.76953125</ele>
        <time>2015-11-05T10:31:29.275Z</time>
      </trkpt>
      <trkpt lat="46.23748" lon="4.65138">
        <ele>649.195373535</ele>
        <time>2015-11-05T10:31:35.325Z</time>
      </trkpt>
      <trkpt lat="46.23747" lon="4.65135">
        <ele>649.489990234</ele>
        <time>2015-11-05T10:31:36.277Z</time>
      </trkpt>
      <trkpt lat="46.23745" lon="4.65124">
        <ele>650.991638184</ele>
        <time>2015-11-05T10:31:43.302Z</time>
      </trkpt>
      <trkpt lat="46.23744" lon="4.65122">
        <ele>651.179382324</ele>
        <time>2015-11-05T10:31:44.276Z</time>
      </trkpt>
      <trkpt lat="46.23741" lon="4.6511">
        <ele>652.502197266</ele>
        <time>2015-11-05T10:31:52.296Z</time>
      </trkpt>
      <trkpt lat="46.23741" lon="4.65109">
        <ele>652.676696777</ele>
        <time>2015-11-05T10:31:53.275Z</time>
      </trkpt>
      <trkpt lat="46.23738" lon="4.65098">
        <ele>653.505554199</ele>
        <time>2015-11-05T10:31:58.294Z</time>
      </trkpt>
      <trkpt lat="46.23737" lon="4.65097">
        <ele>653.687683105</ele>
        <time>2015-11-05T10:31:59.281Z</time>
      </trkpt>
      <trkpt lat="46.23736" lon="4.65084">
        <ele>655.183044434</ele>
        <time>2015-11-05T10:32:07.253Z</time>
      </trkpt>
      <trkpt lat="46.23735" lon="4.65083">
        <ele>655.388305664</ele>
        <time>2015-11-05T10:32:08.245Z</time>
      </trkpt>
      <trkpt lat="46.23734" lon="4.65072">
        <ele>656.400512695</ele>
        <time>2015-11-05T10:32:15.277Z</time>
      </trkpt>
      <trkpt lat="46.23734" lon="4.6507">
        <ele>656.589294434</ele>
        <time>2015-11-05T10:32:16.254Z</time>
      </trkpt>
      <trkpt lat="46.23733" lon="4.65058">
        <ele>657.50982666</ele>
        <time>2015-11-05T10:32:20.256Z</time>
      </trkpt>
      <trkpt lat="46.23734" lon="4.65056">
        <ele>657.675231934</ele>
        <time>2015-11-05T10:32:21.243Z</time>
      </trkpt>
      <trkpt lat="46.23734" lon="4.65044">
        <ele>658.472045898</ele>
        <time>2015-11-05T10:32:32.269Z</time>
      </trkpt>
      <trkpt lat="46.23734" lon="4.65042">
        <ele>658.444580078</ele>
        <time>2015-11-05T10:32:33.26Z</time>
      </trkpt>
      <trkpt lat="46.23735" lon="4.65029">
        <ele>657.569274902</ele>
        <time>2015-11-05T10:32:41.27Z</time>
      </trkpt>
      <trkpt lat="46.23735" lon="4.65028">
        <ele>657.356445312</ele>
        <time>2015-11-05T10:32:42.266Z</time>
      </trkpt>
      <trkpt lat="46.23737" lon="4.65016">
        <ele>656.539306641</ele>
        <time>2015-11-05T10:32:50.27Z</time>
      </trkpt>
      <trkpt lat="46.23739" lon="4.65014">
        <ele>656.567443848</ele>
        <time>2015-11-05T10:32:51.268Z</time>
      </trkpt>
      <trkpt lat="46.23744" lon="4.65005">
        <ele>656.716796875</ele>
        <time>2015-11-05T10:32:58.275Z</time>
      </trkpt>
      <trkpt lat="46.23745" lon="4.65003">
        <ele>656.580200195</ele>
        <time>2015-11-05T10:32:59.258Z</time>
      </trkpt>
      <trkpt lat="46.23752" lon="4.64995">
        <ele>656.335998535</ele>
        <time>2015-11-05T10:33:03.271Z</time>
      </trkpt>
      <trkpt lat="46.23753" lon="4.64995">
        <ele>656.27557373</ele>
        <time>2015-11-05T10:33:04.258Z</time>
      </trkpt>
      <trkpt lat="46.23759" lon="4.64988">
        <ele>656.033935547</ele>
        <time>2015-11-05T10:33:10.273Z</time>
      </trkpt>
      <trkpt lat="46.23761" lon="4.64987">
        <ele>655.971191406</ele>
        <time>2015-11-05T10:33:11.258Z</time>
      </trkpt>
      <trkpt lat="46.23768" lon="4.64979">
        <ele>656.061279297</ele>
        <time>2015-11-05T10:33:18.3Z</time>
      </trkpt>
      <trkpt lat="46.23769" lon="4.64978">
        <ele>656.129394531</ele>
        <time>2015-11-05T10:33:19.25Z</time>
      </trkpt>
      <trkpt lat="46.23775" lon="4.64973">
        <ele>656.006103516</ele>
        <time>2015-11-05T10:33:24.26Z</time>
      </trkpt>
      <trkpt lat="46.23777" lon="4.64972">
        <ele>655.943969727</ele>
        <time>2015-11-05T10:33:25.263Z</time>
      </trkpt>
      <trkpt lat="46.23785" lon="4.64967">
        <ele>655.782226562</ele>
        <time>2015-11-05T10:33:33.273Z</time>
      </trkpt>
      <trkpt lat="46.23785" lon="4.64967">
        <ele>655.713623047</ele>
        <time>2015-11-05T10:33:34.249Z</time>
      </trkpt>
      <trkpt lat="46.23793" lon="4.64962">
        <ele>655.188537598</ele>
        <time>2015-11-05T10:33:41.323Z</time>
      </trkpt>
      <trkpt lat="46.23795" lon="4.64961">
        <ele>655.004455566</ele>
        <time>2015-11-05T10:33:42.26Z</time>
      </trkpt>
      <trkpt lat="46.23801" lon="4.64954">
        <ele>654.684326172</ele>
        <time>2015-11-05T10:33:49.28Z</time>
      </trkpt>
      <trkpt lat="46.23802" lon="4.64953">
        <ele>654.583374023</ele>
        <time>2015-11-05T10:33:50.251Z</time>
      </trkpt>
      <trkpt lat="46.23809" lon="4.64946">
        <ele>653.636657715</ele>
        <time>2015-11-05T10:33:56.285Z</time>
      </trkpt>
      <trkpt lat="46.2381" lon="4.64945">
        <ele>653.413635254</ele>
        <time>2015-11-05T10:33:57.258Z</time>
      </trkpt>
      <trkpt lat="46.23816" lon="4.64936">
        <ele>652.444641113</ele>
        <time>2015-11-05T10:34:03.295Z</time>
      </trkpt>
      <trkpt lat="46.23817" lon="4.64934">
        <ele>652.301696777</ele>
        <time>2015-11-05T10:34:04.252Z</time>
      </trkpt>
      <trkpt lat="46.23823" lon="4.64928">
        <ele>651.748718262</ele>
        <time>2015-11-05T10:34:11.299Z</time>
      </trkpt>
      <trkpt lat="46.23824" lon="4.64926">
        <ele>651.611572266</ele>
        <time>2015-11-05T10:34:12.261Z</time>
      </trkpt>
      <trkpt lat="46.2383" lon="4.64917">
        <ele>650.888793945</ele>
        <time>2015-11-05T10:34:18.271Z</time>
      </trkpt>
      <trkpt lat="46.23831" lon="4.64916">
        <ele>650.655761719</ele>
        <time>2015-11-05T10:34:19.258Z</time>
      </trkpt>
      <trkpt lat="46.23837" lon="4.64907">
        <ele>649.502868652</ele>
        <time>2015-11-05T10:34:26.267Z</time>
      </trkpt>
      <trkpt lat="46.23839" lon="4.64906">
        <ele>649.356506348</ele>
        <time>2015-11-05T10:34:27.26Z</time>
      </trkpt>
      <trkpt lat="46.23844" lon="4.64898">
        <ele>648.823120117</ele>
        <time>2015-11-05T10:34:34.276Z</time>
      </trkpt>
      <trkpt lat="46.23845" lon="4.64896">
        <ele>648.842895508</ele>
        <time>2015-11-05T10:34:35.242Z</time>
      </trkpt>
      <trkpt lat="46.23851" lon="4.64888">
        <ele>648.649047852</ele>
        <time>2015-11-05T10:34:44.283Z</time>
      </trkpt>
      <trkpt lat="46.23852" lon="4.64887">
        <ele>648.583984375</ele>
        <time>2015-11-05T10:34:45.274Z</time>
      </trkpt>
      <trkpt lat="46.23858" lon="4.64878">
        <ele>648.102478027</ele>
        <time>2015-11-05T10:34:52.314Z</time>
      </trkpt>
      <trkpt lat="46.23859" lon="4.64877">
        <ele>648.117553711</ele>
        <time>2015-11-05T10:34:53.259Z</time>
      </trkpt>
      <trkpt lat="46.23865" lon="4.6487">
        <ele>647.856567383</ele>
        <time>2015-11-05T10:35:00.287Z</time>
      </trkpt>
      <trkpt lat="46.23866" lon="4.64869">
        <ele>647.857910156</ele>
        <time>2015-11-05T10:35:01.241Z</time>
      </trkpt>
      <trkpt lat="46.23874" lon="4.64864">
        <ele>648.50567627</ele>
        <time>2015-11-05T10:35:09.283Z</time>
      </trkpt>
      <trkpt lat="46.23874" lon="4.64863">
        <ele>648.54498291</ele>
        <time>2015-11-05T10:35:10.259Z</time>
      </trkpt>
      <trkpt lat="46.23882" lon="4.64858">
        <ele>648.866149902</ele>
        <time>2015-11-05T10:35:17.334Z</time>
      </trkpt>
      <trkpt lat="46.23883" lon="4.64858">
        <ele>648.859863281</ele>
        <time>2015-11-05T10:35:18.261Z</time>
      </trkpt>
      <trkpt lat="46.23892" lon="4.64857">
        <ele>648.754211426</ele>
        <time>2015-11-05T10:35:26.315Z</time>
      </trkpt>
      <trkpt lat="46.23893" lon="4.64856">
        <ele>648.703552246</ele>
        <time>2015-11-05T10:35:27.269Z</time>
      </trkpt>
      <trkpt lat="46.23902" lon="4.64854">
        <ele>648.741455078</ele>
        <time>2015-11-05T10:35:35.3Z</time>
      </trkpt>
      <trkpt lat="46.23902" lon="4.64854">
        <ele>648.776977539</ele>
        <time>2015-11-05T10:35:36.258Z</time>
      </trkpt>
      <trkpt lat="46.2391" lon="4.64855">
        <ele>649.346618652</ele>
        <time>2015-11-05T10:35:45.276Z</time>
      </trkpt>
      <trkpt lat="46.23911" lon="4.64855">
        <ele>649.428161621</ele>
        <time>2015-11-05T10:35:46.261Z</time>
      </trkpt>
      <trkpt lat="46.23919" lon="4.64856">
        <ele>650.34387207</ele>
        <time>2015-11-05T10:35:53.297Z</time>
      </trkpt>
      <trkpt lat="46.23921" lon="4.64856">
        <ele>650.470031738</ele>
        <time>2015-11-05T10:35:54.258Z</time>
      </trkpt>
      <trkpt lat="46.23929" lon="4.64854">
        <ele>651.279968262</ele>
        <time>2015-11-05T10:36:00.271Z</time>
      </trkpt>
      <trkpt lat="46.2393" lon="4.64854">
        <ele>651.389831543</ele>
        <time>2015-11-05T10:36:01.285Z</time>
      </trkpt>
      <trkpt lat="46.23938" lon="4.6485">
        <ele>652.449890137</ele>
        <time>2015-11-05T10:36:09.27Z</time>
      </trkpt>
      <trkpt lat="46.23939" lon="4.64849">
        <ele>652.573181152</ele>
        <time>2015-11-05T10:36:10.259Z</time>
      </trkpt>
      <trkpt lat="46.23948" lon="4.64847">
        <ele>653.40826416</ele>
        <time>2015-11-05T10:36:19.288Z</time>
      </trkpt>
      <trkpt lat="46.23949" lon="4.64846">
        <ele>653.491149902</ele>
        <time>2015-11-05T10:36:20.262Z</time>
      </trkpt>
      <trkpt lat="46.23957" lon="4.64845">
        <ele>654.266235352</ele>
        <time>2015-11-05T10:36:28.294Z</time>
      </trkpt>
      <trkpt lat="46.23959" lon="4.64845">
        <ele>654.382202148</ele>
        <time>2015-11-05T10:36:29.264Z</time>
      </trkpt>
      <trkpt lat="46.23967" lon="4.64842">
        <ele>654.98614502</ele>
        <time>2015-11-05T10:36:36.283Z</time>
      </trkpt>
      <trkpt lat="46.23967" lon="4.64841">
        <ele>655.076538086</ele>
        <time>2015-11-05T10:36:37.252Z</time>
      </trkpt>
      <trkpt lat="46.23975" lon="4.64837">
        <ele>655.708496094</ele>
        <time>2015-11-05T10:36:44.293Z</time>
      </trkpt>
      <trkpt lat="46.23976" lon="4.64836">
        <ele>655.762390137</ele>
        <time>2015-11-05T10:36:45.263Z</time>
      </trkpt>
      <trkpt lat="46.23984" lon="4.64832">
        <ele>656.287231445</ele>
        <time>2015-11-05T10:36:52.274Z</time>
      </trkpt>
      <trkpt lat="46.23985" lon="4.64831">
        <ele>656.365722656</ele>
        <time>2015-11-05T10:36:53.262Z</time>
      </trkpt>
      <trkpt lat="46.23992" lon="4.64825">
        <ele>657.269104004</ele>
        <time>2015-11-05T10:37:01.277Z</time>
      </trkpt>
      <trkpt lat="46.23994" lon="4.64824">
        <ele>657.36151123</ele>
        <time>2015-11-05T10:37:02.266Z</time>
      </trkpt>
      <trkpt lat="46.24001" lon="4.64817">
        <ele>657.6875</ele>
        <time>2015-11-05T10:37:08.282Z</time>
      </trkpt>
      <trkpt lat="46.24002" lon="4.64816">
        <ele>657.772399902</ele>
        <time>2015-11-05T10:37:09.279Z</time>
      </trkpt>
      <trkpt lat="46.2401" lon="4.6481">
        <ele>657.895324707</ele>
        <time>2015-11-05T10:37:16.264Z</time>
      </trkpt>
      <trkpt lat="46.24011" lon="4.64809">
        <ele>657.956787109</ele>
        <time>2015-11-05T10:37:17.277Z</time>
      </trkpt>
      <trkpt lat="46.24018" lon="4.64802">
        <ele>658.686828613</ele>
        <time>2015-11-05T10:37:25.255Z</time>
      </trkpt>
      <trkpt lat="46.24019" lon="4.64801">
        <ele>658.792785645</ele>
        <time>2015-11-05T10:37:26.246Z</time>
      </trkpt>
      <trkpt lat="46.24026" lon="4.64795">
        <ele>659.359802246</ele>
        <time>2015-11-05T10:37:32.255Z</time>
      </trkpt>
      <trkpt lat="46.24027" lon="4.64794">
        <ele>659.410888672</ele>
        <time>2015-11-05T10:37:33.242Z</time>
      </trkpt>
      <trkpt lat="46.24034" lon="4.64788">
        <ele>659.602416992</ele>
        <time>2015-11-05T10:37:40.257Z</time>
      </trkpt>
      <trkpt lat="46.24034" lon="4.64787">
        <ele>659.611694336</ele>
        <time>2015-11-05T10:37:41.244Z</time>
      </trkpt>
      <trkpt lat="46.24041" lon="4.64779">
        <ele>659.509338379</ele>
        <time>2015-11-05T10:37:47.287Z</time>
      </trkpt>
      <trkpt lat="46.24042" lon="4.64777">
        <ele>659.528259277</ele>
        <time>2015-11-05T10:37:48.244Z</time>
      </trkpt>
      <trkpt lat="46.24048" lon="4.64769">
        <ele>659.73651123</ele>
        <time>2015-11-05T10:37:55.263Z</time>
      </trkpt>
      <trkpt lat="46.24048" lon="4.64768">
        <ele>659.813232422</ele>
        <time>2015-11-05T10:37:56.249Z</time>
      </trkpt>
      <trkpt lat="46.24053" lon="4.64757">
        <ele>659.811828613</ele>
        <time>2015-11-05T10:38:02.275Z</time>
      </trkpt>
      <trkpt lat="46.24054" lon="4.64755">
        <ele>659.815368652</ele>
        <time>2015-11-05T10:38:03.257Z</time>
      </trkpt>
      <trkpt lat="46.24058" lon="4.64746">
        <ele>659.728637695</ele>
        <time>2015-11-05T10:38:11.276Z</time>
      </trkpt>
      <trkpt lat="46.24059" lon="4.64744">
        <ele>659.767333984</ele>
        <time>2015-11-05T10:38:12.249Z</time>
      </trkpt>
      <trkpt lat="46.24062" lon="4.64734">
        <ele>660.127502441</ele>
        <time>2015-11-05T10:38:18.268Z</time>
      </trkpt>
      <trkpt lat="46.24063" lon="4.64732">
        <ele>660.225280762</ele>
        <time>2015-11-05T10:38:19.249Z</time>
      </trkpt>
      <trkpt lat="46.24067" lon="4.64721">
        <ele>660.620666504</ele>
        <time>2015-11-05T10:38:27.262Z</time>
      </trkpt>
      <trkpt lat="46.24067" lon="4.64719">
        <ele>660.617431641</ele>
        <time>2015-11-05T10:38:28.257Z</time>
      </trkpt>
      <trkpt lat="46.2407" lon="4.64708">
        <ele>661.471374512</ele>
        <time>2015-11-05T10:38:36.245Z</time>
      </trkpt>
      <trkpt lat="46.2407" lon="4.64707">
        <ele>661.664489746</ele>
        <time>2015-11-05T10:38:37.254Z</time>
      </trkpt>
      <trkpt lat="46.24072" lon="4.64695">
        <ele>663.400146484</ele>
        <time>2015-11-05T10:38:45.264Z</time>
      </trkpt>
      <trkpt lat="46.24073" lon="4.64693">
        <ele>663.679382324</ele>
        <time>2015-11-05T10:38:46.251Z</time>
      </trkpt>
      <trkpt lat="46.24074" lon="4.6468">
        <ele>665.182189941</ele>
        <time>2015-11-05T10:38:54.318Z</time>
      </trkpt>
      <trkpt lat="46.24074" lon="4.64678">
        <ele>665.350097656</ele>
        <time>2015-11-05T10:38:55.258Z</time>
      </trkpt>
      <trkpt lat="46.24074" lon="4.64667">
        <ele>666.812744141</ele>
        <time>2015-11-05T10:39:02.269Z</time>
      </trkpt>
      <trkpt lat="46.24074" lon="4.64665">
        <ele>666.984924316</ele>
        <time>2015-11-05T10:39:03.251Z</time>
      </trkpt>
      <trkpt lat="46.24078" lon="4.64654">
        <ele>667.818847656</ele>
        <time>2015-11-05T10:39:10.263Z</time>
      </trkpt>
      <trkpt lat="46.24078" lon="4.64652">
        <ele>667.947692871</ele>
        <time>2015-11-05T10:39:11.238Z</time>
      </trkpt>
      <trkpt lat="46.24082" lon="4.64643">
        <ele>668.988952637</ele>
        <time>2015-11-05T10:39:19.269Z</time>
      </trkpt>
      <trkpt lat="46.24083" lon="4.6464">
        <ele>669.129272461</ele>
        <time>2015-11-05T10:39:20.253Z</time>
      </trkpt>
      <trkpt lat="46.24089" lon="4.6463">
        <ele>670.583496094</ele>
        <time>2015-11-05T10:39:29.296Z</time>
      </trkpt>
      <trkpt lat="46.24089" lon="4.64629">
        <ele>670.729187012</ele>
        <time>2015-11-05T10:39:30.253Z</time>
      </trkpt>
      <trkpt lat="46.24096" lon="4.64621">
        <ele>671.92388916</ele>
        <time>2015-11-05T10:39:41.273Z</time>
      </trkpt>
      <trkpt lat="46.24096" lon="4.6462">
        <ele>672.008544922</ele>
        <time>2015-11-05T10:39:42.259Z</time>
      </trkpt>
      <trkpt lat="46.24102" lon="4.64611">
        <ele>672.763244629</ele>
        <time>2015-11-05T10:39:49.267Z</time>
      </trkpt>
      <trkpt lat="46.24103" lon="4.64609">
        <ele>672.843811035</ele>
        <time>2015-11-05T10:39:50.253Z</time>
      </trkpt>
      <trkpt lat="46.24109" lon="4.646">
        <ele>673.202758789</ele>
        <time>2015-11-05T10:39:57.27Z</time>
      </trkpt>
      <trkpt lat="46.2411" lon="4.64599">
        <ele>673.256591797</ele>
        <time>2015-11-05T10:39:58.254Z</time>
      </trkpt>
      <trkpt lat="46.24117" lon="4.64591">
        <ele>673.769836426</ele>
        <time>2015-11-05T10:40:05.269Z</time>
      </trkpt>
      <trkpt lat="46.24118" lon="4.64589">
        <ele>673.819946289</ele>
        <time>2015-11-05T10:40:06.255Z</time>
      </trkpt>
      <trkpt lat="46.24124" lon="4.6458">
        <ele>674.294250488</ele>
        <time>2015-11-05T10:40:14.266Z</time>
      </trkpt>
      <trkpt lat="46.24124" lon="4.64579">
        <ele>674.329345703</ele>
        <time>2015-11-05T10:40:15.255Z</time>
      </trkpt>
      <trkpt lat="46.24129" lon="4.64571">
        <ele>674.68762207</ele>
        <time>2015-11-05T10:40:21.306Z</time>
      </trkpt>
      <trkpt lat="46.2413" lon="4.64569">
        <ele>674.708374023</ele>
        <time>2015-11-05T10:40:22.252Z</time>
      </trkpt>
      <trkpt lat="46.24136" lon="4.64559">
        <ele>674.727416992</ele>
        <time>2015-11-05T10:40:28.27Z</time>
      </trkpt>
      <trkpt lat="46.24137" lon="4.64557">
        <ele>674.726318359</ele>
        <time>2015-11-05T10:40:29.257Z</time>
      </trkpt>
      <trkpt lat="46.24144" lon="4.6455">
        <ele>675.385314941</ele>
        <time>2015-11-05T10:40:35.279Z</time>
      </trkpt>
      <trkpt lat="46.24146" lon="4.64548">
        <ele>675.513916016</ele>
        <time>2015-11-05T10:40:36.256Z</time>
      </trkpt>
      <trkpt lat="46.24151" lon="4.64539">
        <ele>676.167053223</ele>
        <time>2015-11-05T10:40:42.293Z</time>
      </trkpt>
      <trkpt lat="46.24151" lon="4.64538">
        <ele>676.268249512</ele>
        <time>2015-11-05T10:40:43.256Z</time>
      </trkpt>
      <trkpt lat="46.24155" lon="4.64526">
        <ele>676.816040039</ele>
        <time>2015-11-05T10:40:50.29Z</time>
      </trkpt>
      <trkpt lat="46.24155" lon="4.64524">
        <ele>676.86932373</ele>
        <time>2015-11-05T10:40:51.237Z</time>
      </trkpt>
      <trkpt lat="46.24158" lon="4.64512">
        <ele>677.089172363</ele>
        <time>2015-11-05T10:40:58.271Z</time>
      </trkpt>
      <trkpt lat="46.24158" lon="4.64511">
        <ele>677.133850098</ele>
        <time>2015-11-05T10:40:59.268Z</time>
      </trkpt>
      <trkpt lat="46.2416" lon="4.64499">
        <ele>677.479187012</ele>
        <time>2015-11-05T10:41:05.257Z</time>
      </trkpt>
      <trkpt lat="46.2416" lon="4.64497">
        <ele>677.533447266</ele>
        <time>2015-11-05T10:41:06.247Z</time>
      </trkpt>
      <trkpt lat="46.24162" lon="4.64485">
        <ele>678.342895508</ele>
        <time>2015-11-05T10:41:14.266Z</time>
      </trkpt>
      <trkpt lat="46.24162" lon="4.64483">
        <ele>678.418884277</ele>
        <time>2015-11-05T10:41:15.258Z</time>
      </trkpt>
      <trkpt lat="46.24163" lon="4.64471">
        <ele>678.810546875</ele>
        <time>2015-11-05T10:41:21.264Z</time>
      </trkpt>
      <trkpt lat="46.24163" lon="4.64469">
        <ele>678.835205078</ele>
        <time>2015-11-05T10:41:22.257Z</time>
      </trkpt>
      <trkpt lat="46.24164" lon="4.64457">
        <ele>679.06463623</ele>
        <time>2015-11-05T10:41:29.273Z</time>
      </trkpt>
      <trkpt lat="46.24164" lon="4.64456">
        <ele>679.171508789</ele>
        <time>2015-11-05T10:41:30.24Z</time>
      </trkpt>
      <trkpt lat="46.24167" lon="4.64445">
        <ele>680.00402832</ele>
        <time>2015-11-05T10:41:38.27Z</time>
      </trkpt>
      <trkpt lat="46.24168" lon="4.64443">
        <ele>680.110534668</ele>
        <time>2015-11-05T10:41:39.272Z</time>
      </trkpt>
      <trkpt lat="46.24168" lon="4.64431">
        <ele>680.702941895</ele>
        <time>2015-11-05T10:41:45.269Z</time>
      </trkpt>
      <trkpt lat="46.24168" lon="4.64428">
        <ele>680.724304199</ele>
        <time>2015-11-05T10:41:46.257Z</time>
      </trkpt>
      <trkpt lat="46.24172" lon="4.64417">
        <ele>681.056762695</ele>
        <time>2015-11-05T10:41:55.267Z</time>
      </trkpt>
      <trkpt lat="46.24172" lon="4.64415">
        <ele>681.064575195</ele>
        <time>2015-11-05T10:41:56.262Z</time>
      </trkpt>
      <trkpt lat="46.24176" lon="4.64405">
        <ele>681.418029785</ele>
        <time>2015-11-05T10:42:02.283Z</time>
      </trkpt>
      <trkpt lat="46.24177" lon="4.64403">
        <ele>681.401000977</ele>
        <time>2015-11-05T10:42:03.257Z</time>
      </trkpt>
      <trkpt lat="46.24182" lon="4.64394">
        <ele>681.521179199</ele>
        <time>2015-11-05T10:42:09.266Z</time>
      </trkpt>
      <trkpt lat="46.24183" lon="4.64392">
        <ele>681.564575195</ele>
        <time>2015-11-05T10:42:10.257Z</time>
      </trkpt>
      <trkpt lat="46.24187" lon="4.64383">
        <ele>681.860778809</ele>
        <time>2015-11-05T10:42:15.271Z</time>
      </trkpt>
      <trkpt lat="46.24187" lon="4.64381">
        <ele>681.92010498</ele>
        <time>2015-11-05T10:42:16.258Z</time>
      </trkpt>
      <trkpt lat="46.24193" lon="4.64372">
        <ele>682.230651855</ele>
        <time>2015-11-05T10:42:23.274Z</time>
      </trkpt>
      <trkpt lat="46.24193" lon="4.6437">
        <ele>682.288085938</ele>
        <time>2015-11-05T10:42:24.258Z</time>
      </trkpt>
      <trkpt lat="46.24197" lon="4.64359">
        <ele>682.342102051</ele>
        <time>2015-11-05T10:42:29.267Z</time>
      </trkpt>
      <trkpt lat="46.24198" lon="4.64356">
        <ele>682.339599609</ele>
        <time>2015-11-05T10:42:30.25Z</time>
      </trkpt>
      <trkpt lat="46.24201" lon="4.64345">
        <ele>682.550170898</ele>
        <time>2015-11-05T10:42:37.267Z</time>
      </trkpt>
      <trkpt lat="46.24202" lon="4.64343">
        <ele>682.554077148</ele>
        <time>2015-11-05T10:42:38.257Z</time>
      </trkpt>
      <trkpt lat="46.24204" lon="4.64331">
        <ele>682.391601562</ele>
        <time>2015-11-05T10:42:45.271Z</time>
      </trkpt>
      <trkpt lat="46.24204" lon="4.6433">
        <ele>682.326599121</ele>
        <time>2015-11-05T10:42:46.256Z</time>
      </trkpt>
      <trkpt lat="46.24206" lon="4.64318">
        <ele>681.953796387</ele>
        <time>2015-11-05T10:42:54.27Z</time>
      </trkpt>
      <trkpt lat="46.24207" lon="4.64316">
        <ele>681.917602539</ele>
        <time>2015-11-05T10:42:55.285Z</time>
      </trkpt>
      <trkpt lat="46.24211" lon="4.64306">
        <ele>681.66607666</ele>
        <time>2015-11-05T10:43:02.388Z</time>
      </trkpt>
      <trkpt lat="46.24212" lon="4.64304">
        <ele>681.645019531</ele>
        <time>2015-11-05T10:43:03.247Z</time>
      </trkpt>
      <trkpt lat="46.24217" lon="4.64294">
        <ele>681.298034668</ele>
        <time>2015-11-05T10:43:09.268Z</time>
      </trkpt>
      <trkpt lat="46.24218" lon="4.64293">
        <ele>681.202819824</ele>
        <time>2015-11-05T10:43:10.257Z</time>
      </trkpt>
      <trkpt lat="46.24222" lon="4.64283">
        <ele>681.300292969</ele>
        <time>2015-11-05T10:43:16.265Z</time>
      </trkpt>
      <trkpt lat="46.24223" lon="4.64282">
        <ele>681.320068359</ele>
        <time>2015-11-05T10:43:17.259Z</time>
      </trkpt>
      <trkpt lat="46.24229" lon="4.64273">
        <ele>681.384765625</ele>
        <time>2015-11-05T10:43:23.269Z</time>
      </trkpt>
      <trkpt lat="46.2423" lon="4.64272">
        <ele>681.399780273</ele>
        <time>2015-11-05T10:43:24.264Z</time>
      </trkpt>
      <trkpt lat="46.24238" lon="4.64265">
        <ele>681.705932617</ele>
        <time>2015-11-05T10:43:31.262Z</time>
      </trkpt>
      <trkpt lat="46.24238" lon="4.64264">
        <ele>681.757019043</ele>
        <time>2015-11-05T10:43:32.257Z</time>
      </trkpt>
      <trkpt lat="46.24245" lon="4.64257">
        <ele>681.983398438</ele>
        <time>2015-11-05T10:43:39.269Z</time>
      </trkpt>
      <trkpt lat="46.24246" lon="4.64255">
        <ele>681.987854004</ele>
        <time>2015-11-05T10:43:40.286Z</time>
      </trkpt>
      <trkpt lat="46.24253" lon="4.64248">
        <ele>681.780456543</ele>
        <time>2015-11-05T10:43:47.283Z</time>
      </trkpt>
      <trkpt lat="46.24254" lon="4.64247">
        <ele>681.766174316</ele>
        <time>2015-11-05T10:43:48.252Z</time>
      </trkpt>
      <trkpt lat="46.24261" lon="4.6424">
        <ele>681.76763916</ele>
        <time>2015-11-05T10:43:55.266Z</time>
      </trkpt>
      <trkpt lat="46.24262" lon="4.64238">
        <ele>681.748535156</ele>
        <time>2015-11-05T10:43:56.262Z</time>
      </trkpt>
      <trkpt lat="46.24268" lon="4.64232">
        <ele>681.748413086</ele>
        <time>2015-11-05T10:44:02.266Z</time>
      </trkpt>
      <trkpt lat="46.24269" lon="4.64231">
        <ele>681.839660645</ele>
        <time>2015-11-05T10:44:03.257Z</time>
      </trkpt>
      <trkpt lat="46.24276" lon="4.64224">
        <ele>682.547424316</ele>
        <time>2015-11-05T10:44:10.323Z</time>
      </trkpt>
      <trkpt lat="46.24277" lon="4.64223">
        <ele>682.643188477</ele>
        <time>2015-11-05T10:44:11.234Z</time>
      </trkpt>
      <trkpt lat="46.24284" lon="4.64215">
        <ele>683.831787109</ele>
        <time>2015-11-05T10:44:25.254Z</time>
      </trkpt>
      <trkpt lat="46.24284" lon="4.64215">
        <ele>683.839355469</ele>
        <time>2015-11-05T10:44:26.247Z</time>
      </trkpt>
      <trkpt lat="46.2429" lon="4.64207">
        <ele>685.801025391</ele>
        <time>2015-11-05T10:45:21.287Z</time>
      </trkpt>
      <trkpt lat="46.24291" lon="4.64206">
        <ele>685.711669922</ele>
        <time>2015-11-05T10:45:22.259Z</time>
      </trkpt>
      <trkpt lat="46.24295" lon="4.64197">
        <ele>685.870727539</ele>
        <time>2015-11-05T10:45:26.269Z</time>
      </trkpt>
      <trkpt lat="46.24296" lon="4.64195">
        <ele>685.897216797</ele>
        <time>2015-11-05T10:45:27.259Z</time>
      </trkpt>
      <trkpt lat="46.24301" lon="4.64185">
        <ele>686.097839355</ele>
        <time>2015-11-05T10:45:32.306Z</time>
      </trkpt>
      <trkpt lat="46.24302" lon="4.64184">
        <ele>686.174804688</ele>
        <time>2015-11-05T10:45:33.256Z</time>
      </trkpt>
      <trkpt lat="46.24307" lon="4.64174">
        <ele>686.508728027</ele>
        <time>2015-11-05T10:45:39.268Z</time>
      </trkpt>
      <trkpt lat="46.24308" lon="4.64173">
        <ele>686.554504395</ele>
        <time>2015-11-05T10:45:40.248Z</time>
      </trkpt>
      <trkpt lat="46.24313" lon="4.64164">
        <ele>686.82232666</ele>
        <time>2015-11-05T10:45:46.257Z</time>
      </trkpt>
      <trkpt lat="46.24314" lon="4.64163">
        <ele>686.856994629</ele>
        <time>2015-11-05T10:45:47.25Z</time>
      </trkpt>
      <trkpt lat="46.24319" lon="4.64153">
        <ele>687.899353027</ele>
        <time>2015-11-05T10:45:56.256Z</time>
      </trkpt>
      <trkpt lat="46.2432" lon="4.64152">
        <ele>688.03338623</ele>
        <time>2015-11-05T10:45:57.251Z</time>
      </trkpt>
      <trkpt lat="46.24323" lon="4.6414">
        <ele>689.219360352</ele>
        <time>2015-11-05T10:46:05.267Z</time>
      </trkpt>
      <trkpt lat="46.24324" lon="4.64139">
        <ele>689.438781738</ele>
        <time>2015-11-05T10:46:06.26Z</time>
      </trkpt>
      <trkpt lat="46.24328" lon="4.64128">
        <ele>691.660827637</ele>
        <time>2015-11-05T10:46:15.269Z</time>
      </trkpt>
      <trkpt lat="46.24328" lon="4.64127">
        <ele>691.857543945</ele>
        <time>2015-11-05T10:46:16.251Z</time>
      </trkpt>
      <trkpt lat="46.24332" lon="4.64115">
        <ele>693.428161621</ele>
        <time>2015-11-05T10:46:26.265Z</time>
      </trkpt>
      <trkpt lat="46.24332" lon="4.64114">
        <ele>693.557495117</ele>
        <time>2015-11-05T10:46:27.264Z</time>
      </trkpt>
      <trkpt lat="46.24333" lon="4.64102">
        <ele>694.688659668</ele>
        <time>2015-11-05T10:46:37.259Z</time>
      </trkpt>
      <trkpt lat="46.24333" lon="4.64101">
        <ele>694.695251465</ele>
        <time>2015-11-05T10:46:38.25Z</time>
      </trkpt>
      <trkpt lat="46.24335" lon="4.64089">
        <ele>695.28527832</ele>
        <time>2015-11-05T10:46:47.268Z</time>
      </trkpt>
      <trkpt lat="46.24335" lon="4.64088">
        <ele>695.432678223</ele>
        <time>2015-11-05T10:46:48.249Z</time>
      </trkpt>
      <trkpt lat="46.24337" lon="4.64075">
        <ele>696.108093262</ele>
        <time>2015-11-05T10:46:57.259Z</time>
      </trkpt>
      <trkpt lat="46.24337" lon="4.64074">
        <ele>696.129089355</ele>
        <time>2015-11-05T10:46:58.253Z</time>
      </trkpt>
      <trkpt lat="46.24342" lon="4.64063">
        <ele>696.811828613</ele>
        <time>2015-11-05T10:47:11.233Z</time>
      </trkpt>
      <trkpt lat="46.24342" lon="4.64062">
        <ele>696.957458496</ele>
        <time>2015-11-05T10:47:12.257Z</time>
      </trkpt>
      <trkpt lat="46.24346" lon="4.64052">
        <ele>697.704284668</ele>
        <time>2015-11-05T10:47:20.259Z</time>
      </trkpt>
      <trkpt lat="46.24346" lon="4.6405">
        <ele>697.815795898</ele>
        <time>2015-11-05T10:47:21.271Z</time>
      </trkpt>
      <trkpt lat="46.2435" lon="4.64039">
        <ele>698.618591309</ele>
        <time>2015-11-05T10:47:27.26Z</time>
      </trkpt>
      <trkpt lat="46.24351" lon="4.64037">
        <ele>698.698913574</ele>
        <time>2015-11-05T10:47:28.254Z</time>
      </trkpt>
      <trkpt lat="46.24354" lon="4.64027">
        <ele>700.034362793</ele>
        <time>2015-11-05T10:47:37.263Z</time>
      </trkpt>
      <trkpt lat="46.24355" lon="4.64026">
        <ele>700.258117676</ele>
        <time>2015-11-05T10:47:38.248Z</time>
      </trkpt>
      <trkpt lat="46.24359" lon="4.64015">
        <ele>702.57611084</ele>
        <time>2015-11-05T10:47:50.297Z</time>
      </trkpt>
      <trkpt lat="46.2436" lon="4.64014">
        <ele>702.761962891</ele>
        <time>2015-11-05T10:47:51.245Z</time>
      </trkpt>
      <trkpt lat="46.24364" lon="4.64003">
        <ele>704.566650391</ele>
        <time>2015-11-05T10:47:58.261Z</time>
      </trkpt>
      <trkpt lat="46.24364" lon="4.64002">
        <ele>704.764465332</ele>
        <time>2015-11-05T10:47:59.262Z</time>
      </trkpt>
      <trkpt lat="46.2437" lon="4.63994">
        <ele>706.284912109</ele>
        <time>2015-11-05T10:48:11.237Z</time>
      </trkpt>
      <trkpt lat="46.24371" lon="4.63993">
        <ele>706.581420898</ele>
        <time>2015-11-05T10:48:12.258Z</time>
      </trkpt>
      <trkpt lat="46.24375" lon="4.63982">
        <ele>708.640136719</ele>
        <time>2015-11-05T10:48:21.278Z</time>
      </trkpt>
      <trkpt lat="46.24376" lon="4.6398">
        <ele>708.834350586</ele>
        <time>2015-11-05T10:48:22.25Z</time>
      </trkpt>
      <trkpt lat="46.24379" lon="4.63969">
        <ele>710.097595215</ele>
        <time>2015-11-05T10:48:30.258Z</time>
      </trkpt>
      <trkpt lat="46.24379" lon="4.63968">
        <ele>710.349182129</ele>
        <time>2015-11-05T10:48:31.248Z</time>
      </trkpt>
      <trkpt lat="46.24383" lon="4.63957">
        <ele>713.38494873</ele>
        <time>2015-11-05T10:48:42.26Z</time>
      </trkpt>
      <trkpt lat="46.24383" lon="4.63956">
        <ele>713.77557373</ele>
        <time>2015-11-05T10:48:43.25Z</time>
      </trkpt>
      <trkpt lat="46.24388" lon="4.63945">
        <ele>716.582092285</ele>
        <time>2015-11-05T10:48:52.265Z</time>
      </trkpt>
      <trkpt lat="46.24388" lon="4.63944">
        <ele>716.847229004</ele>
        <time>2015-11-05T10:48:53.249Z</time>
      </trkpt>
      <trkpt lat="46.24393" lon="4.63933">
        <ele>718.815979004</ele>
        <time>2015-11-05T10:49:02.259Z</time>
      </trkpt>
      <trkpt lat="46.24393" lon="4.63932">
        <ele>718.944335938</ele>
        <time>2015-11-05T10:49:03.25Z</time>
      </trkpt>
      <trkpt lat="46.24396" lon="4.6392">
        <ele>721.585510254</ele>
        <time>2015-11-05T10:49:16.261Z</time>
      </trkpt>
      <trkpt lat="46.24397" lon="4.63919">
        <ele>721.730285645</ele>
        <time>2015-11-05T10:49:17.25Z</time>
      </trkpt>
      <trkpt lat="46.24402" lon="4.6391">
        <ele>722.538879395</ele>
        <time>2015-11-05T10:49:23.275Z</time>
      </trkpt>
      <trkpt lat="46.24402" lon="4.63909">
        <ele>722.59375</ele>
        <time>2015-11-05T10:49:24.254Z</time>
      </trkpt>
      <trkpt lat="46.24406" lon="4.63897">
        <ele>723.441223145</ele>
        <time>2015-11-05T10:49:34.262Z</time>
      </trkpt>
      <trkpt lat="46.24406" lon="4.63895">
        <ele>723.613464355</ele>
        <time>2015-11-05T10:49:35.251Z</time>
      </trkpt>
      <trkpt lat="46.24411" lon="4.63885">
        <ele>724.867370605</ele>
        <time>2015-11-05T10:49:43.265Z</time>
      </trkpt>
      <trkpt lat="46.24411" lon="4.63883">
        <ele>725.03302002</ele>
        <time>2015-11-05T10:49:44.245Z</time>
      </trkpt>
      <trkpt lat="46.24415" lon="4.63871">
        <ele>726.621459961</ele>
        <time>2015-11-05T10:49:54.258Z</time>
      </trkpt>
      <trkpt lat="46.24415" lon="4.6387">
        <ele>726.874938965</ele>
        <time>2015-11-05T10:49:55.247Z</time>
      </trkpt>
      <trkpt lat="46.24417" lon="4.63858">
        <ele>728.851196289</ele>
        <time>2015-11-05T10:50:04.259Z</time>
      </trkpt>
      <trkpt lat="46.24417" lon="4.63857">
        <ele>729.099243164</ele>
        <time>2015-11-05T10:50:05.239Z</time>
      </trkpt>
      <trkpt lat="46.24421" lon="4.63847">
        <ele>730.832458496</ele>
        <time>2015-11-05T10:50:12.261Z</time>
      </trkpt>
      <trkpt lat="46.24422" lon="4.63846">
        <ele>731.134216309</ele>
        <time>2015-11-05T10:50:13.251Z</time>
      </trkpt>
      <trkpt lat="46.24425" lon="4.63833">
        <ele>733.288208008</ele>
        <time>2015-11-05T10:50:20.291Z</time>
      </trkpt>
      <trkpt lat="46.24425" lon="4.63831">
        <ele>733.582702637</ele>
        <time>2015-11-05T10:50:21.25Z</time>
      </trkpt>
      <trkpt lat="46.24428" lon="4.6382">
        <ele>734.101074219</ele>
        <time>2015-11-05T10:50:29.297Z</time>
      </trkpt>
      <trkpt lat="46.24429" lon="4.63818">
        <ele>734.039794922</ele>
        <time>2015-11-05T10:50:30.249Z</time>
      </trkpt>
      <trkpt lat="46.24432" lon="4.63808">
        <ele>734.015075684</ele>
        <time>2015-11-05T10:50:37.27Z</time>
      </trkpt>
      <trkpt lat="46.24432" lon="4.63806">
        <ele>734.063720703</ele>
        <time>2015-11-05T10:50:38.264Z</time>
      </trkpt>
      <trkpt lat="46.24436" lon="4.63795">
        <ele>734.008544922</ele>
        <time>2015-11-05T10:50:45.262Z</time>
      </trkpt>
      <trkpt lat="46.24436" lon="4.63793">
        <ele>734.02935791</ele>
        <time>2015-11-05T10:50:46.253Z</time>
      </trkpt>
      <trkpt lat="46.24439" lon="4.63782">
        <ele>734.247619629</ele>
        <time>2015-11-05T10:50:53.27Z</time>
      </trkpt>
      <trkpt lat="46.2444" lon="4.6378">
        <ele>734.340148926</ele>
        <time>2015-11-05T10:50:54.257Z</time>
      </trkpt>
      <trkpt lat="46.24445" lon="4.6377">
        <ele>734.553527832</ele>
        <time>2015-11-05T10:51:00.276Z</time>
      </trkpt>
      <trkpt lat="46.24445" lon="4.63768">
        <ele>734.55267334</ele>
        <time>2015-11-05T10:51:01.249Z</time>
      </trkpt>
      <trkpt lat="46.24451" lon="4.63759">
        <ele>734.66973877</ele>
        <time>2015-11-05T10:51:08.295Z</time>
      </trkpt>
      <trkpt lat="46.24452" lon="4.63757">
        <ele>734.731689453</ele>
        <time>2015-11-05T10:51:09.245Z</time>
      </trkpt>
      <trkpt lat="46.24457" lon="4.63748">
        <ele>735.301391602</ele>
        <time>2015-11-05T10:51:15.26Z</time>
      </trkpt>
      <trkpt lat="46.24458" lon="4.63746">
        <ele>735.416137695</ele>
        <time>2015-11-05T10:51:16.269Z</time>
      </trkpt>
      <trkpt lat="46.24466" lon="4.63741">
        <ele>735.95880127</ele>
        <time>2015-11-05T10:51:24.266Z</time>
      </trkpt>
      <trkpt lat="46.24467" lon="4.63741">
        <ele>735.977478027</ele>
        <time>2015-11-05T10:51:25.249Z</time>
      </trkpt>
      <trkpt lat="46.24475" lon="4.63735">
        <ele>736.069763184</ele>
        <time>2015-11-05T10:51:32.258Z</time>
      </trkpt>
      <trkpt lat="46.24476" lon="4.63734">
        <ele>736.115783691</ele>
        <time>2015-11-05T10:51:33.252Z</time>
      </trkpt>
      <trkpt lat="46.24483" lon="4.63728">
        <ele>736.247375488</ele>
        <time>2015-11-05T10:51:40.259Z</time>
      </trkpt>
      <trkpt lat="46.24484" lon="4.63727">
        <ele>736.222595215</ele>
        <time>2015-11-05T10:51:41.249Z</time>
      </trkpt>
      <trkpt lat="46.24492" lon="4.6372">
        <ele>736.386413574</ele>
        <time>2015-11-05T10:51:46.296Z</time>
      </trkpt>
      <trkpt lat="46.24493" lon="4.6372">
        <ele>736.41192627</ele>
        <time>2015-11-05T10:51:47.245Z</time>
      </trkpt>
      <trkpt lat="46.245" lon="4.63716">
        <ele>736.760864258</ele>
        <time>2015-11-05T10:51:53.258Z</time>
      </trkpt>
      <trkpt lat="46.24502" lon="4.63715">
        <ele>736.81060791</ele>
        <time>2015-11-05T10:51:54.246Z</time>
      </trkpt>
      <trkpt lat="46.24509" lon="4.63711">
        <ele>737.597045898</ele>
        <time>2015-11-05T10:52:00.267Z</time>
      </trkpt>
      <trkpt lat="46.2451" lon="4.63711">
        <ele>737.69744873</ele>
        <time>2015-11-05T10:52:01.249Z</time>
      </trkpt>
      <trkpt lat="46.24518" lon="4.63707">
        <ele>737.459716797</ele>
        <time>2015-11-05T10:52:10.275Z</time>
      </trkpt>
      <trkpt lat="46.24519" lon="4.63706">
        <ele>737.426208496</ele>
        <time>2015-11-05T10:52:11.296Z</time>
      </trkpt>
      <trkpt lat="46.24526" lon="4.63698">
        <ele>737.339782715</ele>
        <time>2015-11-05T10:52:18.259Z</time>
      </trkpt>
      <trkpt lat="46.24527" lon="4.63696">
        <ele>737.318664551</ele>
        <time>2015-11-05T10:52:19.245Z</time>
      </trkpt>
      <trkpt lat="46.24532" lon="4.63688">
        <ele>737.245727539</ele>
        <time>2015-11-05T10:52:28.257Z</time>
      </trkpt>
      <trkpt lat="46.24534" lon="4.63685">
        <ele>737.316711426</ele>
        <time>2015-11-05T10:52:29.249Z</time>
      </trkpt>
      <trkpt lat="46.24539" lon="4.63675">
        <ele>737.742553711</ele>
        <time>2015-11-05T10:52:36.282Z</time>
      </trkpt>
      <trkpt lat="46.2454" lon="4.63674">
        <ele>737.729003906</ele>
        <time>2015-11-05T10:52:37.254Z</time>
      </trkpt>
      <trkpt lat="46.24544" lon="4.63666">
        <ele>737.597900391</ele>
        <time>2015-11-05T10:52:41.263Z</time>
      </trkpt>
      <trkpt lat="46.24545" lon="4.63663">
        <ele>737.565673828</ele>
        <time>2015-11-05T10:52:42.248Z</time>
      </trkpt>
      <trkpt lat="46.2455" lon="4.63652">
        <ele>737.222351074</ele>
        <time>2015-11-05T10:52:53.285Z</time>
      </trkpt>
      <trkpt lat="46.2455" lon="4.63651">
        <ele>737.201843262</ele>
        <time>2015-11-05T10:52:54.257Z</time>
      </trkpt>
      <trkpt lat="46.24554" lon="4.63639">
        <ele>736.907226562</ele>
        <time>2015-11-05T10:53:03.271Z</time>
      </trkpt>
      <trkpt lat="46.24554" lon="4.63638">
        <ele>736.965148926</ele>
        <time>2015-11-05T10:53:04.249Z</time>
      </trkpt>
      <trkpt lat="46.24559" lon="4.63629">
        <ele>737.65435791</ele>
        <time>2015-11-05T10:53:11.26Z</time>
      </trkpt>
      <trkpt lat="46.2456" lon="4.63628">
        <ele>737.773681641</ele>
        <time>2015-11-05T10:53:12.224Z</time>
      </trkpt>
      <trkpt lat="46.24565" lon="4.63619">
        <ele>737.727905273</ele>
        <time>2015-11-05T10:53:19.27Z</time>
      </trkpt>
      <trkpt lat="46.24566" lon="4.63618">
        <ele>737.6640625</ele>
        <time>2015-11-05T10:53:20.224Z</time>
      </trkpt>
      <trkpt lat="46.24571" lon="4.63608">
        <ele>737.459106445</ele>
        <time>2015-11-05T10:53:26.331Z</time>
      </trkpt>
      <trkpt lat="46.24572" lon="4.63606">
        <ele>737.486999512</ele>
        <time>2015-11-05T10:53:27.242Z</time>
      </trkpt>
      <trkpt lat="46.24577" lon="4.63596">
        <ele>738.256958008</ele>
        <time>2015-11-05T10:53:36.254Z</time>
      </trkpt>
      <trkpt lat="46.24578" lon="4.63596">
        <ele>738.417602539</ele>
        <time>2015-11-05T10:53:37.241Z</time>
      </trkpt>
      <trkpt lat="46.24583" lon="4.63587">
        <ele>739.044677734</ele>
        <time>2015-11-05T10:53:43.281Z</time>
      </trkpt>
      <trkpt lat="46.24585" lon="4.63585">
        <ele>739.009765625</ele>
        <time>2015-11-05T10:53:44.253Z</time>
      </trkpt>
      <trkpt lat="46.2459" lon="4.63575">
        <ele>739.682006836</ele>
        <time>2015-11-05T10:53:50.252Z</time>
      </trkpt>
      <trkpt lat="46.24591" lon="4.63575">
        <ele>739.795959473</ele>
        <time>2015-11-05T10:53:51.243Z</time>
      </trkpt>
      <trkpt lat="46.24597" lon="4.63566">
        <ele>739.839111328</ele>
        <time>2015-11-05T10:53:57.282Z</time>
      </trkpt>
      <trkpt lat="46.24597" lon="4.63565">
        <ele>739.837646484</ele>
        <time>2015-11-05T10:53:58.242Z</time>
      </trkpt>
      <trkpt lat="46.24605" lon="4.6356">
        <ele>740.593200684</ele>
        <time>2015-11-05T10:54:08.263Z</time>
      </trkpt>
      <trkpt lat="46.24606" lon="4.63559">
        <ele>740.711975098</ele>
        <time>2015-11-05T10:54:09.253Z</time>
      </trkpt>
      <trkpt lat="46.24612" lon="4.63554">
        <ele>741.39465332</ele>
        <time>2015-11-05T10:54:16.255Z</time>
      </trkpt>
      <trkpt lat="46.24615" lon="4.63551">
        <ele>741.480957031</ele>
        <time>2015-11-05T10:54:17.244Z</time>
      </trkpt>
      <trkpt lat="46.24622" lon="4.63545">
        <ele>741.307067871</ele>
        <time>2015-11-05T10:54:25.259Z</time>
      </trkpt>
      <trkpt lat="46.24623" lon="4.63545">
        <ele>741.253356934</ele>
        <time>2015-11-05T10:54:26.247Z</time>
      </trkpt>
      <trkpt lat="46.24631" lon="4.6354">
        <ele>740.710510254</ele>
        <time>2015-11-05T10:54:37.318Z</time>
      </trkpt>
      <trkpt lat="46.24632" lon="4.63539">
        <ele>740.899963379</ele>
        <time>2015-11-05T10:54:38.247Z</time>
      </trkpt>
      <trkpt lat="46.24639" lon="4.63533">
        <ele>741.792175293</ele>
        <time>2015-11-05T10:54:44.395Z</time>
      </trkpt>
      <trkpt lat="46.2464" lon="4.63532">
        <ele>741.897644043</ele>
        <time>2015-11-05T10:54:45.244Z</time>
      </trkpt>
      <trkpt lat="46.24646" lon="4.63523">
        <ele>743.667297363</ele>
        <time>2015-11-05T10:55:08.277Z</time>
      </trkpt>
      <trkpt lat="46.24647" lon="4.63522">
        <ele>743.880493164</ele>
        <time>2015-11-05T10:55:09.265Z</time>
      </trkpt>
      <trkpt lat="46.24655" lon="4.63525">
        <ele>747.844299316</ele>
        <time>2015-11-05T10:55:58.268Z</time>
      </trkpt>
      <trkpt lat="46.24656" lon="4.63525">
        <ele>747.918884277</ele>
        <time>2015-11-05T10:55:59.246Z</time>
      </trkpt>
      <trkpt lat="46.24662" lon="4.63515">
        <ele>747.161987305</ele>
        <time>2015-11-05T10:56:12.25Z</time>
      </trkpt>
      <trkpt lat="46.24662" lon="4.63514">
        <ele>746.949157715</ele>
        <time>2015-11-05T10:56:13.253Z</time>
      </trkpt>
      <trkpt lat="46.24671" lon="4.63511">
        <ele>745.514831543</ele>
        <time>2015-11-05T10:56:30.249Z</time>
      </trkpt>
      <trkpt lat="46.24671" lon="4.6351">
        <ele>745.233642578</ele>
        <time>2015-11-05T10:56:31.238Z</time>
      </trkpt>
      <trkpt lat="46.24677" lon="4.63502">
        <ele>743.919372559</ele>
        <time>2015-11-05T10:56:41.257Z</time>
      </trkpt>
      <trkpt lat="46.24677" lon="4.635">
        <ele>743.727905273</ele>
        <time>2015-11-05T10:56:42.247Z</time>
      </trkpt>
      <trkpt lat="46.24684" lon="4.63491">
        <ele>742.313415527</ele>
        <time>2015-11-05T10:56:50.262Z</time>
      </trkpt>
      <trkpt lat="46.24685" lon="4.6349">
        <ele>742.19720459</ele>
        <time>2015-11-05T10:56:51.245Z</time>
      </trkpt>
      <trkpt lat="46.24689" lon="4.6348">
        <ele>741.567810059</ele>
        <time>2015-11-05T10:56:57.248Z</time>
      </trkpt>
      <trkpt lat="46.2469" lon="4.63479">
        <ele>741.473693848</ele>
        <time>2015-11-05T10:56:58.249Z</time>
      </trkpt>
      <trkpt lat="46.24696" lon="4.6347">
        <ele>740.447265625</ele>
        <time>2015-11-05T10:57:08.253Z</time>
      </trkpt>
      <trkpt lat="46.24697" lon="4.63468">
        <ele>740.483520508</ele>
        <time>2015-11-05T10:57:09.255Z</time>
      </trkpt>
      <trkpt lat="46.24701" lon="4.63457">
        <ele>740.725158691</ele>
        <time>2015-11-05T10:57:18.272Z</time>
      </trkpt>
      <trkpt lat="46.24701" lon="4.63455">
        <ele>740.784667969</ele>
        <time>2015-11-05T10:57:19.239Z</time>
      </trkpt>
      <trkpt lat="46.24705" lon="4.63444">
        <ele>742.177185059</ele>
        <time>2015-11-05T10:57:27.243Z</time>
      </trkpt>
      <trkpt lat="46.24705" lon="4.63442">
        <ele>742.433654785</ele>
        <time>2015-11-05T10:57:28.244Z</time>
      </trkpt>
      <trkpt lat="46.24708" lon="4.63431">
        <ele>742.428100586</ele>
        <time>2015-11-05T10:57:37.248Z</time>
      </trkpt>
      <trkpt lat="46.24709" lon="4.63429">
        <ele>742.497070312</ele>
        <time>2015-11-05T10:57:38.238Z</time>
      </trkpt>
      <trkpt lat="46.24717" lon="4.63432">
        <ele>743.789733887</ele>
        <time>2015-11-05T10:58:22.265Z</time>
      </trkpt>
      <trkpt lat="46.24718" lon="4.63432">
        <ele>743.83380127</ele>
        <time>2015-11-05T10:58:23.236Z</time>
      </trkpt>
      <trkpt lat="46.24721" lon="4.63421">
        <ele>746.425048828</ele>
        <time>2015-11-05T10:58:39.257Z</time>
      </trkpt>
      <trkpt lat="46.24721" lon="4.63419">
        <ele>746.578613281</ele>
        <time>2015-11-05T10:58:40.252Z</time>
      </trkpt>
      <trkpt lat="46.24723" lon="4.63406">
        <ele>747.776977539</ele>
        <time>2015-11-05T10:58:49.266Z</time>
      </trkpt>
      <trkpt lat="46.24723" lon="4.63405">
        <ele>747.900390625</ele>
        <time>2015-11-05T10:58:50.241Z</time>
      </trkpt>
      <trkpt lat="46.24724" lon="4.63392">
        <ele>748.922058105</ele>
        <time>2015-11-05T10:58:57.253Z</time>
      </trkpt>
      <trkpt lat="46.24724" lon="4.6339">
        <ele>749.079162598</ele>
        <time>2015-11-05T10:58:58.244Z</time>
      </trkpt>
      <trkpt lat="46.24726" lon="4.63379">
        <ele>750.228881836</ele>
        <time>2015-11-05T10:59:05.257Z</time>
      </trkpt>
      <trkpt lat="46.24726" lon="4.63377">
        <ele>750.393493652</ele>
        <time>2015-11-05T10:59:06.253Z</time>
      </trkpt>
      <trkpt lat="46.24727" lon="4.63365">
        <ele>751.473632812</ele>
        <time>2015-11-05T10:59:14.275Z</time>
      </trkpt>
      <trkpt lat="46.24727" lon="4.63362">
        <ele>751.594482422</ele>
        <time>2015-11-05T10:59:15.242Z</time>
      </trkpt>
      <trkpt lat="46.24728" lon="4.63351">
        <ele>752.54284668</ele>
        <time>2015-11-05T10:59:22.255Z</time>
      </trkpt>
      <trkpt lat="46.24728" lon="4.63349">
        <ele>752.679382324</ele>
        <time>2015-11-05T10:59:23.241Z</time>
      </trkpt>
      <trkpt lat="46.2473" lon="4.63337">
        <ele>753.481506348</ele>
        <time>2015-11-05T10:59:30.256Z</time>
      </trkpt>
      <trkpt lat="46.2473" lon="4.63336">
        <ele>753.642028809</ele>
        <time>2015-11-05T10:59:31.249Z</time>
      </trkpt>
      <trkpt lat="46.2473" lon="4.63324">
        <ele>754.48236084</ele>
        <time>2015-11-05T10:59:39.254Z</time>
      </trkpt>
      <trkpt lat="46.24731" lon="4.63321">
        <ele>754.561096191</ele>
        <time>2015-11-05T10:59:40.253Z</time>
      </trkpt>
      <trkpt lat="46.24732" lon="4.63309">
        <ele>755.06652832</ele>
        <time>2015-11-05T10:59:47.26Z</time>
      </trkpt>
      <trkpt lat="46.24732" lon="4.63307">
        <ele>755.133117676</ele>
        <time>2015-11-05T10:59:48.242Z</time>
      </trkpt>
      <trkpt lat="46.24734" lon="4.63295">
        <ele>755.497192383</ele>
        <time>2015-11-05T10:59:55.256Z</time>
      </trkpt>
      <trkpt lat="46.24734" lon="4.63293">
        <ele>755.548217773</ele>
        <time>2015-11-05T10:59:56.243Z</time>
      </trkpt>
      <trkpt lat="46.24734" lon="4.63281">
        <ele>755.962890625</ele>
        <time>2015-11-05T11:00:03.244Z</time>
      </trkpt>
      <trkpt lat="46.24734" lon="4.63279">
        <ele>756.045288086</ele>
        <time>2015-11-05T11:00:04.243Z</time>
      </trkpt>
      <trkpt lat="46.24734" lon="4.63268">
        <ele>756.446350098</ele>
        <time>2015-11-05T11:00:11.272Z</time>
      </trkpt>
      <trkpt lat="46.24734" lon="4.63266">
        <ele>756.495056152</ele>
        <time>2015-11-05T11:00:12.231Z</time>
      </trkpt>
      <trkpt lat="46.24732" lon="4.63254">
        <ele>756.794494629</ele>
        <time>2015-11-05T11:00:21.261Z</time>
      </trkpt>
      <trkpt lat="46.24732" lon="4.63253">
        <ele>756.823547363</ele>
        <time>2015-11-05T11:00:22.244Z</time>
      </trkpt>
      <trkpt lat="46.24731" lon="4.63242">
        <ele>757.786132812</ele>
        <time>2015-11-05T11:01:25.252Z</time>
      </trkpt>
      <trkpt lat="46.24731" lon="4.6324">
        <ele>757.80859375</ele>
        <time>2015-11-05T11:01:26.238Z</time>
      </trkpt>
      <trkpt lat="46.24732" lon="4.63229">
        <ele>757.791809082</ele>
        <time>2015-11-05T11:01:33.249Z</time>
      </trkpt>
      <trkpt lat="46.24733" lon="4.63228">
        <ele>757.776794434</ele>
        <time>2015-11-05T11:01:34.24Z</time>
      </trkpt>
      <trkpt lat="46.24736" lon="4.63216">
        <ele>757.544799805</ele>
        <time>2015-11-05T11:01:42.25Z</time>
      </trkpt>
      <trkpt lat="46.24736" lon="4.63214">
        <ele>757.515686035</ele>
        <time>2015-11-05T11:01:43.241Z</time>
      </trkpt>
      <trkpt lat="46.24739" lon="4.63204">
        <ele>757.157470703</ele>
        <time>2015-11-05T11:01:50.251Z</time>
      </trkpt>
      <trkpt lat="46.24739" lon="4.63201">
        <ele>757.093139648</ele>
        <time>2015-11-05T11:01:51.239Z</time>
      </trkpt>
      <trkpt lat="46.24743" lon="4.6319">
        <ele>756.328430176</ele>
        <time>2015-11-05T11:02:03.237Z</time>
      </trkpt>
      <trkpt lat="46.24744" lon="4.63188">
        <ele>756.275024414</ele>
        <time>2015-11-05T11:02:04.233Z</time>
      </trkpt>
      <trkpt lat="46.24747" lon="4.63177">
        <ele>755.757263184</ele>
        <time>2015-11-05T11:02:11.248Z</time>
      </trkpt>
      <trkpt lat="46.24748" lon="4.63175">
        <ele>755.667175293</ele>
        <time>2015-11-05T11:02:12.241Z</time>
      </trkpt>
      <trkpt lat="46.24752" lon="4.63165">
        <ele>754.947814941</ele>
        <time>2015-11-05T11:02:19.25Z</time>
      </trkpt>
      <trkpt lat="46.24753" lon="4.63164">
        <ele>754.829650879</ele>
        <time>2015-11-05T11:02:20.238Z</time>
      </trkpt>
      <trkpt lat="46.24758" lon="4.63154">
        <ele>753.961181641</ele>
        <time>2015-11-05T11:02:28.254Z</time>
      </trkpt>
      <trkpt lat="46.24759" lon="4.63153">
        <ele>753.899780273</ele>
        <time>2015-11-05T11:02:29.234Z</time>
      </trkpt>
      <trkpt lat="46.24755" lon="4.63143">
        <ele>752.633117676</ele>
        <time>2015-11-05T11:04:03.236Z</time>
      </trkpt>
      <trkpt lat="46.24754" lon="4.63142">
        <ele>752.634887695</ele>
        <time>2015-11-05T11:04:04.259Z</time>
      </trkpt>
      <trkpt lat="46.24759" lon="4.63133">
        <ele>752.927001953</ele>
        <time>2015-11-05T11:04:15.261Z</time>
      </trkpt>
      <trkpt lat="46.2476" lon="4.63132">
        <ele>752.945617676</ele>
        <time>2015-11-05T11:04:16.267Z</time>
      </trkpt>
      <trkpt lat="46.24766" lon="4.63124">
        <ele>752.874206543</ele>
        <time>2015-11-05T11:04:24.244Z</time>
      </trkpt>
      <trkpt lat="46.24767" lon="4.63123">
        <ele>752.835388184</ele>
        <time>2015-11-05T11:04:25.242Z</time>
      </trkpt>
      <trkpt lat="46.24773" lon="4.63114">
        <ele>752.869750977</ele>
        <time>2015-11-05T11:04:30.247Z</time>
      </trkpt>
      <trkpt lat="46.24773" lon="4.63113">
        <ele>752.904724121</ele>
        <time>2015-11-05T11:04:31.244Z</time>
      </trkpt>
      <trkpt lat="46.24779" lon="4.63104">
        <ele>752.988586426</ele>
        <time>2015-11-05T11:04:39.252Z</time>
      </trkpt>
      <trkpt lat="46.2478" lon="4.63102">
        <ele>753.020019531</ele>
        <time>2015-11-05T11:04:40.251Z</time>
      </trkpt>
      <trkpt lat="46.24785" lon="4.63093">
        <ele>753.300598145</ele>
        <time>2015-11-05T11:04:47.27Z</time>
      </trkpt>
      <trkpt lat="46.24786" lon="4.63092">
        <ele>753.330383301</ele>
        <time>2015-11-05T11:04:48.242Z</time>
      </trkpt>
      <trkpt lat="46.24792" lon="4.63084">
        <ele>753.569458008</ele>
        <time>2015-11-05T11:04:55.287Z</time>
      </trkpt>
      <trkpt lat="46.24793" lon="4.63082">
        <ele>753.586181641</ele>
        <time>2015-11-05T11:04:56.245Z</time>
      </trkpt>
      <trkpt lat="46.24801" lon="4.63076">
        <ele>753.893737793</ele>
        <time>2015-11-05T11:05:05.271Z</time>
      </trkpt>
      <trkpt lat="46.24801" lon="4.63075">
        <ele>753.948791504</ele>
        <time>2015-11-05T11:05:06.243Z</time>
      </trkpt>
      <trkpt lat="46.24809" lon="4.6308">
        <ele>754.843017578</ele>
        <time>2015-11-05T11:05:38.258Z</time>
      </trkpt>
      <trkpt lat="46.2481" lon="4.6308">
        <ele>754.879943848</ele>
        <time>2015-11-05T11:05:39.246Z</time>
      </trkpt>
      <trkpt lat="46.24817" lon="4.63074">
        <ele>756.016418457</ele>
        <time>2015-11-05T11:06:45.249Z</time>
      </trkpt>
      <trkpt lat="46.24818" lon="4.63073">
        <ele>756.008178711</ele>
        <time>2015-11-05T11:06:46.234Z</time>
      </trkpt>
      <trkpt lat="46.24824" lon="4.63065">
        <ele>756.065368652</ele>
        <time>2015-11-05T11:06:53.256Z</time>
      </trkpt>
      <trkpt lat="46.24824" lon="4.63063">
        <ele>756.079589844</ele>
        <time>2015-11-05T11:06:54.211Z</time>
      </trkpt>
      <trkpt lat="46.24828" lon="4.63051">
        <ele>756.185974121</ele>
        <time>2015-11-05T11:07:00.252Z</time>
      </trkpt>
      <trkpt lat="46.24828" lon="4.63049">
        <ele>756.18157959</ele>
        <time>2015-11-05T11:07:01.237Z</time>
      </trkpt>
      <trkpt lat="46.24831" lon="4.63038">
        <ele>756.20916748</ele>
        <time>2015-11-05T11:07:07.266Z</time>
      </trkpt>
      <trkpt lat="46.24831" lon="4.63036">
        <ele>756.217834473</ele>
        <time>2015-11-05T11:07:08.231Z</time>
      </trkpt>
      <trkpt lat="46.24834" lon="4.63026">
        <ele>756.330688477</ele>
        <time>2015-11-05T11:07:14.248Z</time>
      </trkpt>
      <trkpt lat="46.24834" lon="4.63024">
        <ele>756.354675293</ele>
        <time>2015-11-05T11:07:15.238Z</time>
      </trkpt>
      <trkpt lat="46.24839" lon="4.63014">
        <ele>756.638305664</ele>
        <time>2015-11-05T11:07:22.252Z</time>
      </trkpt>
      <trkpt lat="46.2484" lon="4.63012">
        <ele>756.688415527</ele>
        <time>2015-11-05T11:07:23.261Z</time>
      </trkpt>
      <trkpt lat="46.24843" lon="4.63001">
        <ele>757.01965332</ele>
        <time>2015-11-05T11:07:29.25Z</time>
      </trkpt>
      <trkpt lat="46.24843" lon="4.62999">
        <ele>757.083251953</ele>
        <time>2015-11-05T11:07:30.244Z</time>
      </trkpt>
      <trkpt lat="46.24845" lon="4.62987">
        <ele>757.507995605</ele>
        <time>2015-11-05T11:07:37.26Z</time>
      </trkpt>
      <trkpt lat="46.24845" lon="4.62985">
        <ele>757.558227539</ele>
        <time>2015-11-05T11:07:38.248Z</time>
      </trkpt>
      <trkpt lat="46.24846" lon="4.62973">
        <ele>757.942321777</ele>
        <time>2015-11-05T11:07:44.267Z</time>
      </trkpt>
      <trkpt lat="46.24846" lon="4.62971">
        <ele>758.005310059</ele>
        <time>2015-11-05T11:07:45.249Z</time>
      </trkpt>
      <trkpt lat="46.24848" lon="4.62959">
        <ele>758.419189453</ele>
        <time>2015-11-05T11:07:52.266Z</time>
      </trkpt>
      <trkpt lat="46.24848" lon="4.62957">
        <ele>758.453674316</ele>
        <time>2015-11-05T11:07:53.218Z</time>
      </trkpt>
      <trkpt lat="46.24849" lon="4.62946">
        <ele>758.72454834</ele>
        <time>2015-11-05T11:07:59.272Z</time>
      </trkpt>
      <trkpt lat="46.2485" lon="4.62944">
        <ele>758.77331543</ele>
        <time>2015-11-05T11:08:00.262Z</time>
      </trkpt>
      <trkpt lat="46.24851" lon="4.62931">
        <ele>759.119567871</ele>
        <time>2015-11-05T11:08:07.258Z</time>
      </trkpt>
      <trkpt lat="46.24851" lon="4.62929">
        <ele>759.159606934</ele>
        <time>2015-11-05T11:08:08.235Z</time>
      </trkpt>
      <trkpt lat="46.24853" lon="4.62918">
        <ele>759.527954102</ele>
        <time>2015-11-05T11:08:15.258Z</time>
      </trkpt>
      <trkpt lat="46.24853" lon="4.62916">
        <ele>759.588562012</ele>
        <time>2015-11-05T11:08:16.243Z</time>
      </trkpt>
      <trkpt lat="46.24855" lon="4.62905">
        <ele>759.997131348</ele>
        <time>2015-11-05T11:08:23.247Z</time>
      </trkpt>
      <trkpt lat="46.24855" lon="4.62903">
        <ele>760.055358887</ele>
        <time>2015-11-05T11:08:24.252Z</time>
      </trkpt>
      <trkpt lat="46.24858" lon="4.62891">
        <ele>760.562194824</ele>
        <time>2015-11-05T11:08:32.274Z</time>
      </trkpt>
      <trkpt lat="46.24858" lon="4.62889">
        <ele>760.631286621</ele>
        <time>2015-11-05T11:08:33.248Z</time>
      </trkpt>
      <trkpt lat="46.2486" lon="4.62878">
        <ele>761.167358398</ele>
        <time>2015-11-05T11:08:40.258Z</time>
      </trkpt>
      <trkpt lat="46.24861" lon="4.62876">
        <ele>761.249938965</ele>
        <time>2015-11-05T11:08:41.249Z</time>
      </trkpt>
      <trkpt lat="46.24863" lon="4.62865">
        <ele>761.8515625</ele>
        <time>2015-11-05T11:08:48.306Z</time>
      </trkpt>
      <trkpt lat="46.24863" lon="4.62863">
        <ele>761.938232422</ele>
        <time>2015-11-05T11:08:49.243Z</time>
      </trkpt>
      <trkpt lat="46.24865" lon="4.62851">
        <ele>762.52331543</ele>
        <time>2015-11-05T11:08:56.259Z</time>
      </trkpt>
      <trkpt lat="46.24865" lon="4.62849">
        <ele>762.601013184</ele>
        <time>2015-11-05T11:08:57.249Z</time>
      </trkpt>
      <trkpt lat="46.24867" lon="4.62838">
        <ele>763.078979492</ele>
        <time>2015-11-05T11:09:03.235Z</time>
      </trkpt>
      <trkpt lat="46.24867" lon="4.62836">
        <ele>763.165161133</ele>
        <time>2015-11-05T11:09:04.243Z</time>
      </trkpt>
      <trkpt lat="46.24869" lon="4.62824">
        <ele>763.688354492</ele>
        <time>2015-11-05T11:09:11.259Z</time>
      </trkpt>
      <trkpt lat="46.24869" lon="4.62821">
        <ele>763.767822266</ele>
        <time>2015-11-05T11:09:12.27Z</time>
      </trkpt>
      <trkpt lat="46.2487" lon="4.62811">
        <ele>764.228820801</ele>
        <time>2015-11-05T11:09:18.274Z</time>
      </trkpt>
      <trkpt lat="46.24871" lon="4.62809">
        <ele>764.304443359</ele>
        <time>2015-11-05T11:09:19.248Z</time>
      </trkpt>
      <trkpt lat="46.24872" lon="4.62796">
        <ele>764.797180176</ele>
        <time>2015-11-05T11:09:26.258Z</time>
      </trkpt>
      <trkpt lat="46.24873" lon="4.62794">
        <ele>764.859619141</ele>
        <time>2015-11-05T11:09:27.248Z</time>
      </trkpt>
      <trkpt lat="46.24873" lon="4.62782">
        <ele>765.322021484</ele>
        <time>2015-11-05T11:09:34.267Z</time>
      </trkpt>
      <trkpt lat="46.24874" lon="4.6278">
        <ele>765.389953613</ele>
        <time>2015-11-05T11:09:35.261Z</time>
      </trkpt>
      <trkpt lat="46.24874" lon="4.62769">
        <ele>765.779174805</ele>
        <time>2015-11-05T11:09:41.318Z</time>
      </trkpt>
      <trkpt lat="46.24874" lon="4.62767">
        <ele>765.837402344</ele>
        <time>2015-11-05T11:09:42.252Z</time>
      </trkpt>
      <trkpt lat="46.24875" lon="4.62755">
        <ele>766.241699219</ele>
        <time>2015-11-05T11:09:49.261Z</time>
      </trkpt>
      <trkpt lat="46.24875" lon="4.62753">
        <ele>766.302856445</ele>
        <time>2015-11-05T11:09:50.233Z</time>
      </trkpt>
      <trkpt lat="46.24876" lon="4.62742">
        <ele>766.605041504</ele>
        <time>2015-11-05T11:09:56.264Z</time>
      </trkpt>
      <trkpt lat="46.24876" lon="4.6274">
        <ele>766.609558105</ele>
        <time>2015-11-05T11:09:57.248Z</time>
      </trkpt>
      <trkpt lat="46.24877" lon="4.62729">
        <ele>766.722412109</ele>
        <time>2015-11-05T11:10:04.254Z</time>
      </trkpt>
      <trkpt lat="46.24877" lon="4.62727">
        <ele>766.755493164</ele>
        <time>2015-11-05T11:10:05.248Z</time>
      </trkpt>
      <trkpt lat="46.24879" lon="4.62715">
        <ele>767.021118164</ele>
        <time>2015-11-05T11:10:12.258Z</time>
      </trkpt>
      <trkpt lat="46.2488" lon="4.62713">
        <ele>767.057373047</ele>
        <time>2015-11-05T11:10:13.25Z</time>
      </trkpt>
      <trkpt lat="46.24882" lon="4.62702">
        <ele>767.303283691</ele>
        <time>2015-11-05T11:10:20.29Z</time>
      </trkpt>
      <trkpt lat="46.24883" lon="4.627">
        <ele>767.302246094</ele>
        <time>2015-11-05T11:10:21.24Z</time>
      </trkpt>
      <trkpt lat="46.24886" lon="4.62688">
        <ele>768.261291504</ele>
        <time>2015-11-05T11:10:50.256Z</time>
      </trkpt>
      <trkpt lat="46.24886" lon="4.62687">
        <ele>768.317810059</ele>
        <time>2015-11-05T11:10:51.247Z</time>
      </trkpt>
      <trkpt lat="46.2489" lon="4.62676">
        <ele>768.725769043</ele>
        <time>2015-11-05T11:11:00.265Z</time>
      </trkpt>
      <trkpt lat="46.2489" lon="4.62675">
        <ele>768.764892578</ele>
        <time>2015-11-05T11:11:01.249Z</time>
      </trkpt>
      <trkpt lat="46.24895" lon="4.62664">
        <ele>769.062805176</ele>
        <time>2015-11-05T11:11:09.259Z</time>
      </trkpt>
      <trkpt lat="46.24895" lon="4.62663">
        <ele>769.116943359</ele>
        <time>2015-11-05T11:11:10.248Z</time>
      </trkpt>
      <trkpt lat="46.249" lon="4.62653">
        <ele>769.444946289</ele>
        <time>2015-11-05T11:11:17.258Z</time>
      </trkpt>
      <trkpt lat="46.24901" lon="4.62652">
        <ele>769.48449707</ele>
        <time>2015-11-05T11:11:18.25Z</time>
      </trkpt>
      <trkpt lat="46.24905" lon="4.62641">
        <ele>769.776367188</ele>
        <time>2015-11-05T11:11:25.29Z</time>
      </trkpt>
      <trkpt lat="46.24906" lon="4.6264">
        <ele>769.805725098</ele>
        <time>2015-11-05T11:11:26.246Z</time>
      </trkpt>
      <trkpt lat="46.2491" lon="4.6263">
        <ele>770.061279297</ele>
        <time>2015-11-05T11:11:32.27Z</time>
      </trkpt>
      <trkpt lat="46.2491" lon="4.62629">
        <ele>770.098022461</ele>
        <time>2015-11-05T11:11:33.25Z</time>
      </trkpt>
      <trkpt lat="46.24914" lon="4.62618">
        <ele>770.410705566</ele>
        <time>2015-11-05T11:11:40.263Z</time>
      </trkpt>
      <trkpt lat="46.24914" lon="4.62616">
        <ele>770.471313477</ele>
        <time>2015-11-05T11:11:41.233Z</time>
      </trkpt>
      <trkpt lat="46.24918" lon="4.62605">
        <ele>771.060424805</ele>
        <time>2015-11-05T11:11:48.267Z</time>
      </trkpt>
      <trkpt lat="46.24918" lon="4.62603">
        <ele>771.143615723</ele>
        <time>2015-11-05T11:11:49.251Z</time>
      </trkpt>
      <trkpt lat="46.24921" lon="4.62592">
        <ele>771.78338623</ele>
        <time>2015-11-05T11:11:56.258Z</time>
      </trkpt>
      <trkpt lat="46.24921" lon="4.6259">
        <ele>771.899597168</ele>
        <time>2015-11-05T11:11:57.252Z</time>
      </trkpt>
      <trkpt lat="46.24925" lon="4.62579">
        <ele>773.137634277</ele>
        <time>2015-11-05T11:12:05.244Z</time>
      </trkpt>
      <trkpt lat="46.24925" lon="4.62577">
        <ele>773.217651367</ele>
        <time>2015-11-05T11:12:06.323Z</time>
      </trkpt>
      <trkpt lat="46.24923" lon="4.62566">
        <ele>773.765197754</ele>
        <time>2015-11-05T11:12:12.25Z</time>
      </trkpt>
      <trkpt lat="46.24923" lon="4.62565">
        <ele>773.861694336</ele>
        <time>2015-11-05T11:12:13.278Z</time>
      </trkpt>
      <trkpt lat="46.24919" lon="4.62554">
        <ele>774.276245117</ele>
        <time>2015-11-05T11:12:21.263Z</time>
      </trkpt>
      <trkpt lat="46.24919" lon="4.62552">
        <ele>774.281616211</ele>
        <time>2015-11-05T11:12:22.248Z</time>
      </trkpt>
      <trkpt lat="46.24914" lon="4.62542">
        <ele>774.300109863</ele>
        <time>2015-11-05T11:12:30.257Z</time>
      </trkpt>
      <trkpt lat="46.24914" lon="4.6254">
        <ele>774.29309082</ele>
        <time>2015-11-05T11:12:31.259Z</time>
      </trkpt>
      <trkpt lat="46.24917" lon="4.62528">
        <ele>774.228881836</ele>
        <time>2015-11-05T11:12:41.282Z</time>
      </trkpt>
      <trkpt lat="46.24917" lon="4.62527">
        <ele>774.225219727</ele>
        <time>2015-11-05T11:12:42.231Z</time>
      </trkpt>
      <trkpt lat="46.24922" lon="4.62517">
        <ele>774.178039551</ele>
        <time>2015-11-05T11:12:49.26Z</time>
      </trkpt>
      <trkpt lat="46.24923" lon="4.62515">
        <ele>774.162719727</ele>
        <time>2015-11-05T11:12:50.213Z</time>
      </trkpt>
      <trkpt lat="46.24928" lon="4.62506">
        <ele>774.170776367</ele>
        <time>2015-11-05T11:12:59.306Z</time>
      </trkpt>
      <trkpt lat="46.24929" lon="4.62505">
        <ele>774.173217773</ele>
        <time>2015-11-05T11:13:00.239Z</time>
      </trkpt>
      <trkpt lat="46.24935" lon="4.62497">
        <ele>774.644287109</ele>
        <time>2015-11-05T11:13:07.249Z</time>
      </trkpt>
      <trkpt lat="46.24935" lon="4.62496">
        <ele>774.614379883</ele>
        <time>2015-11-05T11:13:08.231Z</time>
      </trkpt>
      <trkpt lat="46.24941" lon="4.62488">
        <ele>774.761047363</ele>
        <time>2015-11-05T11:13:13.247Z</time>
      </trkpt>
      <trkpt lat="46.24943" lon="4.62487">
        <ele>774.881164551</ele>
        <time>2015-11-05T11:13:14.242Z</time>
      </trkpt>
      <trkpt lat="46.2495" lon="4.62479">
        <ele>775.378417969</ele>
        <time>2015-11-05T11:13:22.247Z</time>
      </trkpt>
      <trkpt lat="46.2495" lon="4.62478">
        <ele>775.358154297</ele>
        <time>2015-11-05T11:13:23.241Z</time>
      </trkpt>
      <trkpt lat="46.24953" lon="4.62466">
        <ele>775.375061035</ele>
        <time>2015-11-05T11:13:30.247Z</time>
      </trkpt>
      <trkpt lat="46.24954" lon="4.62465">
        <ele>775.365783691</ele>
        <time>2015-11-05T11:13:31.238Z</time>
      </trkpt>
      <trkpt lat="46.24954" lon="4.62453">
        <ele>775.393249512</ele>
        <time>2015-11-05T11:13:37.427Z</time>
      </trkpt>
      <trkpt lat="46.24954" lon="4.62451">
        <ele>775.40045166</ele>
        <time>2015-11-05T11:13:38.259Z</time>
      </trkpt>
      <trkpt lat="46.24953" lon="4.62439">
        <ele>775.677368164</ele>
        <time>2015-11-05T11:13:44.256Z</time>
      </trkpt>
      <trkpt lat="46.24952" lon="4.62437">
        <ele>775.722595215</ele>
        <time>2015-11-05T11:13:45.241Z</time>
      </trkpt>
      <trkpt lat="46.24953" lon="4.62427">
        <ele>775.744384766</ele>
        <time>2015-11-05T11:13:54.267Z</time>
      </trkpt>
      <trkpt lat="46.24952" lon="4.62424">
        <ele>775.866760254</ele>
        <time>2015-11-05T11:13:55.239Z</time>
      </trkpt>
      <trkpt lat="46.24952" lon="4.62412">
        <ele>778.180358887</ele>
        <time>2015-11-05T11:14:05.284Z</time>
      </trkpt>
      <trkpt lat="46.24952" lon="4.6241">
        <ele>778.468688965</ele>
        <time>2015-11-05T11:14:06.235Z</time>
      </trkpt>
      <trkpt lat="46.24953" lon="4.62398">
        <ele>780.168640137</ele>
        <time>2015-11-05T11:14:16.247Z</time>
      </trkpt>
      <trkpt lat="46.24954" lon="4.62396">
        <ele>780.300415039</ele>
        <time>2015-11-05T11:14:17.252Z</time>
      </trkpt>
      <trkpt lat="46.24956" lon="4.62385">
        <ele>781.58416748</ele>
        <time>2015-11-05T11:14:25.249Z</time>
      </trkpt>
      <trkpt lat="46.24956" lon="4.62383">
        <ele>781.696716309</ele>
        <time>2015-11-05T11:14:26.24Z</time>
      </trkpt>
      <trkpt lat="46.24957" lon="4.6237">
        <ele>783.026489258</ele>
        <time>2015-11-05T11:14:36.259Z</time>
      </trkpt>
      <trkpt lat="46.24957" lon="4.62369">
        <ele>783.168884277</ele>
        <time>2015-11-05T11:14:37.259Z</time>
      </trkpt>
      <trkpt lat="46.24957" lon="4.62357">
        <ele>784.722167969</ele>
        <time>2015-11-05T11:14:49.251Z</time>
      </trkpt>
      <trkpt lat="46.24958" lon="4.62355">
        <ele>784.847717285</ele>
        <time>2015-11-05T11:14:50.243Z</time>
      </trkpt>
      <trkpt lat="46.24957" lon="4.62342">
        <ele>786.63659668</ele>
        <time>2015-11-05T11:15:02.255Z</time>
      </trkpt>
      <trkpt lat="46.24956" lon="4.62341">
        <ele>786.736755371</ele>
        <time>2015-11-05T11:15:03.24Z</time>
      </trkpt>
      <trkpt lat="46.24954" lon="4.62329">
        <ele>787.961242676</ele>
        <time>2015-11-05T11:15:15.257Z</time>
      </trkpt>
      <trkpt lat="46.24954" lon="4.62328">
        <ele>788.081115723</ele>
        <time>2015-11-05T11:15:16.258Z</time>
      </trkpt>
      <trkpt lat="46.24951" lon="4.62316">
        <ele>789.23840332</ele>
        <time>2015-11-05T11:15:27.252Z</time>
      </trkpt>
      <trkpt lat="46.24951" lon="4.62314">
        <ele>789.336486816</ele>
        <time>2015-11-05T11:15:28.241Z</time>
      </trkpt>
      <trkpt lat="46.24948" lon="4.62302">
        <ele>790.042602539</ele>
        <time>2015-11-05T11:15:37.254Z</time>
      </trkpt>
      <trkpt lat="46.24948" lon="4.623">
        <ele>790.116088867</ele>
        <time>2015-11-05T11:15:38.245Z</time>
      </trkpt>
      <trkpt lat="46.24946" lon="4.62289">
        <ele>790.734802246</ele>
        <time>2015-11-05T11:15:47.267Z</time>
      </trkpt>
      <trkpt lat="46.24945" lon="4.62287">
        <ele>790.798706055</ele>
        <time>2015-11-05T11:15:48.24Z</time>
      </trkpt>
      <trkpt lat="46.24942" lon="4.62277">
        <ele>791.316894531</ele>
        <time>2015-11-05T11:15:56.265Z</time>
      </trkpt>
      <trkpt lat="46.24942" lon="4.62275">
        <ele>791.417663574</ele>
        <time>2015-11-05T11:15:57.244Z</time>
      </trkpt>
      <trkpt lat="46.24939" lon="4.62264">
        <ele>792.151672363</ele>
        <time>2015-11-05T11:16:05.254Z</time>
      </trkpt>
      <trkpt lat="46.24938" lon="4.62262">
        <ele>792.233337402</ele>
        <time>2015-11-05T11:16:06.243Z</time>
      </trkpt>
      <trkpt lat="46.24935" lon="4.62251">
        <ele>792.981750488</ele>
        <time>2015-11-05T11:16:14.28Z</time>
      </trkpt>
      <trkpt lat="46.24934" lon="4.6225">
        <ele>793.062316895</ele>
        <time>2015-11-05T11:16:15.244Z</time>
      </trkpt>
      <trkpt lat="46.24932" lon="4.62238">
        <ele>793.63482666</ele>
        <time>2015-11-05T11:16:23.258Z</time>
      </trkpt>
      <trkpt lat="46.24931" lon="4.62236">
        <ele>793.710388184</ele>
        <time>2015-11-05T11:16:24.255Z</time>
      </trkpt>
      <trkpt lat="46.24928" lon="4.62225">
        <ele>794.205322266</ele>
        <time>2015-11-05T11:16:31.264Z</time>
      </trkpt>
      <trkpt lat="46.24928" lon="4.62223">
        <ele>794.25378418</ele>
        <time>2015-11-05T11:16:32.244Z</time>
      </trkpt>
      <trkpt lat="46.24925" lon="4.62212">
        <ele>794.235717773</ele>
        <time>2015-11-05T11:16:38.262Z</time>
      </trkpt>
      <trkpt lat="46.24924" lon="4.6221">
        <ele>794.254882812</ele>
        <time>2015-11-05T11:16:39.244Z</time>
      </trkpt>
      <trkpt lat="46.24922" lon="4.622">
        <ele>794.38684082</ele>
        <time>2015-11-05T11:16:47.276Z</time>
      </trkpt>
      <trkpt lat="46.24921" lon="4.62198">
        <ele>794.397888184</ele>
        <time>2015-11-05T11:16:48.266Z</time>
      </trkpt>
      <trkpt lat="46.24919" lon="4.62186">
        <ele>794.978027344</ele>
        <time>2015-11-05T11:17:02.283Z</time>
      </trkpt>
      <trkpt lat="46.24918" lon="4.62184">
        <ele>795.065612793</ele>
        <time>2015-11-05T11:17:03.246Z</time>
      </trkpt>
      <trkpt lat="46.24916" lon="4.62171">
        <ele>795.577087402</ele>
        <time>2015-11-05T11:17:10.318Z</time>
      </trkpt>
      <trkpt lat="46.24915" lon="4.62169">
        <ele>795.636169434</ele>
        <time>2015-11-05T11:17:11.227Z</time>
      </trkpt>
      <trkpt lat="46.24914" lon="4.62158">
        <ele>796.003662109</ele>
        <time>2015-11-05T11:17:18.253Z</time>
      </trkpt>
      <trkpt lat="46.24913" lon="4.62156">
        <ele>796.038513184</ele>
        <time>2015-11-05T11:17:19.237Z</time>
      </trkpt>
      <trkpt lat="46.24911" lon="4.62144">
        <ele>796.946777344</ele>
        <time>2015-11-05T11:17:27.255Z</time>
      </trkpt>
      <trkpt lat="46.24911" lon="4.62142">
        <ele>797.06427002</ele>
        <time>2015-11-05T11:17:28.237Z</time>
      </trkpt>
      <trkpt lat="46.24912" lon="4.6213">
        <ele>797.970581055</ele>
        <time>2015-11-05T11:17:35.246Z</time>
      </trkpt>
      <trkpt lat="46.24912" lon="4.62128">
        <ele>798.107666016</ele>
        <time>2015-11-05T11:17:36.24Z</time>
      </trkpt>
      <trkpt lat="46.24912" lon="4.62116">
        <ele>799.023742676</ele>
        <time>2015-11-05T11:17:42.246Z</time>
      </trkpt>
      <trkpt lat="46.24912" lon="4.62114">
        <ele>799.069580078</ele>
        <time>2015-11-05T11:17:43.253Z</time>
      </trkpt>
      <trkpt lat="46.24913" lon="4.62102">
        <ele>800.113525391</ele>
        <time>2015-11-05T11:17:52.253Z</time>
      </trkpt>
      <trkpt lat="46.24912" lon="4.621">
        <ele>800.285095215</ele>
        <time>2015-11-05T11:17:53.23Z</time>
      </trkpt>
      <trkpt lat="46.24912" lon="4.621">
        <ele>800.285095215</ele>
        <time>2015-11-05T11:17:53.243Z</time>
      </trkpt>
      <trkpt lat="46.24915" lon="4.62083">
        <ele>801.300170898</ele>
        <time>2015-11-05T11:18:04.614Z</time>
      </trkpt>
      <trkpt lat="46.24921" lon="4.62074">
        <ele>801.441162109</ele>
        <time>2015-11-05T11:18:10.241Z</time>
      </trkpt>
      <trkpt lat="46.24922" lon="4.62072">
        <ele>801.512145996</ele>
        <time>2015-11-05T11:18:11.232Z</time>
      </trkpt>
      <trkpt lat="46.24926" lon="4.62063">
        <ele>801.817871094</ele>
        <time>2015-11-05T11:18:16.261Z</time>
      </trkpt>
      <trkpt lat="46.24927" lon="4.62061">
        <ele>801.987548828</ele>
        <time>2015-11-05T11:18:17.238Z</time>
      </trkpt>
      <trkpt lat="46.24932" lon="4.6205">
        <ele>802.212646484</ele>
        <time>2015-11-05T11:18:26.247Z</time>
      </trkpt>
      <trkpt lat="46.24933" lon="4.62049">
        <ele>802.313049316</ele>
        <time>2015-11-05T11:18:27.238Z</time>
      </trkpt>
      <trkpt lat="46.24937" lon="4.62038">
        <ele>802.638305664</ele>
        <time>2015-11-05T11:18:43.272Z</time>
      </trkpt>
      <trkpt lat="46.24938" lon="4.62037">
        <ele>802.67779541</ele>
        <time>2015-11-05T11:18:44.215Z</time>
      </trkpt>
      <trkpt lat="46.2494" lon="4.62026">
        <ele>801.406799316</ele>
        <time>2015-11-05T11:18:52.229Z</time>
      </trkpt>
      <trkpt lat="46.2494" lon="4.62024">
        <ele>801.303039551</ele>
        <time>2015-11-05T11:18:53.258Z</time>
      </trkpt>
      <trkpt lat="46.24944" lon="4.62014">
        <ele>801.051025391</ele>
        <time>2015-11-05T11:19:00.256Z</time>
      </trkpt>
      <trkpt lat="46.24944" lon="4.62012">
        <ele>800.820495605</ele>
        <time>2015-11-05T11:19:01.238Z</time>
      </trkpt>
      <trkpt lat="46.2495" lon="4.62002">
        <ele>799.660522461</ele>
        <time>2015-11-05T11:19:09.28Z</time>
      </trkpt>
      <trkpt lat="46.2495" lon="4.62002">
        <ele>799.69921875</ele>
        <time>2015-11-05T11:19:10.239Z</time>
      </trkpt>
      <trkpt lat="46.24956" lon="4.61994">
        <ele>796.517578125</ele>
        <time>2015-11-05T11:19:27.247Z</time>
      </trkpt>
      <trkpt lat="46.24957" lon="4.61992">
        <ele>796.423706055</ele>
        <time>2015-11-05T11:19:28.233Z</time>
      </trkpt>
      <trkpt lat="46.24964" lon="4.61984">
        <ele>795.576538086</ele>
        <time>2015-11-05T11:19:36.247Z</time>
      </trkpt>
      <trkpt lat="46.24965" lon="4.61984">
        <ele>795.416564941</ele>
        <time>2015-11-05T11:19:37.234Z</time>
      </trkpt>
      <trkpt lat="46.24971" lon="4.61978">
        <ele>795.0390625</ele>
        <time>2015-11-05T11:19:41.249Z</time>
      </trkpt>
      <trkpt lat="46.24973" lon="4.61977">
        <ele>794.958618164</ele>
        <time>2015-11-05T11:19:42.233Z</time>
      </trkpt>
      <trkpt lat="46.2498" lon="4.61972">
        <ele>794.598449707</ele>
        <time>2015-11-05T11:19:46.255Z</time>
      </trkpt>
      <trkpt lat="46.24982" lon="4.61972">
        <ele>794.532348633</ele>
        <time>2015-11-05T11:19:47.22Z</time>
      </trkpt>
      <trkpt lat="46.2499" lon="4.6197">
        <ele>793.079284668</ele>
        <time>2015-11-05T11:19:56.254Z</time>
      </trkpt>
      <trkpt lat="46.24991" lon="4.6197">
        <ele>792.912658691</ele>
        <time>2015-11-05T11:19:57.244Z</time>
      </trkpt>
      <trkpt lat="46.25" lon="4.61968">
        <ele>791.017150879</ele>
        <time>2015-11-05T11:20:07.252Z</time>
      </trkpt>
      <trkpt lat="46.25002" lon="4.61968">
        <ele>790.791809082</ele>
        <time>2015-11-05T11:20:08.241Z</time>
      </trkpt>
      <trkpt lat="46.2501" lon="4.61968">
        <ele>788.089111328</ele>
        <time>2015-11-05T11:20:16.246Z</time>
      </trkpt>
      <trkpt lat="46.25011" lon="4.61968">
        <ele>787.796508789</ele>
        <time>2015-11-05T11:20:17.233Z</time>
      </trkpt>
      <trkpt lat="46.25019" lon="4.61966">
        <ele>786.518127441</ele>
        <time>2015-11-05T11:20:26.236Z</time>
      </trkpt>
      <trkpt lat="46.2502" lon="4.61966">
        <ele>786.339294434</ele>
        <time>2015-11-05T11:20:27.234Z</time>
      </trkpt>
      <trkpt lat="46.25028" lon="4.61965">
        <ele>785.93762207</ele>
        <time>2015-11-05T11:20:32.271Z</time>
      </trkpt>
      <trkpt lat="46.25029" lon="4.61965">
        <ele>785.813598633</ele>
        <time>2015-11-05T11:20:33.236Z</time>
      </trkpt>
      <trkpt lat="46.25038" lon="4.61963">
        <ele>785.475158691</ele>
        <time>2015-11-05T11:20:38.261Z</time>
      </trkpt>
      <trkpt lat="46.25039" lon="4.61963">
        <ele>785.322265625</ele>
        <time>2015-11-05T11:20:39.242Z</time>
      </trkpt>
      <trkpt lat="46.25047" lon="4.61959">
        <ele>783.887329102</ele>
        <time>2015-11-05T11:20:47.277Z</time>
      </trkpt>
      <trkpt lat="46.25047" lon="4.61959">
        <ele>783.656188965</ele>
        <time>2015-11-05T11:20:48.235Z</time>
      </trkpt>
      <trkpt lat="46.25056" lon="4.61957">
        <ele>781.827941895</ele>
        <time>2015-11-05T11:20:57.27Z</time>
      </trkpt>
      <trkpt lat="46.25057" lon="4.61957">
        <ele>781.626647949</ele>
        <time>2015-11-05T11:20:58.241Z</time>
      </trkpt>
      <trkpt lat="46.25065" lon="4.61954">
        <ele>780.064880371</ele>
        <time>2015-11-05T11:21:03.268Z</time>
      </trkpt>
      <trkpt lat="46.25066" lon="4.61953">
        <ele>779.684875488</ele>
        <time>2015-11-05T11:21:04.256Z</time>
      </trkpt>
      <trkpt lat="46.25074" lon="4.6195">
        <ele>777.32824707</ele>
        <time>2015-11-05T11:21:17.263Z</time>
      </trkpt>
      <trkpt lat="46.25075" lon="4.6195">
        <ele>777.235717773</ele>
        <time>2015-11-05T11:21:18.24Z</time>
      </trkpt>
      <trkpt lat="46.25082" lon="4.61944">
        <ele>777.047424316</ele>
        <time>2015-11-05T11:21:24.263Z</time>
      </trkpt>
      <trkpt lat="46.25083" lon="4.61943">
        <ele>777.05291748</ele>
        <time>2015-11-05T11:21:25.238Z</time>
      </trkpt>
      <trkpt lat="46.2509" lon="4.61938">
        <ele>776.983886719</ele>
        <time>2015-11-05T11:21:35.259Z</time>
      </trkpt>
      <trkpt lat="46.25091" lon="4.61937">
        <ele>776.956054688</ele>
        <time>2015-11-05T11:21:36.257Z</time>
      </trkpt>
      <trkpt lat="46.25098" lon="4.61932">
        <ele>776.1015625</ele>
        <time>2015-11-05T11:21:44.24Z</time>
      </trkpt>
      <trkpt lat="46.25099" lon="4.61931">
        <ele>775.930847168</ele>
        <time>2015-11-05T11:21:45.242Z</time>
      </trkpt>
      <trkpt lat="46.25107" lon="4.61926">
        <ele>774.548034668</ele>
        <time>2015-11-05T11:21:53.267Z</time>
      </trkpt>
      <trkpt lat="46.25108" lon="4.61925">
        <ele>774.443359375</ele>
        <time>2015-11-05T11:21:54.23Z</time>
      </trkpt>
      <trkpt lat="46.25115" lon="4.61918">
        <ele>773.466552734</ele>
        <time>2015-11-05T11:22:02.269Z</time>
      </trkpt>
      <trkpt lat="46.25116" lon="4.61917">
        <ele>773.187133789</ele>
        <time>2015-11-05T11:22:03.244Z</time>
      </trkpt>
      <trkpt lat="46.25123" lon="4.61911">
        <ele>771.558776855</ele>
        <time>2015-11-05T11:22:09.268Z</time>
      </trkpt>
      <trkpt lat="46.25124" lon="4.6191">
        <ele>771.463012695</ele>
        <time>2015-11-05T11:22:10.244Z</time>
      </trkpt>
      <trkpt lat="46.25132" lon="4.61904">
        <ele>770.192687988</ele>
        <time>2015-11-05T11:22:19.267Z</time>
      </trkpt>
      <trkpt lat="46.25132" lon="4.61904">
        <ele>770.117248535</ele>
        <time>2015-11-05T11:22:20.241Z</time>
      </trkpt>
      <trkpt lat="46.2514" lon="4.61898">
        <ele>767.469543457</ele>
        <time>2015-11-05T11:22:34.27Z</time>
      </trkpt>
      <trkpt lat="46.25141" lon="4.61897">
        <ele>767.443664551</ele>
        <time>2015-11-05T11:22:35.234Z</time>
      </trkpt>
      <trkpt lat="46.25148" lon="4.6189">
        <ele>765.719360352</ele>
        <time>2015-11-05T11:23:01.222Z</time>
      </trkpt>
      <trkpt lat="46.25148" lon="4.61889">
        <ele>765.651672363</ele>
        <time>2015-11-05T11:23:02.222Z</time>
      </trkpt>
      <trkpt lat="46.25155" lon="4.61897">
        <ele>763.493041992</ele>
        <time>2015-11-05T11:23:26.24Z</time>
      </trkpt>
      <trkpt lat="46.25156" lon="4.61897">
        <ele>763.126525879</ele>
        <time>2015-11-05T11:23:27.234Z</time>
      </trkpt>
      <trkpt lat="46.25164" lon="4.61902">
        <ele>761.91394043</ele>
        <time>2015-11-05T11:23:40.243Z</time>
      </trkpt>
      <trkpt lat="46.25167" lon="4.61902">
        <ele>761.950317383</ele>
        <time>2015-11-05T11:23:41.23Z</time>
      </trkpt>
      <trkpt lat="46.25175" lon="4.61904">
        <ele>761.729248047</ele>
        <time>2015-11-05T11:23:45.263Z</time>
      </trkpt>
      <trkpt lat="46.25177" lon="4.61905">
        <ele>761.659301758</ele>
        <time>2015-11-05T11:23:46.23Z</time>
      </trkpt>
      <trkpt lat="46.25184" lon="4.61909">
        <ele>761.414428711</ele>
        <time>2015-11-05T11:23:51.242Z</time>
      </trkpt>
      <trkpt lat="46.25185" lon="4.6191">
        <ele>761.413696289</ele>
        <time>2015-11-05T11:23:52.232Z</time>
      </trkpt>
      <trkpt lat="46.25193" lon="4.61913">
        <ele>761.002380371</ele>
        <time>2015-11-05T11:24:01.255Z</time>
      </trkpt>
      <trkpt lat="46.25194" lon="4.61914">
        <ele>760.952819824</ele>
        <time>2015-11-05T11:24:02.23Z</time>
      </trkpt>
      <trkpt lat="46.25202" lon="4.6192">
        <ele>759.727600098</ele>
        <time>2015-11-05T11:24:09.253Z</time>
      </trkpt>
      <trkpt lat="46.25203" lon="4.61921">
        <ele>759.496582031</ele>
        <time>2015-11-05T11:24:10.245Z</time>
      </trkpt>
      <trkpt lat="46.25211" lon="4.61924">
        <ele>758.321289062</ele>
        <time>2015-11-05T11:24:18.26Z</time>
      </trkpt>
      <trkpt lat="46.25213" lon="4.61924">
        <ele>758.097839355</ele>
        <time>2015-11-05T11:24:19.22Z</time>
      </trkpt>
      <trkpt lat="46.25221" lon="4.61928">
        <ele>756.516113281</ele>
        <time>2015-11-05T11:24:26.246Z</time>
      </trkpt>
      <trkpt lat="46.25221" lon="4.61929">
        <ele>756.256286621</ele>
        <time>2015-11-05T11:24:27.231Z</time>
      </trkpt>
      <trkpt lat="46.25229" lon="4.61932">
        <ele>755.148681641</ele>
        <time>2015-11-05T11:24:34.245Z</time>
      </trkpt>
      <trkpt lat="46.2523" lon="4.61933">
        <ele>755.085327148</ele>
        <time>2015-11-05T11:24:35.241Z</time>
      </trkpt>
      <trkpt lat="46.25237" lon="4.6194">
        <ele>753.295837402</ele>
        <time>2015-11-05T11:24:42.243Z</time>
      </trkpt>
      <trkpt lat="46.25237" lon="4.61941">
        <ele>753.043884277</ele>
        <time>2015-11-05T11:24:43.231Z</time>
      </trkpt>
      <trkpt lat="46.25243" lon="4.6195">
        <ele>751.662780762</ele>
        <time>2015-11-05T11:24:49.264Z</time>
      </trkpt>
      <trkpt lat="46.25244" lon="4.61951">
        <ele>751.507019043</ele>
        <time>2015-11-05T11:24:50.232Z</time>
      </trkpt>
      <trkpt lat="46.2525" lon="4.61956">
        <ele>749.932800293</ele>
        <time>2015-11-05T11:24:57.306Z</time>
      </trkpt>
      <trkpt lat="46.25252" lon="4.61957">
        <ele>749.50012207</ele>
        <time>2015-11-05T11:24:58.234Z</time>
      </trkpt>
      <trkpt lat="46.25261" lon="4.61956">
        <ele>747.125671387</ele>
        <time>2015-11-05T11:25:04.246Z</time>
      </trkpt>
      <trkpt lat="46.25262" lon="4.61956">
        <ele>747.021484375</ele>
        <time>2015-11-05T11:25:05.231Z</time>
      </trkpt>
      <trkpt lat="46.25268" lon="4.6196">
        <ele>746.941101074</ele>
        <time>2015-11-05T11:25:11.247Z</time>
      </trkpt>
      <trkpt lat="46.25271" lon="4.61963">
        <ele>746.917236328</ele>
        <time>2015-11-05T11:25:12.233Z</time>
      </trkpt>
      <trkpt lat="46.25277" lon="4.61971">
        <ele>746.036071777</ele>
        <time>2015-11-05T11:25:19.246Z</time>
      </trkpt>
      <trkpt lat="46.25278" lon="4.61971">
        <ele>745.850830078</ele>
        <time>2015-11-05T11:25:20.233Z</time>
      </trkpt>
      <trkpt lat="46.25284" lon="4.61977">
        <ele>744.43951416</ele>
        <time>2015-11-05T11:25:28.265Z</time>
      </trkpt>
      <trkpt lat="46.25285" lon="4.61979">
        <ele>744.329467773</ele>
        <time>2015-11-05T11:25:29.234Z</time>
      </trkpt>
      <trkpt lat="46.25292" lon="4.61985">
        <ele>743.347351074</ele>
        <time>2015-11-05T11:25:33.251Z</time>
      </trkpt>
      <trkpt lat="46.25294" lon="4.61987">
        <ele>743.203063965</ele>
        <time>2015-11-05T11:25:34.232Z</time>
      </trkpt>
      <trkpt lat="46.25302" lon="4.61992">
        <ele>742.704589844</ele>
        <time>2015-11-05T11:25:43.265Z</time>
      </trkpt>
      <trkpt lat="46.25303" lon="4.61995">
        <ele>742.736022949</ele>
        <time>2015-11-05T11:25:44.234Z</time>
      </trkpt>
      <trkpt lat="46.25309" lon="4.62001">
        <ele>742.518371582</ele>
        <time>2015-11-05T11:25:49.248Z</time>
      </trkpt>
      <trkpt lat="46.25312" lon="4.62004">
        <ele>742.367004395</ele>
        <time>2015-11-05T11:25:50.234Z</time>
      </trkpt>
      <trkpt lat="46.25318" lon="4.62011">
        <ele>741.924133301</ele>
        <time>2015-11-05T11:25:54.277Z</time>
      </trkpt>
      <trkpt lat="46.25319" lon="4.62014">
        <ele>741.876403809</ele>
        <time>2015-11-05T11:25:55.247Z</time>
      </trkpt>
      <trkpt lat="46.25326" lon="4.62021">
        <ele>741.161499023</ele>
        <time>2015-11-05T11:26:02.27Z</time>
      </trkpt>
      <trkpt lat="46.25326" lon="4.62022">
        <ele>740.933044434</ele>
        <time>2015-11-05T11:26:03.252Z</time>
      </trkpt>
      <trkpt lat="46.25333" lon="4.62027">
        <ele>740.212890625</ele>
        <time>2015-11-05T11:26:10.281Z</time>
      </trkpt>
      <trkpt lat="46.25335" lon="4.62028">
        <ele>740.238098145</ele>
        <time>2015-11-05T11:26:11.237Z</time>
      </trkpt>
      <trkpt lat="46.25342" lon="4.62032">
        <ele>739.93536377</ele>
        <time>2015-11-05T11:26:16.247Z</time>
      </trkpt>
      <trkpt lat="46.25344" lon="4.62033">
        <ele>739.917297363</ele>
        <time>2015-11-05T11:26:17.231Z</time>
      </trkpt>
      <trkpt lat="46.25352" lon="4.62032">
        <ele>739.2578125</ele>
        <time>2015-11-05T11:26:26.255Z</time>
      </trkpt>
      <trkpt lat="46.25353" lon="4.62031">
        <ele>739.046691895</ele>
        <time>2015-11-05T11:26:27.238Z</time>
      </trkpt>
      <trkpt lat="46.25361" lon="4.62032">
        <ele>736.94342041</ele>
        <time>2015-11-05T11:26:34.273Z</time>
      </trkpt>
      <trkpt lat="46.25363" lon="4.62032">
        <ele>736.58380127</ele>
        <time>2015-11-05T11:26:35.237Z</time>
      </trkpt>
      <trkpt lat="46.25371" lon="4.62035">
        <ele>735.113769531</ele>
        <time>2015-11-05T11:26:40.277Z</time>
      </trkpt>
      <trkpt lat="46.25373" lon="4.62036">
        <ele>734.905273438</ele>
        <time>2015-11-05T11:26:41.241Z</time>
      </trkpt>
      <trkpt lat="46.2538" lon="4.62039">
        <ele>733.161560059</ele>
        <time>2015-11-05T11:26:49.26Z</time>
      </trkpt>
      <trkpt lat="46.25381" lon="4.6204">
        <ele>732.92791748</ele>
        <time>2015-11-05T11:26:50.239Z</time>
      </trkpt>
      <trkpt lat="46.25381" lon="4.62052">
        <ele>725.358947754</ele>
        <time>2015-11-05T11:31:20.272Z</time>
      </trkpt>
      <trkpt lat="46.25381" lon="4.62054">
        <ele>725.295532227</ele>
        <time>2015-11-05T11:31:21.236Z</time>
      </trkpt>
      <trkpt lat="46.2538" lon="4.62066">
        <ele>725.08807373</ele>
        <time>2015-11-05T11:31:28.267Z</time>
      </trkpt>
      <trkpt lat="46.2538" lon="4.62067">
        <ele>725.082702637</ele>
        <time>2015-11-05T11:31:29.257Z</time>
      </trkpt>
      <trkpt lat="46.2538" lon="4.62079">
        <ele>725.012329102</ele>
        <time>2015-11-05T11:31:36.256Z</time>
      </trkpt>
      <trkpt lat="46.2538" lon="4.62081">
        <ele>724.981933594</ele>
        <time>2015-11-05T11:31:37.237Z</time>
      </trkpt>
      <trkpt lat="46.25379" lon="4.62094">
        <ele>724.819396973</ele>
        <time>2015-11-05T11:31:43.255Z</time>
      </trkpt>
      <trkpt lat="46.25378" lon="4.62094">
        <ele>724.773681641</ele>
        <time>2015-11-05T11:31:44.24Z</time>
      </trkpt>
      <trkpt lat="46.25378" lon="4.62107">
        <ele>725.031188965</ele>
        <time>2015-11-05T11:31:52.249Z</time>
      </trkpt>
      <trkpt lat="46.25378" lon="4.62109">
        <ele>725.018493652</ele>
        <time>2015-11-05T11:31:53.24Z</time>
      </trkpt>
      <trkpt lat="46.25377" lon="4.62121">
        <ele>724.899230957</ele>
        <time>2015-11-05T11:32:00.278Z</time>
      </trkpt>
      <trkpt lat="46.25376" lon="4.62123">
        <ele>724.868835449</ele>
        <time>2015-11-05T11:32:01.249Z</time>
      </trkpt>
      <trkpt lat="46.25376" lon="4.62134">
        <ele>724.974914551</ele>
        <time>2015-11-05T11:32:06.256Z</time>
      </trkpt>
      <trkpt lat="46.25376" lon="4.62136">
        <ele>725.036743164</ele>
        <time>2015-11-05T11:32:07.237Z</time>
      </trkpt>
      <trkpt lat="46.25376" lon="4.62148">
        <ele>725.497009277</ele>
        <time>2015-11-05T11:32:14.254Z</time>
      </trkpt>
      <trkpt lat="46.25376" lon="4.6215">
        <ele>725.577941895</ele>
        <time>2015-11-05T11:32:15.243Z</time>
      </trkpt>
      <trkpt lat="46.25375" lon="4.62161">
        <ele>725.755371094</ele>
        <time>2015-11-05T11:32:20.317Z</time>
      </trkpt>
      <trkpt lat="46.25374" lon="4.62163">
        <ele>725.732421875</ele>
        <time>2015-11-05T11:32:21.243Z</time>
      </trkpt>
      <trkpt lat="46.25373" lon="4.62175">
        <ele>725.765930176</ele>
        <time>2015-11-05T11:32:27.279Z</time>
      </trkpt>
      <trkpt lat="46.25373" lon="4.62177">
        <ele>725.790161133</ele>
        <time>2015-11-05T11:32:28.243Z</time>
      </trkpt>
      <trkpt lat="46.25372" lon="4.62189">
        <ele>725.81072998</ele>
        <time>2015-11-05T11:32:35.264Z</time>
      </trkpt>
      <trkpt lat="46.25371" lon="4.6219">
        <ele>725.82824707</ele>
        <time>2015-11-05T11:32:36.244Z</time>
      </trkpt>
      <trkpt lat="46.25369" lon="4.622">
        <ele>726.108642578</ele>
        <time>2015-11-05T11:32:42.267Z</time>
      </trkpt>
      <trkpt lat="46.25368" lon="4.62202">
        <ele>726.25390625</ele>
        <time>2015-11-05T11:32:43.257Z</time>
      </trkpt>
      <trkpt lat="46.25366" lon="4.62214">
        <ele>727.571655273</ele>
        <time>2015-11-05T11:32:49.264Z</time>
      </trkpt>
      <trkpt lat="46.25365" lon="4.62217">
        <ele>727.765563965</ele>
        <time>2015-11-05T11:32:50.244Z</time>
      </trkpt>
      <trkpt lat="46.25365" lon="4.62228">
        <ele>729.174804688</ele>
        <time>2015-11-05T11:32:57.282Z</time>
      </trkpt>
      <trkpt lat="46.25365" lon="4.62231">
        <ele>729.403991699</ele>
        <time>2015-11-05T11:32:58.222Z</time>
      </trkpt>
      <trkpt lat="46.25368" lon="4.62243">
        <ele>730.166259766</ele>
        <time>2015-11-05T11:33:03.237Z</time>
      </trkpt>
      <trkpt lat="46.25368" lon="4.62244">
        <ele>730.324401855</ele>
        <time>2015-11-05T11:33:04.227Z</time>
      </trkpt>
      <trkpt lat="46.25368" lon="4.62257">
        <ele>731.458618164</ele>
        <time>2015-11-05T11:33:11.236Z</time>
      </trkpt>
      <trkpt lat="46.25368" lon="4.62259">
        <ele>731.526367188</ele>
        <time>2015-11-05T11:33:12.207Z</time>
      </trkpt>
      <trkpt lat="46.25367" lon="4.62271">
        <ele>731.699645996</ele>
        <time>2015-11-05T11:33:18.24Z</time>
      </trkpt>
      <trkpt lat="46.25367" lon="4.62273">
        <ele>731.666564941</ele>
        <time>2015-11-05T11:33:19.228Z</time>
      </trkpt>
      <trkpt lat="46.25367" lon="4.62286">
        <ele>731.452880859</ele>
        <time>2015-11-05T11:33:25.252Z</time>
      </trkpt>
      <trkpt lat="46.25368" lon="4.62287">
        <ele>731.453857422</ele>
        <time>2015-11-05T11:33:26.241Z</time>
      </trkpt>
      <trkpt lat="46.25368" lon="4.62298">
        <ele>731.505310059</ele>
        <time>2015-11-05T11:33:30.236Z</time>
      </trkpt>
      <trkpt lat="46.25369" lon="4.62301">
        <ele>731.476623535</ele>
        <time>2015-11-05T11:33:31.23Z</time>
      </trkpt>
      <trkpt lat="46.25366" lon="4.62311">
        <ele>730.336853027</ele>
        <time>2015-11-05T11:33:40.238Z</time>
      </trkpt>
      <trkpt lat="46.25365" lon="4.62313">
        <ele>730.268432617</ele>
        <time>2015-11-05T11:33:41.231Z</time>
      </trkpt>
      <trkpt lat="46.25361" lon="4.62324">
        <ele>730.150939941</ele>
        <time>2015-11-05T11:33:48.249Z</time>
      </trkpt>
      <trkpt lat="46.2536" lon="4.62326">
        <ele>730.143798828</ele>
        <time>2015-11-05T11:33:49.235Z</time>
      </trkpt>
      <trkpt lat="46.25356" lon="4.62335">
        <ele>730.422973633</ele>
        <time>2015-11-05T11:33:55.255Z</time>
      </trkpt>
      <trkpt lat="46.25355" lon="4.62337">
        <ele>730.34765625</ele>
        <time>2015-11-05T11:33:56.228Z</time>
      </trkpt>
      <trkpt lat="46.25352" lon="4.62349">
        <ele>729.829345703</ele>
        <time>2015-11-05T11:34:02.221Z</time>
      </trkpt>
      <trkpt lat="46.25351" lon="4.62352">
        <ele>729.789428711</ele>
        <time>2015-11-05T11:34:03.228Z</time>
      </trkpt>
      <trkpt lat="46.25347" lon="4.62363">
        <ele>729.602050781</ele>
        <time>2015-11-05T11:34:10.286Z</time>
      </trkpt>
      <trkpt lat="46.25346" lon="4.62365">
        <ele>729.517272949</ele>
        <time>2015-11-05T11:34:11.229Z</time>
      </trkpt>
      <trkpt lat="46.25343" lon="4.62377">
        <ele>728.958557129</ele>
        <time>2015-11-05T11:34:17.255Z</time>
      </trkpt>
      <trkpt lat="46.25342" lon="4.62379">
        <ele>728.825744629</ele>
        <time>2015-11-05T11:34:18.229Z</time>
      </trkpt>
      <trkpt lat="46.25338" lon="4.6239">
        <ele>728.232543945</ele>
        <time>2015-11-05T11:34:26.24Z</time>
      </trkpt>
      <trkpt lat="46.25337" lon="4.62391">
        <ele>728.196105957</ele>
        <time>2015-11-05T11:34:27.23Z</time>
      </trkpt>
      <trkpt lat="46.25331" lon="4.62401">
        <ele>727.791564941</ele>
        <time>2015-11-05T11:34:34.24Z</time>
      </trkpt>
      <trkpt lat="46.2533" lon="4.62402">
        <ele>727.785339355</ele>
        <time>2015-11-05T11:34:35.231Z</time>
      </trkpt>
      <trkpt lat="46.25325" lon="4.62413">
        <ele>727.41003418</ele>
        <time>2015-11-05T11:34:41.261Z</time>
      </trkpt>
      <trkpt lat="46.25325" lon="4.62415">
        <ele>727.346984863</ele>
        <time>2015-11-05T11:34:42.236Z</time>
      </trkpt>
      <trkpt lat="46.25321" lon="4.62426">
        <ele>727.066772461</ele>
        <time>2015-11-05T11:34:48.258Z</time>
      </trkpt>
      <trkpt lat="46.2532" lon="4.62427">
        <ele>727.099914551</ele>
        <time>2015-11-05T11:34:49.23Z</time>
      </trkpt>
      <trkpt lat="46.25315" lon="4.62436">
        <ele>727.018371582</ele>
        <time>2015-11-05T11:34:54.272Z</time>
      </trkpt>
      <trkpt lat="46.25314" lon="4.62438">
        <ele>726.957641602</ele>
        <time>2015-11-05T11:34:55.23Z</time>
      </trkpt>
      <trkpt lat="46.2531" lon="4.62449">
        <ele>726.282287598</ele>
        <time>2015-11-05T11:35:00.294Z</time>
      </trkpt>
      <trkpt lat="46.25309" lon="4.6245">
        <ele>726.138122559</ele>
        <time>2015-11-05T11:35:01.233Z</time>
      </trkpt>
      <trkpt lat="46.25304" lon="4.62459">
        <ele>725.471496582</ele>
        <time>2015-11-05T11:35:07.249Z</time>
      </trkpt>
      <trkpt lat="46.25303" lon="4.62461">
        <ele>725.292175293</ele>
        <time>2015-11-05T11:35:08.232Z</time>
      </trkpt>
      <trkpt lat="46.25298" lon="4.62471">
        <ele>724.343505859</ele>
        <time>2015-11-05T11:35:16.241Z</time>
      </trkpt>
      <trkpt lat="46.25297" lon="4.62473">
        <ele>724.185180664</ele>
        <time>2015-11-05T11:35:17.235Z</time>
      </trkpt>
      <trkpt lat="46.25293" lon="4.62481">
        <ele>723.013916016</ele>
        <time>2015-11-05T11:35:23.243Z</time>
      </trkpt>
      <trkpt lat="46.25291" lon="4.62483">
        <ele>722.907836914</ele>
        <time>2015-11-05T11:35:24.231Z</time>
      </trkpt>
      <trkpt lat="46.25284" lon="4.62489">
        <ele>722.916625977</ele>
        <time>2015-11-05T11:35:28.317Z</time>
      </trkpt>
      <trkpt lat="46.25283" lon="4.62491">
        <ele>722.810119629</ele>
        <time>2015-11-05T11:35:29.231Z</time>
      </trkpt>
      <trkpt lat="46.25276" lon="4.62498">
        <ele>722.117797852</ele>
        <time>2015-11-05T11:35:35.244Z</time>
      </trkpt>
      <trkpt lat="46.25275" lon="4.62498">
        <ele>721.829589844</ele>
        <time>2015-11-05T11:35:36.241Z</time>
      </trkpt>
      <trkpt lat="46.25268" lon="4.62504">
        <ele>720.636291504</ele>
        <time>2015-11-05T11:35:41.242Z</time>
      </trkpt>
      <trkpt lat="46.25266" lon="4.62506">
        <ele>720.511352539</ele>
        <time>2015-11-05T11:35:42.232Z</time>
      </trkpt>
      <trkpt lat="46.25259" lon="4.62511">
        <ele>719.17980957</ele>
        <time>2015-11-05T11:35:49.243Z</time>
      </trkpt>
      <trkpt lat="46.25258" lon="4.62512">
        <ele>718.96105957</ele>
        <time>2015-11-05T11:35:50.233Z</time>
      </trkpt>
      <trkpt lat="46.25249" lon="4.62517">
        <ele>716.993652344</ele>
        <time>2015-11-05T11:35:57.269Z</time>
      </trkpt>
      <trkpt lat="46.25248" lon="4.62518">
        <ele>716.752380371</ele>
        <time>2015-11-05T11:35:58.242Z</time>
      </trkpt>
      <trkpt lat="46.25241" lon="4.62526">
        <ele>714.010742188</ele>
        <time>2015-11-05T11:36:18.247Z</time>
      </trkpt>
      <trkpt lat="46.25241" lon="4.62526">
        <ele>713.950134277</ele>
        <time>2015-11-05T11:36:19.236Z</time>
      </trkpt>
      <trkpt lat="46.25232" lon="4.62528">
        <ele>712.098266602</ele>
        <time>2015-11-05T11:37:34.253Z</time>
      </trkpt>
      <trkpt lat="46.25232" lon="4.62528">
        <ele>712.022888184</ele>
        <time>2015-11-05T11:37:35.235Z</time>
      </trkpt>
      <trkpt lat="46.25239" lon="4.62535">
        <ele>710.238037109</ele>
        <time>2015-11-05T11:39:15.269Z</time>
      </trkpt>
      <trkpt lat="46.2524" lon="4.62534">
        <ele>710.249816895</ele>
        <time>2015-11-05T11:39:16.232Z</time>
      </trkpt>
      <trkpt lat="46.25232" lon="4.62538">
        <ele>715.382324219</ele>
        <time>2015-11-05T11:41:03.25Z</time>
      </trkpt>
      <trkpt lat="46.25231" lon="4.6254">
        <ele>715.515686035</ele>
        <time>2015-11-05T11:41:04.279Z</time>
      </trkpt>
      <trkpt lat="46.25224" lon="4.62547">
        <ele>716.74786377</ele>
        <time>2015-11-05T11:41:12.251Z</time>
      </trkpt>
      <trkpt lat="46.25223" lon="4.62548">
        <ele>716.818481445</ele>
        <time>2015-11-05T11:41:13.246Z</time>
      </trkpt>
      <trkpt lat="46.25216" lon="4.62553">
        <ele>716.501953125</ele>
        <time>2015-11-05T11:41:24.249Z</time>
      </trkpt>
      <trkpt lat="46.25215" lon="4.62554">
        <ele>716.410217285</ele>
        <time>2015-11-05T11:41:25.234Z</time>
      </trkpt>
      <trkpt lat="46.25208" lon="4.62562">
        <ele>716.07232666</ele>
        <time>2015-11-05T11:41:34.237Z</time>
      </trkpt>
      <trkpt lat="46.25206" lon="4.62564">
        <ele>716.075866699</ele>
        <time>2015-11-05T11:41:35.235Z</time>
      </trkpt>
      <trkpt lat="46.252" lon="4.6257">
        <ele>715.980529785</ele>
        <time>2015-11-05T11:41:38.247Z</time>
      </trkpt>
      <trkpt lat="46.25199" lon="4.62572">
        <ele>715.97265625</ele>
        <time>2015-11-05T11:41:39.237Z</time>
      </trkpt>
      <trkpt lat="46.25193" lon="4.62581">
        <ele>717.324768066</ele>
        <time>2015-11-05T11:41:46.242Z</time>
      </trkpt>
      <trkpt lat="46.25193" lon="4.62582">
        <ele>717.586669922</ele>
        <time>2015-11-05T11:41:47.239Z</time>
      </trkpt>
      <trkpt lat="46.25191" lon="4.62593">
        <ele>719.476074219</ele>
        <time>2015-11-05T11:41:52.249Z</time>
      </trkpt>
      <trkpt lat="46.25191" lon="4.62596">
        <ele>719.733337402</ele>
        <time>2015-11-05T11:41:53.24Z</time>
      </trkpt>
      <trkpt lat="46.25192" lon="4.62607">
        <ele>720.602844238</ele>
        <time>2015-11-05T11:41:58.255Z</time>
      </trkpt>
      <trkpt lat="46.25192" lon="4.62609">
        <ele>720.569824219</ele>
        <time>2015-11-05T11:41:59.261Z</time>
      </trkpt>
      <trkpt lat="46.2519" lon="4.62621">
        <ele>719.95904541</ele>
        <time>2015-11-05T11:42:05.25Z</time>
      </trkpt>
      <trkpt lat="46.25189" lon="4.62624">
        <ele>719.901855469</ele>
        <time>2015-11-05T11:42:06.245Z</time>
      </trkpt>
      <trkpt lat="46.25186" lon="4.62634">
        <ele>721.658508301</ele>
        <time>2015-11-05T11:42:19.252Z</time>
      </trkpt>
      <trkpt lat="46.25186" lon="4.62637">
        <ele>721.794433594</ele>
        <time>2015-11-05T11:42:20.24Z</time>
      </trkpt>
      <trkpt lat="46.25185" lon="4.62649">
        <ele>722.994873047</ele>
        <time>2015-11-05T11:42:27.266Z</time>
      </trkpt>
      <trkpt lat="46.25185" lon="4.62652">
        <ele>723.106445312</ele>
        <time>2015-11-05T11:42:28.237Z</time>
      </trkpt>
      <trkpt lat="46.25186" lon="4.62665">
        <ele>723.144897461</ele>
        <time>2015-11-05T11:42:32.257Z</time>
      </trkpt>
      <trkpt lat="46.25187" lon="4.62668">
        <ele>723.077270508</ele>
        <time>2015-11-05T11:42:33.238Z</time>
      </trkpt>
      <trkpt lat="46.2519" lon="4.62679">
        <ele>722.433105469</ele>
        <time>2015-11-05T11:42:38.276Z</time>
      </trkpt>
      <trkpt lat="46.25191" lon="4.62682">
        <ele>722.262939453</ele>
        <time>2015-11-05T11:42:39.242Z</time>
      </trkpt>
      <trkpt lat="46.25194" lon="4.62693">
        <ele>721.320922852</ele>
        <time>2015-11-05T11:42:44.254Z</time>
      </trkpt>
      <trkpt lat="46.25194" lon="4.62695">
        <ele>721.088134766</ele>
        <time>2015-11-05T11:42:45.243Z</time>
      </trkpt>
      <trkpt lat="46.25197" lon="4.62706">
        <ele>720.053039551</ele>
        <time>2015-11-05T11:42:51.382Z</time>
      </trkpt>
      <trkpt lat="46.25197" lon="4.62709">
        <ele>719.914123535</ele>
        <time>2015-11-05T11:42:52.241Z</time>
      </trkpt>
      <trkpt lat="46.252" lon="4.62721">
        <ele>719.022399902</ele>
        <time>2015-11-05T11:42:58.251Z</time>
      </trkpt>
      <trkpt lat="46.252" lon="4.62723">
        <ele>718.878112793</ele>
        <time>2015-11-05T11:42:59.243Z</time>
      </trkpt>
      <trkpt lat="46.25203" lon="4.62733">
        <ele>717.87890625</ele>
        <time>2015-11-05T11:43:05.27Z</time>
      </trkpt>
      <trkpt lat="46.25203" lon="4.62735">
        <ele>717.689697266</ele>
        <time>2015-11-05T11:43:06.241Z</time>
      </trkpt>
      <trkpt lat="46.25206" lon="4.62747">
        <ele>716.56652832</ele>
        <time>2015-11-05T11:43:12.278Z</time>
      </trkpt>
      <trkpt lat="46.25206" lon="4.62749">
        <ele>716.386901855</ele>
        <time>2015-11-05T11:43:13.226Z</time>
      </trkpt>
      <trkpt lat="46.25207" lon="4.62762">
        <ele>715.187866211</ele>
        <time>2015-11-05T11:43:20.273Z</time>
      </trkpt>
      <trkpt lat="46.25208" lon="4.62763">
        <ele>715.025512695</ele>
        <time>2015-11-05T11:43:21.237Z</time>
      </trkpt>
      <trkpt lat="46.25209" lon="4.62775">
        <ele>714.040039062</ele>
        <time>2015-11-05T11:43:27.248Z</time>
      </trkpt>
      <trkpt lat="46.25209" lon="4.62777">
        <ele>713.862426758</ele>
        <time>2015-11-05T11:43:28.236Z</time>
      </trkpt>
      <trkpt lat="46.25209" lon="4.6279">
        <ele>712.859924316</ele>
        <time>2015-11-05T11:43:34.252Z</time>
      </trkpt>
      <trkpt lat="46.25209" lon="4.62792">
        <ele>712.70715332</ele>
        <time>2015-11-05T11:43:35.234Z</time>
      </trkpt>
      <trkpt lat="46.25209" lon="4.62803">
        <ele>711.704650879</ele>
        <time>2015-11-05T11:43:41.244Z</time>
      </trkpt>
      <trkpt lat="46.25209" lon="4.62805">
        <ele>711.544006348</ele>
        <time>2015-11-05T11:43:42.23Z</time>
      </trkpt>
      <trkpt lat="46.25208" lon="4.62817">
        <ele>710.571533203</ele>
        <time>2015-11-05T11:43:48.265Z</time>
      </trkpt>
      <trkpt lat="46.25207" lon="4.62818">
        <ele>710.40814209</ele>
        <time>2015-11-05T11:43:49.228Z</time>
      </trkpt>
      <trkpt lat="46.25205" lon="4.6283">
        <ele>709.532592773</ele>
        <time>2015-11-05T11:43:56.238Z</time>
      </trkpt>
      <trkpt lat="46.25205" lon="4.62832">
        <ele>709.454833984</ele>
        <time>2015-11-05T11:43:57.251Z</time>
      </trkpt>
      <trkpt lat="46.25203" lon="4.62842">
        <ele>708.974243164</ele>
        <time>2015-11-05T11:44:02.249Z</time>
      </trkpt>
      <trkpt lat="46.25203" lon="4.62844">
        <ele>708.895080566</ele>
        <time>2015-11-05T11:44:03.229Z</time>
      </trkpt>
      <trkpt lat="46.25201" lon="4.62857">
        <ele>707.311767578</ele>
        <time>2015-11-05T11:44:48.253Z</time>
      </trkpt>
      <trkpt lat="46.25202" lon="4.62857">
        <ele>707.296264648</ele>
        <time>2015-11-05T11:44:49.237Z</time>
      </trkpt>
      <trkpt lat="46.25193" lon="4.62857">
        <ele>706.454345703</ele>
        <time>2015-11-05T11:47:22.25Z</time>
      </trkpt>
      <trkpt lat="46.25192" lon="4.62857">
        <ele>706.403991699</ele>
        <time>2015-11-05T11:47:23.24Z</time>
      </trkpt>
      <trkpt lat="46.25184" lon="4.62863">
        <ele>706.094482422</ele>
        <time>2015-11-05T11:47:31.25Z</time>
      </trkpt>
      <trkpt lat="46.25184" lon="4.62864">
        <ele>706.090209961</ele>
        <time>2015-11-05T11:47:32.241Z</time>
      </trkpt>
      <trkpt lat="46.25177" lon="4.62872">
        <ele>705.821533203</ele>
        <time>2015-11-05T11:47:39.266Z</time>
      </trkpt>
      <trkpt lat="46.25176" lon="4.62873">
        <ele>705.748779297</ele>
        <time>2015-11-05T11:47:40.24Z</time>
      </trkpt>
      <trkpt lat="46.2517" lon="4.62881">
        <ele>705.300537109</ele>
        <time>2015-11-05T11:47:46.24Z</time>
      </trkpt>
      <trkpt lat="46.25169" lon="4.62882">
        <ele>705.23059082</ele>
        <time>2015-11-05T11:47:47.288Z</time>
      </trkpt>
      <trkpt lat="46.25164" lon="4.62892">
        <ele>704.829467773</ele>
        <time>2015-11-05T11:47:53.241Z</time>
      </trkpt>
      <trkpt lat="46.25163" lon="4.62893">
        <ele>704.782836914</ele>
        <time>2015-11-05T11:47:54.257Z</time>
      </trkpt>
      <trkpt lat="46.25159" lon="4.62905">
        <ele>704.415283203</ele>
        <time>2015-11-05T11:48:00.251Z</time>
      </trkpt>
      <trkpt lat="46.25158" lon="4.62906">
        <ele>704.348144531</ele>
        <time>2015-11-05T11:48:01.223Z</time>
      </trkpt>
      <trkpt lat="46.25154" lon="4.62918">
        <ele>703.658691406</ele>
        <time>2015-11-05T11:48:08.254Z</time>
      </trkpt>
      <trkpt lat="46.25154" lon="4.62919">
        <ele>703.52923584</ele>
        <time>2015-11-05T11:48:09.248Z</time>
      </trkpt>
      <trkpt lat="46.2515" lon="4.6293">
        <ele>702.678894043</ele>
        <time>2015-11-05T11:48:15.26Z</time>
      </trkpt>
      <trkpt lat="46.25149" lon="4.62932">
        <ele>702.539733887</ele>
        <time>2015-11-05T11:48:16.241Z</time>
      </trkpt>
      <trkpt lat="46.25145" lon="4.62942">
        <ele>701.632507324</ele>
        <time>2015-11-05T11:48:22.26Z</time>
      </trkpt>
      <trkpt lat="46.25145" lon="4.62945">
        <ele>701.490661621</ele>
        <time>2015-11-05T11:48:23.241Z</time>
      </trkpt>
      <trkpt lat="46.25142" lon="4.62955">
        <ele>700.551147461</ele>
        <time>2015-11-05T11:48:29.282Z</time>
      </trkpt>
      <trkpt lat="46.25141" lon="4.62958">
        <ele>700.420166016</ele>
        <time>2015-11-05T11:48:30.242Z</time>
      </trkpt>
      <trkpt lat="46.2514" lon="4.62969">
        <ele>699.91027832</ele>
        <time>2015-11-05T11:48:36.253Z</time>
      </trkpt>
      <trkpt lat="46.2514" lon="4.62971">
        <ele>699.815734863</ele>
        <time>2015-11-05T11:48:37.242Z</time>
      </trkpt>
      <trkpt lat="46.25141" lon="4.62983">
        <ele>699.1640625</ele>
        <time>2015-11-05T11:48:42.301Z</time>
      </trkpt>
      <trkpt lat="46.25141" lon="4.62985">
        <ele>699.020812988</ele>
        <time>2015-11-05T11:48:43.232Z</time>
      </trkpt>
      <trkpt lat="46.25142" lon="4.62996">
        <ele>698.330566406</ele>
        <time>2015-11-05T11:48:48.248Z</time>
      </trkpt>
      <trkpt lat="46.25142" lon="4.62999">
        <ele>698.193786621</ele>
        <time>2015-11-05T11:48:49.26Z</time>
      </trkpt>
      <trkpt lat="46.25144" lon="4.63011">
        <ele>697.493591309</ele>
        <time>2015-11-05T11:48:55.265Z</time>
      </trkpt>
      <trkpt lat="46.25144" lon="4.63013">
        <ele>697.354553223</ele>
        <time>2015-11-05T11:48:56.237Z</time>
      </trkpt>
      <trkpt lat="46.25146" lon="4.63024">
        <ele>696.380126953</ele>
        <time>2015-11-05T11:49:02.247Z</time>
      </trkpt>
      <trkpt lat="46.25147" lon="4.63026">
        <ele>696.224731445</ele>
        <time>2015-11-05T11:49:03.237Z</time>
      </trkpt>
      <trkpt lat="46.2515" lon="4.63038">
        <ele>695.277099609</ele>
        <time>2015-11-05T11:49:10.31Z</time>
      </trkpt>
      <trkpt lat="46.25151" lon="4.6304">
        <ele>695.147277832</ele>
        <time>2015-11-05T11:49:11.204Z</time>
      </trkpt>
      <trkpt lat="46.25154" lon="4.6305">
        <ele>694.517028809</ele>
        <time>2015-11-05T11:49:16.248Z</time>
      </trkpt>
      <trkpt lat="46.25155" lon="4.63052">
        <ele>694.382263184</ele>
        <time>2015-11-05T11:49:17.237Z</time>
      </trkpt>
      <trkpt lat="46.2516" lon="4.63062">
        <ele>693.744445801</ele>
        <time>2015-11-05T11:49:22.249Z</time>
      </trkpt>
      <trkpt lat="46.2516" lon="4.63064">
        <ele>693.643249512</ele>
        <time>2015-11-05T11:49:23.239Z</time>
      </trkpt>
      <trkpt lat="46.25165" lon="4.63073">
        <ele>693.038879395</ele>
        <time>2015-11-05T11:49:30.377Z</time>
      </trkpt>
      <trkpt lat="46.25166" lon="4.63075">
        <ele>692.945678711</ele>
        <time>2015-11-05T11:49:31.237Z</time>
      </trkpt>
      <trkpt lat="46.25171" lon="4.63084">
        <ele>692.639160156</ele>
        <time>2015-11-05T11:49:36.257Z</time>
      </trkpt>
      <trkpt lat="46.25173" lon="4.63086">
        <ele>692.637023926</ele>
        <time>2015-11-05T11:49:37.237Z</time>
      </trkpt>
      <trkpt lat="46.25179" lon="4.63095">
        <ele>692.266296387</ele>
        <time>2015-11-05T11:49:44.25Z</time>
      </trkpt>
      <trkpt lat="46.2518" lon="4.63097">
        <ele>692.206176758</ele>
        <time>2015-11-05T11:49:45.241Z</time>
      </trkpt>
      <trkpt lat="46.25187" lon="4.63105">
        <ele>691.807373047</ele>
        <time>2015-11-05T11:49:52.249Z</time>
      </trkpt>
      <trkpt lat="46.25187" lon="4.63107">
        <ele>691.756530762</ele>
        <time>2015-11-05T11:49:53.23Z</time>
      </trkpt>
      <trkpt lat="46.25194" lon="4.63115">
        <ele>691.477966309</ele>
        <time>2015-11-05T11:49:59.246Z</time>
      </trkpt>
      <trkpt lat="46.25194" lon="4.63116">
        <ele>691.438537598</ele>
        <time>2015-11-05T11:50:00.239Z</time>
      </trkpt>
      <trkpt lat="46.25202" lon="4.63123">
        <ele>691.16986084</ele>
        <time>2015-11-05T11:50:06.244Z</time>
      </trkpt>
      <trkpt lat="46.25203" lon="4.63125">
        <ele>691.145690918</ele>
        <time>2015-11-05T11:50:07.238Z</time>
      </trkpt>
      <trkpt lat="46.2521" lon="4.63132">
        <ele>691.028198242</ele>
        <time>2015-11-05T11:50:13.246Z</time>
      </trkpt>
      <trkpt lat="46.2521" lon="4.63133">
        <ele>691.044677734</ele>
        <time>2015-11-05T11:50:14.223Z</time>
      </trkpt>
      <trkpt lat="46.25218" lon="4.6314">
        <ele>691.038024902</ele>
        <time>2015-11-05T11:50:20.276Z</time>
      </trkpt>
      <trkpt lat="46.25219" lon="4.63141">
        <ele>691.036682129</ele>
        <time>2015-11-05T11:50:21.227Z</time>
      </trkpt>
      <trkpt lat="46.25225" lon="4.63146">
        <ele>691.011047363</ele>
        <time>2015-11-05T11:50:26.239Z</time>
      </trkpt>
      <trkpt lat="46.25226" lon="4.63148">
        <ele>691.02154541</ele>
        <time>2015-11-05T11:50:27.237Z</time>
      </trkpt>
      <trkpt lat="46.25234" lon="4.63155">
        <ele>691.106384277</ele>
        <time>2015-11-05T11:50:34.369Z</time>
      </trkpt>
      <trkpt lat="46.25235" lon="4.63156">
        <ele>691.125915527</ele>
        <time>2015-11-05T11:50:35.23Z</time>
      </trkpt>
      <trkpt lat="46.25242" lon="4.63163">
        <ele>691.212646484</ele>
        <time>2015-11-05T11:50:41.279Z</time>
      </trkpt>
      <trkpt lat="46.25243" lon="4.63164">
        <ele>691.235473633</ele>
        <time>2015-11-05T11:50:42.225Z</time>
      </trkpt>
      <trkpt lat="46.25251" lon="4.6317">
        <ele>691.370361328</ele>
        <time>2015-11-05T11:50:49.25Z</time>
      </trkpt>
      <trkpt lat="46.25252" lon="4.63171">
        <ele>691.406188965</ele>
        <time>2015-11-05T11:50:50.279Z</time>
      </trkpt>
      <trkpt lat="46.25258" lon="4.63179">
        <ele>692.332275391</ele>
        <time>2015-11-05T11:53:43.291Z</time>
      </trkpt>
      <trkpt lat="46.25259" lon="4.6318">
        <ele>692.348510742</ele>
        <time>2015-11-05T11:53:44.239Z</time>
      </trkpt>
      <trkpt lat="46.25264" lon="4.63171">
        <ele>694.234924316</ele>
        <time>2015-11-05T11:55:31.253Z</time>
      </trkpt>
      <trkpt lat="46.25265" lon="4.6317">
        <ele>694.363891602</ele>
        <time>2015-11-05T11:55:32.243Z</time>
      </trkpt>
      <trkpt lat="46.25271" lon="4.63161">
        <ele>694.052124023</ele>
        <time>2015-11-05T11:55:36.238Z</time>
      </trkpt>
      <trkpt lat="46.25271" lon="4.63159">
        <ele>693.959838867</ele>
        <time>2015-11-05T11:55:37.231Z</time>
      </trkpt>
      <trkpt lat="46.25278" lon="4.63151">
        <ele>692.949157715</ele>
        <time>2015-11-05T11:55:44.252Z</time>
      </trkpt>
      <trkpt lat="46.25279" lon="4.63151">
        <ele>692.800170898</ele>
        <time>2015-11-05T11:55:45.229Z</time>
      </trkpt>
      <trkpt lat="46.25288" lon="4.63148">
        <ele>693.458251953</ele>
        <time>2015-11-05T11:55:57.241Z</time>
      </trkpt>
      <trkpt lat="46.25288" lon="4.63148">
        <ele>693.605895996</ele>
        <time>2015-11-05T11:55:58.224Z</time>
      </trkpt>
      <trkpt lat="46.25297" lon="4.63146">
        <ele>694.163208008</ele>
        <time>2015-11-05T11:56:04.238Z</time>
      </trkpt>
      <trkpt lat="46.25299" lon="4.63145">
        <ele>694.214294434</ele>
        <time>2015-11-05T11:56:05.229Z</time>
      </trkpt>
      <trkpt lat="46.25306" lon="4.63141">
        <ele>694.540222168</ele>
        <time>2015-11-05T11:56:10.322Z</time>
      </trkpt>
      <trkpt lat="46.25308" lon="4.6314">
        <ele>694.558898926</ele>
        <time>2015-11-05T11:56:11.237Z</time>
      </trkpt>
      <trkpt lat="46.25316" lon="4.63135">
        <ele>694.081359863</ele>
        <time>2015-11-05T11:56:17.283Z</time>
      </trkpt>
      <trkpt lat="46.25317" lon="4.63134">
        <ele>693.971252441</ele>
        <time>2015-11-05T11:56:18.23Z</time>
      </trkpt>
      <trkpt lat="46.25325" lon="4.63128">
        <ele>693.454772949</ele>
        <time>2015-11-05T11:56:24.241Z</time>
      </trkpt>
      <trkpt lat="46.25326" lon="4.63128">
        <ele>693.409118652</ele>
        <time>2015-11-05T11:56:25.23Z</time>
      </trkpt>
      <trkpt lat="46.25334" lon="4.63121">
        <ele>692.655517578</ele>
        <time>2015-11-05T11:56:31.238Z</time>
      </trkpt>
      <trkpt lat="46.25335" lon="4.6312">
        <ele>692.506408691</ele>
        <time>2015-11-05T11:56:32.231Z</time>
      </trkpt>
      <trkpt lat="46.25342" lon="4.63113">
        <ele>691.437866211</ele>
        <time>2015-11-05T11:56:39.249Z</time>
      </trkpt>
      <trkpt lat="46.25343" lon="4.63111">
        <ele>691.26739502</ele>
        <time>2015-11-05T11:56:40.23Z</time>
      </trkpt>
      <trkpt lat="46.25349" lon="4.63101">
        <ele>690.224487305</ele>
        <time>2015-11-05T11:56:47.269Z</time>
      </trkpt>
      <trkpt lat="46.25349" lon="4.631">
        <ele>690.069946289</ele>
        <time>2015-11-05T11:56:48.228Z</time>
      </trkpt>
      <trkpt lat="46.25354" lon="4.63092">
        <ele>689.409851074</ele>
        <time>2015-11-05T11:56:54.237Z</time>
      </trkpt>
      <trkpt lat="46.25356" lon="4.6309">
        <ele>689.309936523</ele>
        <time>2015-11-05T11:56:55.23Z</time>
      </trkpt>
      <trkpt lat="46.25361" lon="4.63082">
        <ele>688.563842773</ele>
        <time>2015-11-05T11:57:01.246Z</time>
      </trkpt>
      <trkpt lat="46.25361" lon="4.6308">
        <ele>688.436096191</ele>
        <time>2015-11-05T11:57:02.217Z</time>
      </trkpt>
      <trkpt lat="46.25366" lon="4.63071">
        <ele>687.617736816</ele>
        <time>2015-11-05T11:57:08.246Z</time>
      </trkpt>
      <trkpt lat="46.25367" lon="4.63069">
        <ele>687.479125977</ele>
        <time>2015-11-05T11:57:09.231Z</time>
      </trkpt>
      <trkpt lat="46.25372" lon="4.63061">
        <ele>686.669799805</ele>
        <time>2015-11-05T11:57:15.25Z</time>
      </trkpt>
      <trkpt lat="46.25373" lon="4.63059">
        <ele>686.534667969</ele>
        <time>2015-11-05T11:57:16.231Z</time>
      </trkpt>
      <trkpt lat="46.25379" lon="4.6305">
        <ele>685.73059082</ele>
        <time>2015-11-05T11:57:22.261Z</time>
      </trkpt>
      <trkpt lat="46.25379" lon="4.63048">
        <ele>685.596618652</ele>
        <time>2015-11-05T11:57:23.248Z</time>
      </trkpt>
      <trkpt lat="46.25385" lon="4.63039">
        <ele>684.815734863</ele>
        <time>2015-11-05T11:57:29.247Z</time>
      </trkpt>
      <trkpt lat="46.25385" lon="4.63038">
        <ele>684.684692383</ele>
        <time>2015-11-05T11:57:30.236Z</time>
      </trkpt>
      <trkpt lat="46.25391" lon="4.63029">
        <ele>683.874206543</ele>
        <time>2015-11-05T11:57:36.242Z</time>
      </trkpt>
      <trkpt lat="46.25392" lon="4.63027">
        <ele>683.734008789</ele>
        <time>2015-11-05T11:57:37.24Z</time>
      </trkpt>
      <trkpt lat="46.25397" lon="4.63017">
        <ele>682.790405273</ele>
        <time>2015-11-05T11:57:44.256Z</time>
      </trkpt>
      <trkpt lat="46.25398" lon="4.63015">
        <ele>682.665710449</ele>
        <time>2015-11-05T11:57:45.239Z</time>
      </trkpt>
      <trkpt lat="46.25404" lon="4.63007">
        <ele>681.844238281</ele>
        <time>2015-11-05T11:57:50.345Z</time>
      </trkpt>
      <trkpt lat="46.25405" lon="4.63006">
        <ele>681.677734375</ele>
        <time>2015-11-05T11:57:51.249Z</time>
      </trkpt>
      <trkpt lat="46.25412" lon="4.62998">
        <ele>680.751525879</ele>
        <time>2015-11-05T11:57:57.251Z</time>
      </trkpt>
      <trkpt lat="46.25413" lon="4.62997">
        <ele>680.618164062</ele>
        <time>2015-11-05T11:57:58.218Z</time>
      </trkpt>
      <trkpt lat="46.25419" lon="4.62991">
        <ele>680.223022461</ele>
        <time>2015-11-05T11:58:04.255Z</time>
      </trkpt>
      <trkpt lat="46.2542" lon="4.6299">
        <ele>680.117858887</ele>
        <time>2015-11-05T11:58:05.239Z</time>
      </trkpt>
      <trkpt lat="46.25428" lon="4.62986">
        <ele>679.604797363</ele>
        <time>2015-11-05T11:58:10.248Z</time>
      </trkpt>
      <trkpt lat="46.25429" lon="4.62986">
        <ele>679.486694336</ele>
        <time>2015-11-05T11:58:11.252Z</time>
      </trkpt>
      <trkpt lat="46.25437" lon="4.62983">
        <ele>678.680358887</ele>
        <time>2015-11-05T11:58:17.251Z</time>
      </trkpt>
      <trkpt lat="46.25439" lon="4.62983">
        <ele>678.552612305</ele>
        <time>2015-11-05T11:58:18.234Z</time>
      </trkpt>
      <trkpt lat="46.25447" lon="4.62982">
        <ele>677.677856445</ele>
        <time>2015-11-05T11:58:24.26Z</time>
      </trkpt>
      <trkpt lat="46.25448" lon="4.62982">
        <ele>677.551574707</ele>
        <time>2015-11-05T11:58:25.239Z</time>
      </trkpt>
      <trkpt lat="46.25456" lon="4.6298">
        <ele>676.699584961</ele>
        <time>2015-11-05T11:58:31.259Z</time>
      </trkpt>
      <trkpt lat="46.25457" lon="4.62979">
        <ele>676.573913574</ele>
        <time>2015-11-05T11:58:32.24Z</time>
      </trkpt>
      <trkpt lat="46.25466" lon="4.62977">
        <ele>675.855224609</ele>
        <time>2015-11-05T11:58:38.251Z</time>
      </trkpt>
      <trkpt lat="46.25467" lon="4.62976">
        <ele>675.740356445</ele>
        <time>2015-11-05T11:58:39.239Z</time>
      </trkpt>
      <trkpt lat="46.25476" lon="4.62977">
        <ele>674.947998047</ele>
        <time>2015-11-05T11:58:46.247Z</time>
      </trkpt>
      <trkpt lat="46.25477" lon="4.62977">
        <ele>674.857543945</ele>
        <time>2015-11-05T11:58:47.238Z</time>
      </trkpt>
      <trkpt lat="46.25486" lon="4.62976">
        <ele>674.181518555</ele>
        <time>2015-11-05T11:58:53.283Z</time>
      </trkpt>
      <trkpt lat="46.25487" lon="4.62976">
        <ele>674.045288086</ele>
        <time>2015-11-05T11:58:54.237Z</time>
      </trkpt>
      <trkpt lat="46.25495" lon="4.62979">
        <ele>673.217956543</ele>
        <time>2015-11-05T11:59:00.233Z</time>
      </trkpt>
      <trkpt lat="46.25496" lon="4.62979">
        <ele>673.062561035</ele>
        <time>2015-11-05T11:59:01.242Z</time>
      </trkpt>
      <trkpt lat="46.25504" lon="4.62982">
        <ele>672.418884277</ele>
        <time>2015-11-05T11:59:06.252Z</time>
      </trkpt>
      <trkpt lat="46.25505" lon="4.62982">
        <ele>672.294372559</ele>
        <time>2015-11-05T11:59:07.242Z</time>
      </trkpt>
      <trkpt lat="46.25513" lon="4.62987">
        <ele>671.327087402</ele>
        <time>2015-11-05T11:59:14.253Z</time>
      </trkpt>
      <trkpt lat="46.25514" lon="4.62988">
        <ele>671.188354492</ele>
        <time>2015-11-05T11:59:15.236Z</time>
      </trkpt>
      <trkpt lat="46.2552" lon="4.62997">
        <ele>670.469299316</ele>
        <time>2015-11-05T11:59:20.284Z</time>
      </trkpt>
      <trkpt lat="46.25521" lon="4.62998">
        <ele>670.341491699</ele>
        <time>2015-11-05T11:59:21.226Z</time>
      </trkpt>
      <trkpt lat="46.25522" lon="4.63009">
        <ele>669.65625</ele>
        <time>2015-11-05T11:59:26.246Z</time>
      </trkpt>
      <trkpt lat="46.25523" lon="4.63011">
        <ele>669.53302002</ele>
        <time>2015-11-05T11:59:27.253Z</time>
      </trkpt>
      <trkpt lat="46.25524" lon="4.63022">
        <ele>668.80480957</ele>
        <time>2015-11-05T11:59:33.247Z</time>
      </trkpt>
      <trkpt lat="46.25524" lon="4.63026">
        <ele>668.716186523</ele>
        <time>2015-11-05T11:59:34.24Z</time>
      </trkpt>
      <trkpt lat="46.25524" lon="4.63037">
        <ele>668.344421387</ele>
        <time>2015-11-05T11:59:39.252Z</time>
      </trkpt>
      <trkpt lat="46.25525" lon="4.63039">
        <ele>668.266601562</ele>
        <time>2015-11-05T11:59:40.237Z</time>
      </trkpt>
      <trkpt lat="46.25525" lon="4.6305">
        <ele>667.869506836</ele>
        <time>2015-11-05T11:59:45.24Z</time>
      </trkpt>
      <trkpt lat="46.25526" lon="4.63052">
        <ele>667.785461426</ele>
        <time>2015-11-05T11:59:46.228Z</time>
      </trkpt>
      <trkpt lat="46.25526" lon="4.63065">
        <ele>667.360900879</ele>
        <time>2015-11-05T11:59:52.246Z</time>
      </trkpt>
      <trkpt lat="46.25526" lon="4.63066">
        <ele>667.294311523</ele>
        <time>2015-11-05T11:59:53.228Z</time>
      </trkpt>
      <trkpt lat="46.25527" lon="4.63079">
        <ele>666.932922363</ele>
        <time>2015-11-05T11:59:59.213Z</time>
      </trkpt>
      <trkpt lat="46.25527" lon="4.63081">
        <ele>666.879882812</ele>
        <time>2015-11-05T12:00:00.228Z</time>
      </trkpt>
      <trkpt lat="46.25528" lon="4.63092">
        <ele>666.561523438</ele>
        <time>2015-11-05T12:00:05.239Z</time>
      </trkpt>
      <trkpt lat="46.25528" lon="4.63094">
        <ele>666.496276855</ele>
        <time>2015-11-05T12:00:06.237Z</time>
      </trkpt>
      <trkpt lat="46.25528" lon="4.63106">
        <ele>666.216186523</ele>
        <time>2015-11-05T12:00:12.238Z</time>
      </trkpt>
      <trkpt lat="46.25528" lon="4.63109">
        <ele>666.159118652</ele>
        <time>2015-11-05T12:00:13.229Z</time>
      </trkpt>
      <trkpt lat="46.25528" lon="4.63121">
        <ele>665.89630127</ele>
        <time>2015-11-05T12:00:19.254Z</time>
      </trkpt>
      <trkpt lat="46.25529" lon="4.63123">
        <ele>665.847290039</ele>
        <time>2015-11-05T12:00:20.229Z</time>
      </trkpt>
      <trkpt lat="46.25529" lon="4.63134">
        <ele>665.620605469</ele>
        <time>2015-11-05T12:00:25.237Z</time>
      </trkpt>
      <trkpt lat="46.2553" lon="4.63136">
        <ele>665.551757812</ele>
        <time>2015-11-05T12:00:26.23Z</time>
      </trkpt>
      <trkpt lat="46.2553" lon="4.63149">
        <ele>665.185546875</ele>
        <time>2015-11-05T12:00:32.239Z</time>
      </trkpt>
      <trkpt lat="46.2553" lon="4.63151">
        <ele>665.131286621</ele>
        <time>2015-11-05T12:00:33.229Z</time>
      </trkpt>
      <trkpt lat="46.25531" lon="4.63163">
        <ele>664.841186523</ele>
        <time>2015-11-05T12:00:39.254Z</time>
      </trkpt>
      <trkpt lat="46.25531" lon="4.63165">
        <ele>664.800109863</ele>
        <time>2015-11-05T12:00:40.228Z</time>
      </trkpt>
      <trkpt lat="46.25532" lon="4.63176">
        <ele>664.491333008</ele>
        <time>2015-11-05T12:00:45.27Z</time>
      </trkpt>
      <trkpt lat="46.25532" lon="4.63178">
        <ele>664.437927246</ele>
        <time>2015-11-05T12:00:46.229Z</time>
      </trkpt>
      <trkpt lat="46.25533" lon="4.63191">
        <ele>664.110595703</ele>
        <time>2015-11-05T12:00:52.242Z</time>
      </trkpt>
      <trkpt lat="46.25533" lon="4.63192">
        <ele>664.074035645</ele>
        <time>2015-11-05T12:00:53.229Z</time>
      </trkpt>
      <trkpt lat="46.25533" lon="4.63204">
        <ele>663.890258789</ele>
        <time>2015-11-05T12:00:58.237Z</time>
      </trkpt>
      <trkpt lat="46.25533" lon="4.63206">
        <ele>663.849975586</ele>
        <time>2015-11-05T12:00:59.227Z</time>
      </trkpt>
      <trkpt lat="46.25533" lon="4.63217">
        <ele>663.611450195</ele>
        <time>2015-11-05T12:01:05.264Z</time>
      </trkpt>
      <trkpt lat="46.25533" lon="4.63219">
        <ele>663.573913574</ele>
        <time>2015-11-05T12:01:06.225Z</time>
      </trkpt>
      <trkpt lat="46.25534" lon="4.6323">
        <ele>663.456665039</ele>
        <time>2015-11-05T12:01:11.239Z</time>
      </trkpt>
      <trkpt lat="46.25534" lon="4.63232">
        <ele>663.435546875</ele>
        <time>2015-11-05T12:01:12.23Z</time>
      </trkpt>
      <trkpt lat="46.25536" lon="4.63245">
        <ele>663.287231445</ele>
        <time>2015-11-05T12:01:18.241Z</time>
      </trkpt>
      <trkpt lat="46.25536" lon="4.63247">
        <ele>663.260925293</ele>
        <time>2015-11-05T12:01:19.229Z</time>
      </trkpt>
      <trkpt lat="46.25536" lon="4.6326">
        <ele>663.102844238</ele>
        <time>2015-11-05T12:01:25.31Z</time>
      </trkpt>
      <trkpt lat="46.25536" lon="4.63262">
        <ele>663.072021484</ele>
        <time>2015-11-05T12:01:26.229Z</time>
      </trkpt>
      <trkpt lat="46.25537" lon="4.63273">
        <ele>662.904846191</ele>
        <time>2015-11-05T12:01:31.241Z</time>
      </trkpt>
      <trkpt lat="46.25537" lon="4.63275">
        <ele>662.866821289</ele>
        <time>2015-11-05T12:01:32.233Z</time>
      </trkpt>
      <trkpt lat="46.25538" lon="4.63287">
        <ele>662.684265137</ele>
        <time>2015-11-05T12:01:38.24Z</time>
      </trkpt>
      <trkpt lat="46.25539" lon="4.6329">
        <ele>662.67401123</ele>
        <time>2015-11-05T12:01:39.232Z</time>
      </trkpt>
      <trkpt lat="46.2554" lon="4.63301">
        <ele>662.63067627</ele>
        <time>2015-11-05T12:01:44.256Z</time>
      </trkpt>
      <trkpt lat="46.2554" lon="4.63303">
        <ele>662.617797852</ele>
        <time>2015-11-05T12:01:45.229Z</time>
      </trkpt>
      <trkpt lat="46.2554" lon="4.63314">
        <ele>662.441955566</ele>
        <time>2015-11-05T12:01:50.245Z</time>
      </trkpt>
      <trkpt lat="46.2554" lon="4.63316">
        <ele>662.391418457</ele>
        <time>2015-11-05T12:01:51.23Z</time>
      </trkpt>
      <trkpt lat="46.2554" lon="4.63329">
        <ele>662.06451416</ele>
        <time>2015-11-05T12:01:57.238Z</time>
      </trkpt>
      <trkpt lat="46.2554" lon="4.63331">
        <ele>662.004943848</ele>
        <time>2015-11-05T12:01:58.23Z</time>
      </trkpt>
      <trkpt lat="46.25539" lon="4.63343">
        <ele>661.774902344</ele>
        <time>2015-11-05T12:02:04.239Z</time>
      </trkpt>
      <trkpt lat="46.25539" lon="4.63345">
        <ele>661.721252441</ele>
        <time>2015-11-05T12:02:05.232Z</time>
      </trkpt>
      <trkpt lat="46.25537" lon="4.63357">
        <ele>661.336364746</ele>
        <time>2015-11-05T12:02:11.272Z</time>
      </trkpt>
      <trkpt lat="46.25536" lon="4.63359">
        <ele>661.274719238</ele>
        <time>2015-11-05T12:02:12.227Z</time>
      </trkpt>
      <trkpt lat="46.25535" lon="4.6337">
        <ele>661.002319336</ele>
        <time>2015-11-05T12:02:17.245Z</time>
      </trkpt>
      <trkpt lat="46.25534" lon="4.63372">
        <ele>660.983093262</ele>
        <time>2015-11-05T12:02:18.214Z</time>
      </trkpt>
      <trkpt lat="46.25531" lon="4.63384">
        <ele>660.816955566</ele>
        <time>2015-11-05T12:02:24.239Z</time>
      </trkpt>
      <trkpt lat="46.25531" lon="4.63385">
        <ele>660.786499023</ele>
        <time>2015-11-05T12:02:25.229Z</time>
      </trkpt>
      <trkpt lat="46.25528" lon="4.63397">
        <ele>660.687683105</ele>
        <time>2015-11-05T12:02:31.263Z</time>
      </trkpt>
      <trkpt lat="46.25527" lon="4.63399">
        <ele>660.664794922</ele>
        <time>2015-11-05T12:02:32.23Z</time>
      </trkpt>
      <trkpt lat="46.25524" lon="4.6341">
        <ele>660.548278809</ele>
        <time>2015-11-05T12:02:38.254Z</time>
      </trkpt>
      <trkpt lat="46.25523" lon="4.63412">
        <ele>660.525817871</ele>
        <time>2015-11-05T12:02:39.234Z</time>
      </trkpt>
      <trkpt lat="46.2552" lon="4.63423">
        <ele>660.370788574</ele>
        <time>2015-11-05T12:02:44.266Z</time>
      </trkpt>
      <trkpt lat="46.25519" lon="4.63425">
        <ele>660.373046875</ele>
        <time>2015-11-05T12:02:45.23Z</time>
      </trkpt>
      <trkpt lat="46.25515" lon="4.63435">
        <ele>660.344055176</ele>
        <time>2015-11-05T12:02:51.257Z</time>
      </trkpt>
      <trkpt lat="46.25514" lon="4.63437">
        <ele>660.325073242</ele>
        <time>2015-11-05T12:02:52.23Z</time>
      </trkpt>
      <trkpt lat="46.2551" lon="4.63447">
        <ele>660.251647949</ele>
        <time>2015-11-05T12:02:58.254Z</time>
      </trkpt>
      <trkpt lat="46.2551" lon="4.63449">
        <ele>660.200744629</ele>
        <time>2015-11-05T12:02:59.231Z</time>
      </trkpt>
      <trkpt lat="46.25506" lon="4.63459">
        <ele>660.089660645</ele>
        <time>2015-11-05T12:03:04.242Z</time>
      </trkpt>
      <trkpt lat="46.25505" lon="4.6346">
        <ele>660.062927246</ele>
        <time>2015-11-05T12:03:05.241Z</time>
      </trkpt>
      <trkpt lat="46.255" lon="4.63471">
        <ele>659.887145996</ele>
        <time>2015-11-05T12:03:11.241Z</time>
      </trkpt>
      <trkpt lat="46.255" lon="4.63473">
        <ele>659.86706543</ele>
        <time>2015-11-05T12:03:12.233Z</time>
      </trkpt>
      <trkpt lat="46.25495" lon="4.63483">
        <ele>659.721252441</ele>
        <time>2015-11-05T12:03:18.245Z</time>
      </trkpt>
      <trkpt lat="46.25494" lon="4.63485">
        <ele>659.689575195</ele>
        <time>2015-11-05T12:03:19.233Z</time>
      </trkpt>
      <trkpt lat="46.25489" lon="4.63496">
        <ele>659.52923584</ele>
        <time>2015-11-05T12:03:25.242Z</time>
      </trkpt>
      <trkpt lat="46.25488" lon="4.63498">
        <ele>659.50994873</ele>
        <time>2015-11-05T12:03:26.241Z</time>
      </trkpt>
      <trkpt lat="46.25484" lon="4.63509">
        <ele>659.458984375</ele>
        <time>2015-11-05T12:03:32.245Z</time>
      </trkpt>
      <trkpt lat="46.25484" lon="4.63511">
        <ele>659.445739746</ele>
        <time>2015-11-05T12:03:33.231Z</time>
      </trkpt>
      <trkpt lat="46.25479" lon="4.63522">
        <ele>659.379394531</ele>
        <time>2015-11-05T12:03:39.309Z</time>
      </trkpt>
      <trkpt lat="46.25479" lon="4.63523">
        <ele>659.353820801</ele>
        <time>2015-11-05T12:03:40.235Z</time>
      </trkpt>
      <trkpt lat="46.25474" lon="4.63534">
        <ele>659.268249512</ele>
        <time>2015-11-05T12:03:46.277Z</time>
      </trkpt>
      <trkpt lat="46.25473" lon="4.63536">
        <ele>659.26965332</ele>
        <time>2015-11-05T12:03:47.234Z</time>
      </trkpt>
      <trkpt lat="46.2547" lon="4.63547">
        <ele>659.489257812</ele>
        <time>2015-11-05T12:03:52.246Z</time>
      </trkpt>
      <trkpt lat="46.25469" lon="4.63549">
        <ele>659.555297852</ele>
        <time>2015-11-05T12:03:53.233Z</time>
      </trkpt>
      <trkpt lat="46.25465" lon="4.6356">
        <ele>659.761779785</ele>
        <time>2015-11-05T12:04:00.249Z</time>
      </trkpt>
      <trkpt lat="46.25464" lon="4.63561">
        <ele>659.790710449</ele>
        <time>2015-11-05T12:04:01.234Z</time>
      </trkpt>
      <trkpt lat="46.2546" lon="4.63571">
        <ele>659.912536621</ele>
        <time>2015-11-05T12:04:07.288Z</time>
      </trkpt>
      <trkpt lat="46.25459" lon="4.63573">
        <ele>659.933410645</ele>
        <time>2015-11-05T12:04:08.236Z</time>
      </trkpt>
      <trkpt lat="46.25454" lon="4.63583">
        <ele>660.003723145</ele>
        <time>2015-11-05T12:04:14.268Z</time>
      </trkpt>
      <trkpt lat="46.25454" lon="4.63585">
        <ele>660.010986328</ele>
        <time>2015-11-05T12:04:15.235Z</time>
      </trkpt>
      <trkpt lat="46.2545" lon="4.63597">
        <ele>659.978515625</ele>
        <time>2015-11-05T12:04:21.243Z</time>
      </trkpt>
      <trkpt lat="46.25449" lon="4.63598">
        <ele>659.965576172</ele>
        <time>2015-11-05T12:04:22.235Z</time>
      </trkpt>
      <trkpt lat="46.25445" lon="4.63609">
        <ele>659.919494629</ele>
        <time>2015-11-05T12:04:28.247Z</time>
      </trkpt>
      <trkpt lat="46.25444" lon="4.63611">
        <ele>659.914489746</ele>
        <time>2015-11-05T12:04:29.229Z</time>
      </trkpt>
      <trkpt lat="46.25441" lon="4.63622">
        <ele>659.850463867</ele>
        <time>2015-11-05T12:04:35.248Z</time>
      </trkpt>
      <trkpt lat="46.2544" lon="4.63624">
        <ele>659.85546875</ele>
        <time>2015-11-05T12:04:36.229Z</time>
      </trkpt>
      <trkpt lat="46.25436" lon="4.63635">
        <ele>660.083374023</ele>
        <time>2015-11-05T12:04:43.271Z</time>
      </trkpt>
      <trkpt lat="46.25435" lon="4.63637">
        <ele>660.140563965</ele>
        <time>2015-11-05T12:04:44.226Z</time>
      </trkpt>
      <trkpt lat="46.25432" lon="4.63648">
        <ele>660.698364258</ele>
        <time>2015-11-05T12:04:50.312Z</time>
      </trkpt>
      <trkpt lat="46.25432" lon="4.6365">
        <ele>660.791931152</ele>
        <time>2015-11-05T12:04:51.231Z</time>
      </trkpt>
      <trkpt lat="46.25428" lon="4.6366">
        <ele>661.447387695</ele>
        <time>2015-11-05T12:04:56.241Z</time>
      </trkpt>
      <trkpt lat="46.25427" lon="4.63662">
        <ele>661.553894043</ele>
        <time>2015-11-05T12:04:57.233Z</time>
      </trkpt>
      <trkpt lat="46.25425" lon="4.63674">
        <ele>662.288452148</ele>
        <time>2015-11-05T12:05:02.253Z</time>
      </trkpt>
      <trkpt lat="46.25425" lon="4.63676">
        <ele>662.450378418</ele>
        <time>2015-11-05T12:05:03.229Z</time>
      </trkpt>
      <trkpt lat="46.25423" lon="4.63689">
        <ele>663.06463623</ele>
        <time>2015-11-05T12:05:09.242Z</time>
      </trkpt>
      <trkpt lat="46.25422" lon="4.63691">
        <ele>663.134643555</ele>
        <time>2015-11-05T12:05:10.247Z</time>
      </trkpt>
      <trkpt lat="46.25422" lon="4.63703">
        <ele>663.37487793</ele>
        <time>2015-11-05T12:05:16.241Z</time>
      </trkpt>
      <trkpt lat="46.25422" lon="4.63706">
        <ele>663.368408203</ele>
        <time>2015-11-05T12:05:17.234Z</time>
      </trkpt>
      <trkpt lat="46.25424" lon="4.63716">
        <ele>663.72644043</ele>
        <time>2015-11-05T12:05:22.243Z</time>
      </trkpt>
      <trkpt lat="46.25425" lon="4.63719">
        <ele>663.843017578</ele>
        <time>2015-11-05T12:05:23.229Z</time>
      </trkpt>
      <trkpt lat="46.25428" lon="4.63729">
        <ele>663.975891113</ele>
        <time>2015-11-05T12:05:28.271Z</time>
      </trkpt>
      <trkpt lat="46.25428" lon="4.63731">
        <ele>663.941711426</ele>
        <time>2015-11-05T12:05:29.229Z</time>
      </trkpt>
      <trkpt lat="46.2543" lon="4.63743">
        <ele>663.780212402</ele>
        <time>2015-11-05T12:05:35.247Z</time>
      </trkpt>
      <trkpt lat="46.25431" lon="4.63746">
        <ele>663.770080566</ele>
        <time>2015-11-05T12:05:36.229Z</time>
      </trkpt>
      <trkpt lat="46.25433" lon="4.63757">
        <ele>663.533996582</ele>
        <time>2015-11-05T12:05:42.365Z</time>
      </trkpt>
      <trkpt lat="46.25434" lon="4.63759">
        <ele>663.48449707</ele>
        <time>2015-11-05T12:05:43.236Z</time>
      </trkpt>
      <trkpt lat="46.25438" lon="4.63771">
        <ele>663.408996582</ele>
        <time>2015-11-05T12:05:50.24Z</time>
      </trkpt>
      <trkpt lat="46.25439" lon="4.63773">
        <ele>663.493225098</ele>
        <time>2015-11-05T12:05:51.229Z</time>
      </trkpt>
      <trkpt lat="46.25442" lon="4.63784">
        <ele>664.052246094</ele>
        <time>2015-11-05T12:05:57.253Z</time>
      </trkpt>
      <trkpt lat="46.25442" lon="4.63786">
        <ele>664.125366211</ele>
        <time>2015-11-05T12:05:58.229Z</time>
      </trkpt>
      <trkpt lat="46.25445" lon="4.63797">
        <ele>664.616699219</ele>
        <time>2015-11-05T12:06:04.242Z</time>
      </trkpt>
      <trkpt lat="46.25445" lon="4.63798">
        <ele>664.717407227</ele>
        <time>2015-11-05T12:06:05.23Z</time>
      </trkpt>
      <trkpt lat="46.25447" lon="4.6381">
        <ele>665.50189209</ele>
        <time>2015-11-05T12:06:11.239Z</time>
      </trkpt>
      <trkpt lat="46.25447" lon="4.63812">
        <ele>665.680236816</ele>
        <time>2015-11-05T12:06:12.222Z</time>
      </trkpt>
      <trkpt lat="46.25449" lon="4.63824">
        <ele>666.099487305</ele>
        <time>2015-11-05T12:06:17.24Z</time>
      </trkpt>
      <trkpt lat="46.2545" lon="4.63825">
        <ele>666.13861084</ele>
        <time>2015-11-05T12:06:18.229Z</time>
      </trkpt>
      <trkpt lat="46.25453" lon="4.63835">
        <ele>666.430603027</ele>
        <time>2015-11-05T12:06:24.257Z</time>
      </trkpt>
      <trkpt lat="46.25454" lon="4.63837">
        <ele>666.442687988</ele>
        <time>2015-11-05T12:06:25.23Z</time>
      </trkpt>
      <trkpt lat="46.25457" lon="4.63849">
        <ele>666.768249512</ele>
        <time>2015-11-05T12:06:31.242Z</time>
      </trkpt>
      <trkpt lat="46.25457" lon="4.63852">
        <ele>666.81036377</ele>
        <time>2015-11-05T12:06:32.273Z</time>
      </trkpt>
      <trkpt lat="46.2546" lon="4.63863">
        <ele>666.980957031</ele>
        <time>2015-11-05T12:06:38.25Z</time>
      </trkpt>
      <trkpt lat="46.2546" lon="4.63864">
        <ele>667.014709473</ele>
        <time>2015-11-05T12:06:39.229Z</time>
      </trkpt>
      <trkpt lat="46.25463" lon="4.63875">
        <ele>667.06048584</ele>
        <time>2015-11-05T12:06:44.239Z</time>
      </trkpt>
      <trkpt lat="46.25464" lon="4.63877">
        <ele>667.045898438</ele>
        <time>2015-11-05T12:06:45.237Z</time>
      </trkpt>
      <trkpt lat="46.25466" lon="4.63888">
        <ele>667.091674805</ele>
        <time>2015-11-05T12:06:50.242Z</time>
      </trkpt>
      <trkpt lat="46.25466" lon="4.6389">
        <ele>667.154541016</ele>
        <time>2015-11-05T12:06:51.23Z</time>
      </trkpt>
      <trkpt lat="46.25469" lon="4.63902">
        <ele>667.558410645</ele>
        <time>2015-11-05T12:06:57.247Z</time>
      </trkpt>
      <trkpt lat="46.25469" lon="4.63904">
        <ele>667.574829102</ele>
        <time>2015-11-05T12:06:58.229Z</time>
      </trkpt>
      <trkpt lat="46.25472" lon="4.63915">
        <ele>667.647521973</ele>
        <time>2015-11-05T12:07:04.248Z</time>
      </trkpt>
      <trkpt lat="46.25473" lon="4.63917">
        <ele>667.641662598</ele>
        <time>2015-11-05T12:07:05.229Z</time>
      </trkpt>
      <trkpt lat="46.25476" lon="4.63928">
        <ele>667.797363281</ele>
        <time>2015-11-05T12:07:11.248Z</time>
      </trkpt>
      <trkpt lat="46.25476" lon="4.6393">
        <ele>667.826171875</ele>
        <time>2015-11-05T12:07:12.229Z</time>
      </trkpt>
      <trkpt lat="46.25479" lon="4.63942">
        <ele>667.76348877</ele>
        <time>2015-11-05T12:07:18.243Z</time>
      </trkpt>
      <trkpt lat="46.25479" lon="4.63944">
        <ele>667.772888184</ele>
        <time>2015-11-05T12:07:19.243Z</time>
      </trkpt>
      <trkpt lat="46.25482" lon="4.63955">
        <ele>668.143737793</ele>
        <time>2015-11-05T12:07:25.257Z</time>
      </trkpt>
      <trkpt lat="46.25482" lon="4.63957">
        <ele>668.199462891</ele>
        <time>2015-11-05T12:07:26.229Z</time>
      </trkpt>
      <trkpt lat="46.25484" lon="4.63967">
        <ele>668.511291504</ele>
        <time>2015-11-05T12:07:31.243Z</time>
      </trkpt>
      <trkpt lat="46.25485" lon="4.6397">
        <ele>668.557861328</ele>
        <time>2015-11-05T12:07:32.231Z</time>
      </trkpt>
      <trkpt lat="46.25488" lon="4.63981">
        <ele>668.761657715</ele>
        <time>2015-11-05T12:07:38.265Z</time>
      </trkpt>
      <trkpt lat="46.25488" lon="4.63983">
        <ele>668.846313477</ele>
        <time>2015-11-05T12:07:39.259Z</time>
      </trkpt>
      <trkpt lat="46.25491" lon="4.63995">
        <ele>669.286010742</ele>
        <time>2015-11-05T12:07:45.24Z</time>
      </trkpt>
      <trkpt lat="46.25492" lon="4.63996">
        <ele>669.344970703</ele>
        <time>2015-11-05T12:07:46.249Z</time>
      </trkpt>
      <trkpt lat="46.25494" lon="4.64007">
        <ele>669.227355957</ele>
        <time>2015-11-05T12:07:52.249Z</time>
      </trkpt>
      <trkpt lat="46.25495" lon="4.64009">
        <ele>669.196533203</ele>
        <time>2015-11-05T12:07:53.23Z</time>
      </trkpt>
      <trkpt lat="46.25498" lon="4.64021">
        <ele>669.114074707</ele>
        <time>2015-11-05T12:07:59.259Z</time>
      </trkpt>
      <trkpt lat="46.25498" lon="4.64023">
        <ele>669.102966309</ele>
        <time>2015-11-05T12:08:00.231Z</time>
      </trkpt>
      <trkpt lat="46.255" lon="4.64036">
        <ele>668.970214844</ele>
        <time>2015-11-05T12:08:06.246Z</time>
      </trkpt>
      <trkpt lat="46.25501" lon="4.64039">
        <ele>668.984924316</ele>
        <time>2015-11-05T12:08:07.231Z</time>
      </trkpt>
      <trkpt lat="46.25503" lon="4.64051">
        <ele>668.683044434</ele>
        <time>2015-11-05T12:08:13.244Z</time>
      </trkpt>
      <trkpt lat="46.25503" lon="4.64053">
        <ele>668.618103027</ele>
        <time>2015-11-05T12:08:14.242Z</time>
      </trkpt>
      <trkpt lat="46.25505" lon="4.64065">
        <ele>668.319519043</ele>
        <time>2015-11-05T12:08:21.261Z</time>
      </trkpt>
      <trkpt lat="46.25506" lon="4.64067">
        <ele>668.248352051</ele>
        <time>2015-11-05T12:08:22.233Z</time>
      </trkpt>
      <trkpt lat="46.25506" lon="4.6408">
        <ele>668.078735352</ele>
        <time>2015-11-05T12:08:29.252Z</time>
      </trkpt>
      <trkpt lat="46.25506" lon="4.64083">
        <ele>668.016601562</ele>
        <time>2015-11-05T12:08:30.231Z</time>
      </trkpt>
      <trkpt lat="46.25505" lon="4.64095">
        <ele>667.623474121</ele>
        <time>2015-11-05T12:08:35.276Z</time>
      </trkpt>
      <trkpt lat="46.25505" lon="4.64097">
        <ele>667.53918457</ele>
        <time>2015-11-05T12:08:36.232Z</time>
      </trkpt>
      <trkpt lat="46.25504" lon="4.64109">
        <ele>667.174316406</ele>
        <time>2015-11-05T12:08:41.242Z</time>
      </trkpt>
      <trkpt lat="46.25504" lon="4.64111">
        <ele>667.125427246</ele>
        <time>2015-11-05T12:08:42.235Z</time>
      </trkpt>
      <trkpt lat="46.25504" lon="4.64123">
        <ele>666.894470215</ele>
        <time>2015-11-05T12:08:48.248Z</time>
      </trkpt>
      <trkpt lat="46.25503" lon="4.64125">
        <ele>666.850769043</ele>
        <time>2015-11-05T12:08:49.234Z</time>
      </trkpt>
      <trkpt lat="46.25502" lon="4.64137">
        <ele>666.610656738</ele>
        <time>2015-11-05T12:08:55.279Z</time>
      </trkpt>
      <trkpt lat="46.25502" lon="4.64138">
        <ele>666.538146973</ele>
        <time>2015-11-05T12:08:56.232Z</time>
      </trkpt>
      <trkpt lat="46.25502" lon="4.6415">
        <ele>666.090270996</ele>
        <time>2015-11-05T12:09:02.244Z</time>
      </trkpt>
      <trkpt lat="46.25501" lon="4.64152">
        <ele>666.049255371</ele>
        <time>2015-11-05T12:09:03.245Z</time>
      </trkpt>
      <trkpt lat="46.25501" lon="4.64164">
        <ele>665.774902344</ele>
        <time>2015-11-05T12:09:08.25Z</time>
      </trkpt>
      <trkpt lat="46.25501" lon="4.64167">
        <ele>665.717712402</ele>
        <time>2015-11-05T12:09:09.233Z</time>
      </trkpt>
      <trkpt lat="46.25498" lon="4.64178">
        <ele>665.364807129</ele>
        <time>2015-11-05T12:09:15.259Z</time>
      </trkpt>
      <trkpt lat="46.25497" lon="4.64179">
        <ele>665.308044434</ele>
        <time>2015-11-05T12:09:16.234Z</time>
      </trkpt>
      <trkpt lat="46.25496" lon="4.64189">
        <ele>664.994873047</ele>
        <time>2015-11-05T12:09:21.246Z</time>
      </trkpt>
      <trkpt lat="46.25496" lon="4.64192">
        <ele>664.956176758</ele>
        <time>2015-11-05T12:09:22.235Z</time>
      </trkpt>
      <trkpt lat="46.25494" lon="4.64203">
        <ele>664.700439453</ele>
        <time>2015-11-05T12:09:28.244Z</time>
      </trkpt>
      <trkpt lat="46.25493" lon="4.64205">
        <ele>664.678771973</ele>
        <time>2015-11-05T12:09:29.235Z</time>
      </trkpt>
      <trkpt lat="46.25492" lon="4.64216">
        <ele>664.499938965</ele>
        <time>2015-11-05T12:09:34.248Z</time>
      </trkpt>
      <trkpt lat="46.25492" lon="4.64218">
        <ele>664.470336914</ele>
        <time>2015-11-05T12:09:35.239Z</time>
      </trkpt>
      <trkpt lat="46.2549" lon="4.64229">
        <ele>664.245056152</ele>
        <time>2015-11-05T12:09:40.241Z</time>
      </trkpt>
      <trkpt lat="46.2549" lon="4.64232">
        <ele>664.195007324</ele>
        <time>2015-11-05T12:09:41.239Z</time>
      </trkpt>
      <trkpt lat="46.25489" lon="4.64243">
        <ele>663.99597168</ele>
        <time>2015-11-05T12:09:46.24Z</time>
      </trkpt>
      <trkpt lat="46.25489" lon="4.64245">
        <ele>663.971923828</ele>
        <time>2015-11-05T12:09:47.228Z</time>
      </trkpt>
      <trkpt lat="46.25487" lon="4.64257">
        <ele>663.706787109</ele>
        <time>2015-11-05T12:10:02.252Z</time>
      </trkpt>
      <trkpt lat="46.25486" lon="4.64258">
        <ele>663.720092773</ele>
        <time>2015-11-05T12:10:03.229Z</time>
      </trkpt>
      <trkpt lat="46.25485" lon="4.64271">
        <ele>663.254577637</ele>
        <time>2015-11-05T12:11:00.241Z</time>
      </trkpt>
      <trkpt lat="46.25484" lon="4.64272">
        <ele>663.198730469</ele>
        <time>2015-11-05T12:11:01.204Z</time>
      </trkpt>
      <trkpt lat="46.25481" lon="4.64284">
        <ele>662.726867676</ele>
        <time>2015-11-05T12:11:09.237Z</time>
      </trkpt>
      <trkpt lat="46.25481" lon="4.64286">
        <ele>662.681762695</ele>
        <time>2015-11-05T12:11:10.221Z</time>
      </trkpt>
      <trkpt lat="46.25479" lon="4.64297">
        <ele>662.283996582</ele>
        <time>2015-11-05T12:11:17.249Z</time>
      </trkpt>
      <trkpt lat="46.25479" lon="4.64298">
        <ele>662.236022949</ele>
        <time>2015-11-05T12:11:18.228Z</time>
      </trkpt>
      <trkpt lat="46.25477" lon="4.6431">
        <ele>662.073242188</ele>
        <time>2015-11-05T12:11:24.238Z</time>
      </trkpt>
      <trkpt lat="46.25476" lon="4.64311">
        <ele>662.028930664</ele>
        <time>2015-11-05T12:11:25.228Z</time>
      </trkpt>
      <trkpt lat="46.25476" lon="4.64323">
        <ele>661.599914551</ele>
        <time>2015-11-05T12:11:33.236Z</time>
      </trkpt>
      <trkpt lat="46.25476" lon="4.64325">
        <ele>661.548095703</ele>
        <time>2015-11-05T12:11:34.228Z</time>
      </trkpt>
      <trkpt lat="46.25479" lon="4.64337">
        <ele>660.784912109</ele>
        <time>2015-11-05T12:11:56.253Z</time>
      </trkpt>
      <trkpt lat="46.25479" lon="4.64337">
        <ele>660.784057617</ele>
        <time>2015-11-05T12:11:57.244Z</time>
      </trkpt>
      <trkpt lat="46.25488" lon="4.64337">
        <ele>667.585449219</ele>
        <time>2015-11-05T12:32:29.251Z</time>
      </trkpt>
      <trkpt lat="46.25489" lon="4.64337">
        <ele>667.540588379</ele>
        <time>2015-11-05T12:32:30.24Z</time>
      </trkpt>
      <trkpt lat="46.2548" lon="4.64336">
        <ele>665.942871094</ele>
        <time>2015-11-05T12:33:31.245Z</time>
      </trkpt>
      <trkpt lat="46.25479" lon="4.64336">
        <ele>665.945251465</ele>
        <time>2015-11-05T12:33:32.229Z</time>
      </trkpt>
      <trkpt lat="46.25471" lon="4.64339">
        <ele>657.886047363</ele>
        <time>2015-11-05T12:45:03.217Z</time>
      </trkpt>
      <trkpt lat="46.2547" lon="4.64339">
        <ele>657.858459473</ele>
        <time>2015-11-05T12:45:04.238Z</time>
      </trkpt>
      <trkpt lat="46.25467" lon="4.6435">
        <ele>657.742004395</ele>
        <time>2015-11-05T12:45:17.23Z</time>
      </trkpt>
      <trkpt lat="46.25468" lon="4.64351">
        <ele>657.71081543</ele>
        <time>2015-11-05T12:45:18.223Z</time>
      </trkpt>
      <trkpt lat="46.25466" lon="4.64364">
        <ele>657.746459961</ele>
        <time>2015-11-05T12:45:27.247Z</time>
      </trkpt>
      <trkpt lat="46.25466" lon="4.64365">
        <ele>657.744873047</ele>
        <time>2015-11-05T12:45:28.278Z</time>
      </trkpt>
      <trkpt lat="46.25465" lon="4.64376">
        <ele>657.631286621</ele>
        <time>2015-11-05T12:45:35.246Z</time>
      </trkpt>
      <trkpt lat="46.25464" lon="4.64378">
        <ele>657.634643555</ele>
        <time>2015-11-05T12:45:36.223Z</time>
      </trkpt>
      <trkpt lat="46.25462" lon="4.6439">
        <ele>657.355163574</ele>
        <time>2015-11-05T12:45:45.244Z</time>
      </trkpt>
      <trkpt lat="46.25462" lon="4.64391">
        <ele>657.300109863</ele>
        <time>2015-11-05T12:45:46.248Z</time>
      </trkpt>
      <trkpt lat="46.25461" lon="4.64404">
        <ele>656.891418457</ele>
        <time>2015-11-05T12:45:58.241Z</time>
      </trkpt>
      <trkpt lat="46.25461" lon="4.64405">
        <ele>656.848815918</ele>
        <time>2015-11-05T12:45:59.234Z</time>
      </trkpt>
      <trkpt lat="46.25459" lon="4.64417">
        <ele>656.540588379</ele>
        <time>2015-11-05T12:46:07.241Z</time>
      </trkpt>
      <trkpt lat="46.25459" lon="4.64419">
        <ele>656.487426758</ele>
        <time>2015-11-05T12:46:08.23Z</time>
      </trkpt>
      <trkpt lat="46.25457" lon="4.6443">
        <ele>656.194335938</ele>
        <time>2015-11-05T12:46:15.265Z</time>
      </trkpt>
      <trkpt lat="46.25457" lon="4.64432">
        <ele>656.142822266</ele>
        <time>2015-11-05T12:46:16.231Z</time>
      </trkpt>
      <trkpt lat="46.25455" lon="4.64444">
        <ele>655.82208252</ele>
        <time>2015-11-05T12:46:23.234Z</time>
      </trkpt>
      <trkpt lat="46.25455" lon="4.64445">
        <ele>655.788574219</ele>
        <time>2015-11-05T12:46:24.231Z</time>
      </trkpt>
      <trkpt lat="46.25453" lon="4.64458">
        <ele>655.543823242</ele>
        <time>2015-11-05T12:46:32.244Z</time>
      </trkpt>
      <trkpt lat="46.25453" lon="4.64459">
        <ele>655.490234375</ele>
        <time>2015-11-05T12:46:33.227Z</time>
      </trkpt>
      <trkpt lat="46.25452" lon="4.6447">
        <ele>655.348022461</ele>
        <time>2015-11-05T12:46:40.236Z</time>
      </trkpt>
      <trkpt lat="46.25452" lon="4.64472">
        <ele>655.320129395</ele>
        <time>2015-11-05T12:46:41.227Z</time>
      </trkpt>
      <trkpt lat="46.2545" lon="4.64485">
        <ele>654.862792969</ele>
        <time>2015-11-05T12:46:48.238Z</time>
      </trkpt>
      <trkpt lat="46.25449" lon="4.64486">
        <ele>654.817443848</ele>
        <time>2015-11-05T12:46:49.227Z</time>
      </trkpt>
      <trkpt lat="46.25447" lon="4.64498">
        <ele>654.706481934</ele>
        <time>2015-11-05T12:46:57.236Z</time>
      </trkpt>
      <trkpt lat="46.25447" lon="4.64501">
        <ele>654.682678223</ele>
        <time>2015-11-05T12:46:58.22Z</time>
      </trkpt>
      <trkpt lat="46.25444" lon="4.64512">
        <ele>654.421813965</ele>
        <time>2015-11-05T12:47:06.237Z</time>
      </trkpt>
      <trkpt lat="46.25443" lon="4.64514">
        <ele>654.40637207</ele>
        <time>2015-11-05T12:47:07.229Z</time>
      </trkpt>
      <trkpt lat="46.25441" lon="4.64526">
        <ele>654.55456543</ele>
        <time>2015-11-05T12:47:19.239Z</time>
      </trkpt>
      <trkpt lat="46.25441" lon="4.64528">
        <ele>654.569763184</ele>
        <time>2015-11-05T12:47:20.231Z</time>
      </trkpt>
      <trkpt lat="46.25439" lon="4.6454">
        <ele>654.618164062</ele>
        <time>2015-11-05T12:47:28.238Z</time>
      </trkpt>
      <trkpt lat="46.25439" lon="4.64542">
        <ele>654.643554688</ele>
        <time>2015-11-05T12:47:29.242Z</time>
      </trkpt>
      <trkpt lat="46.25438" lon="4.64554">
        <ele>654.905273438</ele>
        <time>2015-11-05T12:47:36.249Z</time>
      </trkpt>
      <trkpt lat="46.25438" lon="4.64556">
        <ele>654.942565918</ele>
        <time>2015-11-05T12:47:37.227Z</time>
      </trkpt>
      <trkpt lat="46.25437" lon="4.64567">
        <ele>655.051452637</ele>
        <time>2015-11-05T12:47:42.235Z</time>
      </trkpt>
      <trkpt lat="46.25437" lon="4.64569">
        <ele>655.06854248</ele>
        <time>2015-11-05T12:47:43.227Z</time>
      </trkpt>
      <trkpt lat="46.25436" lon="4.64582">
        <ele>655.184326172</ele>
        <time>2015-11-05T12:47:49.24Z</time>
      </trkpt>
      <trkpt lat="46.25436" lon="4.64584">
        <ele>655.211791992</ele>
        <time>2015-11-05T12:47:50.225Z</time>
      </trkpt>
      <trkpt lat="46.25437" lon="4.64596">
        <ele>655.193359375</ele>
        <time>2015-11-05T12:47:57.237Z</time>
      </trkpt>
      <trkpt lat="46.25438" lon="4.64598">
        <ele>655.194274902</ele>
        <time>2015-11-05T12:47:58.22Z</time>
      </trkpt>
      <trkpt lat="46.25442" lon="4.64608">
        <ele>655.018188477</ele>
        <time>2015-11-05T12:48:03.246Z</time>
      </trkpt>
      <trkpt lat="46.25443" lon="4.64611">
        <ele>654.961730957</ele>
        <time>2015-11-05T12:48:04.218Z</time>
      </trkpt>
      <trkpt lat="46.25449" lon="4.6462">
        <ele>654.742492676</ele>
        <time>2015-11-05T12:48:11.227Z</time>
      </trkpt>
      <trkpt lat="46.2545" lon="4.6462">
        <ele>654.74432373</ele>
        <time>2015-11-05T12:48:12.228Z</time>
      </trkpt>
      <trkpt lat="46.25457" lon="4.64624">
        <ele>654.566162109</ele>
        <time>2015-11-05T12:48:17.228Z</time>
      </trkpt>
      <trkpt lat="46.25458" lon="4.64625">
        <ele>654.498657227</ele>
        <time>2015-11-05T12:48:18.219Z</time>
      </trkpt>
      <trkpt lat="46.25466" lon="4.64626">
        <ele>654.236450195</ele>
        <time>2015-11-05T12:48:25.247Z</time>
      </trkpt>
      <trkpt lat="46.25468" lon="4.64627">
        <ele>654.189147949</ele>
        <time>2015-11-05T12:48:26.223Z</time>
      </trkpt>
      <trkpt lat="46.25476" lon="4.64627">
        <ele>653.958190918</ele>
        <time>2015-11-05T12:48:31.227Z</time>
      </trkpt>
      <trkpt lat="46.25477" lon="4.64627">
        <ele>653.941101074</ele>
        <time>2015-11-05T12:48:32.225Z</time>
      </trkpt>
      <trkpt lat="46.25485" lon="4.64629">
        <ele>653.791870117</ele>
        <time>2015-11-05T12:48:38.228Z</time>
      </trkpt>
      <trkpt lat="46.25486" lon="4.64629">
        <ele>653.758483887</ele>
        <time>2015-11-05T12:48:39.218Z</time>
      </trkpt>
      <trkpt lat="46.25494" lon="4.6463">
        <ele>653.563598633</ele>
        <time>2015-11-05T12:48:44.231Z</time>
      </trkpt>
      <trkpt lat="46.25495" lon="4.6463">
        <ele>653.531677246</ele>
        <time>2015-11-05T12:48:45.221Z</time>
      </trkpt>
      <trkpt lat="46.25503" lon="4.64633">
        <ele>653.451660156</ele>
        <time>2015-11-05T12:48:52.258Z</time>
      </trkpt>
      <trkpt lat="46.25505" lon="4.64634">
        <ele>653.453979492</ele>
        <time>2015-11-05T12:48:53.215Z</time>
      </trkpt>
      <trkpt lat="46.25513" lon="4.64635">
        <ele>653.225219727</ele>
        <time>2015-11-05T12:48:59.235Z</time>
      </trkpt>
      <trkpt lat="46.25515" lon="4.64635">
        <ele>653.157470703</ele>
        <time>2015-11-05T12:49:00.225Z</time>
      </trkpt>
      <trkpt lat="46.25523" lon="4.64637">
        <ele>653.024597168</ele>
        <time>2015-11-05T12:49:06.23Z</time>
      </trkpt>
      <trkpt lat="46.25524" lon="4.64638">
        <ele>653.029602051</ele>
        <time>2015-11-05T12:49:07.22Z</time>
      </trkpt>
      <trkpt lat="46.25531" lon="4.64646">
        <ele>652.959716797</ele>
        <time>2015-11-05T12:49:12.23Z</time>
      </trkpt>
      <trkpt lat="46.25532" lon="4.64647">
        <ele>652.926818848</ele>
        <time>2015-11-05T12:49:13.221Z</time>
      </trkpt>
      <trkpt lat="46.25537" lon="4.64656">
        <ele>652.800231934</ele>
        <time>2015-11-05T12:49:18.246Z</time>
      </trkpt>
      <trkpt lat="46.25538" lon="4.64658">
        <ele>652.757568359</ele>
        <time>2015-11-05T12:49:19.22Z</time>
      </trkpt>
      <trkpt lat="46.25543" lon="4.64665">
        <ele>652.442443848</ele>
        <time>2015-11-05T12:49:25.232Z</time>
      </trkpt>
      <trkpt lat="46.25544" lon="4.64667">
        <ele>652.405456543</ele>
        <time>2015-11-05T12:49:26.226Z</time>
      </trkpt>
      <trkpt lat="46.25548" lon="4.64677">
        <ele>652.255737305</ele>
        <time>2015-11-05T12:49:33.267Z</time>
      </trkpt>
      <trkpt lat="46.25549" lon="4.64679">
        <ele>652.233886719</ele>
        <time>2015-11-05T12:49:34.216Z</time>
      </trkpt>
      <trkpt lat="46.25554" lon="4.6469">
        <ele>652.277526855</ele>
        <time>2015-11-05T12:49:40.245Z</time>
      </trkpt>
      <trkpt lat="46.25554" lon="4.64692">
        <ele>652.285461426</ele>
        <time>2015-11-05T12:49:41.227Z</time>
      </trkpt>
      <trkpt lat="46.25559" lon="4.64703">
        <ele>652.434326172</ele>
        <time>2015-11-05T12:49:47.36Z</time>
      </trkpt>
      <trkpt lat="46.25559" lon="4.64705">
        <ele>652.465759277</ele>
        <time>2015-11-05T12:49:48.231Z</time>
      </trkpt>
      <trkpt lat="46.25563" lon="4.64715">
        <ele>652.534973145</ele>
        <time>2015-11-05T12:49:54.305Z</time>
      </trkpt>
      <trkpt lat="46.25563" lon="4.64717">
        <ele>652.569335938</ele>
        <time>2015-11-05T12:49:55.23Z</time>
      </trkpt>
      <trkpt lat="46.25566" lon="4.64727">
        <ele>652.618774414</ele>
        <time>2015-11-05T12:50:00.244Z</time>
      </trkpt>
      <trkpt lat="46.25567" lon="4.64729">
        <ele>652.613220215</ele>
        <time>2015-11-05T12:50:01.228Z</time>
      </trkpt>
      <trkpt lat="46.2557" lon="4.64741">
        <ele>652.582824707</ele>
        <time>2015-11-05T12:50:07.251Z</time>
      </trkpt>
      <trkpt lat="46.2557" lon="4.64743">
        <ele>652.582824707</ele>
        <time>2015-11-05T12:50:08.228Z</time>
      </trkpt>
      <trkpt lat="46.25571" lon="4.64755">
        <ele>652.571472168</ele>
        <time>2015-11-05T12:50:15.237Z</time>
      </trkpt>
      <trkpt lat="46.25571" lon="4.64757">
        <ele>652.534423828</ele>
        <time>2015-11-05T12:50:16.228Z</time>
      </trkpt>
      <trkpt lat="46.25572" lon="4.64769">
        <ele>652.338256836</ele>
        <time>2015-11-05T12:50:22.219Z</time>
      </trkpt>
      <trkpt lat="46.25572" lon="4.64771">
        <ele>652.342285156</ele>
        <time>2015-11-05T12:50:23.249Z</time>
      </trkpt>
      <trkpt lat="46.25572" lon="4.64784">
        <ele>652.357910156</ele>
        <time>2015-11-05T12:50:29.254Z</time>
      </trkpt>
      <trkpt lat="46.25572" lon="4.64786">
        <ele>652.368530273</ele>
        <time>2015-11-05T12:50:30.223Z</time>
      </trkpt>
      <trkpt lat="46.25571" lon="4.64799">
        <ele>652.484130859</ele>
        <time>2015-11-05T12:50:36.234Z</time>
      </trkpt>
      <trkpt lat="46.25572" lon="4.64801">
        <ele>652.49420166</ele>
        <time>2015-11-05T12:50:37.223Z</time>
      </trkpt>
      <trkpt lat="46.25572" lon="4.64812">
        <ele>652.506408691</ele>
        <time>2015-11-05T12:50:42.306Z</time>
      </trkpt>
      <trkpt lat="46.25573" lon="4.64814">
        <ele>652.515869141</ele>
        <time>2015-11-05T12:50:43.225Z</time>
      </trkpt>
      <trkpt lat="46.25573" lon="4.64827">
        <ele>652.666870117</ele>
        <time>2015-11-05T12:50:49.237Z</time>
      </trkpt>
      <trkpt lat="46.25573" lon="4.64829">
        <ele>652.711486816</ele>
        <time>2015-11-05T12:50:50.233Z</time>
      </trkpt>
      <trkpt lat="46.25573" lon="4.64841">
        <ele>652.919311523</ele>
        <time>2015-11-05T12:50:56.245Z</time>
      </trkpt>
      <trkpt lat="46.25573" lon="4.64842">
        <ele>652.932128906</ele>
        <time>2015-11-05T12:50:57.23Z</time>
      </trkpt>
      <trkpt lat="46.25573" lon="4.64853">
        <ele>652.966247559</ele>
        <time>2015-11-05T12:51:03.238Z</time>
      </trkpt>
      <trkpt lat="46.25573" lon="4.64855">
        <ele>652.956054688</ele>
        <time>2015-11-05T12:51:04.234Z</time>
      </trkpt>
      <trkpt lat="46.25573" lon="4.64868">
        <ele>652.922485352</ele>
        <time>2015-11-05T12:51:10.275Z</time>
      </trkpt>
      <trkpt lat="46.25573" lon="4.6487">
        <ele>652.921630859</ele>
        <time>2015-11-05T12:51:11.224Z</time>
      </trkpt>
      <trkpt lat="46.25572" lon="4.64881">
        <ele>652.955383301</ele>
        <time>2015-11-05T12:51:16.219Z</time>
      </trkpt>
      <trkpt lat="46.25572" lon="4.64883">
        <ele>652.974121094</ele>
        <time>2015-11-05T12:51:17.228Z</time>
      </trkpt>
      <trkpt lat="46.2557" lon="4.64893">
        <ele>652.975219727</ele>
        <time>2015-11-05T12:51:23.256Z</time>
      </trkpt>
      <trkpt lat="46.2557" lon="4.64895">
        <ele>652.983337402</ele>
        <time>2015-11-05T12:51:24.222Z</time>
      </trkpt>
      <trkpt lat="46.25568" lon="4.64907">
        <ele>653.055786133</ele>
        <time>2015-11-05T12:51:30.253Z</time>
      </trkpt>
      <trkpt lat="46.25567" lon="4.64909">
        <ele>653.060913086</ele>
        <time>2015-11-05T12:51:31.223Z</time>
      </trkpt>
      <trkpt lat="46.25565" lon="4.6492">
        <ele>653.146606445</ele>
        <time>2015-11-05T12:51:37.277Z</time>
      </trkpt>
      <trkpt lat="46.25565" lon="4.64922">
        <ele>653.178466797</ele>
        <time>2015-11-05T12:51:38.227Z</time>
      </trkpt>
      <trkpt lat="46.25562" lon="4.64933">
        <ele>653.297302246</ele>
        <time>2015-11-05T12:51:44.245Z</time>
      </trkpt>
      <trkpt lat="46.25562" lon="4.64935">
        <ele>653.339599609</ele>
        <time>2015-11-05T12:51:45.228Z</time>
      </trkpt>
      <trkpt lat="46.25559" lon="4.64946">
        <ele>653.667602539</ele>
        <time>2015-11-05T12:51:51.231Z</time>
      </trkpt>
      <trkpt lat="46.25558" lon="4.64948">
        <ele>653.698669434</ele>
        <time>2015-11-05T12:51:52.213Z</time>
      </trkpt>
      <trkpt lat="46.25556" lon="4.6496">
        <ele>653.867858887</ele>
        <time>2015-11-05T12:51:58.227Z</time>
      </trkpt>
      <trkpt lat="46.25556" lon="4.64962">
        <ele>653.874145508</ele>
        <time>2015-11-05T12:51:59.217Z</time>
      </trkpt>
      <trkpt lat="46.25554" lon="4.64973">
        <ele>654.014526367</ele>
        <time>2015-11-05T12:52:05.253Z</time>
      </trkpt>
      <trkpt lat="46.25553" lon="4.64975">
        <ele>654.047058105</ele>
        <time>2015-11-05T12:52:06.205Z</time>
      </trkpt>
      <trkpt lat="46.2555" lon="4.64987">
        <ele>654.176391602</ele>
        <time>2015-11-05T12:52:13.225Z</time>
      </trkpt>
      <trkpt lat="46.25549" lon="4.64989">
        <ele>654.163146973</ele>
        <time>2015-11-05T12:52:14.209Z</time>
      </trkpt>
      <trkpt lat="46.25548" lon="4.65001">
        <ele>654.169616699</ele>
        <time>2015-11-05T12:52:20.269Z</time>
      </trkpt>
      <trkpt lat="46.25547" lon="4.65003">
        <ele>654.151306152</ele>
        <time>2015-11-05T12:52:21.21Z</time>
      </trkpt>
      <trkpt lat="46.25543" lon="4.65014">
        <ele>654.161315918</ele>
        <time>2015-11-05T12:52:27.244Z</time>
      </trkpt>
      <trkpt lat="46.25542" lon="4.65015">
        <ele>654.190368652</ele>
        <time>2015-11-05T12:52:28.227Z</time>
      </trkpt>
      <trkpt lat="46.25538" lon="4.65026">
        <ele>654.657592773</ele>
        <time>2015-11-05T12:52:35.226Z</time>
      </trkpt>
      <trkpt lat="46.25538" lon="4.65027">
        <ele>654.707580566</ele>
        <time>2015-11-05T12:52:36.22Z</time>
      </trkpt>
      <trkpt lat="46.25535" lon="4.65038">
        <ele>654.77923584</ele>
        <time>2015-11-05T12:52:41.23Z</time>
      </trkpt>
      <trkpt lat="46.25534" lon="4.6504">
        <ele>654.788696289</ele>
        <time>2015-11-05T12:52:42.217Z</time>
      </trkpt>
      <trkpt lat="46.25531" lon="4.6505">
        <ele>654.942504883</ele>
        <time>2015-11-05T12:52:48.245Z</time>
      </trkpt>
      <trkpt lat="46.2553" lon="4.65052">
        <ele>655.000427246</ele>
        <time>2015-11-05T12:52:49.21Z</time>
      </trkpt>
      <trkpt lat="46.25527" lon="4.65064">
        <ele>655.298278809</ele>
        <time>2015-11-05T12:52:55.229Z</time>
      </trkpt>
      <trkpt lat="46.25526" lon="4.65067">
        <ele>655.352233887</ele>
        <time>2015-11-05T12:52:56.226Z</time>
      </trkpt>
      <trkpt lat="46.25523" lon="4.65078">
        <ele>655.624206543</ele>
        <time>2015-11-05T12:53:02.232Z</time>
      </trkpt>
      <trkpt lat="46.25523" lon="4.6508">
        <ele>655.650817871</ele>
        <time>2015-11-05T12:53:03.216Z</time>
      </trkpt>
      <trkpt lat="46.2552" lon="4.65091">
        <ele>655.814880371</ele>
        <time>2015-11-05T12:53:09.228Z</time>
      </trkpt>
      <trkpt lat="46.2552" lon="4.65093">
        <ele>655.841430664</ele>
        <time>2015-11-05T12:53:10.218Z</time>
      </trkpt>
      <trkpt lat="46.25517" lon="4.65104">
        <ele>656.04284668</ele>
        <time>2015-11-05T12:53:16.225Z</time>
      </trkpt>
      <trkpt lat="46.25517" lon="4.65106">
        <ele>656.038024902</ele>
        <time>2015-11-05T12:53:17.225Z</time>
      </trkpt>
      <trkpt lat="46.25514" lon="4.65117">
        <ele>656.129821777</ele>
        <time>2015-11-05T12:53:23.23Z</time>
      </trkpt>
      <trkpt lat="46.25514" lon="4.65119">
        <ele>656.178344727</ele>
        <time>2015-11-05T12:53:24.221Z</time>
      </trkpt>
      <trkpt lat="46.25511" lon="4.65129">
        <ele>656.40057373</ele>
        <time>2015-11-05T12:53:30.228Z</time>
      </trkpt>
      <trkpt lat="46.2551" lon="4.65131">
        <ele>656.402709961</ele>
        <time>2015-11-05T12:53:31.22Z</time>
      </trkpt>
      <trkpt lat="46.25508" lon="4.65143">
        <ele>656.5234375</ele>
        <time>2015-11-05T12:53:37.23Z</time>
      </trkpt>
      <trkpt lat="46.25507" lon="4.65145">
        <ele>656.517456055</ele>
        <time>2015-11-05T12:53:38.219Z</time>
      </trkpt>
      <trkpt lat="46.25504" lon="4.65156">
        <ele>656.483337402</ele>
        <time>2015-11-05T12:53:44.23Z</time>
      </trkpt>
      <trkpt lat="46.25503" lon="4.65158">
        <ele>656.496643066</ele>
        <time>2015-11-05T12:53:45.223Z</time>
      </trkpt>
      <trkpt lat="46.25501" lon="4.65168">
        <ele>656.912963867</ele>
        <time>2015-11-05T12:53:52.292Z</time>
      </trkpt>
      <trkpt lat="46.255" lon="4.65171">
        <ele>656.979003906</ele>
        <time>2015-11-05T12:53:53.214Z</time>
      </trkpt>
      <trkpt lat="46.25496" lon="4.65181">
        <ele>657.334411621</ele>
        <time>2015-11-05T12:53:58.236Z</time>
      </trkpt>
      <trkpt lat="46.25496" lon="4.65183">
        <ele>657.403869629</ele>
        <time>2015-11-05T12:53:59.242Z</time>
      </trkpt>
      <trkpt lat="46.25493" lon="4.65194">
        <ele>657.835266113</ele>
        <time>2015-11-05T12:54:05.238Z</time>
      </trkpt>
      <trkpt lat="46.25492" lon="4.65196">
        <ele>657.893920898</ele>
        <time>2015-11-05T12:54:06.215Z</time>
      </trkpt>
      <trkpt lat="46.25489" lon="4.65206">
        <ele>658.259643555</ele>
        <time>2015-11-05T12:54:12.236Z</time>
      </trkpt>
      <trkpt lat="46.25488" lon="4.65208">
        <ele>658.30480957</ele>
        <time>2015-11-05T12:54:13.214Z</time>
      </trkpt>
      <trkpt lat="46.25486" lon="4.6522">
        <ele>658.558898926</ele>
        <time>2015-11-05T12:54:19.242Z</time>
      </trkpt>
      <trkpt lat="46.25486" lon="4.65221">
        <ele>658.602783203</ele>
        <time>2015-11-05T12:54:20.203Z</time>
      </trkpt>
      <trkpt lat="46.25483" lon="4.65233">
        <ele>658.817626953</ele>
        <time>2015-11-05T12:54:26.247Z</time>
      </trkpt>
      <trkpt lat="46.25483" lon="4.65234">
        <ele>658.864501953</ele>
        <time>2015-11-05T12:54:27.219Z</time>
      </trkpt>
      <trkpt lat="46.2548" lon="4.65245">
        <ele>658.878417969</ele>
        <time>2015-11-05T12:54:31.233Z</time>
      </trkpt>
      <trkpt lat="46.25479" lon="4.65248">
        <ele>658.826171875</ele>
        <time>2015-11-05T12:54:32.241Z</time>
      </trkpt>
      <trkpt lat="46.25475" lon="4.65257">
        <ele>658.754699707</ele>
        <time>2015-11-05T12:54:38.234Z</time>
      </trkpt>
      <trkpt lat="46.25474" lon="4.65259">
        <ele>658.745544434</ele>
        <time>2015-11-05T12:54:39.22Z</time>
      </trkpt>
      <trkpt lat="46.25472" lon="4.65271">
        <ele>658.826049805</ele>
        <time>2015-11-05T12:54:46.271Z</time>
      </trkpt>
      <trkpt lat="46.25471" lon="4.65273">
        <ele>658.842651367</ele>
        <time>2015-11-05T12:54:47.226Z</time>
      </trkpt>
      <trkpt lat="46.25469" lon="4.65285">
        <ele>658.964477539</ele>
        <time>2015-11-05T12:54:53.243Z</time>
      </trkpt>
      <trkpt lat="46.25468" lon="4.65287">
        <ele>658.971679688</ele>
        <time>2015-11-05T12:54:54.22Z</time>
      </trkpt>
      <trkpt lat="46.25467" lon="4.65297">
        <ele>659.161132812</ele>
        <time>2015-11-05T12:54:58.236Z</time>
      </trkpt>
      <trkpt lat="46.25467" lon="4.653">
        <ele>659.204956055</ele>
        <time>2015-11-05T12:54:59.222Z</time>
      </trkpt>
      <trkpt lat="46.25467" lon="4.65312">
        <ele>659.709533691</ele>
        <time>2015-11-05T12:55:05.234Z</time>
      </trkpt>
      <trkpt lat="46.25467" lon="4.65314">
        <ele>659.795043945</ele>
        <time>2015-11-05T12:55:06.228Z</time>
      </trkpt>
      <trkpt lat="46.25467" lon="4.65326">
        <ele>660.251037598</ele>
        <time>2015-11-05T12:55:12.244Z</time>
      </trkpt>
      <trkpt lat="46.25468" lon="4.65328">
        <ele>660.27130127</ele>
        <time>2015-11-05T12:55:13.237Z</time>
      </trkpt>
      <trkpt lat="46.25469" lon="4.6534">
        <ele>660.362365723</ele>
        <time>2015-11-05T12:55:18.253Z</time>
      </trkpt>
      <trkpt lat="46.2547" lon="4.65342">
        <ele>660.396118164</ele>
        <time>2015-11-05T12:55:19.228Z</time>
      </trkpt>
      <trkpt lat="46.25471" lon="4.65353">
        <ele>660.55291748</ele>
        <time>2015-11-05T12:55:25.275Z</time>
      </trkpt>
      <trkpt lat="46.25471" lon="4.65355">
        <ele>660.583312988</ele>
        <time>2015-11-05T12:55:26.227Z</time>
      </trkpt>
      <trkpt lat="46.25473" lon="4.65367">
        <ele>660.670898438</ele>
        <time>2015-11-05T12:55:33.249Z</time>
      </trkpt>
      <trkpt lat="46.25473" lon="4.65369">
        <ele>660.632263184</ele>
        <time>2015-11-05T12:55:34.242Z</time>
      </trkpt>
      <trkpt lat="46.25476" lon="4.65381">
        <ele>660.054504395</ele>
        <time>2015-11-05T12:55:41.284Z</time>
      </trkpt>
      <trkpt lat="46.25477" lon="4.65382">
        <ele>659.953674316</ele>
        <time>2015-11-05T12:55:42.23Z</time>
      </trkpt>
      <trkpt lat="46.25478" lon="4.65394">
        <ele>659.401855469</ele>
        <time>2015-11-05T12:55:48.253Z</time>
      </trkpt>
      <trkpt lat="46.25478" lon="4.65396">
        <ele>659.388671875</ele>
        <time>2015-11-05T12:55:49.23Z</time>
      </trkpt>
      <trkpt lat="46.25473" lon="4.65408">
        <ele>659.87109375</ele>
        <time>2015-11-05T12:55:54.379Z</time>
      </trkpt>
      <trkpt lat="46.25472" lon="4.65409">
        <ele>660.024597168</ele>
        <time>2015-11-05T12:55:55.23Z</time>
      </trkpt>
      <trkpt lat="46.25468" lon="4.65418">
        <ele>661.175720215</ele>
        <time>2015-11-05T12:56:03.27Z</time>
      </trkpt>
      <trkpt lat="46.25467" lon="4.6542">
        <ele>661.282409668</ele>
        <time>2015-11-05T12:56:04.218Z</time>
      </trkpt>
      <trkpt lat="46.25462" lon="4.65429">
        <ele>662.743713379</ele>
        <time>2015-11-05T12:56:13.252Z</time>
      </trkpt>
      <trkpt lat="46.25462" lon="4.65431">
        <ele>662.932067871</ele>
        <time>2015-11-05T12:56:14.209Z</time>
      </trkpt>
      <trkpt lat="46.25456" lon="4.65441">
        <ele>663.860656738</ele>
        <time>2015-11-05T12:56:20.251Z</time>
      </trkpt>
      <trkpt lat="46.25455" lon="4.65443">
        <ele>663.961730957</ele>
        <time>2015-11-05T12:56:21.223Z</time>
      </trkpt>
      <trkpt lat="46.25448" lon="4.6545">
        <ele>664.316772461</ele>
        <time>2015-11-05T12:56:26.261Z</time>
      </trkpt>
      <trkpt lat="46.25447" lon="4.65451">
        <ele>664.366821289</ele>
        <time>2015-11-05T12:56:27.23Z</time>
      </trkpt>
      <trkpt lat="46.25441" lon="4.65459">
        <ele>665.231079102</ele>
        <time>2015-11-05T12:56:35.23Z</time>
      </trkpt>
      <trkpt lat="46.2544" lon="4.6546">
        <ele>665.377685547</ele>
        <time>2015-11-05T12:56:36.229Z</time>
      </trkpt>
      <trkpt lat="46.25433" lon="4.65466">
        <ele>665.694213867</ele>
        <time>2015-11-05T12:56:40.257Z</time>
      </trkpt>
      <trkpt lat="46.25432" lon="4.65468">
        <ele>665.742492676</ele>
        <time>2015-11-05T12:56:41.23Z</time>
      </trkpt>
      <trkpt lat="46.25424" lon="4.65474">
        <ele>665.919555664</ele>
        <time>2015-11-05T12:56:47.249Z</time>
      </trkpt>
      <trkpt lat="46.25423" lon="4.65475">
        <ele>665.89831543</ele>
        <time>2015-11-05T12:56:48.229Z</time>
      </trkpt>
      <trkpt lat="46.25415" lon="4.65479">
        <ele>665.649902344</ele>
        <time>2015-11-05T12:56:54.258Z</time>
      </trkpt>
      <trkpt lat="46.25413" lon="4.6548">
        <ele>665.600219727</ele>
        <time>2015-11-05T12:56:55.229Z</time>
      </trkpt>
      <trkpt lat="46.25406" lon="4.65484">
        <ele>665.224609375</ele>
        <time>2015-11-05T12:57:00.253Z</time>
      </trkpt>
      <trkpt lat="46.25404" lon="4.65484">
        <ele>665.136352539</ele>
        <time>2015-11-05T12:57:01.248Z</time>
      </trkpt>
      <trkpt lat="46.25397" lon="4.65487">
        <ele>664.983764648</ele>
        <time>2015-11-05T12:57:08.237Z</time>
      </trkpt>
      <trkpt lat="46.25395" lon="4.65488">
        <ele>664.970214844</ele>
        <time>2015-11-05T12:57:09.245Z</time>
      </trkpt>
      <trkpt lat="46.25387" lon="4.65491">
        <ele>664.958679199</ele>
        <time>2015-11-05T12:57:15.244Z</time>
      </trkpt>
      <trkpt lat="46.25386" lon="4.65491">
        <ele>664.922363281</ele>
        <time>2015-11-05T12:57:16.229Z</time>
      </trkpt>
      <trkpt lat="46.25377" lon="4.65494">
        <ele>664.558837891</ele>
        <time>2015-11-05T12:57:21.248Z</time>
      </trkpt>
      <trkpt lat="46.25376" lon="4.65494">
        <ele>664.505126953</ele>
        <time>2015-11-05T12:57:22.227Z</time>
      </trkpt>
      <trkpt lat="46.25369" lon="4.65497">
        <ele>664.516357422</ele>
        <time>2015-11-05T12:57:28.231Z</time>
      </trkpt>
      <trkpt lat="46.25367" lon="4.65498">
        <ele>664.516052246</ele>
        <time>2015-11-05T12:57:29.217Z</time>
      </trkpt>
      <trkpt lat="46.25358" lon="4.65501">
        <ele>664.206665039</ele>
        <time>2015-11-05T12:57:35.238Z</time>
      </trkpt>
      <trkpt lat="46.25357" lon="4.65501">
        <ele>664.176025391</ele>
        <time>2015-11-05T12:57:36.217Z</time>
      </trkpt>
      <trkpt lat="46.2535" lon="4.65505">
        <ele>664.098266602</ele>
        <time>2015-11-05T12:57:41.228Z</time>
      </trkpt>
      <trkpt lat="46.25349" lon="4.65506">
        <ele>664.085388184</ele>
        <time>2015-11-05T12:57:42.219Z</time>
      </trkpt>
      <trkpt lat="46.25341" lon="4.6551">
        <ele>663.854675293</ele>
        <time>2015-11-05T12:57:47.247Z</time>
      </trkpt>
      <trkpt lat="46.2534" lon="4.65511">
        <ele>663.799682617</ele>
        <time>2015-11-05T12:57:48.242Z</time>
      </trkpt>
      <trkpt lat="46.25332" lon="4.65516">
        <ele>663.419433594</ele>
        <time>2015-11-05T12:57:53.253Z</time>
      </trkpt>
      <trkpt lat="46.2533" lon="4.65517">
        <ele>663.345153809</ele>
        <time>2015-11-05T12:57:54.227Z</time>
      </trkpt>
      <trkpt lat="46.25323" lon="4.65523">
        <ele>662.909423828</ele>
        <time>2015-11-05T12:57:59.247Z</time>
      </trkpt>
      <trkpt lat="46.25322" lon="4.65524">
        <ele>662.80847168</ele>
        <time>2015-11-05T12:58:00.236Z</time>
      </trkpt>
      <trkpt lat="46.25316" lon="4.65531">
        <ele>662.286560059</ele>
        <time>2015-11-05T12:58:06.278Z</time>
      </trkpt>
      <trkpt lat="46.25314" lon="4.65532">
        <ele>662.20916748</ele>
        <time>2015-11-05T12:58:07.226Z</time>
      </trkpt>
      <trkpt lat="46.25309" lon="4.65539">
        <ele>661.958312988</ele>
        <time>2015-11-05T12:58:12.257Z</time>
      </trkpt>
      <trkpt lat="46.25307" lon="4.6554">
        <ele>661.901672363</ele>
        <time>2015-11-05T12:58:13.243Z</time>
      </trkpt>
      <trkpt lat="46.25302" lon="4.65549">
        <ele>661.706359863</ele>
        <time>2015-11-05T12:58:19.236Z</time>
      </trkpt>
      <trkpt lat="46.25301" lon="4.6555">
        <ele>661.688415527</ele>
        <time>2015-11-05T12:58:20.23Z</time>
      </trkpt>
      <trkpt lat="46.25295" lon="4.65559">
        <ele>661.620239258</ele>
        <time>2015-11-05T12:58:26.238Z</time>
      </trkpt>
      <trkpt lat="46.25294" lon="4.65561">
        <ele>661.553344727</ele>
        <time>2015-11-05T12:58:27.23Z</time>
      </trkpt>
      <trkpt lat="46.25289" lon="4.6557">
        <ele>661.249145508</ele>
        <time>2015-11-05T12:58:32.232Z</time>
      </trkpt>
      <trkpt lat="46.25289" lon="4.65572">
        <ele>661.185852051</ele>
        <time>2015-11-05T12:58:33.226Z</time>
      </trkpt>
      <trkpt lat="46.25285" lon="4.65581">
        <ele>660.792419434</ele>
        <time>2015-11-05T12:58:37.239Z</time>
      </trkpt>
      <trkpt lat="46.25284" lon="4.65584">
        <ele>660.672546387</ele>
        <time>2015-11-05T12:58:38.233Z</time>
      </trkpt>
      <trkpt lat="46.25282" lon="4.65595">
        <ele>660.090576172</ele>
        <time>2015-11-05T12:58:43.245Z</time>
      </trkpt>
      <trkpt lat="46.25281" lon="4.65597">
        <ele>659.966369629</ele>
        <time>2015-11-05T12:58:44.227Z</time>
      </trkpt>
      <trkpt lat="46.2528" lon="4.65609">
        <ele>659.408508301</ele>
        <time>2015-11-05T12:58:49.237Z</time>
      </trkpt>
      <trkpt lat="46.2528" lon="4.65611">
        <ele>659.29473877</ele>
        <time>2015-11-05T12:58:50.23Z</time>
      </trkpt>
      <trkpt lat="46.25283" lon="4.65621">
        <ele>658.578491211</ele>
        <time>2015-11-05T12:58:56.264Z</time>
      </trkpt>
      <trkpt lat="46.25283" lon="4.65623">
        <ele>658.47845459</ele>
        <time>2015-11-05T12:58:57.216Z</time>
      </trkpt>
      <trkpt lat="46.25286" lon="4.65635">
        <ele>657.730407715</ele>
        <time>2015-11-05T12:59:03.255Z</time>
      </trkpt>
      <trkpt lat="46.25287" lon="4.65637">
        <ele>657.639648438</ele>
        <time>2015-11-05T12:59:04.217Z</time>
      </trkpt>
      <trkpt lat="46.25291" lon="4.65646">
        <ele>657.157043457</ele>
        <time>2015-11-05T12:59:09.236Z</time>
      </trkpt>
      <trkpt lat="46.25292" lon="4.65648">
        <ele>657.057617188</ele>
        <time>2015-11-05T12:59:10.226Z</time>
      </trkpt>
      <trkpt lat="46.25296" lon="4.65659">
        <ele>656.488342285</ele>
        <time>2015-11-05T12:59:16.363Z</time>
      </trkpt>
      <trkpt lat="46.25297" lon="4.6566">
        <ele>656.413696289</ele>
        <time>2015-11-05T12:59:17.219Z</time>
      </trkpt>
      <trkpt lat="46.25301" lon="4.6567">
        <ele>656.088378906</ele>
        <time>2015-11-05T12:59:22.244Z</time>
      </trkpt>
      <trkpt lat="46.25301" lon="4.65672">
        <ele>656.011047363</ele>
        <time>2015-11-05T12:59:23.228Z</time>
      </trkpt>
      <trkpt lat="46.25306" lon="4.65679">
        <ele>655.412353516</ele>
        <time>2015-11-05T12:59:28.237Z</time>
      </trkpt>
      <trkpt lat="46.25308" lon="4.65681">
        <ele>655.239807129</ele>
        <time>2015-11-05T12:59:29.23Z</time>
      </trkpt>
      <trkpt lat="46.25313" lon="4.6569">
        <ele>654.265991211</ele>
        <time>2015-11-05T12:59:35.23Z</time>
      </trkpt>
      <trkpt lat="46.25314" lon="4.65692">
        <ele>654.079711914</ele>
        <time>2015-11-05T12:59:36.226Z</time>
      </trkpt>
      <trkpt lat="46.25318" lon="4.65701">
        <ele>653.295043945</ele>
        <time>2015-11-05T12:59:41.235Z</time>
      </trkpt>
      <trkpt lat="46.25319" lon="4.65703">
        <ele>653.154907227</ele>
        <time>2015-11-05T12:59:42.239Z</time>
      </trkpt>
      <trkpt lat="46.25323" lon="4.65714">
        <ele>652.353393555</ele>
        <time>2015-11-05T12:59:48.241Z</time>
      </trkpt>
      <trkpt lat="46.25323" lon="4.65716">
        <ele>652.237426758</ele>
        <time>2015-11-05T12:59:49.219Z</time>
      </trkpt>
      <trkpt lat="46.25327" lon="4.65726">
        <ele>651.624938965</ele>
        <time>2015-11-05T12:59:55.233Z</time>
      </trkpt>
      <trkpt lat="46.25328" lon="4.65727">
        <ele>651.515319824</ele>
        <time>2015-11-05T12:59:56.226Z</time>
      </trkpt>
      <trkpt lat="46.25333" lon="4.65737">
        <ele>650.886657715</ele>
        <time>2015-11-05T13:00:02.256Z</time>
      </trkpt>
      <trkpt lat="46.25334" lon="4.65738">
        <ele>650.77154541</ele>
        <time>2015-11-05T13:00:03.218Z</time>
      </trkpt>
      <trkpt lat="46.25341" lon="4.65746">
        <ele>650.759521484</ele>
        <time>2015-11-05T13:00:13.219Z</time>
      </trkpt>
      <trkpt lat="46.25342" lon="4.65747">
        <ele>650.822631836</ele>
        <time>2015-11-05T13:00:14.215Z</time>
      </trkpt>
      <trkpt lat="46.25349" lon="4.65753">
        <ele>650.705322266</ele>
        <time>2015-11-05T13:00:20.234Z</time>
      </trkpt>
      <trkpt lat="46.2535" lon="4.65754">
        <ele>650.643066406</ele>
        <time>2015-11-05T13:00:21.219Z</time>
      </trkpt>
      <trkpt lat="46.25354" lon="4.65764">
        <ele>650.11517334</ele>
        <time>2015-11-05T13:00:27.25Z</time>
      </trkpt>
      <trkpt lat="46.25354" lon="4.65766">
        <ele>650.024414062</ele>
        <time>2015-11-05T13:00:28.241Z</time>
      </trkpt>
      <trkpt lat="46.25353" lon="4.65776">
        <ele>648.947631836</ele>
        <time>2015-11-05T13:00:36.256Z</time>
      </trkpt>
      <trkpt lat="46.25353" lon="4.65779">
        <ele>648.805847168</ele>
        <time>2015-11-05T13:00:37.222Z</time>
      </trkpt>
      <trkpt lat="46.2535" lon="4.65791">
        <ele>647.982421875</ele>
        <time>2015-11-05T13:00:44.227Z</time>
      </trkpt>
      <trkpt lat="46.2535" lon="4.65793">
        <ele>647.835388184</ele>
        <time>2015-11-05T13:00:45.209Z</time>
      </trkpt>
      <trkpt lat="46.25347" lon="4.65805">
        <ele>647.187927246</ele>
        <time>2015-11-05T13:00:51.22Z</time>
      </trkpt>
      <trkpt lat="46.25346" lon="4.65807">
        <ele>647.108764648</ele>
        <time>2015-11-05T13:00:52.209Z</time>
      </trkpt>
      <trkpt lat="46.25342" lon="4.65818">
        <ele>646.339538574</ele>
        <time>2015-11-05T13:00:59.219Z</time>
      </trkpt>
      <trkpt lat="46.25341" lon="4.6582">
        <ele>646.221740723</ele>
        <time>2015-11-05T13:01:00.213Z</time>
      </trkpt>
      <trkpt lat="46.25338" lon="4.65832">
        <ele>645.491149902</ele>
        <time>2015-11-05T13:01:07.223Z</time>
      </trkpt>
      <trkpt lat="46.25338" lon="4.65833">
        <ele>645.432739258</ele>
        <time>2015-11-05T13:01:08.208Z</time>
      </trkpt>
      <trkpt lat="46.25335" lon="4.65845">
        <ele>644.855163574</ele>
        <time>2015-11-05T13:01:15.251Z</time>
      </trkpt>
      <trkpt lat="46.25334" lon="4.65847">
        <ele>644.741760254</ele>
        <time>2015-11-05T13:01:16.206Z</time>
      </trkpt>
      <trkpt lat="46.25333" lon="4.65857">
        <ele>644.370483398</ele>
        <time>2015-11-05T13:01:21.218Z</time>
      </trkpt>
      <trkpt lat="46.25332" lon="4.6586">
        <ele>644.279602051</ele>
        <time>2015-11-05T13:01:22.245Z</time>
      </trkpt>
      <trkpt lat="46.25329" lon="4.65871">
        <ele>643.615905762</ele>
        <time>2015-11-05T13:01:28.219Z</time>
      </trkpt>
      <trkpt lat="46.25328" lon="4.65872">
        <ele>643.494628906</ele>
        <time>2015-11-05T13:01:29.209Z</time>
      </trkpt>
      <trkpt lat="46.25324" lon="4.65882">
        <ele>643.121459961</ele>
        <time>2015-11-05T13:01:35.235Z</time>
      </trkpt>
      <trkpt lat="46.25324" lon="4.65885">
        <ele>643.049987793</ele>
        <time>2015-11-05T13:01:36.209Z</time>
      </trkpt>
      <trkpt lat="46.25322" lon="4.65895">
        <ele>642.667724609</ele>
        <time>2015-11-05T13:01:43.255Z</time>
      </trkpt>
      <trkpt lat="46.25322" lon="4.65897">
        <ele>642.651000977</ele>
        <time>2015-11-05T13:01:44.205Z</time>
      </trkpt>
      <trkpt lat="46.2532" lon="4.65909">
        <ele>642.644775391</ele>
        <time>2015-11-05T13:01:50.221Z</time>
      </trkpt>
      <trkpt lat="46.25319" lon="4.65911">
        <ele>642.600646973</ele>
        <time>2015-11-05T13:01:51.205Z</time>
      </trkpt>
      <trkpt lat="46.25318" lon="4.65923">
        <ele>642.260375977</ele>
        <time>2015-11-05T13:01:57.218Z</time>
      </trkpt>
      <trkpt lat="46.25318" lon="4.65924">
        <ele>642.212463379</ele>
        <time>2015-11-05T13:01:58.208Z</time>
      </trkpt>
      <trkpt lat="46.25318" lon="4.65936">
        <ele>641.750427246</ele>
        <time>2015-11-05T13:02:04.219Z</time>
      </trkpt>
      <trkpt lat="46.25318" lon="4.65939">
        <ele>641.654907227</ele>
        <time>2015-11-05T13:02:05.209Z</time>
      </trkpt>
      <trkpt lat="46.25317" lon="4.65952">
        <ele>641.343444824</ele>
        <time>2015-11-05T13:02:13.22Z</time>
      </trkpt>
      <trkpt lat="46.25318" lon="4.65953">
        <ele>641.346862793</ele>
        <time>2015-11-05T13:02:14.209Z</time>
      </trkpt>
      <trkpt lat="46.25319" lon="4.65964">
        <ele>641.29864502</ele>
        <time>2015-11-05T13:02:20.218Z</time>
      </trkpt>
      <trkpt lat="46.2532" lon="4.65966">
        <ele>641.321105957</ele>
        <time>2015-11-05T13:02:21.203Z</time>
      </trkpt>
      <trkpt lat="46.25318" lon="4.65978">
        <ele>641.069213867</ele>
        <time>2015-11-05T13:02:31.244Z</time>
      </trkpt>
      <trkpt lat="46.25317" lon="4.6598">
        <ele>641.077575684</ele>
        <time>2015-11-05T13:02:32.209Z</time>
      </trkpt>
      <trkpt lat="46.25315" lon="4.6599">
        <ele>641.114562988</ele>
        <time>2015-11-05T13:02:39.218Z</time>
      </trkpt>
      <trkpt lat="46.25314" lon="4.65992">
        <ele>641.121765137</ele>
        <time>2015-11-05T13:02:40.209Z</time>
      </trkpt>
      <trkpt lat="46.25315" lon="4.66004">
        <ele>641.163391113</ele>
        <time>2015-11-05T13:02:46.222Z</time>
      </trkpt>
      <trkpt lat="46.25315" lon="4.66006">
        <ele>641.09185791</ele>
        <time>2015-11-05T13:02:47.196Z</time>
      </trkpt>
      <trkpt lat="46.25312" lon="4.66017">
        <ele>640.830688477</ele>
        <time>2015-11-05T13:02:53.225Z</time>
      </trkpt>
      <trkpt lat="46.25312" lon="4.6602">
        <ele>640.75604248</ele>
        <time>2015-11-05T13:02:54.209Z</time>
      </trkpt>
      <trkpt lat="46.25311" lon="4.66031">
        <ele>640.34753418</ele>
        <time>2015-11-05T13:02:59.222Z</time>
      </trkpt>
      <trkpt lat="46.2531" lon="4.66033">
        <ele>640.290161133</ele>
        <time>2015-11-05T13:03:00.208Z</time>
      </trkpt>
      <trkpt lat="46.25309" lon="4.66045">
        <ele>640.051757812</ele>
        <time>2015-11-05T13:03:06.234Z</time>
      </trkpt>
      <trkpt lat="46.25309" lon="4.66047">
        <ele>640.027282715</ele>
        <time>2015-11-05T13:03:07.216Z</time>
      </trkpt>
      <trkpt lat="46.25307" lon="4.66059">
        <ele>639.621704102</ele>
        <time>2015-11-05T13:03:15.232Z</time>
      </trkpt>
      <trkpt lat="46.25307" lon="4.66062">
        <ele>639.57409668</ele>
        <time>2015-11-05T13:03:16.215Z</time>
      </trkpt>
      <trkpt lat="46.25307" lon="4.66074">
        <ele>639.032897949</ele>
        <time>2015-11-05T13:03:23.223Z</time>
      </trkpt>
      <trkpt lat="46.25306" lon="4.66076">
        <ele>639.008850098</ele>
        <time>2015-11-05T13:03:24.209Z</time>
      </trkpt>
      <trkpt lat="46.25304" lon="4.66088">
        <ele>638.733520508</ele>
        <time>2015-11-05T13:03:30.238Z</time>
      </trkpt>
      <trkpt lat="46.25304" lon="4.6609">
        <ele>638.751586914</ele>
        <time>2015-11-05T13:03:31.209Z</time>
      </trkpt>
      <trkpt lat="46.25301" lon="4.66102">
        <ele>638.726196289</ele>
        <time>2015-11-05T13:03:38.219Z</time>
      </trkpt>
      <trkpt lat="46.253" lon="4.66104">
        <ele>638.597167969</ele>
        <time>2015-11-05T13:03:39.211Z</time>
      </trkpt>
      <trkpt lat="46.25294" lon="4.66112">
        <ele>637.510192871</ele>
        <time>2015-11-05T13:03:45.219Z</time>
      </trkpt>
      <trkpt lat="46.25294" lon="4.66114">
        <ele>637.333435059</ele>
        <time>2015-11-05T13:03:46.213Z</time>
      </trkpt>
      <trkpt lat="46.25291" lon="4.66125">
        <ele>636.00402832</ele>
        <time>2015-11-05T13:03:53.223Z</time>
      </trkpt>
      <trkpt lat="46.2529" lon="4.66126">
        <ele>635.758361816</ele>
        <time>2015-11-05T13:03:54.21Z</time>
      </trkpt>
      <trkpt lat="46.25291" lon="4.66139">
        <ele>633.757263184</ele>
        <time>2015-11-05T13:04:03.222Z</time>
      </trkpt>
      <trkpt lat="46.25291" lon="4.6614">
        <ele>633.482421875</ele>
        <time>2015-11-05T13:04:04.21Z</time>
      </trkpt>
      <trkpt lat="46.25293" lon="4.66152">
        <ele>631.31842041</ele>
        <time>2015-11-05T13:04:16.256Z</time>
      </trkpt>
      <trkpt lat="46.25293" lon="4.66154">
        <ele>631.017089844</ele>
        <time>2015-11-05T13:04:17.209Z</time>
      </trkpt>
      <trkpt lat="46.25292" lon="4.66166">
        <ele>628.673950195</ele>
        <time>2015-11-05T13:04:31.244Z</time>
      </trkpt>
      <trkpt lat="46.25292" lon="4.66167">
        <ele>628.426208496</ele>
        <time>2015-11-05T13:04:32.211Z</time>
      </trkpt>
      <trkpt lat="46.25294" lon="4.6618">
        <ele>626.762634277</ele>
        <time>2015-11-05T13:04:39.358Z</time>
      </trkpt>
      <trkpt lat="46.25294" lon="4.66181">
        <ele>626.520324707</ele>
        <time>2015-11-05T13:04:40.209Z</time>
      </trkpt>
      <trkpt lat="46.25294" lon="4.66193">
        <ele>624.720947266</ele>
        <time>2015-11-05T13:04:48.243Z</time>
      </trkpt>
      <trkpt lat="46.25295" lon="4.66194">
        <ele>624.541503906</ele>
        <time>2015-11-05T13:04:49.211Z</time>
      </trkpt>
      <trkpt lat="46.25298" lon="4.66205">
        <ele>622.967834473</ele>
        <time>2015-11-05T13:04:58.244Z</time>
      </trkpt>
      <trkpt lat="46.25299" lon="4.66207">
        <ele>622.835998535</ele>
        <time>2015-11-05T13:04:59.216Z</time>
      </trkpt>
      <trkpt lat="46.25305" lon="4.66215">
        <ele>621.653930664</ele>
        <time>2015-11-05T13:05:06.236Z</time>
      </trkpt>
      <trkpt lat="46.25306" lon="4.66216">
        <ele>621.512207031</ele>
        <time>2015-11-05T13:05:07.219Z</time>
      </trkpt>
      <trkpt lat="46.25311" lon="4.66223">
        <ele>620.870056152</ele>
        <time>2015-11-05T13:05:13.235Z</time>
      </trkpt>
      <trkpt lat="46.25313" lon="4.66225">
        <ele>620.789550781</ele>
        <time>2015-11-05T13:05:14.216Z</time>
      </trkpt>
      <trkpt lat="46.25318" lon="4.66233">
        <ele>619.281738281</ele>
        <time>2015-11-05T13:05:23.218Z</time>
      </trkpt>
      <trkpt lat="46.25319" lon="4.66235">
        <ele>618.973999023</ele>
        <time>2015-11-05T13:05:24.209Z</time>
      </trkpt>
      <trkpt lat="46.25323" lon="4.66246">
        <ele>617.418762207</ele>
        <time>2015-11-05T13:05:30.249Z</time>
      </trkpt>
      <trkpt lat="46.25324" lon="4.66247">
        <ele>617.243347168</ele>
        <time>2015-11-05T13:05:31.204Z</time>
      </trkpt>
      <trkpt lat="46.25325" lon="4.66258">
        <ele>615.992858887</ele>
        <time>2015-11-05T13:05:37.252Z</time>
      </trkpt>
      <trkpt lat="46.25325" lon="4.6626">
        <ele>615.751586914</ele>
        <time>2015-11-05T13:05:38.208Z</time>
      </trkpt>
      <trkpt lat="46.25327" lon="4.66271">
        <ele>613.964660645</ele>
        <time>2015-11-05T13:05:46.239Z</time>
      </trkpt>
      <trkpt lat="46.25328" lon="4.66273">
        <ele>613.743835449</ele>
        <time>2015-11-05T13:05:47.209Z</time>
      </trkpt>
      <trkpt lat="46.2533" lon="4.66285">
        <ele>612.205566406</ele>
        <time>2015-11-05T13:05:54.218Z</time>
      </trkpt>
      <trkpt lat="46.2533" lon="4.66287">
        <ele>611.977783203</ele>
        <time>2015-11-05T13:05:55.209Z</time>
      </trkpt>
      <trkpt lat="46.25331" lon="4.66298">
        <ele>610.944885254</ele>
        <time>2015-11-05T13:06:00.221Z</time>
      </trkpt>
      <trkpt lat="46.25331" lon="4.663">
        <ele>610.75994873</ele>
        <time>2015-11-05T13:06:01.221Z</time>
      </trkpt>
      <trkpt lat="46.25332" lon="4.66313">
        <ele>609.520141602</ele>
        <time>2015-11-05T13:06:08.222Z</time>
      </trkpt>
      <trkpt lat="46.25332" lon="4.66314">
        <ele>609.385009766</ele>
        <time>2015-11-05T13:06:09.209Z</time>
      </trkpt>
      <trkpt lat="46.25332" lon="4.66325">
        <ele>608.128356934</ele>
        <time>2015-11-05T13:06:15.222Z</time>
      </trkpt>
      <trkpt lat="46.25332" lon="4.66327">
        <ele>607.941101074</ele>
        <time>2015-11-05T13:06:16.219Z</time>
      </trkpt>
      <trkpt lat="46.25332" lon="4.66339">
        <ele>606.817932129</ele>
        <time>2015-11-05T13:06:22.217Z</time>
      </trkpt>
      <trkpt lat="46.25332" lon="4.66341">
        <ele>606.653808594</ele>
        <time>2015-11-05T13:06:23.23Z</time>
      </trkpt>
      <trkpt lat="46.25331" lon="4.66352">
        <ele>605.781677246</ele>
        <time>2015-11-05T13:06:29.217Z</time>
      </trkpt>
      <trkpt lat="46.25331" lon="4.66354">
        <ele>605.637329102</ele>
        <time>2015-11-05T13:06:30.212Z</time>
      </trkpt>
      <trkpt lat="46.25328" lon="4.66366">
        <ele>604.285583496</ele>
        <time>2015-11-05T13:06:39.219Z</time>
      </trkpt>
      <trkpt lat="46.25328" lon="4.66368">
        <ele>604.135192871</ele>
        <time>2015-11-05T13:06:40.208Z</time>
      </trkpt>
      <trkpt lat="46.25325" lon="4.66378">
        <ele>603.063720703</ele>
        <time>2015-11-05T13:06:46.218Z</time>
      </trkpt>
      <trkpt lat="46.25325" lon="4.6638">
        <ele>602.911621094</ele>
        <time>2015-11-05T13:06:47.211Z</time>
      </trkpt>
      <trkpt lat="46.25322" lon="4.66391">
        <ele>601.654846191</ele>
        <time>2015-11-05T13:06:56.23Z</time>
      </trkpt>
      <trkpt lat="46.25321" lon="4.66393">
        <ele>601.510375977</ele>
        <time>2015-11-05T13:06:57.208Z</time>
      </trkpt>
      <trkpt lat="46.25316" lon="4.66403">
        <ele>600.464782715</ele>
        <time>2015-11-05T13:07:03.23Z</time>
      </trkpt>
      <trkpt lat="46.25315" lon="4.66404">
        <ele>600.281494141</ele>
        <time>2015-11-05T13:07:04.218Z</time>
      </trkpt>
      <trkpt lat="46.25312" lon="4.66414">
        <ele>599.224121094</ele>
        <time>2015-11-05T13:07:11.218Z</time>
      </trkpt>
      <trkpt lat="46.25311" lon="4.66416">
        <ele>599.058959961</ele>
        <time>2015-11-05T13:07:12.211Z</time>
      </trkpt>
      <trkpt lat="46.25307" lon="4.66426">
        <ele>597.855285645</ele>
        <time>2015-11-05T13:07:20.222Z</time>
      </trkpt>
      <trkpt lat="46.25307" lon="4.66428">
        <ele>597.707397461</ele>
        <time>2015-11-05T13:07:21.209Z</time>
      </trkpt>
      <trkpt lat="46.25302" lon="4.66439">
        <ele>596.653198242</ele>
        <time>2015-11-05T13:07:28.229Z</time>
      </trkpt>
      <trkpt lat="46.25302" lon="4.66441">
        <ele>596.482910156</ele>
        <time>2015-11-05T13:07:29.24Z</time>
      </trkpt>
      <trkpt lat="46.25296" lon="4.66449">
        <ele>595.181518555</ele>
        <time>2015-11-05T13:07:36.226Z</time>
      </trkpt>
      <trkpt lat="46.25295" lon="4.6645">
        <ele>594.976013184</ele>
        <time>2015-11-05T13:07:37.209Z</time>
      </trkpt>
      <trkpt lat="46.25289" lon="4.66458">
        <ele>593.293701172</ele>
        <time>2015-11-05T13:07:45.223Z</time>
      </trkpt>
      <trkpt lat="46.25288" lon="4.6646">
        <ele>593.071289062</ele>
        <time>2015-11-05T13:07:46.21Z</time>
      </trkpt>
      <trkpt lat="46.25283" lon="4.66469">
        <ele>591.251953125</ele>
        <time>2015-11-05T13:07:54.256Z</time>
      </trkpt>
      <trkpt lat="46.25282" lon="4.6647">
        <ele>591.009094238</ele>
        <time>2015-11-05T13:07:55.21Z</time>
      </trkpt>
      <trkpt lat="46.25277" lon="4.66479">
        <ele>589.322998047</ele>
        <time>2015-11-05T13:08:04.208Z</time>
      </trkpt>
      <trkpt lat="46.25276" lon="4.6648">
        <ele>589.138061523</ele>
        <time>2015-11-05T13:08:05.209Z</time>
      </trkpt>
      <trkpt lat="46.2527" lon="4.66488">
        <ele>587.993652344</ele>
        <time>2015-11-05T13:08:12.221Z</time>
      </trkpt>
      <trkpt lat="46.25269" lon="4.66488">
        <ele>587.830993652</ele>
        <time>2015-11-05T13:08:13.215Z</time>
      </trkpt>
      <trkpt lat="46.25263" lon="4.66496">
        <ele>587.082885742</ele>
        <time>2015-11-05T13:08:19.22Z</time>
      </trkpt>
      <trkpt lat="46.25262" lon="4.66497">
        <ele>586.936096191</ele>
        <time>2015-11-05T13:08:20.208Z</time>
      </trkpt>
      <trkpt lat="46.25255" lon="4.66504">
        <ele>585.485534668</ele>
        <time>2015-11-05T13:08:28.218Z</time>
      </trkpt>
      <trkpt lat="46.25254" lon="4.66504">
        <ele>585.330627441</ele>
        <time>2015-11-05T13:08:29.206Z</time>
      </trkpt>
      <trkpt lat="46.25247" lon="4.66511">
        <ele>584.125244141</ele>
        <time>2015-11-05T13:08:37.218Z</time>
      </trkpt>
      <trkpt lat="46.25245" lon="4.66512">
        <ele>583.959472656</ele>
        <time>2015-11-05T13:08:38.222Z</time>
      </trkpt>
      <trkpt lat="46.25238" lon="4.66517">
        <ele>582.908935547</ele>
        <time>2015-11-05T13:08:45.217Z</time>
      </trkpt>
      <trkpt lat="46.25237" lon="4.66518">
        <ele>582.789794922</ele>
        <time>2015-11-05T13:08:46.206Z</time>
      </trkpt>
      <trkpt lat="46.2523" lon="4.66525">
        <ele>581.600158691</ele>
        <time>2015-11-05T13:08:54.228Z</time>
      </trkpt>
      <trkpt lat="46.25229" lon="4.66526">
        <ele>581.390319824</ele>
        <time>2015-11-05T13:08:55.21Z</time>
      </trkpt>
      <trkpt lat="46.25221" lon="4.66531">
        <ele>580.203796387</ele>
        <time>2015-11-05T13:09:01.23Z</time>
      </trkpt>
      <trkpt lat="46.2522" lon="4.66532">
        <ele>580.107910156</ele>
        <time>2015-11-05T13:09:02.21Z</time>
      </trkpt>
      <trkpt lat="46.25212" lon="4.66536">
        <ele>579.236572266</ele>
        <time>2015-11-05T13:09:11.222Z</time>
      </trkpt>
      <trkpt lat="46.25211" lon="4.66536">
        <ele>579.134765625</ele>
        <time>2015-11-05T13:09:12.211Z</time>
      </trkpt>
      <trkpt lat="46.25203" lon="4.6654">
        <ele>578.583251953</ele>
        <time>2015-11-05T13:09:19.219Z</time>
      </trkpt>
      <trkpt lat="46.25202" lon="4.66541">
        <ele>578.478088379</ele>
        <time>2015-11-05T13:09:20.219Z</time>
      </trkpt>
      <trkpt lat="46.25195" lon="4.66546">
        <ele>577.983581543</ele>
        <time>2015-11-05T13:09:27.225Z</time>
      </trkpt>
      <trkpt lat="46.25194" lon="4.66547">
        <ele>577.891967773</ele>
        <time>2015-11-05T13:09:28.217Z</time>
      </trkpt>
      <trkpt lat="46.25187" lon="4.66552">
        <ele>577.202453613</ele>
        <time>2015-11-05T13:09:35.228Z</time>
      </trkpt>
      <trkpt lat="46.25186" lon="4.66553">
        <ele>577.093933105</ele>
        <time>2015-11-05T13:09:36.218Z</time>
      </trkpt>
      <trkpt lat="46.25178" lon="4.66558">
        <ele>576.272949219</ele>
        <time>2015-11-05T13:09:44.225Z</time>
      </trkpt>
      <trkpt lat="46.25177" lon="4.66559">
        <ele>576.213378906</ele>
        <time>2015-11-05T13:09:45.221Z</time>
      </trkpt>
      <trkpt lat="46.25169" lon="4.66564">
        <ele>575.74810791</ele>
        <time>2015-11-05T13:09:52.244Z</time>
      </trkpt>
      <trkpt lat="46.25168" lon="4.66565">
        <ele>575.690063477</ele>
        <time>2015-11-05T13:09:53.218Z</time>
      </trkpt>
      <trkpt lat="46.25161" lon="4.66572">
        <ele>574.982788086</ele>
        <time>2015-11-05T13:10:00.298Z</time>
      </trkpt>
      <trkpt lat="46.2516" lon="4.66572">
        <ele>574.917907715</ele>
        <time>2015-11-05T13:10:01.218Z</time>
      </trkpt>
      <trkpt lat="46.25153" lon="4.66579">
        <ele>574.366760254</ele>
        <time>2015-11-05T13:10:09.251Z</time>
      </trkpt>
      <trkpt lat="46.25152" lon="4.6658">
        <ele>574.281311035</ele>
        <time>2015-11-05T13:10:10.222Z</time>
      </trkpt>
      <trkpt lat="46.25145" lon="4.66587">
        <ele>573.85357666</ele>
        <time>2015-11-05T13:10:18.256Z</time>
      </trkpt>
      <trkpt lat="46.25144" lon="4.66587">
        <ele>573.821472168</ele>
        <time>2015-11-05T13:10:19.21Z</time>
      </trkpt>
      <trkpt lat="46.25137" lon="4.66595">
        <ele>573.562438965</ele>
        <time>2015-11-05T13:10:27.252Z</time>
      </trkpt>
      <trkpt lat="46.25136" lon="4.66596">
        <ele>573.473815918</ele>
        <time>2015-11-05T13:10:28.205Z</time>
      </trkpt>
      <trkpt lat="46.25129" lon="4.66602">
        <ele>573.211120605</ele>
        <time>2015-11-05T13:10:36.256Z</time>
      </trkpt>
      <trkpt lat="46.25128" lon="4.66604">
        <ele>573.227050781</ele>
        <time>2015-11-05T13:10:37.206Z</time>
      </trkpt>
      <trkpt lat="46.25122" lon="4.66611">
        <ele>572.889526367</ele>
        <time>2015-11-05T13:10:43.227Z</time>
      </trkpt>
      <trkpt lat="46.25122" lon="4.66612">
        <ele>572.823486328</ele>
        <time>2015-11-05T13:10:44.207Z</time>
      </trkpt>
      <trkpt lat="46.25116" lon="4.6662">
        <ele>572.338623047</ele>
        <time>2015-11-05T13:10:50.218Z</time>
      </trkpt>
      <trkpt lat="46.25115" lon="4.66622">
        <ele>572.224609375</ele>
        <time>2015-11-05T13:10:51.209Z</time>
      </trkpt>
      <trkpt lat="46.25109" lon="4.66631">
        <ele>571.623413086</ele>
        <time>2015-11-05T13:10:57.217Z</time>
      </trkpt>
      <trkpt lat="46.25108" lon="4.66632">
        <ele>571.529541016</ele>
        <time>2015-11-05T13:10:58.198Z</time>
      </trkpt>
      <trkpt lat="46.25101" lon="4.66639">
        <ele>570.522888184</ele>
        <time>2015-11-05T13:11:06.245Z</time>
      </trkpt>
      <trkpt lat="46.251" lon="4.6664">
        <ele>570.390625</ele>
        <time>2015-11-05T13:11:07.193Z</time>
      </trkpt>
      <trkpt lat="46.25093" lon="4.66648">
        <ele>569.909667969</ele>
        <time>2015-11-05T13:11:15.251Z</time>
      </trkpt>
      <trkpt lat="46.25093" lon="4.66649">
        <ele>569.908508301</ele>
        <time>2015-11-05T13:11:16.189Z</time>
      </trkpt>
      <trkpt lat="46.25086" lon="4.66657">
        <ele>569.314086914</ele>
        <time>2015-11-05T13:11:22.203Z</time>
      </trkpt>
      <trkpt lat="46.25085" lon="4.66658">
        <ele>569.197814941</ele>
        <time>2015-11-05T13:11:23.192Z</time>
      </trkpt>
      <trkpt lat="46.2508" lon="4.66666">
        <ele>568.251342773</ele>
        <time>2015-11-05T13:11:30.21Z</time>
      </trkpt>
      <trkpt lat="46.25078" lon="4.66667">
        <ele>568.127380371</ele>
        <time>2015-11-05T13:11:31.198Z</time>
      </trkpt>
      <trkpt lat="46.25071" lon="4.66672">
        <ele>567.608276367</ele>
        <time>2015-11-05T13:11:38.224Z</time>
      </trkpt>
      <trkpt lat="46.2507" lon="4.66673">
        <ele>567.488342285</ele>
        <time>2015-11-05T13:11:39.214Z</time>
      </trkpt>
      <trkpt lat="46.25063" lon="4.66678">
        <ele>566.589172363</ele>
        <time>2015-11-05T13:11:47.208Z</time>
      </trkpt>
      <trkpt lat="46.25061" lon="4.66679">
        <ele>566.500793457</ele>
        <time>2015-11-05T13:11:48.21Z</time>
      </trkpt>
      <trkpt lat="46.25054" lon="4.66682">
        <ele>565.945251465</ele>
        <time>2015-11-05T13:11:54.204Z</time>
      </trkpt>
      <trkpt lat="46.25053" lon="4.66682">
        <ele>565.839111328</ele>
        <time>2015-11-05T13:11:55.202Z</time>
      </trkpt>
      <trkpt lat="46.25045" lon="4.66687">
        <ele>564.98059082</ele>
        <time>2015-11-05T13:12:02.244Z</time>
      </trkpt>
      <trkpt lat="46.25044" lon="4.66688">
        <ele>564.824157715</ele>
        <time>2015-11-05T13:12:03.195Z</time>
      </trkpt>
      <trkpt lat="46.25037" lon="4.66695">
        <ele>563.676086426</ele>
        <time>2015-11-05T13:12:11.231Z</time>
      </trkpt>
      <trkpt lat="46.25036" lon="4.66696">
        <ele>563.543640137</ele>
        <time>2015-11-05T13:12:12.204Z</time>
      </trkpt>
      <trkpt lat="46.25028" lon="4.66698">
        <ele>562.471557617</ele>
        <time>2015-11-05T13:12:20.275Z</time>
      </trkpt>
      <trkpt lat="46.25027" lon="4.66699">
        <ele>562.339111328</ele>
        <time>2015-11-05T13:12:21.203Z</time>
      </trkpt>
      <trkpt lat="46.25019" lon="4.66698">
        <ele>561.148193359</ele>
        <time>2015-11-05T13:12:28.212Z</time>
      </trkpt>
      <trkpt lat="46.25017" lon="4.66698">
        <ele>560.951477051</ele>
        <time>2015-11-05T13:12:29.208Z</time>
      </trkpt>
      <trkpt lat="46.2501" lon="4.66698">
        <ele>559.784545898</ele>
        <time>2015-11-05T13:12:36.211Z</time>
      </trkpt>
      <trkpt lat="46.25008" lon="4.66698">
        <ele>559.582092285</ele>
        <time>2015-11-05T13:12:37.195Z</time>
      </trkpt>
      <trkpt lat="46.25" lon="4.667">
        <ele>557.915405273</ele>
        <time>2015-11-05T13:12:45.215Z</time>
      </trkpt>
      <trkpt lat="46.24999" lon="4.66701">
        <ele>557.708496094</ele>
        <time>2015-11-05T13:12:46.201Z</time>
      </trkpt>
      <trkpt lat="46.24992" lon="4.66706">
        <ele>556.246520996</ele>
        <time>2015-11-05T13:12:53.21Z</time>
      </trkpt>
      <trkpt lat="46.2499" lon="4.66707">
        <ele>556.031738281</ele>
        <time>2015-11-05T13:12:54.202Z</time>
      </trkpt>
      <trkpt lat="46.24982" lon="4.66711">
        <ele>554.446655273</ele>
        <time>2015-11-05T13:13:01.215Z</time>
      </trkpt>
      <trkpt lat="46.24981" lon="4.66712">
        <ele>554.195007324</ele>
        <time>2015-11-05T13:13:02.2Z</time>
      </trkpt>
      <trkpt lat="46.24975" lon="4.66719">
        <ele>552.705932617</ele>
        <time>2015-11-05T13:13:09.224Z</time>
      </trkpt>
      <trkpt lat="46.24974" lon="4.6672">
        <ele>552.467651367</ele>
        <time>2015-11-05T13:13:10.218Z</time>
      </trkpt>
      <trkpt lat="46.24966" lon="4.66724">
        <ele>551.047058105</ele>
        <time>2015-11-05T13:13:17.217Z</time>
      </trkpt>
      <trkpt lat="46.24965" lon="4.66725">
        <ele>550.858581543</ele>
        <time>2015-11-05T13:13:18.209Z</time>
      </trkpt>
      <trkpt lat="46.24958" lon="4.66732">
        <ele>549.665161133</ele>
        <time>2015-11-05T13:13:24.233Z</time>
      </trkpt>
      <trkpt lat="46.24957" lon="4.66733">
        <ele>549.440612793</ele>
        <time>2015-11-05T13:13:25.213Z</time>
      </trkpt>
      <trkpt lat="46.2495" lon="4.66738">
        <ele>547.669677734</ele>
        <time>2015-11-05T13:13:33.272Z</time>
      </trkpt>
      <trkpt lat="46.24949" lon="4.66739">
        <ele>547.470458984</ele>
        <time>2015-11-05T13:13:34.202Z</time>
      </trkpt>
      <trkpt lat="46.24941" lon="4.66745">
        <ele>546.100280762</ele>
        <time>2015-11-05T13:13:40.216Z</time>
      </trkpt>
      <trkpt lat="46.2494" lon="4.66746">
        <ele>545.817871094</ele>
        <time>2015-11-05T13:13:41.202Z</time>
      </trkpt>
      <trkpt lat="46.24934" lon="4.66752">
        <ele>543.632141113</ele>
        <time>2015-11-05T13:13:49.255Z</time>
      </trkpt>
      <trkpt lat="46.24932" lon="4.66753">
        <ele>543.390869141</ele>
        <time>2015-11-05T13:13:50.211Z</time>
      </trkpt>
      <trkpt lat="46.24925" lon="4.66758">
        <ele>541.437316895</ele>
        <time>2015-11-05T13:13:59.237Z</time>
      </trkpt>
      <trkpt lat="46.24924" lon="4.66759">
        <ele>541.27154541</ele>
        <time>2015-11-05T13:14:00.203Z</time>
      </trkpt>
      <trkpt lat="46.24917" lon="4.66765">
        <ele>540.117126465</ele>
        <time>2015-11-05T13:14:08.214Z</time>
      </trkpt>
      <trkpt lat="46.24916" lon="4.66766">
        <ele>539.942443848</ele>
        <time>2015-11-05T13:14:09.203Z</time>
      </trkpt>
      <trkpt lat="46.24909" lon="4.66772">
        <ele>539.026611328</ele>
        <time>2015-11-05T13:14:18.238Z</time>
      </trkpt>
      <trkpt lat="46.24908" lon="4.66773">
        <ele>538.951843262</ele>
        <time>2015-11-05T13:14:19.203Z</time>
      </trkpt>
      <trkpt lat="46.249" lon="4.66778">
        <ele>538.293640137</ele>
        <time>2015-11-05T13:14:25.224Z</time>
      </trkpt>
      <trkpt lat="46.24899" lon="4.66779">
        <ele>538.191589355</ele>
        <time>2015-11-05T13:14:26.204Z</time>
      </trkpt>
      <trkpt lat="46.24892" lon="4.66783">
        <ele>537.571166992</ele>
        <time>2015-11-05T13:14:32.221Z</time>
      </trkpt>
      <trkpt lat="46.24891" lon="4.66784">
        <ele>537.493774414</ele>
        <time>2015-11-05T13:14:33.215Z</time>
      </trkpt>
      <trkpt lat="46.24882" lon="4.66787">
        <ele>537.089538574</ele>
        <time>2015-11-05T13:14:39.25Z</time>
      </trkpt>
      <trkpt lat="46.24881" lon="4.66788">
        <ele>537.003540039</ele>
        <time>2015-11-05T13:14:40.209Z</time>
      </trkpt>
      <trkpt lat="46.24874" lon="4.66792">
        <ele>536.519348145</ele>
        <time>2015-11-05T13:14:47.224Z</time>
      </trkpt>
      <trkpt lat="46.24873" lon="4.66793">
        <ele>536.464477539</ele>
        <time>2015-11-05T13:14:48.209Z</time>
      </trkpt>
      <trkpt lat="46.24866" lon="4.668">
        <ele>536.033081055</ele>
        <time>2015-11-05T13:14:54.257Z</time>
      </trkpt>
      <trkpt lat="46.24865" lon="4.66801">
        <ele>535.954406738</ele>
        <time>2015-11-05T13:14:55.219Z</time>
      </trkpt>
      <trkpt lat="46.24859" lon="4.66809">
        <ele>535.145324707</ele>
        <time>2015-11-05T13:15:01.208Z</time>
      </trkpt>
      <trkpt lat="46.24858" lon="4.6681">
        <ele>535.004333496</ele>
        <time>2015-11-05T13:15:02.21Z</time>
      </trkpt>
      <trkpt lat="46.24852" lon="4.66816">
        <ele>534.413574219</ele>
        <time>2015-11-05T13:15:09.225Z</time>
      </trkpt>
      <trkpt lat="46.2485" lon="4.66817">
        <ele>534.339355469</ele>
        <time>2015-11-05T13:15:10.213Z</time>
      </trkpt>
      <trkpt lat="46.24842" lon="4.66822">
        <ele>533.53717041</ele>
        <time>2015-11-05T13:15:17.221Z</time>
      </trkpt>
      <trkpt lat="46.24842" lon="4.66823">
        <ele>533.411743164</ele>
        <time>2015-11-05T13:15:18.208Z</time>
      </trkpt>
      <trkpt lat="46.24834" lon="4.66829">
        <ele>532.354858398</ele>
        <time>2015-11-05T13:15:25.23Z</time>
      </trkpt>
      <trkpt lat="46.24833" lon="4.6683">
        <ele>532.205749512</ele>
        <time>2015-11-05T13:15:26.215Z</time>
      </trkpt>
      <trkpt lat="46.24826" lon="4.66837">
        <ele>531.262145996</ele>
        <time>2015-11-05T13:15:32.225Z</time>
      </trkpt>
      <trkpt lat="46.24825" lon="4.66839">
        <ele>531.091552734</ele>
        <time>2015-11-05T13:15:33.205Z</time>
      </trkpt>
      <trkpt lat="46.24818" lon="4.66845">
        <ele>530.080322266</ele>
        <time>2015-11-05T13:15:41.209Z</time>
      </trkpt>
      <trkpt lat="46.24817" lon="4.66846">
        <ele>529.966552734</ele>
        <time>2015-11-05T13:15:42.201Z</time>
      </trkpt>
      <trkpt lat="46.2481" lon="4.66852">
        <ele>529.38671875</ele>
        <time>2015-11-05T13:15:49.223Z</time>
      </trkpt>
      <trkpt lat="46.24809" lon="4.66853">
        <ele>529.293151855</ele>
        <time>2015-11-05T13:15:50.211Z</time>
      </trkpt>
      <trkpt lat="46.24802" lon="4.66859">
        <ele>528.82598877</ele>
        <time>2015-11-05T13:15:56.273Z</time>
      </trkpt>
      <trkpt lat="46.24801" lon="4.6686">
        <ele>528.763244629</ele>
        <time>2015-11-05T13:15:57.209Z</time>
      </trkpt>
      <trkpt lat="46.24795" lon="4.66868">
        <ele>528.054626465</ele>
        <time>2015-11-05T13:16:04.221Z</time>
      </trkpt>
      <trkpt lat="46.24794" lon="4.66869">
        <ele>527.949035645</ele>
        <time>2015-11-05T13:16:05.213Z</time>
      </trkpt>
      <trkpt lat="46.24787" lon="4.66877">
        <ele>527.034545898</ele>
        <time>2015-11-05T13:16:12.267Z</time>
      </trkpt>
      <trkpt lat="46.24786" lon="4.66879">
        <ele>526.893859863</ele>
        <time>2015-11-05T13:16:13.203Z</time>
      </trkpt>
      <trkpt lat="46.2478" lon="4.66886">
        <ele>526.015075684</ele>
        <time>2015-11-05T13:16:20.219Z</time>
      </trkpt>
      <trkpt lat="46.2478" lon="4.66888">
        <ele>525.881286621</ele>
        <time>2015-11-05T13:16:21.213Z</time>
      </trkpt>
      <trkpt lat="46.24774" lon="4.66898">
        <ele>524.966369629</ele>
        <time>2015-11-05T13:16:27.217Z</time>
      </trkpt>
      <trkpt lat="46.24774" lon="4.66899">
        <ele>524.802124023</ele>
        <time>2015-11-05T13:16:28.21Z</time>
      </trkpt>
      <trkpt lat="46.24768" lon="4.66908">
        <ele>524.078979492</ele>
        <time>2015-11-05T13:16:33.23Z</time>
      </trkpt>
      <trkpt lat="46.24767" lon="4.6691">
        <ele>523.938171387</ele>
        <time>2015-11-05T13:16:34.209Z</time>
      </trkpt>
      <trkpt lat="46.24762" lon="4.66919">
        <ele>522.790649414</ele>
        <time>2015-11-05T13:16:43.219Z</time>
      </trkpt>
      <trkpt lat="46.24761" lon="4.66921">
        <ele>522.663391113</ele>
        <time>2015-11-05T13:16:44.208Z</time>
      </trkpt>
      <trkpt lat="46.24756" lon="4.66929">
        <ele>521.87902832</ele>
        <time>2015-11-05T13:16:51.283Z</time>
      </trkpt>
      <trkpt lat="46.24755" lon="4.6693">
        <ele>521.769470215</ele>
        <time>2015-11-05T13:16:52.21Z</time>
      </trkpt>
      <trkpt lat="46.24749" lon="4.66939">
        <ele>520.797119141</ele>
        <time>2015-11-05T13:16:59.371Z</time>
      </trkpt>
      <trkpt lat="46.24748" lon="4.66939">
        <ele>520.701782227</ele>
        <time>2015-11-05T13:17:00.203Z</time>
      </trkpt>
      <trkpt lat="46.24741" lon="4.66947">
        <ele>520.155578613</ele>
        <time>2015-11-05T13:17:08.236Z</time>
      </trkpt>
      <trkpt lat="46.2474" lon="4.66948">
        <ele>520.061279297</ele>
        <time>2015-11-05T13:17:09.208Z</time>
      </trkpt>
      <trkpt lat="46.24737" lon="4.66958">
        <ele>519.515808105</ele>
        <time>2015-11-05T13:17:15.225Z</time>
      </trkpt>
      <trkpt lat="46.24736" lon="4.6696">
        <ele>519.427307129</ele>
        <time>2015-11-05T13:17:16.208Z</time>
      </trkpt>
      <trkpt lat="46.2473" lon="4.66968">
        <ele>518.430969238</ele>
        <time>2015-11-05T13:17:24.238Z</time>
      </trkpt>
      <trkpt lat="46.24728" lon="4.66969">
        <ele>518.301391602</ele>
        <time>2015-11-05T13:17:25.208Z</time>
      </trkpt>
      <trkpt lat="46.24722" lon="4.66976">
        <ele>517.883789062</ele>
        <time>2015-11-05T13:17:33.233Z</time>
      </trkpt>
      <trkpt lat="46.2472" lon="4.66977">
        <ele>517.845825195</ele>
        <time>2015-11-05T13:17:34.207Z</time>
      </trkpt>
      <trkpt lat="46.24712" lon="4.66982">
        <ele>517.855651855</ele>
        <time>2015-11-05T13:17:40.214Z</time>
      </trkpt>
      <trkpt lat="46.24712" lon="4.66982">
        <ele>517.836425781</ele>
        <time>2015-11-05T13:17:41.199Z</time>
      </trkpt>
      <trkpt lat="46.24704" lon="4.66989">
        <ele>517.529968262</ele>
        <time>2015-11-05T13:17:48.21Z</time>
      </trkpt>
      <trkpt lat="46.24703" lon="4.6699">
        <ele>517.473266602</ele>
        <time>2015-11-05T13:17:49.2Z</time>
      </trkpt>
      <trkpt lat="46.24697" lon="4.67">
        <ele>517.276916504</ele>
        <time>2015-11-05T13:17:57.21Z</time>
      </trkpt>
      <trkpt lat="46.24696" lon="4.67001">
        <ele>517.276672363</ele>
        <time>2015-11-05T13:17:58.182Z</time>
      </trkpt>
      <trkpt lat="46.24691" lon="4.67009">
        <ele>516.952453613</ele>
        <time>2015-11-05T13:18:05.215Z</time>
      </trkpt>
      <trkpt lat="46.2469" lon="4.6701">
        <ele>516.878723145</ele>
        <time>2015-11-05T13:18:06.21Z</time>
      </trkpt>
      <trkpt lat="46.24683" lon="4.67018">
        <ele>516.38067627</ele>
        <time>2015-11-05T13:18:13.236Z</time>
      </trkpt>
      <trkpt lat="46.24681" lon="4.67019">
        <ele>516.259338379</ele>
        <time>2015-11-05T13:18:14.213Z</time>
      </trkpt>
      <trkpt lat="46.24674" lon="4.67027">
        <ele>515.406921387</ele>
        <time>2015-11-05T13:18:21.219Z</time>
      </trkpt>
      <trkpt lat="46.24673" lon="4.67028">
        <ele>515.258972168</ele>
        <time>2015-11-05T13:18:22.216Z</time>
      </trkpt>
      <trkpt lat="46.24668" lon="4.67038">
        <ele>514.229064941</ele>
        <time>2015-11-05T13:18:28.21Z</time>
      </trkpt>
      <trkpt lat="46.24668" lon="4.6704">
        <ele>514.03137207</ele>
        <time>2015-11-05T13:18:29.212Z</time>
      </trkpt>
      <trkpt lat="46.24663" lon="4.67051">
        <ele>512.667724609</ele>
        <time>2015-11-05T13:18:36.212Z</time>
      </trkpt>
      <trkpt lat="46.24662" lon="4.67052">
        <ele>512.447814941</ele>
        <time>2015-11-05T13:18:37.2Z</time>
      </trkpt>
      <trkpt lat="46.24658" lon="4.67063">
        <ele>511.198120117</ele>
        <time>2015-11-05T13:18:44.213Z</time>
      </trkpt>
      <trkpt lat="46.24657" lon="4.67064">
        <ele>510.979187012</ele>
        <time>2015-11-05T13:18:45.2Z</time>
      </trkpt>
      <trkpt lat="46.24655" lon="4.67076">
        <ele>509.507965088</ele>
        <time>2015-11-05T13:18:53.216Z</time>
      </trkpt>
      <trkpt lat="46.24654" lon="4.67077">
        <ele>509.362182617</ele>
        <time>2015-11-05T13:18:54.201Z</time>
      </trkpt>
      <trkpt lat="46.24653" lon="4.67089">
        <ele>508.1144104</ele>
        <time>2015-11-05T13:19:02.215Z</time>
      </trkpt>
      <trkpt lat="46.24653" lon="4.67091">
        <ele>507.978637695</ele>
        <time>2015-11-05T13:19:03.202Z</time>
      </trkpt>
      <trkpt lat="46.24651" lon="4.67102">
        <ele>507.13192749</ele>
        <time>2015-11-05T13:19:10.216Z</time>
      </trkpt>
      <trkpt lat="46.24651" lon="4.67104">
        <ele>506.978363037</ele>
        <time>2015-11-05T13:19:11.202Z</time>
      </trkpt>
      <trkpt lat="46.24651" lon="4.67116">
        <ele>505.85256958</ele>
        <time>2015-11-05T13:19:19.247Z</time>
      </trkpt>
      <trkpt lat="46.24651" lon="4.67117">
        <ele>505.708282471</ele>
        <time>2015-11-05T13:19:20.203Z</time>
      </trkpt>
      <trkpt lat="46.2465" lon="4.67129">
        <ele>504.350158691</ele>
        <time>2015-11-05T13:19:29.224Z</time>
      </trkpt>
      <trkpt lat="46.24649" lon="4.67131">
        <ele>504.20980835</ele>
        <time>2015-11-05T13:19:30.203Z</time>
      </trkpt>
      <trkpt lat="46.24646" lon="4.67142">
        <ele>502.942657471</ele>
        <time>2015-11-05T13:19:39.233Z</time>
      </trkpt>
      <trkpt lat="46.24645" lon="4.67144">
        <ele>502.742767334</ele>
        <time>2015-11-05T13:19:40.203Z</time>
      </trkpt>
      <trkpt lat="46.2464" lon="4.67154">
        <ele>501.738586426</ele>
        <time>2015-11-05T13:19:48.227Z</time>
      </trkpt>
      <trkpt lat="46.2464" lon="4.67155">
        <ele>501.622894287</ele>
        <time>2015-11-05T13:19:49.203Z</time>
      </trkpt>
      <trkpt lat="46.24636" lon="4.67166">
        <ele>500.690460205</ele>
        <time>2015-11-05T13:19:56.418Z</time>
      </trkpt>
      <trkpt lat="46.24636" lon="4.67167">
        <ele>500.562835693</ele>
        <time>2015-11-05T13:19:57.211Z</time>
      </trkpt>
      <trkpt lat="46.24632" lon="4.67177">
        <ele>499.41506958</ele>
        <time>2015-11-05T13:20:06.25Z</time>
      </trkpt>
      <trkpt lat="46.24631" lon="4.67178">
        <ele>499.274627686</ele>
        <time>2015-11-05T13:20:07.206Z</time>
      </trkpt>
      <trkpt lat="46.24625" lon="4.67187">
        <ele>497.984802246</ele>
        <time>2015-11-05T13:20:16.222Z</time>
      </trkpt>
      <trkpt lat="46.24625" lon="4.67188">
        <ele>497.851318359</ele>
        <time>2015-11-05T13:20:17.209Z</time>
      </trkpt>
      <trkpt lat="46.24618" lon="4.67195">
        <ele>496.509643555</ele>
        <time>2015-11-05T13:20:25.229Z</time>
      </trkpt>
      <trkpt lat="46.24617" lon="4.67196">
        <ele>496.337463379</ele>
        <time>2015-11-05T13:20:26.209Z</time>
      </trkpt>
      <trkpt lat="46.2461" lon="4.67199">
        <ele>495.257995605</ele>
        <time>2015-11-05T13:20:32.239Z</time>
      </trkpt>
      <trkpt lat="46.24608" lon="4.67199">
        <ele>495.010742188</ele>
        <time>2015-11-05T13:20:33.223Z</time>
      </trkpt>
      <trkpt lat="46.24599" lon="4.67196">
        <ele>493.480712891</ele>
        <time>2015-11-05T13:20:40.231Z</time>
      </trkpt>
      <trkpt lat="46.24599" lon="4.67196">
        <ele>493.273040771</ele>
        <time>2015-11-05T13:20:41.211Z</time>
      </trkpt>
      <trkpt lat="46.24591" lon="4.67191">
        <ele>491.779022217</ele>
        <time>2015-11-05T13:20:49.244Z</time>
      </trkpt>
      <trkpt lat="46.2459" lon="4.67191">
        <ele>491.596496582</ele>
        <time>2015-11-05T13:20:50.212Z</time>
      </trkpt>
      <trkpt lat="46.24581" lon="4.67187">
        <ele>490.529693604</ele>
        <time>2015-11-05T13:20:56.22Z</time>
      </trkpt>
      <trkpt lat="46.2458" lon="4.67186">
        <ele>490.28616333</ele>
        <time>2015-11-05T13:20:57.208Z</time>
      </trkpt>
      <trkpt lat="46.24571" lon="4.67183">
        <ele>488.89263916</ele>
        <time>2015-11-05T13:21:04.218Z</time>
      </trkpt>
      <trkpt lat="46.2457" lon="4.67182">
        <ele>488.689483643</ele>
        <time>2015-11-05T13:21:05.209Z</time>
      </trkpt>
      <trkpt lat="46.24562" lon="4.6718">
        <ele>487.554290771</ele>
        <time>2015-11-05T13:21:12.221Z</time>
      </trkpt>
      <trkpt lat="46.2456" lon="4.6718">
        <ele>487.393585205</ele>
        <time>2015-11-05T13:21:13.208Z</time>
      </trkpt>
      <trkpt lat="46.24552" lon="4.67176">
        <ele>485.937011719</ele>
        <time>2015-11-05T13:21:19.218Z</time>
      </trkpt>
      <trkpt lat="46.24551" lon="4.67176">
        <ele>485.729217529</ele>
        <time>2015-11-05T13:21:20.208Z</time>
      </trkpt>
      <trkpt lat="46.24543" lon="4.67172">
        <ele>484.339660645</ele>
        <time>2015-11-05T13:21:30.219Z</time>
      </trkpt>
      <trkpt lat="46.24542" lon="4.67172">
        <ele>484.199645996</ele>
        <time>2015-11-05T13:21:31.211Z</time>
      </trkpt>
      <trkpt lat="46.24533" lon="4.67168">
        <ele>482.90927124</ele>
        <time>2015-11-05T13:21:38.218Z</time>
      </trkpt>
      <trkpt lat="46.24532" lon="4.67168">
        <ele>482.716522217</ele>
        <time>2015-11-05T13:21:39.207Z</time>
      </trkpt>
      <trkpt lat="46.24524" lon="4.67162">
        <ele>480.746337891</ele>
        <time>2015-11-05T13:21:48.217Z</time>
      </trkpt>
      <trkpt lat="46.24524" lon="4.67162">
        <ele>480.598175049</ele>
        <time>2015-11-05T13:21:49.208Z</time>
      </trkpt>
      <trkpt lat="46.24517" lon="4.67156">
        <ele>479.367340088</ele>
        <time>2015-11-05T13:21:57.236Z</time>
      </trkpt>
      <trkpt lat="46.24516" lon="4.67156">
        <ele>479.212738037</ele>
        <time>2015-11-05T13:21:58.208Z</time>
      </trkpt>
      <trkpt lat="46.24512" lon="4.67144">
        <ele>478.145568848</ele>
        <time>2015-11-05T13:22:11.217Z</time>
      </trkpt>
      <trkpt lat="46.24513" lon="4.67142">
        <ele>478.15524292</ele>
        <time>2015-11-05T13:22:12.211Z</time>
      </trkpt>
      <trkpt lat="46.24517" lon="4.67132">
        <ele>478.237579346</ele>
        <time>2015-11-05T13:22:18.22Z</time>
      </trkpt>
      <trkpt lat="46.24518" lon="4.67131">
        <ele>478.226074219</ele>
        <time>2015-11-05T13:22:19.21Z</time>
      </trkpt>
      <trkpt lat="46.24519" lon="4.67119">
        <ele>477.917694092</ele>
        <time>2015-11-05T13:22:28.228Z</time>
      </trkpt>
      <trkpt lat="46.2452" lon="4.67117">
        <ele>477.871856689</ele>
        <time>2015-11-05T13:22:29.208Z</time>
      </trkpt>
      <trkpt lat="46.24522" lon="4.67105">
        <ele>477.385162354</ele>
        <time>2015-11-05T13:22:36.218Z</time>
      </trkpt>
      <trkpt lat="46.24522" lon="4.67104">
        <ele>477.298095703</ele>
        <time>2015-11-05T13:22:37.211Z</time>
      </trkpt>
      <trkpt lat="46.24524" lon="4.67093">
        <ele>476.791168213</ele>
        <time>2015-11-05T13:22:44.228Z</time>
      </trkpt>
      <trkpt lat="46.24524" lon="4.67091">
        <ele>476.681518555</ele>
        <time>2015-11-05T13:22:45.209Z</time>
      </trkpt>
      <trkpt lat="46.24526" lon="4.67079">
        <ele>476.096252441</ele>
        <time>2015-11-05T13:22:51.252Z</time>
      </trkpt>
      <trkpt lat="46.24527" lon="4.67077">
        <ele>475.985412598</ele>
        <time>2015-11-05T13:22:52.199Z</time>
      </trkpt>
      <trkpt lat="46.24528" lon="4.67066">
        <ele>475.354125977</ele>
        <time>2015-11-05T13:22:58.216Z</time>
      </trkpt>
      <trkpt lat="46.24528" lon="4.67064">
        <ele>475.291931152</ele>
        <time>2015-11-05T13:22:59.193Z</time>
      </trkpt>
      <trkpt lat="46.24528" lon="4.67051">
        <ele>474.952331543</ele>
        <time>2015-11-05T13:23:05.221Z</time>
      </trkpt>
      <trkpt lat="46.24528" lon="4.67049">
        <ele>474.893188477</ele>
        <time>2015-11-05T13:23:06.207Z</time>
      </trkpt>
      <trkpt lat="46.24527" lon="4.67037">
        <ele>474.419921875</ele>
        <time>2015-11-05T13:23:13.232Z</time>
      </trkpt>
      <trkpt lat="46.24527" lon="4.67035">
        <ele>474.397003174</ele>
        <time>2015-11-05T13:23:14.209Z</time>
      </trkpt>
      <trkpt lat="46.24526" lon="4.67024">
        <ele>474.089782715</ele>
        <time>2015-11-05T13:23:20.255Z</time>
      </trkpt>
      <trkpt lat="46.24526" lon="4.67022">
        <ele>474.021118164</ele>
        <time>2015-11-05T13:23:21.181Z</time>
      </trkpt>
      <trkpt lat="46.24526" lon="4.67009">
        <ele>473.803131104</ele>
        <time>2015-11-05T13:23:28.219Z</time>
      </trkpt>
      <trkpt lat="46.24526" lon="4.67007">
        <ele>473.770874023</ele>
        <time>2015-11-05T13:23:29.201Z</time>
      </trkpt>
      <trkpt lat="46.24527" lon="4.66994">
        <ele>473.730529785</ele>
        <time>2015-11-05T13:23:37.339Z</time>
      </trkpt>
      <trkpt lat="46.24527" lon="4.66992">
        <ele>473.707275391</ele>
        <time>2015-11-05T13:23:38.209Z</time>
      </trkpt>
      <trkpt lat="46.2453" lon="4.66981">
        <ele>473.357788086</ele>
        <time>2015-11-05T13:23:44.217Z</time>
      </trkpt>
      <trkpt lat="46.24531" lon="4.66979">
        <ele>473.333526611</ele>
        <time>2015-11-05T13:23:45.21Z</time>
      </trkpt>
      <trkpt lat="46.24535" lon="4.66968">
        <ele>473.144958496</ele>
        <time>2015-11-05T13:23:54.224Z</time>
      </trkpt>
      <trkpt lat="46.24536" lon="4.66967">
        <ele>473.079803467</ele>
        <time>2015-11-05T13:23:55.208Z</time>
      </trkpt>
      <trkpt lat="46.2454" lon="4.66955">
        <ele>472.785400391</ele>
        <time>2015-11-05T13:24:02.217Z</time>
      </trkpt>
      <trkpt lat="46.2454" lon="4.66953">
        <ele>472.762634277</ele>
        <time>2015-11-05T13:24:03.21Z</time>
      </trkpt>
      <trkpt lat="46.24544" lon="4.66943">
        <ele>472.348266602</ele>
        <time>2015-11-05T13:24:10.224Z</time>
      </trkpt>
      <trkpt lat="46.24545" lon="4.66941">
        <ele>472.239654541</ele>
        <time>2015-11-05T13:24:11.208Z</time>
      </trkpt>
      <trkpt lat="46.24548" lon="4.66929">
        <ele>470.952026367</ele>
        <time>2015-11-05T13:24:18.221Z</time>
      </trkpt>
      <trkpt lat="46.24549" lon="4.66928">
        <ele>470.72668457</ele>
        <time>2015-11-05T13:24:19.213Z</time>
      </trkpt>
      <trkpt lat="46.2455" lon="4.66917">
        <ele>469.480529785</ele>
        <time>2015-11-05T13:24:25.345Z</time>
      </trkpt>
      <trkpt lat="46.24551" lon="4.66915">
        <ele>469.29107666</ele>
        <time>2015-11-05T13:24:26.211Z</time>
      </trkpt>
      <trkpt lat="46.24553" lon="4.66903">
        <ele>468.002380371</ele>
        <time>2015-11-05T13:24:38.234Z</time>
      </trkpt>
      <trkpt lat="46.24554" lon="4.66902">
        <ele>467.949493408</ele>
        <time>2015-11-05T13:24:39.201Z</time>
      </trkpt>
      <trkpt lat="46.24551" lon="4.66891">
        <ele>468.309844971</ele>
        <time>2015-11-05T13:24:57.221Z</time>
      </trkpt>
      <trkpt lat="46.2455" lon="4.6689">
        <ele>468.313140869</ele>
        <time>2015-11-05T13:24:58.203Z</time>
      </trkpt>
      <trkpt lat="46.24541" lon="4.66884">
        <ele>468.341827393</ele>
        <time>2015-11-05T13:25:08.216Z</time>
      </trkpt>
      <trkpt lat="46.2454" lon="4.66884">
        <ele>468.279510498</ele>
        <time>2015-11-05T13:25:09.219Z</time>
      </trkpt>
      <trkpt lat="46.24533" lon="4.66878">
        <ele>466.864959717</ele>
        <time>2015-11-05T13:25:21.229Z</time>
      </trkpt>
      <trkpt lat="46.24532" lon="4.66878">
        <ele>466.856811523</ele>
        <time>2015-11-05T13:25:22.206Z</time>
      </trkpt>
      <trkpt lat="46.24525" lon="4.66874">
        <ele>466.649200439</ele>
        <time>2015-11-05T13:25:26.243Z</time>
      </trkpt>
      <trkpt lat="46.24523" lon="4.66874">
        <ele>466.552825928</ele>
        <time>2015-11-05T13:25:27.208Z</time>
      </trkpt>
      <trkpt lat="46.24515" lon="4.66877">
        <ele>465.971740723</ele>
        <time>2015-11-05T13:25:33.237Z</time>
      </trkpt>
      <trkpt lat="46.24514" lon="4.66879">
        <ele>465.859161377</ele>
        <time>2015-11-05T13:25:34.211Z</time>
      </trkpt>
      <trkpt lat="46.24507" lon="4.66886">
        <ele>464.768096924</ele>
        <time>2015-11-05T13:25:42.239Z</time>
      </trkpt>
      <trkpt lat="46.24506" lon="4.66887">
        <ele>464.671020508</ele>
        <time>2015-11-05T13:25:43.219Z</time>
      </trkpt>
      <trkpt lat="46.24498" lon="4.66893">
        <ele>463.741912842</ele>
        <time>2015-11-05T13:25:50.216Z</time>
      </trkpt>
      <trkpt lat="46.24498" lon="4.66894">
        <ele>463.624969482</ele>
        <time>2015-11-05T13:25:51.205Z</time>
      </trkpt>
      <trkpt lat="46.24489" lon="4.66898">
        <ele>462.781158447</ele>
        <time>2015-11-05T13:25:59.243Z</time>
      </trkpt>
      <trkpt lat="46.24488" lon="4.66899">
        <ele>462.602416992</ele>
        <time>2015-11-05T13:26:00.21Z</time>
      </trkpt>
      <trkpt lat="46.24481" lon="4.66903">
        <ele>461.546478271</ele>
        <time>2015-11-05T13:26:09.226Z</time>
      </trkpt>
      <trkpt lat="46.2448" lon="4.66903">
        <ele>461.421630859</ele>
        <time>2015-11-05T13:26:10.205Z</time>
      </trkpt>
      <trkpt lat="46.24472" lon="4.66907">
        <ele>457.342041016</ele>
        <time>2015-11-05T13:26:39.199Z</time>
      </trkpt>
      <trkpt lat="46.24471" lon="4.66907">
        <ele>457.086425781</ele>
        <time>2015-11-05T13:26:40.188Z</time>
      </trkpt>
      <trkpt lat="46.24463" lon="4.66908">
        <ele>455.090454102</ele>
        <time>2015-11-05T13:26:50.334Z</time>
      </trkpt>
      <trkpt lat="46.24462" lon="4.66908">
        <ele>455.086730957</ele>
        <time>2015-11-05T13:26:51.184Z</time>
      </trkpt>
      <trkpt lat="46.24454" lon="4.66909">
        <ele>455.202087402</ele>
        <time>2015-11-05T13:26:59.22Z</time>
      </trkpt>
      <trkpt lat="46.24452" lon="4.6691">
        <ele>455.147857666</ele>
        <time>2015-11-05T13:27:00.197Z</time>
      </trkpt>
      <trkpt lat="46.24444" lon="4.66908">
        <ele>454.740509033</ele>
        <time>2015-11-05T13:27:07.207Z</time>
      </trkpt>
      <trkpt lat="46.24443" lon="4.66907">
        <ele>454.635101318</ele>
        <time>2015-11-05T13:27:08.2Z</time>
      </trkpt>
      <trkpt lat="46.24435" lon="4.66902">
        <ele>453.133270264</ele>
        <time>2015-11-05T13:27:17.22Z</time>
      </trkpt>
      <trkpt lat="46.24434" lon="4.66902">
        <ele>452.972106934</ele>
        <time>2015-11-05T13:27:18.198Z</time>
      </trkpt>
      <trkpt lat="46.24425" lon="4.66902">
        <ele>450.836608887</ele>
        <time>2015-11-05T13:27:28.214Z</time>
      </trkpt>
      <trkpt lat="46.24424" lon="4.66901">
        <ele>450.592132568</ele>
        <time>2015-11-05T13:27:29.198Z</time>
      </trkpt>
      <trkpt lat="46.24416" lon="4.66901">
        <ele>448.649902344</ele>
        <time>2015-11-05T13:27:37.213Z</time>
      </trkpt>
      <trkpt lat="46.24415" lon="4.669">
        <ele>448.44833374</ele>
        <time>2015-11-05T13:27:38.176Z</time>
      </trkpt>
      <trkpt lat="46.24407" lon="4.66904">
        <ele>447.029785156</ele>
        <time>2015-11-05T13:27:47.22Z</time>
      </trkpt>
      <trkpt lat="46.24406" lon="4.66905">
        <ele>446.823577881</ele>
        <time>2015-11-05T13:27:48.208Z</time>
      </trkpt>
      <trkpt lat="46.24398" lon="4.6691">
        <ele>444.895568848</ele>
        <time>2015-11-05T13:27:59.22Z</time>
      </trkpt>
      <trkpt lat="46.24397" lon="4.66911">
        <ele>444.643981934</ele>
        <time>2015-11-05T13:28:00.198Z</time>
      </trkpt>
      <trkpt lat="46.24389" lon="4.66915">
        <ele>443.039550781</ele>
        <time>2015-11-05T13:28:11.209Z</time>
      </trkpt>
      <trkpt lat="46.24388" lon="4.66915">
        <ele>442.880249023</ele>
        <time>2015-11-05T13:28:12.2Z</time>
      </trkpt>
      <trkpt lat="46.24379" lon="4.66915">
        <ele>441.629150391</ele>
        <time>2015-11-05T13:28:21.212Z</time>
      </trkpt>
      <trkpt lat="46.24378" lon="4.66915">
        <ele>441.394470215</ele>
        <time>2015-11-05T13:28:22.198Z</time>
      </trkpt>
      <trkpt lat="46.2437" lon="4.66915">
        <ele>438.677062988</ele>
        <time>2015-11-05T13:28:32.206Z</time>
      </trkpt>
      <trkpt lat="46.24369" lon="4.66914">
        <ele>438.463806152</ele>
        <time>2015-11-05T13:28:33.206Z</time>
      </trkpt>
      <trkpt lat="46.2436" lon="4.66914">
        <ele>437.30859375</ele>
        <time>2015-11-05T13:28:39.213Z</time>
      </trkpt>
      <trkpt lat="46.24359" lon="4.66913">
        <ele>437.080718994</ele>
        <time>2015-11-05T13:28:40.199Z</time>
      </trkpt>
      <trkpt lat="46.24351" lon="4.66908">
        <ele>434.434417725</ele>
        <time>2015-11-05T13:28:52.22Z</time>
      </trkpt>
      <trkpt lat="46.2435" lon="4.66907">
        <ele>434.215881348</ele>
        <time>2015-11-05T13:28:53.208Z</time>
      </trkpt>
      <trkpt lat="46.24345" lon="4.66898">
        <ele>432.28036499</ele>
        <time>2015-11-05T13:29:01.229Z</time>
      </trkpt>
      <trkpt lat="46.24345" lon="4.66896">
        <ele>432.044372559</ele>
        <time>2015-11-05T13:29:02.234Z</time>
      </trkpt>
      <trkpt lat="46.24346" lon="4.66884">
        <ele>429.940063477</ele>
        <time>2015-11-05T13:29:12.215Z</time>
      </trkpt>
      <trkpt lat="46.24347" lon="4.66882">
        <ele>429.891571045</ele>
        <time>2015-11-05T13:29:13.208Z</time>
      </trkpt>
      <trkpt lat="46.24349" lon="4.66871">
        <ele>429.05065918</ele>
        <time>2015-11-05T13:29:20.219Z</time>
      </trkpt>
      <trkpt lat="46.24349" lon="4.66869">
        <ele>428.864227295</ele>
        <time>2015-11-05T13:29:21.207Z</time>
      </trkpt>
      <trkpt lat="46.24349" lon="4.66856">
        <ele>427.28012085</ele>
        <time>2015-11-05T13:29:28.232Z</time>
      </trkpt>
      <trkpt lat="46.24348" lon="4.66855">
        <ele>427.050262451</ele>
        <time>2015-11-05T13:29:29.208Z</time>
      </trkpt>
      <trkpt lat="46.2434" lon="4.6685">
        <ele>424.779083252</ele>
        <time>2015-11-05T13:29:40.218Z</time>
      </trkpt>
      <trkpt lat="46.24339" lon="4.6685">
        <ele>424.609313965</ele>
        <time>2015-11-05T13:29:41.208Z</time>
      </trkpt>
      <trkpt lat="46.24331" lon="4.66849">
        <ele>423.548736572</ele>
        <time>2015-11-05T13:29:48.259Z</time>
      </trkpt>
      <trkpt lat="46.2433" lon="4.66849">
        <ele>423.365112305</ele>
        <time>2015-11-05T13:29:49.202Z</time>
      </trkpt>
      <trkpt lat="46.24321" lon="4.66847">
        <ele>421.81552124</ele>
        <time>2015-11-05T13:29:59.295Z</time>
      </trkpt>
      <trkpt lat="46.2432" lon="4.66847">
        <ele>421.640075684</ele>
        <time>2015-11-05T13:30:00.203Z</time>
      </trkpt>
      <trkpt lat="46.24315" lon="4.66837">
        <ele>420.816711426</ele>
        <time>2015-11-05T13:30:19.224Z</time>
      </trkpt>
      <trkpt lat="46.24315" lon="4.66836">
        <ele>420.839385986</ele>
        <time>2015-11-05T13:30:20.203Z</time>
      </trkpt>
      <trkpt lat="46.24307" lon="4.66843">
        <ele>418.434844971</ele>
        <time>2015-11-05T13:31:42.26Z</time>
      </trkpt>
      <trkpt lat="46.24306" lon="4.66844">
        <ele>417.866821289</ele>
        <time>2015-11-05T13:31:43.184Z</time>
      </trkpt>
      <trkpt lat="46.24302" lon="4.66854">
        <ele>413.219543457</ele>
        <time>2015-11-05T13:31:50.204Z</time>
      </trkpt>
      <trkpt lat="46.24302" lon="4.66857">
        <ele>412.302886963</ele>
        <time>2015-11-05T13:31:51.204Z</time>
      </trkpt>
      <trkpt lat="46.24293" lon="4.66853">
        <ele>401.608642578</ele>
        <time>2015-11-05T13:33:25.212Z</time>
      </trkpt>
      <trkpt lat="46.24292" lon="4.66854">
        <ele>401.45401001</ele>
        <time>2015-11-05T13:33:26.21Z</time>
      </trkpt>
      <trkpt lat="46.24284" lon="4.66859">
        <ele>405.894836426</ele>
        <time>2015-11-05T13:33:46.209Z</time>
      </trkpt>
      <trkpt lat="46.24283" lon="4.66861">
        <ele>406.305267334</ele>
        <time>2015-11-05T13:33:47.202Z</time>
      </trkpt>
      <trkpt lat="46.24276" lon="4.66868">
        <ele>408.703399658</ele>
        <time>2015-11-05T13:34:25.215Z</time>
      </trkpt>
      <trkpt lat="46.24275" lon="4.6687">
        <ele>408.896942139</ele>
        <time>2015-11-05T13:34:26.202Z</time>
      </trkpt>
      <trkpt lat="46.2427" lon="4.66879">
        <ele>409.981506348</ele>
        <time>2015-11-05T13:34:36.23Z</time>
      </trkpt>
      <trkpt lat="46.2427" lon="4.66881">
        <ele>410.033538818</ele>
        <time>2015-11-05T13:34:37.197Z</time>
      </trkpt>
      <trkpt lat="46.24267" lon="4.66891">
        <ele>410.045623779</ele>
        <time>2015-11-05T13:34:45.243Z</time>
      </trkpt>
      <trkpt lat="46.24266" lon="4.66893">
        <ele>409.955810547</ele>
        <time>2015-11-05T13:34:46.199Z</time>
      </trkpt>
      <trkpt lat="46.24264" lon="4.66905">
        <ele>409.081268311</ele>
        <time>2015-11-05T13:34:53.215Z</time>
      </trkpt>
      <trkpt lat="46.24263" lon="4.66907">
        <ele>408.9375</ele>
        <time>2015-11-05T13:34:54.202Z</time>
      </trkpt>
      <trkpt lat="46.2426" lon="4.66918">
        <ele>407.43145752</ele>
        <time>2015-11-05T13:35:02.222Z</time>
      </trkpt>
      <trkpt lat="46.2426" lon="4.66919">
        <ele>407.183807373</ele>
        <time>2015-11-05T13:35:03.2Z</time>
      </trkpt>
      <trkpt lat="46.24256" lon="4.66931">
        <ele>405.876739502</ele>
        <time>2015-11-05T13:35:10.237Z</time>
      </trkpt>
      <trkpt lat="46.24256" lon="4.66932">
        <ele>405.771087646</ele>
        <time>2015-11-05T13:35:11.208Z</time>
      </trkpt>
      <trkpt lat="46.24253" lon="4.66945">
        <ele>405.389678955</ele>
        <time>2015-11-05T13:35:17.224Z</time>
      </trkpt>
      <trkpt lat="46.24253" lon="4.66946">
        <ele>405.314941406</ele>
        <time>2015-11-05T13:35:18.204Z</time>
      </trkpt>
      <trkpt lat="46.24253" lon="4.66959">
        <ele>404.334960938</ele>
        <time>2015-11-05T13:35:25.238Z</time>
      </trkpt>
      <trkpt lat="46.24253" lon="4.66961">
        <ele>404.158172607</ele>
        <time>2015-11-05T13:35:26.209Z</time>
      </trkpt>
      <trkpt lat="46.24253" lon="4.66973">
        <ele>403.548248291</ele>
        <time>2015-11-05T13:35:31.224Z</time>
      </trkpt>
      <trkpt lat="46.24253" lon="4.66974">
        <ele>403.545562744</ele>
        <time>2015-11-05T13:35:32.202Z</time>
      </trkpt>
      <trkpt lat="46.24257" lon="4.66986">
        <ele>403.073760986</ele>
        <time>2015-11-05T13:35:39.233Z</time>
      </trkpt>
      <trkpt lat="46.24257" lon="4.66987">
        <ele>402.970336914</ele>
        <time>2015-11-05T13:35:40.202Z</time>
      </trkpt>
      <trkpt lat="46.24259" lon="4.66999">
        <ele>402.291259766</ele>
        <time>2015-11-05T13:35:46.218Z</time>
      </trkpt>
      <trkpt lat="46.2426" lon="4.67001">
        <ele>402.21105957</ele>
        <time>2015-11-05T13:35:47.202Z</time>
      </trkpt>
      <trkpt lat="46.24262" lon="4.67014">
        <ele>402.219482422</ele>
        <time>2015-11-05T13:35:55.216Z</time>
      </trkpt>
      <trkpt lat="46.24262" lon="4.67015">
        <ele>402.22744751</ele>
        <time>2015-11-05T13:35:56.207Z</time>
      </trkpt>
      <trkpt lat="46.24262" lon="4.67028">
        <ele>401.96496582</ele>
        <time>2015-11-05T13:36:02.218Z</time>
      </trkpt>
      <trkpt lat="46.24262" lon="4.6703">
        <ele>401.9012146</ele>
        <time>2015-11-05T13:36:03.206Z</time>
      </trkpt>
      <trkpt lat="46.24264" lon="4.67042">
        <ele>401.470214844</ele>
        <time>2015-11-05T13:36:09.278Z</time>
      </trkpt>
      <trkpt lat="46.24264" lon="4.67044">
        <ele>401.343994141</ele>
        <time>2015-11-05T13:36:10.205Z</time>
      </trkpt>
      <trkpt lat="46.24266" lon="4.67056">
        <ele>400.594818115</ele>
        <time>2015-11-05T13:36:17.245Z</time>
      </trkpt>
      <trkpt lat="46.24266" lon="4.67058">
        <ele>400.503448486</ele>
        <time>2015-11-05T13:36:18.221Z</time>
      </trkpt>
      <trkpt lat="46.24266" lon="4.6707">
        <ele>399.994049072</ele>
        <time>2015-11-05T13:36:25.224Z</time>
      </trkpt>
      <trkpt lat="46.24266" lon="4.67071">
        <ele>399.993865967</ele>
        <time>2015-11-05T13:36:26.19Z</time>
      </trkpt>
      <trkpt lat="46.24267" lon="4.67082">
        <ele>400.462646484</ele>
        <time>2015-11-05T13:36:33.359Z</time>
      </trkpt>
      <trkpt lat="46.24267" lon="4.67084">
        <ele>400.500427246</ele>
        <time>2015-11-05T13:36:34.224Z</time>
      </trkpt>
      <trkpt lat="46.24268" lon="4.67097">
        <ele>400.888427734</ele>
        <time>2015-11-05T13:36:42.2Z</time>
      </trkpt>
      <trkpt lat="46.24268" lon="4.67098">
        <ele>400.914520264</ele>
        <time>2015-11-05T13:36:43.194Z</time>
      </trkpt>
      <trkpt lat="46.24267" lon="4.6711">
        <ele>400.627807617</ele>
        <time>2015-11-05T13:36:49.348Z</time>
      </trkpt>
      <trkpt lat="46.24266" lon="4.67112">
        <ele>400.454162598</ele>
        <time>2015-11-05T13:36:50.193Z</time>
      </trkpt>
      <trkpt lat="46.24265" lon="4.67122">
        <ele>399.442443848</ele>
        <time>2015-11-05T13:36:55.252Z</time>
      </trkpt>
      <trkpt lat="46.24264" lon="4.67124">
        <ele>399.204833984</ele>
        <time>2015-11-05T13:36:56.197Z</time>
      </trkpt>
      <trkpt lat="46.24261" lon="4.67134">
        <ele>398.0284729</ele>
        <time>2015-11-05T13:37:02.222Z</time>
      </trkpt>
      <trkpt lat="46.2426" lon="4.67136">
        <ele>397.863708496</ele>
        <time>2015-11-05T13:37:03.185Z</time>
      </trkpt>
      <trkpt lat="46.24256" lon="4.67147">
        <ele>396.939605713</ele>
        <time>2015-11-05T13:37:10.205Z</time>
      </trkpt>
      <trkpt lat="46.24255" lon="4.67149">
        <ele>396.795806885</ele>
        <time>2015-11-05T13:37:11.194Z</time>
      </trkpt>
      <trkpt lat="46.2425" lon="4.67158">
        <ele>395.91885376</ele>
        <time>2015-11-05T13:37:17.208Z</time>
      </trkpt>
      <trkpt lat="46.2425" lon="4.67159">
        <ele>395.71987915</ele>
        <time>2015-11-05T13:37:18.196Z</time>
      </trkpt>
      <trkpt lat="46.24244" lon="4.67169">
        <ele>394.456512451</ele>
        <time>2015-11-05T13:37:25.202Z</time>
      </trkpt>
      <trkpt lat="46.24243" lon="4.67171">
        <ele>394.219512939</ele>
        <time>2015-11-05T13:37:26.171Z</time>
      </trkpt>
      <trkpt lat="46.24239" lon="4.67181">
        <ele>394.086761475</ele>
        <time>2015-11-05T13:37:33.246Z</time>
      </trkpt>
      <trkpt lat="46.24239" lon="4.67183">
        <ele>394.106628418</ele>
        <time>2015-11-05T13:37:34.19Z</time>
      </trkpt>
      <trkpt lat="46.24234" lon="4.67192">
        <ele>394.114929199</ele>
        <time>2015-11-05T13:37:40.206Z</time>
      </trkpt>
      <trkpt lat="46.24233" lon="4.67194">
        <ele>394.120300293</ele>
        <time>2015-11-05T13:37:41.186Z</time>
      </trkpt>
      <trkpt lat="46.24229" lon="4.67203">
        <ele>394.159118652</ele>
        <time>2015-11-05T13:37:47.205Z</time>
      </trkpt>
      <trkpt lat="46.24229" lon="4.67205">
        <ele>394.127532959</ele>
        <time>2015-11-05T13:37:48.19Z</time>
      </trkpt>
      <trkpt lat="46.24225" lon="4.67216">
        <ele>393.990631104</ele>
        <time>2015-11-05T13:37:54.206Z</time>
      </trkpt>
      <trkpt lat="46.24225" lon="4.67218">
        <ele>394.013122559</ele>
        <time>2015-11-05T13:37:55.19Z</time>
      </trkpt>
      <trkpt lat="46.24221" lon="4.67229">
        <ele>394.193969727</ele>
        <time>2015-11-05T13:38:01.224Z</time>
      </trkpt>
      <trkpt lat="46.24221" lon="4.67231">
        <ele>394.149353027</ele>
        <time>2015-11-05T13:38:02.199Z</time>
      </trkpt>
      <trkpt lat="46.24216" lon="4.67241">
        <ele>393.116851807</ele>
        <time>2015-11-05T13:38:08.213Z</time>
      </trkpt>
      <trkpt lat="46.24216" lon="4.67242">
        <ele>393.012359619</ele>
        <time>2015-11-05T13:38:09.216Z</time>
      </trkpt>
      <trkpt lat="46.24211" lon="4.67252">
        <ele>393.07989502</ele>
        <time>2015-11-05T13:38:15.207Z</time>
      </trkpt>
      <trkpt lat="46.24211" lon="4.67254">
        <ele>393.162963867</ele>
        <time>2015-11-05T13:38:16.202Z</time>
      </trkpt>
      <trkpt lat="46.24206" lon="4.67265">
        <ele>393.990692139</ele>
        <time>2015-11-05T13:38:23.21Z</time>
      </trkpt>
      <trkpt lat="46.24206" lon="4.67267">
        <ele>394.16015625</ele>
        <time>2015-11-05T13:38:24.199Z</time>
      </trkpt>
      <trkpt lat="46.24202" lon="4.67277">
        <ele>394.84387207</ele>
        <time>2015-11-05T13:38:29.224Z</time>
      </trkpt>
      <trkpt lat="46.24201" lon="4.67278">
        <ele>394.984375</ele>
        <time>2015-11-05T13:38:30.199Z</time>
      </trkpt>
      <trkpt lat="46.24196" lon="4.67287">
        <ele>395.879882812</ele>
        <time>2015-11-05T13:38:36.227Z</time>
      </trkpt>
      <trkpt lat="46.24195" lon="4.67289">
        <ele>395.956756592</ele>
        <time>2015-11-05T13:38:37.217Z</time>
      </trkpt>
      <trkpt lat="46.2419" lon="4.67298">
        <ele>396.702026367</ele>
        <time>2015-11-05T13:38:43.211Z</time>
      </trkpt>
      <trkpt lat="46.24189" lon="4.67299">
        <ele>396.888824463</ele>
        <time>2015-11-05T13:38:44.23Z</time>
      </trkpt>
      <trkpt lat="46.24184" lon="4.67309">
        <ele>397.550323486</ele>
        <time>2015-11-05T13:38:50.209Z</time>
      </trkpt>
      <trkpt lat="46.24184" lon="4.67311">
        <ele>397.516845703</ele>
        <time>2015-11-05T13:38:51.201Z</time>
      </trkpt>
      <trkpt lat="46.24179" lon="4.6732">
        <ele>397.378814697</ele>
        <time>2015-11-05T13:38:57.215Z</time>
      </trkpt>
      <trkpt lat="46.24179" lon="4.67321">
        <ele>397.380065918</ele>
        <time>2015-11-05T13:38:58.203Z</time>
      </trkpt>
      <trkpt lat="46.24173" lon="4.67331">
        <ele>397.448272705</ele>
        <time>2015-11-05T13:39:05.22Z</time>
      </trkpt>
      <trkpt lat="46.24172" lon="4.67333">
        <ele>397.455505371</ele>
        <time>2015-11-05T13:39:06.191Z</time>
      </trkpt>
      <trkpt lat="46.24167" lon="4.67343">
        <ele>397.538665771</ele>
        <time>2015-11-05T13:39:13.208Z</time>
      </trkpt>
      <trkpt lat="46.24167" lon="4.67345">
        <ele>397.623931885</ele>
        <time>2015-11-05T13:39:14.218Z</time>
      </trkpt>
      <trkpt lat="46.24162" lon="4.67354">
        <ele>398.023773193</ele>
        <time>2015-11-05T13:39:20.205Z</time>
      </trkpt>
      <trkpt lat="46.24162" lon="4.67356">
        <ele>398.053771973</ele>
        <time>2015-11-05T13:39:21.197Z</time>
      </trkpt>
      <trkpt lat="46.24158" lon="4.67367">
        <ele>398.119934082</ele>
        <time>2015-11-05T13:39:27.226Z</time>
      </trkpt>
      <trkpt lat="46.24157" lon="4.67368">
        <ele>398.121124268</ele>
        <time>2015-11-05T13:39:28.194Z</time>
      </trkpt>
      <trkpt lat="46.24152" lon="4.67378">
        <ele>398.3152771</ele>
        <time>2015-11-05T13:39:35.206Z</time>
      </trkpt>
      <trkpt lat="46.24151" lon="4.6738">
        <ele>398.341308594</ele>
        <time>2015-11-05T13:39:36.193Z</time>
      </trkpt>
      <trkpt lat="46.24147" lon="4.6739">
        <ele>398.476348877</ele>
        <time>2015-11-05T13:39:42.238Z</time>
      </trkpt>
      <trkpt lat="46.24146" lon="4.67392">
        <ele>398.457061768</ele>
        <time>2015-11-05T13:39:43.196Z</time>
      </trkpt>
      <trkpt lat="46.24141" lon="4.67402">
        <ele>398.527587891</ele>
        <time>2015-11-05T13:39:49.217Z</time>
      </trkpt>
      <trkpt lat="46.2414" lon="4.67404">
        <ele>398.569519043</ele>
        <time>2015-11-05T13:39:50.2Z</time>
      </trkpt>
      <trkpt lat="46.24136" lon="4.67414">
        <ele>398.769958496</ele>
        <time>2015-11-05T13:39:56.212Z</time>
      </trkpt>
      <trkpt lat="46.24135" lon="4.67415">
        <ele>398.730834961</ele>
        <time>2015-11-05T13:39:57.2Z</time>
      </trkpt>
      <trkpt lat="46.24131" lon="4.67425">
        <ele>398.894592285</ele>
        <time>2015-11-05T13:40:03.218Z</time>
      </trkpt>
      <trkpt lat="46.24131" lon="4.67427">
        <ele>398.940307617</ele>
        <time>2015-11-05T13:40:04.2Z</time>
      </trkpt>
      <trkpt lat="46.24126" lon="4.67438">
        <ele>399.145904541</ele>
        <time>2015-11-05T13:40:11.21Z</time>
      </trkpt>
      <trkpt lat="46.24126" lon="4.6744">
        <ele>399.134307861</ele>
        <time>2015-11-05T13:40:12.201Z</time>
      </trkpt>
      <trkpt lat="46.24121" lon="4.67449">
        <ele>399.029022217</ele>
        <time>2015-11-05T13:40:18.245Z</time>
      </trkpt>
      <trkpt lat="46.24121" lon="4.67451">
        <ele>398.976898193</ele>
        <time>2015-11-05T13:40:19.199Z</time>
      </trkpt>
      <trkpt lat="46.24117" lon="4.67461">
        <ele>398.941741943</ele>
        <time>2015-11-05T13:40:25.217Z</time>
      </trkpt>
      <trkpt lat="46.24117" lon="4.67463">
        <ele>398.95010376</ele>
        <time>2015-11-05T13:40:26.186Z</time>
      </trkpt>
      <trkpt lat="46.24114" lon="4.67474">
        <ele>398.893127441</ele>
        <time>2015-11-05T13:40:32.214Z</time>
      </trkpt>
      <trkpt lat="46.24113" lon="4.67476">
        <ele>398.914154053</ele>
        <time>2015-11-05T13:40:33.2Z</time>
      </trkpt>
      <trkpt lat="46.2411" lon="4.67487">
        <ele>398.906463623</ele>
        <time>2015-11-05T13:40:39.222Z</time>
      </trkpt>
      <trkpt lat="46.2411" lon="4.67489">
        <ele>398.922729492</ele>
        <time>2015-11-05T13:40:40.2Z</time>
      </trkpt>
      <trkpt lat="46.24108" lon="4.67501">
        <ele>399.179443359</ele>
        <time>2015-11-05T13:40:45.247Z</time>
      </trkpt>
      <trkpt lat="46.24108" lon="4.67503">
        <ele>399.224639893</ele>
        <time>2015-11-05T13:40:46.201Z</time>
      </trkpt>
      <trkpt lat="46.24106" lon="4.67515">
        <ele>399.660827637</ele>
        <time>2015-11-05T13:40:52.229Z</time>
      </trkpt>
      <trkpt lat="46.24106" lon="4.67517">
        <ele>399.786651611</ele>
        <time>2015-11-05T13:40:53.19Z</time>
      </trkpt>
      <trkpt lat="46.24106" lon="4.67528">
        <ele>400.662902832</ele>
        <time>2015-11-05T13:41:00.215Z</time>
      </trkpt>
      <trkpt lat="46.24107" lon="4.6753">
        <ele>400.723449707</ele>
        <time>2015-11-05T13:41:01.202Z</time>
      </trkpt>
      <trkpt lat="46.2411" lon="4.6754">
        <ele>401.199462891</ele>
        <time>2015-11-05T13:41:07.215Z</time>
      </trkpt>
      <trkpt lat="46.24111" lon="4.67542">
        <ele>401.262329102</ele>
        <time>2015-11-05T13:41:08.201Z</time>
      </trkpt>
      <trkpt lat="46.24115" lon="4.67552">
        <ele>401.495941162</ele>
        <time>2015-11-05T13:41:14.218Z</time>
      </trkpt>
      <trkpt lat="46.24116" lon="4.67553">
        <ele>401.593292236</ele>
        <time>2015-11-05T13:41:15.202Z</time>
      </trkpt>
      <trkpt lat="46.24121" lon="4.67561">
        <ele>401.989318848</ele>
        <time>2015-11-05T13:41:22.214Z</time>
      </trkpt>
      <trkpt lat="46.24122" lon="4.67562">
        <ele>402.066680908</ele>
        <time>2015-11-05T13:41:23.202Z</time>
      </trkpt>
      <trkpt lat="46.24129" lon="4.67566">
        <ele>402.594329834</ele>
        <time>2015-11-05T13:41:29.219Z</time>
      </trkpt>
      <trkpt lat="46.24131" lon="4.67567">
        <ele>402.646209717</ele>
        <time>2015-11-05T13:41:30.189Z</time>
      </trkpt>
      <trkpt lat="46.24138" lon="4.67573">
        <ele>403.083831787</ele>
        <time>2015-11-05T13:41:38.23Z</time>
      </trkpt>
      <trkpt lat="46.24139" lon="4.67574">
        <ele>403.048553467</ele>
        <time>2015-11-05T13:41:39.202Z</time>
      </trkpt>
      <trkpt lat="46.24146" lon="4.6758">
        <ele>403.262420654</ele>
        <time>2015-11-05T13:41:47.237Z</time>
      </trkpt>
      <trkpt lat="46.24147" lon="4.67582">
        <ele>403.359558105</ele>
        <time>2015-11-05T13:41:48.201Z</time>
      </trkpt>
      <trkpt lat="46.24151" lon="4.67592">
        <ele>403.793823242</ele>
        <time>2015-11-05T13:41:54.237Z</time>
      </trkpt>
      <trkpt lat="46.24152" lon="4.67594">
        <ele>403.910675049</ele>
        <time>2015-11-05T13:41:55.218Z</time>
      </trkpt>
      <trkpt lat="46.24156" lon="4.67603">
        <ele>405.024749756</ele>
        <time>2015-11-05T13:42:03.205Z</time>
      </trkpt>
      <trkpt lat="46.24157" lon="4.67605">
        <ele>405.154632568</ele>
        <time>2015-11-05T13:42:04.209Z</time>
      </trkpt>
      <trkpt lat="46.24162" lon="4.67615">
        <ele>405.593994141</ele>
        <time>2015-11-05T13:42:10.213Z</time>
      </trkpt>
      <trkpt lat="46.24163" lon="4.67616">
        <ele>405.611633301</ele>
        <time>2015-11-05T13:42:11.192Z</time>
      </trkpt>
      <trkpt lat="46.2417" lon="4.67625">
        <ele>406.670379639</ele>
        <time>2015-11-05T13:42:20.249Z</time>
      </trkpt>
      <trkpt lat="46.24171" lon="4.67626">
        <ele>406.777740479</ele>
        <time>2015-11-05T13:42:21.189Z</time>
      </trkpt>
      <trkpt lat="46.24177" lon="4.67634">
        <ele>406.957397461</ele>
        <time>2015-11-05T13:42:26.197Z</time>
      </trkpt>
      <trkpt lat="46.24179" lon="4.67635">
        <ele>406.889587402</ele>
        <time>2015-11-05T13:42:27.183Z</time>
      </trkpt>
      <trkpt lat="46.24184" lon="4.67643">
        <ele>406.5340271</ele>
        <time>2015-11-05T13:42:33.199Z</time>
      </trkpt>
      <trkpt lat="46.24185" lon="4.67644">
        <ele>406.456939697</ele>
        <time>2015-11-05T13:42:34.193Z</time>
      </trkpt>
      <trkpt lat="46.24193" lon="4.67649">
        <ele>405.967987061</ele>
        <time>2015-11-05T13:42:39.202Z</time>
      </trkpt>
      <trkpt lat="46.24194" lon="4.6765">
        <ele>405.777923584</ele>
        <time>2015-11-05T13:42:40.196Z</time>
      </trkpt>
      <trkpt lat="46.24202" lon="4.67654">
        <ele>404.771453857</ele>
        <time>2015-11-05T13:42:47.253Z</time>
      </trkpt>
      <trkpt lat="46.24203" lon="4.67655">
        <ele>404.668518066</ele>
        <time>2015-11-05T13:42:48.189Z</time>
      </trkpt>
      <trkpt lat="46.24211" lon="4.6766">
        <ele>403.760650635</ele>
        <time>2015-11-05T13:42:56.206Z</time>
      </trkpt>
      <trkpt lat="46.24212" lon="4.6766">
        <ele>403.672210693</ele>
        <time>2015-11-05T13:42:57.19Z</time>
      </trkpt>
      <trkpt lat="46.24217" lon="4.67669">
        <ele>403.687652588</ele>
        <time>2015-11-05T13:43:04.267Z</time>
      </trkpt>
      <trkpt lat="46.24218" lon="4.67671">
        <ele>403.648223877</ele>
        <time>2015-11-05T13:43:05.189Z</time>
      </trkpt>
      <trkpt lat="46.24226" lon="4.67675">
        <ele>402.830535889</ele>
        <time>2015-11-05T13:43:13.224Z</time>
      </trkpt>
      <trkpt lat="46.24227" lon="4.67675">
        <ele>402.672393799</ele>
        <time>2015-11-05T13:43:14.194Z</time>
      </trkpt>
      <trkpt lat="46.24235" lon="4.6767">
        <ele>401.506530762</ele>
        <time>2015-11-05T13:43:33.217Z</time>
      </trkpt>
      <trkpt lat="46.24235" lon="4.6767">
        <ele>401.539764404</ele>
        <time>2015-11-05T13:43:34.207Z</time>
      </trkpt>
      <trkpt lat="46.24244" lon="4.67672">
        <ele>402.32232666</ele>
        <time>2015-11-05T13:43:56.253Z</time>
      </trkpt>
      <trkpt lat="46.24245" lon="4.67672">
        <ele>402.326660156</ele>
        <time>2015-11-05T13:43:57.2Z</time>
      </trkpt>
      <trkpt lat="46.24236" lon="4.6767">
        <ele>400.971374512</ele>
        <time>2015-11-05T13:44:20.205Z</time>
      </trkpt>
      <trkpt lat="46.24235" lon="4.67669">
        <ele>400.93737793</ele>
        <time>2015-11-05T13:44:21.193Z</time>
      </trkpt>
      <trkpt lat="46.24227" lon="4.67669">
        <ele>401.13269043</ele>
        <time>2015-11-05T13:44:41.216Z</time>
      </trkpt>
      <trkpt lat="46.24226" lon="4.67669">
        <ele>401.138519287</ele>
        <time>2015-11-05T13:44:42.191Z</time>
      </trkpt>
      <trkpt lat="46.24222" lon="4.6768">
        <ele>401.438262939</ele>
        <time>2015-11-05T13:44:49.213Z</time>
      </trkpt>
      <trkpt lat="46.24222" lon="4.67682">
        <ele>401.435699463</ele>
        <time>2015-11-05T13:44:50.199Z</time>
      </trkpt>
      <trkpt lat="46.24221" lon="4.67694">
        <ele>401.133056641</ele>
        <time>2015-11-05T13:44:57.206Z</time>
      </trkpt>
      <trkpt lat="46.24221" lon="4.67697">
        <ele>401.124450684</ele>
        <time>2015-11-05T13:44:58.198Z</time>
      </trkpt>
      <trkpt lat="46.24221" lon="4.67708">
        <ele>401.454833984</ele>
        <time>2015-11-05T13:45:03.231Z</time>
      </trkpt>
      <trkpt lat="46.24221" lon="4.67712">
        <ele>401.5</ele>
        <time>2015-11-05T13:45:04.21Z</time>
      </trkpt>
      <trkpt lat="46.24221" lon="4.67724">
        <ele>401.848693848</ele>
        <time>2015-11-05T13:45:11.212Z</time>
      </trkpt>
      <trkpt lat="46.24221" lon="4.67725">
        <ele>401.855651855</ele>
        <time>2015-11-05T13:45:12.207Z</time>
      </trkpt>
      <trkpt lat="46.24213" lon="4.6773">
        <ele>401.818359375</ele>
        <time>2015-11-05T13:45:22.217Z</time>
      </trkpt>
      <trkpt lat="46.24212" lon="4.6773">
        <ele>401.793884277</ele>
        <time>2015-11-05T13:45:23.207Z</time>
      </trkpt>
      <trkpt lat="46.24207" lon="4.67739">
        <ele>400.439483643</ele>
        <time>2015-11-05T13:45:32.209Z</time>
      </trkpt>
      <trkpt lat="46.24206" lon="4.6774">
        <ele>400.281280518</ele>
        <time>2015-11-05T13:45:33.195Z</time>
      </trkpt>
      <trkpt lat="46.24202" lon="4.67752">
        <ele>400.353027344</ele>
        <time>2015-11-05T13:45:43.212Z</time>
      </trkpt>
      <trkpt lat="46.24202" lon="4.67753">
        <ele>400.509490967</ele>
        <time>2015-11-05T13:45:44.2Z</time>
      </trkpt>
      <trkpt lat="46.24197" lon="4.67763">
        <ele>400.9012146</ele>
        <time>2015-11-05T13:45:53.206Z</time>
      </trkpt>
      <trkpt lat="46.24196" lon="4.67764">
        <ele>400.864562988</ele>
        <time>2015-11-05T13:45:54.188Z</time>
      </trkpt>
      <trkpt lat="46.24188" lon="4.6777">
        <ele>400.870574951</ele>
        <time>2015-11-05T13:46:09.212Z</time>
      </trkpt>
      <trkpt lat="46.24188" lon="4.67771">
        <ele>401.120483398</ele>
        <time>2015-11-05T13:46:10.2Z</time>
      </trkpt>
      <trkpt lat="46.2418" lon="4.67775">
        <ele>403.136474609</ele>
        <time>2015-11-05T13:46:19.211Z</time>
      </trkpt>
      <trkpt lat="46.24178" lon="4.67776">
        <ele>403.375640869</ele>
        <time>2015-11-05T13:46:20.201Z</time>
      </trkpt>
      <trkpt lat="46.24172" lon="4.6778">
        <ele>405.269836426</ele>
        <time>2015-11-05T13:46:28.211Z</time>
      </trkpt>
      <trkpt lat="46.2417" lon="4.67782">
        <ele>405.360076904</ele>
        <time>2015-11-05T13:46:29.212Z</time>
      </trkpt>
      <trkpt lat="46.24162" lon="4.67785">
        <ele>405.512817383</ele>
        <time>2015-11-05T13:46:32.222Z</time>
      </trkpt>
      <trkpt lat="46.2416" lon="4.67786">
        <ele>405.515167236</ele>
        <time>2015-11-05T13:46:33.245Z</time>
      </trkpt>
      <trkpt lat="46.24151" lon="4.67789">
        <ele>405.548919678</ele>
        <time>2015-11-05T13:46:40.218Z</time>
      </trkpt>
      <trkpt lat="46.2415" lon="4.67789">
        <ele>405.531219482</ele>
        <time>2015-11-05T13:46:41.211Z</time>
      </trkpt>
      <trkpt lat="46.24142" lon="4.6779">
        <ele>405.210327148</ele>
        <time>2015-11-05T13:46:50.213Z</time>
      </trkpt>
      <trkpt lat="46.24141" lon="4.6779">
        <ele>405.143920898</ele>
        <time>2015-11-05T13:46:51.209Z</time>
      </trkpt>
      <trkpt lat="46.24134" lon="4.67792">
        <ele>404.402709961</ele>
        <time>2015-11-05T13:46:56.213Z</time>
      </trkpt>
      <trkpt lat="46.24131" lon="4.67792">
        <ele>404.243835449</ele>
        <time>2015-11-05T13:46:57.202Z</time>
      </trkpt>
      <trkpt lat="46.24124" lon="4.67793">
        <ele>403.976654053</ele>
        <time>2015-11-05T13:47:00.221Z</time>
      </trkpt>
      <trkpt lat="46.24122" lon="4.67793">
        <ele>403.969970703</ele>
        <time>2015-11-05T13:47:01.202Z</time>
      </trkpt>
      <trkpt lat="46.24114" lon="4.67794">
        <ele>404.070007324</ele>
        <time>2015-11-05T13:47:12.26Z</time>
      </trkpt>
      <trkpt lat="46.24113" lon="4.67794">
        <ele>404.096466064</ele>
        <time>2015-11-05T13:47:13.184Z</time>
      </trkpt>
      <trkpt lat="46.24105" lon="4.67794">
        <ele>403.656860352</ele>
        <time>2015-11-05T13:47:20.2Z</time>
      </trkpt>
      <trkpt lat="46.24104" lon="4.67793">
        <ele>403.556213379</ele>
        <time>2015-11-05T13:47:21.205Z</time>
      </trkpt>
      <trkpt lat="46.24096" lon="4.67792">
        <ele>403.344329834</ele>
        <time>2015-11-05T13:47:25.197Z</time>
      </trkpt>
      <trkpt lat="46.24094" lon="4.67792">
        <ele>403.293670654</ele>
        <time>2015-11-05T13:47:26.191Z</time>
      </trkpt>
      <trkpt lat="46.24086" lon="4.67791">
        <ele>403.193054199</ele>
        <time>2015-11-05T13:47:30.22Z</time>
      </trkpt>
      <trkpt lat="46.24083" lon="4.67791">
        <ele>403.156951904</ele>
        <time>2015-11-05T13:47:31.193Z</time>
      </trkpt>
      <trkpt lat="46.24074" lon="4.67791">
        <ele>402.750366211</ele>
        <time>2015-11-05T13:47:39.242Z</time>
      </trkpt>
      <trkpt lat="46.24074" lon="4.67791">
        <ele>402.66619873</ele>
        <time>2015-11-05T13:47:40.189Z</time>
      </trkpt>
      <trkpt lat="46.24066" lon="4.67792">
        <ele>402.421966553</ele>
        <time>2015-11-05T13:47:48.257Z</time>
      </trkpt>
      <trkpt lat="46.24065" lon="4.67792">
        <ele>402.388122559</ele>
        <time>2015-11-05T13:47:49.194Z</time>
      </trkpt>
      <trkpt lat="46.24056" lon="4.67787">
        <ele>401.430358887</ele>
        <time>2015-11-05T13:47:56.205Z</time>
      </trkpt>
      <trkpt lat="46.24055" lon="4.67786">
        <ele>401.17401123</ele>
        <time>2015-11-05T13:47:57.182Z</time>
      </trkpt>
      <trkpt lat="46.24047" lon="4.67784">
        <ele>400.19052124</ele>
        <time>2015-11-05T13:48:01.193Z</time>
      </trkpt>
      <trkpt lat="46.24044" lon="4.67784">
        <ele>399.937469482</ele>
        <time>2015-11-05T13:48:02.196Z</time>
      </trkpt>
      <trkpt lat="46.24035" lon="4.67784">
        <ele>399.119567871</ele>
        <time>2015-11-05T13:48:08.263Z</time>
      </trkpt>
      <trkpt lat="46.24034" lon="4.67784">
        <ele>399.057189941</ele>
        <time>2015-11-05T13:48:09.184Z</time>
      </trkpt>
      <trkpt lat="46.24026" lon="4.67781">
        <ele>398.534973145</ele>
        <time>2015-11-05T13:48:16.201Z</time>
      </trkpt>
      <trkpt lat="46.24024" lon="4.6778">
        <ele>398.471069336</ele>
        <time>2015-11-05T13:48:17.208Z</time>
      </trkpt>
      <trkpt lat="46.24016" lon="4.67777">
        <ele>397.945220947</ele>
        <time>2015-11-05T13:48:23.214Z</time>
      </trkpt>
      <trkpt lat="46.24015" lon="4.67777">
        <ele>397.785339355</ele>
        <time>2015-11-05T13:48:24.208Z</time>
      </trkpt>
      <trkpt lat="46.24007" lon="4.67775">
        <ele>397.485443115</ele>
        <time>2015-11-05T13:48:30.202Z</time>
      </trkpt>
      <trkpt lat="46.24006" lon="4.67775">
        <ele>397.502502441</ele>
        <time>2015-11-05T13:48:31.193Z</time>
      </trkpt>
      <trkpt lat="46.23998" lon="4.67769">
        <ele>396.556060791</ele>
        <time>2015-11-05T13:48:41.221Z</time>
      </trkpt>
      <trkpt lat="46.23997" lon="4.67768">
        <ele>396.351196289</ele>
        <time>2015-11-05T13:48:42.189Z</time>
      </trkpt>
      <trkpt lat="46.2399" lon="4.6776">
        <ele>395.03213501</ele>
        <time>2015-11-05T13:48:48.195Z</time>
      </trkpt>
      <trkpt lat="46.23988" lon="4.6776">
        <ele>394.804168701</ele>
        <time>2015-11-05T13:48:49.19Z</time>
      </trkpt>
      <trkpt lat="46.23981" lon="4.67755">
        <ele>392.655059814</ele>
        <time>2015-11-05T13:48:56.198Z</time>
      </trkpt>
      <trkpt lat="46.23979" lon="4.67754">
        <ele>392.330993652</ele>
        <time>2015-11-05T13:48:57.201Z</time>
      </trkpt>
      <trkpt lat="46.23972" lon="4.67751">
        <ele>390.383575439</ele>
        <time>2015-11-05T13:49:03.207Z</time>
      </trkpt>
      <trkpt lat="46.2397" lon="4.6775">
        <ele>390.098754883</ele>
        <time>2015-11-05T13:49:04.199Z</time>
      </trkpt>
      <trkpt lat="46.23962" lon="4.67747">
        <ele>387.780761719</ele>
        <time>2015-11-05T13:49:12.203Z</time>
      </trkpt>
      <trkpt lat="46.23961" lon="4.67746">
        <ele>387.490753174</ele>
        <time>2015-11-05T13:49:13.198Z</time>
      </trkpt>
      <trkpt lat="46.23953" lon="4.67743">
        <ele>385.522613525</ele>
        <time>2015-11-05T13:49:22.2Z</time>
      </trkpt>
      <trkpt lat="46.23951" lon="4.67742">
        <ele>385.318756104</ele>
        <time>2015-11-05T13:49:23.194Z</time>
      </trkpt>
      <trkpt lat="46.23944" lon="4.6774">
        <ele>384.402587891</ele>
        <time>2015-11-05T13:49:27.23Z</time>
      </trkpt>
      <trkpt lat="46.23942" lon="4.67739">
        <ele>384.154571533</ele>
        <time>2015-11-05T13:49:28.198Z</time>
      </trkpt>
      <trkpt lat="46.23934" lon="4.67738">
        <ele>383.03793335</ele>
        <time>2015-11-05T13:49:33.22Z</time>
      </trkpt>
      <trkpt lat="46.23933" lon="4.67738">
        <ele>382.924438477</ele>
        <time>2015-11-05T13:49:34.218Z</time>
      </trkpt>
      <trkpt lat="46.23926" lon="4.6774">
        <ele>382.352386475</ele>
        <time>2015-11-05T13:49:40.2Z</time>
      </trkpt>
      <trkpt lat="46.23924" lon="4.67739">
        <ele>382.232177734</ele>
        <time>2015-11-05T13:49:41.191Z</time>
      </trkpt>
      <trkpt lat="46.23915" lon="4.67738">
        <ele>381.126861572</ele>
        <time>2015-11-05T13:49:48.201Z</time>
      </trkpt>
      <trkpt lat="46.23914" lon="4.67738">
        <ele>380.952850342</ele>
        <time>2015-11-05T13:49:49.194Z</time>
      </trkpt>
      <trkpt lat="46.23905" lon="4.67736">
        <ele>379.833312988</ele>
        <time>2015-11-05T13:49:55.233Z</time>
      </trkpt>
      <trkpt lat="46.23904" lon="4.67735">
        <ele>379.633361816</ele>
        <time>2015-11-05T13:49:56.19Z</time>
      </trkpt>
      <trkpt lat="46.23896" lon="4.67737">
        <ele>378.549743652</ele>
        <time>2015-11-05T13:50:02.206Z</time>
      </trkpt>
      <trkpt lat="46.23895" lon="4.67737">
        <ele>378.321990967</ele>
        <time>2015-11-05T13:50:03.193Z</time>
      </trkpt>
      <trkpt lat="46.23886" lon="4.67735">
        <ele>376.799072266</ele>
        <time>2015-11-05T13:50:12.215Z</time>
      </trkpt>
      <trkpt lat="46.23885" lon="4.67734">
        <ele>376.682037354</ele>
        <time>2015-11-05T13:50:13.194Z</time>
      </trkpt>
      <trkpt lat="46.23877" lon="4.67732">
        <ele>375.946105957</ele>
        <time>2015-11-05T13:50:19.221Z</time>
      </trkpt>
      <trkpt lat="46.23876" lon="4.67731">
        <ele>375.778320312</ele>
        <time>2015-11-05T13:50:20.199Z</time>
      </trkpt>
      <trkpt lat="46.23868" lon="4.67727">
        <ele>374.630493164</ele>
        <time>2015-11-05T13:50:26.198Z</time>
      </trkpt>
      <trkpt lat="46.23867" lon="4.67726">
        <ele>374.447235107</ele>
        <time>2015-11-05T13:50:27.198Z</time>
      </trkpt>
      <trkpt lat="46.2386" lon="4.67719">
        <ele>373.253631592</ele>
        <time>2015-11-05T13:50:34.203Z</time>
      </trkpt>
      <trkpt lat="46.23859" lon="4.67718">
        <ele>373.147277832</ele>
        <time>2015-11-05T13:50:35.199Z</time>
      </trkpt>
      <trkpt lat="46.23851" lon="4.67712">
        <ele>372.43258667</ele>
        <time>2015-11-05T13:50:43.242Z</time>
      </trkpt>
      <trkpt lat="46.2385" lon="4.67712">
        <ele>372.354248047</ele>
        <time>2015-11-05T13:50:44.207Z</time>
      </trkpt>
      <trkpt lat="46.23842" lon="4.67712">
        <ele>371.764129639</ele>
        <time>2015-11-05T13:50:49.208Z</time>
      </trkpt>
      <trkpt lat="46.2384" lon="4.67713">
        <ele>371.707702637</ele>
        <time>2015-11-05T13:50:50.217Z</time>
      </trkpt>
      <trkpt lat="46.23832" lon="4.67718">
        <ele>371.072906494</ele>
        <time>2015-11-05T13:50:56.209Z</time>
      </trkpt>
      <trkpt lat="46.23831" lon="4.67718">
        <ele>370.937011719</ele>
        <time>2015-11-05T13:50:57.199Z</time>
      </trkpt>
      <trkpt lat="46.23823" lon="4.67725">
        <ele>370.277801514</ele>
        <time>2015-11-05T13:51:05.209Z</time>
      </trkpt>
      <trkpt lat="46.23822" lon="4.67726">
        <ele>370.146118164</ele>
        <time>2015-11-05T13:51:06.196Z</time>
      </trkpt>
      <trkpt lat="46.23815" lon="4.67734">
        <ele>369.507904053</ele>
        <time>2015-11-05T13:51:13.211Z</time>
      </trkpt>
      <trkpt lat="46.23814" lon="4.67736">
        <ele>369.429656982</ele>
        <time>2015-11-05T13:51:14.2Z</time>
      </trkpt>
      <trkpt lat="46.23807" lon="4.67743">
        <ele>368.907745361</ele>
        <time>2015-11-05T13:51:20.218Z</time>
      </trkpt>
      <trkpt lat="46.23806" lon="4.67744">
        <ele>368.817230225</ele>
        <time>2015-11-05T13:51:21.2Z</time>
      </trkpt>
      <trkpt lat="46.23799" lon="4.67749">
        <ele>368.271026611</ele>
        <time>2015-11-05T13:51:27.216Z</time>
      </trkpt>
      <trkpt lat="46.23798" lon="4.6775">
        <ele>368.170349121</ele>
        <time>2015-11-05T13:51:28.2Z</time>
      </trkpt>
      <trkpt lat="46.2379" lon="4.67755">
        <ele>367.551696777</ele>
        <time>2015-11-05T13:51:34.235Z</time>
      </trkpt>
      <trkpt lat="46.23789" lon="4.67756">
        <ele>367.512390137</ele>
        <time>2015-11-05T13:51:35.201Z</time>
      </trkpt>
      <trkpt lat="46.23782" lon="4.67762">
        <ele>367.137634277</ele>
        <time>2015-11-05T13:51:42.21Z</time>
      </trkpt>
      <trkpt lat="46.2378" lon="4.67763">
        <ele>367.120941162</ele>
        <time>2015-11-05T13:51:43.21Z</time>
      </trkpt>
      <trkpt lat="46.23774" lon="4.6777">
        <ele>367.062072754</ele>
        <time>2015-11-05T13:51:49.23Z</time>
      </trkpt>
      <trkpt lat="46.23773" lon="4.6777">
        <ele>367.094909668</ele>
        <time>2015-11-05T13:51:50.218Z</time>
      </trkpt>
      <trkpt lat="46.23765" lon="4.67777">
        <ele>366.88873291</ele>
        <time>2015-11-05T13:51:57.215Z</time>
      </trkpt>
      <trkpt lat="46.23764" lon="4.67777">
        <ele>366.877746582</ele>
        <time>2015-11-05T13:51:58.21Z</time>
      </trkpt>
      <trkpt lat="46.23757" lon="4.67783">
        <ele>366.591644287</ele>
        <time>2015-11-05T13:52:05.229Z</time>
      </trkpt>
      <trkpt lat="46.23756" lon="4.67784">
        <ele>366.5078125</ele>
        <time>2015-11-05T13:52:06.201Z</time>
      </trkpt>
      <trkpt lat="46.23748" lon="4.6779">
        <ele>366.439025879</ele>
        <time>2015-11-05T13:52:13.215Z</time>
      </trkpt>
      <trkpt lat="46.23747" lon="4.6779">
        <ele>366.424743652</ele>
        <time>2015-11-05T13:52:14.204Z</time>
      </trkpt>
      <trkpt lat="46.23739" lon="4.67795">
        <ele>366.497283936</ele>
        <time>2015-11-05T13:52:20.214Z</time>
      </trkpt>
      <trkpt lat="46.23738" lon="4.67795">
        <ele>366.573730469</ele>
        <time>2015-11-05T13:52:21.202Z</time>
      </trkpt>
      <trkpt lat="46.23731" lon="4.67799">
        <ele>366.658630371</ele>
        <time>2015-11-05T13:52:27.22Z</time>
      </trkpt>
      <trkpt lat="46.23729" lon="4.67799">
        <ele>366.703613281</ele>
        <time>2015-11-05T13:52:28.19Z</time>
      </trkpt>
      <trkpt lat="46.23722" lon="4.67801">
        <ele>367.09954834</ele>
        <time>2015-11-05T13:52:35.212Z</time>
      </trkpt>
      <trkpt lat="46.2372" lon="4.67801">
        <ele>367.116516113</ele>
        <time>2015-11-05T13:52:36.197Z</time>
      </trkpt>
      <trkpt lat="46.23712" lon="4.67805">
        <ele>367.529663086</ele>
        <time>2015-11-05T13:52:42.221Z</time>
      </trkpt>
      <trkpt lat="46.2371" lon="4.67806">
        <ele>367.539276123</ele>
        <time>2015-11-05T13:52:43.197Z</time>
      </trkpt>
      <trkpt lat="46.23703" lon="4.67809">
        <ele>367.648345947</ele>
        <time>2015-11-05T13:52:49.213Z</time>
      </trkpt>
      <trkpt lat="46.23701" lon="4.67809">
        <ele>367.656890869</ele>
        <time>2015-11-05T13:52:50.197Z</time>
      </trkpt>
      <trkpt lat="46.23693" lon="4.67814">
        <ele>367.348937988</ele>
        <time>2015-11-05T13:52:55.194Z</time>
      </trkpt>
      <trkpt lat="46.23692" lon="4.67815">
        <ele>367.274688721</ele>
        <time>2015-11-05T13:52:56.197Z</time>
      </trkpt>
      <trkpt lat="46.23685" lon="4.6782">
        <ele>366.906890869</ele>
        <time>2015-11-05T13:53:02.208Z</time>
      </trkpt>
      <trkpt lat="46.23684" lon="4.67821">
        <ele>366.844268799</ele>
        <time>2015-11-05T13:53:03.199Z</time>
      </trkpt>
      <trkpt lat="46.23677" lon="4.67827">
        <ele>366.206512451</ele>
        <time>2015-11-05T13:53:11.205Z</time>
      </trkpt>
      <trkpt lat="46.23677" lon="4.67828">
        <ele>366.154144287</ele>
        <time>2015-11-05T13:53:12.198Z</time>
      </trkpt>
      <trkpt lat="46.23671" lon="4.67835">
        <ele>365.700317383</ele>
        <time>2015-11-05T13:53:18.21Z</time>
      </trkpt>
      <trkpt lat="46.2367" lon="4.67837">
        <ele>365.666809082</ele>
        <time>2015-11-05T13:53:19.213Z</time>
      </trkpt>
      <trkpt lat="46.23664" lon="4.67846">
        <ele>365.275054932</ele>
        <time>2015-11-05T13:53:25.208Z</time>
      </trkpt>
      <trkpt lat="46.23664" lon="4.67848">
        <ele>365.188201904</ele>
        <time>2015-11-05T13:53:26.172Z</time>
      </trkpt>
      <trkpt lat="46.2366" lon="4.67858">
        <ele>364.679077148</ele>
        <time>2015-11-05T13:53:32.213Z</time>
      </trkpt>
      <trkpt lat="46.23659" lon="4.6786">
        <ele>364.629730225</ele>
        <time>2015-11-05T13:53:33.197Z</time>
      </trkpt>
      <trkpt lat="46.23655" lon="4.67871">
        <ele>364.322692871</ele>
        <time>2015-11-05T13:53:41.223Z</time>
      </trkpt>
      <trkpt lat="46.23655" lon="4.67873">
        <ele>364.310791016</ele>
        <time>2015-11-05T13:53:42.197Z</time>
      </trkpt>
      <trkpt lat="46.23651" lon="4.67884">
        <ele>364.317230225</ele>
        <time>2015-11-05T13:53:49.206Z</time>
      </trkpt>
      <trkpt lat="46.23651" lon="4.67886">
        <ele>364.331878662</ele>
        <time>2015-11-05T13:53:50.197Z</time>
      </trkpt>
      <trkpt lat="46.23647" lon="4.67897">
        <ele>364.082244873</ele>
        <time>2015-11-05T13:53:57.206Z</time>
      </trkpt>
      <trkpt lat="46.23646" lon="4.67898">
        <ele>364.026153564</ele>
        <time>2015-11-05T13:53:58.203Z</time>
      </trkpt>
      <trkpt lat="46.23639" lon="4.67906">
        <ele>363.513885498</ele>
        <time>2015-11-05T13:54:06.206Z</time>
      </trkpt>
      <trkpt lat="46.23638" lon="4.67906">
        <ele>363.43371582</ele>
        <time>2015-11-05T13:54:07.199Z</time>
      </trkpt>
      <trkpt lat="46.23631" lon="4.67912">
        <ele>362.864654541</ele>
        <time>2015-11-05T13:54:13.232Z</time>
      </trkpt>
      <trkpt lat="46.2363" lon="4.67913">
        <ele>362.730926514</ele>
        <time>2015-11-05T13:54:14.197Z</time>
      </trkpt>
      <trkpt lat="46.23622" lon="4.67918">
        <ele>362.15335083</ele>
        <time>2015-11-05T13:54:20.213Z</time>
      </trkpt>
      <trkpt lat="46.23621" lon="4.67919">
        <ele>362.065643311</ele>
        <time>2015-11-05T13:54:21.197Z</time>
      </trkpt>
      <trkpt lat="46.23614" lon="4.67925">
        <ele>361.699859619</ele>
        <time>2015-11-05T13:54:29.225Z</time>
      </trkpt>
      <trkpt lat="46.23612" lon="4.67925">
        <ele>361.643310547</ele>
        <time>2015-11-05T13:54:30.197Z</time>
      </trkpt>
      <trkpt lat="46.23605" lon="4.67929">
        <ele>361.126159668</ele>
        <time>2015-11-05T13:54:35.206Z</time>
      </trkpt>
      <trkpt lat="46.23604" lon="4.67929">
        <ele>360.977081299</ele>
        <time>2015-11-05T13:54:36.198Z</time>
      </trkpt>
      <trkpt lat="46.23596" lon="4.67937">
        <ele>359.642852783</ele>
        <time>2015-11-05T13:54:42.206Z</time>
      </trkpt>
      <trkpt lat="46.23595" lon="4.67938">
        <ele>359.452758789</ele>
        <time>2015-11-05T13:54:43.199Z</time>
      </trkpt>
      <trkpt lat="46.23588" lon="4.67944">
        <ele>358.575805664</ele>
        <time>2015-11-05T13:54:50.205Z</time>
      </trkpt>
      <trkpt lat="46.23587" lon="4.67945">
        <ele>358.462768555</ele>
        <time>2015-11-05T13:54:51.197Z</time>
      </trkpt>
      <trkpt lat="46.23579" lon="4.67948">
        <ele>357.93069458</ele>
        <time>2015-11-05T13:54:57.21Z</time>
      </trkpt>
      <trkpt lat="46.23577" lon="4.67948">
        <ele>357.828125</ele>
        <time>2015-11-05T13:54:58.238Z</time>
      </trkpt>
      <trkpt lat="46.23569" lon="4.6795">
        <ele>356.944854736</ele>
        <time>2015-11-05T13:55:05.214Z</time>
      </trkpt>
      <trkpt lat="46.23567" lon="4.67951">
        <ele>356.864257812</ele>
        <time>2015-11-05T13:55:06.197Z</time>
      </trkpt>
      <trkpt lat="46.2356" lon="4.67954">
        <ele>356.179199219</ele>
        <time>2015-11-05T13:55:12.209Z</time>
      </trkpt>
      <trkpt lat="46.23558" lon="4.67956">
        <ele>356.140014648</ele>
        <time>2015-11-05T13:55:13.197Z</time>
      </trkpt>
      <trkpt lat="46.23549" lon="4.67958">
        <ele>355.856781006</ele>
        <time>2015-11-05T13:55:22.206Z</time>
      </trkpt>
      <trkpt lat="46.23548" lon="4.67959">
        <ele>355.762298584</ele>
        <time>2015-11-05T13:55:23.214Z</time>
      </trkpt>
      <trkpt lat="46.2354" lon="4.67964">
        <ele>355.254974365</ele>
        <time>2015-11-05T13:55:29.333Z</time>
      </trkpt>
      <trkpt lat="46.23539" lon="4.67965">
        <ele>355.254699707</ele>
        <time>2015-11-05T13:55:30.194Z</time>
      </trkpt>
      <trkpt lat="46.23532" lon="4.6797">
        <ele>354.866516113</ele>
        <time>2015-11-05T13:55:35.212Z</time>
      </trkpt>
      <trkpt lat="46.23531" lon="4.67971">
        <ele>354.763793945</ele>
        <time>2015-11-05T13:55:36.198Z</time>
      </trkpt>
      <trkpt lat="46.23524" lon="4.67977">
        <ele>354.226837158</ele>
        <time>2015-11-05T13:55:43.216Z</time>
      </trkpt>
      <trkpt lat="46.23523" lon="4.67977">
        <ele>354.159088135</ele>
        <time>2015-11-05T13:55:44.198Z</time>
      </trkpt>
      <trkpt lat="46.23516" lon="4.67984">
        <ele>353.591186523</ele>
        <time>2015-11-05T13:55:50.212Z</time>
      </trkpt>
      <trkpt lat="46.23515" lon="4.67986">
        <ele>353.55569458</ele>
        <time>2015-11-05T13:55:51.216Z</time>
      </trkpt>
      <trkpt lat="46.23508" lon="4.67993">
        <ele>353.019165039</ele>
        <time>2015-11-05T13:55:57.208Z</time>
      </trkpt>
      <trkpt lat="46.23508" lon="4.67994">
        <ele>352.935333252</ele>
        <time>2015-11-05T13:55:58.252Z</time>
      </trkpt>
      <trkpt lat="46.23501" lon="4.68002">
        <ele>352.545288086</ele>
        <time>2015-11-05T13:56:04.208Z</time>
      </trkpt>
      <trkpt lat="46.235" lon="4.68003">
        <ele>352.441833496</ele>
        <time>2015-11-05T13:56:05.2Z</time>
      </trkpt>
      <trkpt lat="46.23493" lon="4.68011">
        <ele>352.050811768</ele>
        <time>2015-11-05T13:56:11.209Z</time>
      </trkpt>
      <trkpt lat="46.23492" lon="4.68012">
        <ele>351.99786377</ele>
        <time>2015-11-05T13:56:12.201Z</time>
      </trkpt>
      <trkpt lat="46.23486" lon="4.68019">
        <ele>351.362701416</ele>
        <time>2015-11-05T13:56:18.247Z</time>
      </trkpt>
      <trkpt lat="46.23485" lon="4.6802">
        <ele>351.260040283</ele>
        <time>2015-11-05T13:56:19.195Z</time>
      </trkpt>
      <trkpt lat="46.23478" lon="4.68027">
        <ele>350.519805908</ele>
        <time>2015-11-05T13:56:27.193Z</time>
      </trkpt>
      <trkpt lat="46.23477" lon="4.68028">
        <ele>350.407684326</ele>
        <time>2015-11-05T13:56:28.211Z</time>
      </trkpt>
      <trkpt lat="46.23471" lon="4.6802">
        <ele>349.542907715</ele>
        <time>2015-11-05T13:56:46.211Z</time>
      </trkpt>
      <trkpt lat="46.23471" lon="4.68018">
        <ele>349.49005127</ele>
        <time>2015-11-05T13:56:47.203Z</time>
      </trkpt>
      <trkpt lat="46.23473" lon="4.68006">
        <ele>348.971221924</ele>
        <time>2015-11-05T13:56:55.211Z</time>
      </trkpt>
      <trkpt lat="46.23473" lon="4.68004">
        <ele>348.928222656</ele>
        <time>2015-11-05T13:56:56.2Z</time>
      </trkpt>
      <trkpt lat="46.23473" lon="4.67992">
        <ele>347.932281494</ele>
        <time>2015-11-05T13:57:05.218Z</time>
      </trkpt>
      <trkpt lat="46.23473" lon="4.6799">
        <ele>347.771331787</ele>
        <time>2015-11-05T13:57:06.201Z</time>
      </trkpt>
      <trkpt lat="46.23466" lon="4.67993">
        <ele>346.507019043</ele>
        <time>2015-11-05T13:57:14.212Z</time>
      </trkpt>
      <trkpt lat="46.23464" lon="4.67994">
        <ele>346.357971191</ele>
        <time>2015-11-05T13:57:15.201Z</time>
      </trkpt>
      <trkpt lat="46.23458" lon="4.68001">
        <ele>345.487518311</ele>
        <time>2015-11-05T13:57:22.216Z</time>
      </trkpt>
      <trkpt lat="46.23457" lon="4.68003">
        <ele>345.350402832</ele>
        <time>2015-11-05T13:57:23.202Z</time>
      </trkpt>
      <trkpt lat="46.23451" lon="4.6801">
        <ele>344.796325684</ele>
        <time>2015-11-05T13:57:29.234Z</time>
      </trkpt>
      <trkpt lat="46.2345" lon="4.68011">
        <ele>344.703277588</ele>
        <time>2015-11-05T13:57:30.202Z</time>
      </trkpt>
      <trkpt lat="46.23443" lon="4.68019">
        <ele>344.146942139</ele>
        <time>2015-11-05T13:57:37.214Z</time>
      </trkpt>
      <trkpt lat="46.23442" lon="4.6802">
        <ele>344.055297852</ele>
        <time>2015-11-05T13:57:38.206Z</time>
      </trkpt>
      <trkpt lat="46.23435" lon="4.68027">
        <ele>343.339385986</ele>
        <time>2015-11-05T13:57:45.208Z</time>
      </trkpt>
      <trkpt lat="46.23434" lon="4.68028">
        <ele>343.205474854</ele>
        <time>2015-11-05T13:57:46.197Z</time>
      </trkpt>
      <trkpt lat="46.23427" lon="4.68036">
        <ele>342.119598389</ele>
        <time>2015-11-05T13:57:53.238Z</time>
      </trkpt>
      <trkpt lat="46.23426" lon="4.68037">
        <ele>341.931854248</ele>
        <time>2015-11-05T13:57:54.188Z</time>
      </trkpt>
      <trkpt lat="46.2342" lon="4.68045">
        <ele>341.281433105</ele>
        <time>2015-11-05T13:58:00.239Z</time>
      </trkpt>
      <trkpt lat="46.23419" lon="4.68046">
        <ele>341.211853027</ele>
        <time>2015-11-05T13:58:01.197Z</time>
      </trkpt>
      <trkpt lat="46.23413" lon="4.68053">
        <ele>340.409057617</ele>
        <time>2015-11-05T13:58:07.208Z</time>
      </trkpt>
      <trkpt lat="46.23411" lon="4.68054">
        <ele>340.337005615</ele>
        <time>2015-11-05T13:58:08.197Z</time>
      </trkpt>
      <trkpt lat="46.23404" lon="4.6806">
        <ele>339.798370361</ele>
        <time>2015-11-05T13:58:15.206Z</time>
      </trkpt>
      <trkpt lat="46.23403" lon="4.68061">
        <ele>339.743621826</ele>
        <time>2015-11-05T13:58:16.197Z</time>
      </trkpt>
      <trkpt lat="46.23396" lon="4.68068">
        <ele>339.181030273</ele>
        <time>2015-11-05T13:58:23.199Z</time>
      </trkpt>
      <trkpt lat="46.23395" lon="4.68069">
        <ele>339.130126953</ele>
        <time>2015-11-05T13:58:24.198Z</time>
      </trkpt>
      <trkpt lat="46.23388" lon="4.68075">
        <ele>339.317230225</ele>
        <time>2015-11-05T13:58:31.21Z</time>
      </trkpt>
      <trkpt lat="46.23387" lon="4.68076">
        <ele>339.319000244</ele>
        <time>2015-11-05T13:58:32.202Z</time>
      </trkpt>
      <trkpt lat="46.23381" lon="4.68084">
        <ele>339.018829346</ele>
        <time>2015-11-05T13:58:39.221Z</time>
      </trkpt>
      <trkpt lat="46.23381" lon="4.68086">
        <ele>338.864013672</ele>
        <time>2015-11-05T13:58:40.198Z</time>
      </trkpt>
      <trkpt lat="46.23374" lon="4.68094">
        <ele>337.978729248</ele>
        <time>2015-11-05T13:58:47.206Z</time>
      </trkpt>
      <trkpt lat="46.23373" lon="4.68096">
        <ele>337.885314941</ele>
        <time>2015-11-05T13:58:48.201Z</time>
      </trkpt>
      <trkpt lat="46.23368" lon="4.68104">
        <ele>337.657958984</ele>
        <time>2015-11-05T13:58:54.207Z</time>
      </trkpt>
      <trkpt lat="46.23367" lon="4.68105">
        <ele>337.569000244</ele>
        <time>2015-11-05T13:58:55.198Z</time>
      </trkpt>
      <trkpt lat="46.23362" lon="4.68114">
        <ele>337.289642334</ele>
        <time>2015-11-05T13:59:01.206Z</time>
      </trkpt>
      <trkpt lat="46.23361" lon="4.68116">
        <ele>337.274383545</ele>
        <time>2015-11-05T13:59:02.194Z</time>
      </trkpt>
      <trkpt lat="46.23356" lon="4.68124">
        <ele>336.910797119</ele>
        <time>2015-11-05T13:59:08.22Z</time>
      </trkpt>
      <trkpt lat="46.23355" lon="4.68125">
        <ele>336.835662842</ele>
        <time>2015-11-05T13:59:09.195Z</time>
      </trkpt>
      <trkpt lat="46.23351" lon="4.68134">
        <ele>336.416748047</ele>
        <time>2015-11-05T13:59:15.2Z</time>
      </trkpt>
      <trkpt lat="46.2335" lon="4.68136">
        <ele>336.315429688</ele>
        <time>2015-11-05T13:59:16.197Z</time>
      </trkpt>
      <trkpt lat="46.23345" lon="4.68146">
        <ele>335.902923584</ele>
        <time>2015-11-05T13:59:22.217Z</time>
      </trkpt>
      <trkpt lat="46.23344" lon="4.68148">
        <ele>335.813964844</ele>
        <time>2015-11-05T13:59:23.207Z</time>
      </trkpt>
      <trkpt lat="46.2334" lon="4.68159">
        <ele>335.398986816</ele>
        <time>2015-11-05T13:59:29.226Z</time>
      </trkpt>
      <trkpt lat="46.23339" lon="4.68161">
        <ele>335.344665527</ele>
        <time>2015-11-05T13:59:30.188Z</time>
      </trkpt>
      <trkpt lat="46.23336" lon="4.68171">
        <ele>334.925720215</ele>
        <time>2015-11-05T13:59:36.207Z</time>
      </trkpt>
      <trkpt lat="46.23335" lon="4.68172">
        <ele>334.866638184</ele>
        <time>2015-11-05T13:59:37.187Z</time>
      </trkpt>
      <trkpt lat="46.23332" lon="4.68185">
        <ele>334.34866333</ele>
        <time>2015-11-05T13:59:44.213Z</time>
      </trkpt>
      <trkpt lat="46.23332" lon="4.68186">
        <ele>334.278045654</ele>
        <time>2015-11-05T13:59:45.197Z</time>
      </trkpt>
      <trkpt lat="46.23329" lon="4.68198">
        <ele>334.070404053</ele>
        <time>2015-11-05T13:59:52.206Z</time>
      </trkpt>
      <trkpt lat="46.23329" lon="4.68199">
        <ele>334.034362793</ele>
        <time>2015-11-05T13:59:53.2Z</time>
      </trkpt>
      <trkpt lat="46.23325" lon="4.68209">
        <ele>333.745819092</ele>
        <time>2015-11-05T13:59:59.208Z</time>
      </trkpt>
      <trkpt lat="46.23324" lon="4.68211">
        <ele>333.711669922</ele>
        <time>2015-11-05T14:00:00.201Z</time>
      </trkpt>
      <trkpt lat="46.2332" lon="4.6822">
        <ele>333.303649902</ele>
        <time>2015-11-05T14:00:07.205Z</time>
      </trkpt>
      <trkpt lat="46.23319" lon="4.68222">
        <ele>333.277679443</ele>
        <time>2015-11-05T14:00:08.197Z</time>
      </trkpt>
      <trkpt lat="46.23315" lon="4.68231">
        <ele>333.171722412</ele>
        <time>2015-11-05T14:00:14.21Z</time>
      </trkpt>
      <trkpt lat="46.23315" lon="4.68233">
        <ele>333.173614502</ele>
        <time>2015-11-05T14:00:15.238Z</time>
      </trkpt>
      <trkpt lat="46.23311" lon="4.68245">
        <ele>333.104888916</ele>
        <time>2015-11-05T14:00:22.221Z</time>
      </trkpt>
      <trkpt lat="46.23311" lon="4.68247">
        <ele>333.113952637</ele>
        <time>2015-11-05T14:00:23.198Z</time>
      </trkpt>
      <trkpt lat="46.23307" lon="4.68258">
        <ele>333.06149292</ele>
        <time>2015-11-05T14:00:31.213Z</time>
      </trkpt>
      <trkpt lat="46.23306" lon="4.68259">
        <ele>333.077819824</ele>
        <time>2015-11-05T14:00:32.198Z</time>
      </trkpt>
      <trkpt lat="46.23301" lon="4.68268">
        <ele>333.595916748</ele>
        <time>2015-11-05T14:00:37.208Z</time>
      </trkpt>
      <trkpt lat="46.233" lon="4.6827">
        <ele>333.731048584</ele>
        <time>2015-11-05T14:00:38.201Z</time>
      </trkpt>
      <trkpt lat="46.23296" lon="4.6828">
        <ele>334.302490234</ele>
        <time>2015-11-05T14:00:44.209Z</time>
      </trkpt>
      <trkpt lat="46.23295" lon="4.68281">
        <ele>334.390350342</ele>
        <time>2015-11-05T14:00:45.198Z</time>
      </trkpt>
      <trkpt lat="46.23291" lon="4.68292">
        <ele>335.066101074</ele>
        <time>2015-11-05T14:00:52.208Z</time>
      </trkpt>
      <trkpt lat="46.2329" lon="4.68294">
        <ele>335.087158203</ele>
        <time>2015-11-05T14:00:53.198Z</time>
      </trkpt>
      <trkpt lat="46.23286" lon="4.68304">
        <ele>335.532897949</ele>
        <time>2015-11-05T14:01:00.271Z</time>
      </trkpt>
      <trkpt lat="46.23285" lon="4.68305">
        <ele>335.553985596</ele>
        <time>2015-11-05T14:01:01.193Z</time>
      </trkpt>
      <trkpt lat="46.2328" lon="4.68316">
        <ele>336.297058105</ele>
        <time>2015-11-05T14:01:10.21Z</time>
      </trkpt>
      <trkpt lat="46.2328" lon="4.68317">
        <ele>336.32800293</ele>
        <time>2015-11-05T14:01:11.198Z</time>
      </trkpt>
      <trkpt lat="46.23275" lon="4.68327">
        <ele>336.79019165</ele>
        <time>2015-11-05T14:01:19.217Z</time>
      </trkpt>
      <trkpt lat="46.23274" lon="4.68329">
        <ele>336.831665039</ele>
        <time>2015-11-05T14:01:20.199Z</time>
      </trkpt>
      <trkpt lat="46.2327" lon="4.6834">
        <ele>337.095672607</ele>
        <time>2015-11-05T14:01:27.239Z</time>
      </trkpt>
      <trkpt lat="46.23269" lon="4.68341">
        <ele>337.144897461</ele>
        <time>2015-11-05T14:01:28.195Z</time>
      </trkpt>
      <trkpt lat="46.23264" lon="4.68351">
        <ele>337.499938965</ele>
        <time>2015-11-05T14:01:35.214Z</time>
      </trkpt>
      <trkpt lat="46.23263" lon="4.68352">
        <ele>337.601104736</ele>
        <time>2015-11-05T14:01:36.216Z</time>
      </trkpt>
      <trkpt lat="46.23257" lon="4.68358">
        <ele>338.379974365</ele>
        <time>2015-11-05T14:01:43.215Z</time>
      </trkpt>
      <trkpt lat="46.23255" lon="4.6836">
        <ele>338.487915039</ele>
        <time>2015-11-05T14:01:44.199Z</time>
      </trkpt>
      <trkpt lat="46.23248" lon="4.68367">
        <ele>339.131896973</ele>
        <time>2015-11-05T14:01:51.213Z</time>
      </trkpt>
      <trkpt lat="46.23248" lon="4.68369">
        <ele>339.248901367</ele>
        <time>2015-11-05T14:01:52.199Z</time>
      </trkpt>
      <trkpt lat="46.23243" lon="4.68378">
        <ele>339.843475342</ele>
        <time>2015-11-05T14:01:58.351Z</time>
      </trkpt>
      <trkpt lat="46.23242" lon="4.6838">
        <ele>339.882568359</ele>
        <time>2015-11-05T14:01:59.196Z</time>
      </trkpt>
      <trkpt lat="46.23236" lon="4.68388">
        <ele>340.100585938</ele>
        <time>2015-11-05T14:02:05.226Z</time>
      </trkpt>
      <trkpt lat="46.23235" lon="4.68389">
        <ele>340.080627441</ele>
        <time>2015-11-05T14:02:06.2Z</time>
      </trkpt>
      <trkpt lat="46.23227" lon="4.68396">
        <ele>339.7215271</ele>
        <time>2015-11-05T14:02:13.41Z</time>
      </trkpt>
      <trkpt lat="46.23227" lon="4.68398">
        <ele>339.633087158</ele>
        <time>2015-11-05T14:02:14.207Z</time>
      </trkpt>
      <trkpt lat="46.2322" lon="4.68406">
        <ele>339.274871826</ele>
        <time>2015-11-05T14:02:20.238Z</time>
      </trkpt>
      <trkpt lat="46.23219" lon="4.68407">
        <ele>339.27746582</ele>
        <time>2015-11-05T14:02:21.197Z</time>
      </trkpt>
      <trkpt lat="46.23212" lon="4.68413">
        <ele>339.326934814</ele>
        <time>2015-11-05T14:02:27.21Z</time>
      </trkpt>
      <trkpt lat="46.23211" lon="4.68415">
        <ele>339.325775146</ele>
        <time>2015-11-05T14:02:28.2Z</time>
      </trkpt>
      <trkpt lat="46.23205" lon="4.68424">
        <ele>339.026550293</ele>
        <time>2015-11-05T14:02:34.211Z</time>
      </trkpt>
      <trkpt lat="46.23204" lon="4.68425">
        <ele>338.932037354</ele>
        <time>2015-11-05T14:02:35.201Z</time>
      </trkpt>
      <trkpt lat="46.23197" lon="4.68431">
        <ele>338.336639404</ele>
        <time>2015-11-05T14:02:41.235Z</time>
      </trkpt>
      <trkpt lat="46.23196" lon="4.68432">
        <ele>338.221954346</ele>
        <time>2015-11-05T14:02:42.2Z</time>
      </trkpt>
      <trkpt lat="46.2319" lon="4.68439">
        <ele>337.529449463</ele>
        <time>2015-11-05T14:02:48.217Z</time>
      </trkpt>
      <trkpt lat="46.23189" lon="4.6844">
        <ele>337.390441895</ele>
        <time>2015-11-05T14:02:49.215Z</time>
      </trkpt>
      <trkpt lat="46.23181" lon="4.68447">
        <ele>336.42199707</ele>
        <time>2015-11-05T14:02:57.217Z</time>
      </trkpt>
      <trkpt lat="46.23181" lon="4.68448">
        <ele>336.261199951</ele>
        <time>2015-11-05T14:02:58.241Z</time>
      </trkpt>
      <trkpt lat="46.23173" lon="4.68454">
        <ele>335.305725098</ele>
        <time>2015-11-05T14:03:04.208Z</time>
      </trkpt>
      <trkpt lat="46.23172" lon="4.68455">
        <ele>335.176239014</ele>
        <time>2015-11-05T14:03:05.213Z</time>
      </trkpt>
      <trkpt lat="46.23166" lon="4.68463">
        <ele>333.771209717</ele>
        <time>2015-11-05T14:03:14.238Z</time>
      </trkpt>
      <trkpt lat="46.23165" lon="4.68464">
        <ele>333.627288818</ele>
        <time>2015-11-05T14:03:15.198Z</time>
      </trkpt>
      <trkpt lat="46.23158" lon="4.68473">
        <ele>332.541259766</ele>
        <time>2015-11-05T14:03:24.212Z</time>
      </trkpt>
      <trkpt lat="46.23157" lon="4.68474">
        <ele>332.450744629</ele>
        <time>2015-11-05T14:03:25.197Z</time>
      </trkpt>
      <trkpt lat="46.23152" lon="4.68483">
        <ele>331.86227417</ele>
        <time>2015-11-05T14:03:32.211Z</time>
      </trkpt>
      <trkpt lat="46.23151" lon="4.68484">
        <ele>331.776611328</ele>
        <time>2015-11-05T14:03:33.202Z</time>
      </trkpt>
      <trkpt lat="46.23148" lon="4.68494">
        <ele>331.287475586</ele>
        <time>2015-11-05T14:03:38.209Z</time>
      </trkpt>
      <trkpt lat="46.23147" lon="4.68497">
        <ele>331.138702393</ele>
        <time>2015-11-05T14:03:39.198Z</time>
      </trkpt>
      <trkpt lat="46.23147" lon="4.68508">
        <ele>330.537445068</ele>
        <time>2015-11-05T14:03:44.242Z</time>
      </trkpt>
      <trkpt lat="46.23147" lon="4.6851">
        <ele>330.45300293</ele>
        <time>2015-11-05T14:03:45.189Z</time>
      </trkpt>
      <trkpt lat="46.23148" lon="4.68522">
        <ele>329.892150879</ele>
        <time>2015-11-05T14:03:53.254Z</time>
      </trkpt>
      <trkpt lat="46.23148" lon="4.68524">
        <ele>329.844329834</ele>
        <time>2015-11-05T14:03:54.192Z</time>
      </trkpt>
      <trkpt lat="46.23147" lon="4.68537">
        <ele>329.675079346</ele>
        <time>2015-11-05T14:04:01.21Z</time>
      </trkpt>
      <trkpt lat="46.23146" lon="4.68538">
        <ele>329.556121826</ele>
        <time>2015-11-05T14:04:02.208Z</time>
      </trkpt>
      <trkpt lat="46.23144" lon="4.68551">
        <ele>328.854827881</ele>
        <time>2015-11-05T14:04:08.336Z</time>
      </trkpt>
      <trkpt lat="46.23143" lon="4.68552">
        <ele>328.694030762</ele>
        <time>2015-11-05T14:04:09.195Z</time>
      </trkpt>
      <trkpt lat="46.2314" lon="4.68564">
        <ele>327.97088623</ele>
        <time>2015-11-05T14:04:15.213Z</time>
      </trkpt>
      <trkpt lat="46.23139" lon="4.68565">
        <ele>327.816619873</ele>
        <time>2015-11-05T14:04:16.202Z</time>
      </trkpt>
      <trkpt lat="46.23135" lon="4.68575">
        <ele>326.849304199</ele>
        <time>2015-11-05T14:04:23.226Z</time>
      </trkpt>
      <trkpt lat="46.23134" lon="4.68576">
        <ele>326.765777588</ele>
        <time>2015-11-05T14:04:24.198Z</time>
      </trkpt>
      <trkpt lat="46.23129" lon="4.68585">
        <ele>326.266906738</ele>
        <time>2015-11-05T14:04:29.203Z</time>
      </trkpt>
      <trkpt lat="46.23128" lon="4.68586">
        <ele>326.104705811</ele>
        <time>2015-11-05T14:04:30.2Z</time>
      </trkpt>
      <trkpt lat="46.23122" lon="4.68595">
        <ele>325.348754883</ele>
        <time>2015-11-05T14:04:38.329Z</time>
      </trkpt>
      <trkpt lat="46.23121" lon="4.68594">
        <ele>325.350738525</ele>
        <time>2015-11-05T14:04:39.185Z</time>
      </trkpt>
      <trkpt lat="46.23112" lon="4.68594">
        <ele>325.556335449</ele>
        <time>2015-11-05T14:04:48.206Z</time>
      </trkpt>
      <trkpt lat="46.23111" lon="4.68594">
        <ele>325.573974609</ele>
        <time>2015-11-05T14:04:49.199Z</time>
      </trkpt>
      <trkpt lat="46.23103" lon="4.68595">
        <ele>324.553833008</ele>
        <time>2015-11-05T14:04:58.213Z</time>
      </trkpt>
      <trkpt lat="46.23101" lon="4.68595">
        <ele>324.410949707</ele>
        <time>2015-11-05T14:04:59.197Z</time>
      </trkpt>
      <trkpt lat="46.23092" lon="4.68593">
        <ele>323.336334229</ele>
        <time>2015-11-05T14:05:07.211Z</time>
      </trkpt>
      <trkpt lat="46.23091" lon="4.68593">
        <ele>323.243835449</ele>
        <time>2015-11-05T14:05:08.195Z</time>
      </trkpt>
      <trkpt lat="46.23082" lon="4.68593">
        <ele>322.574676514</ele>
        <time>2015-11-05T14:05:15.222Z</time>
      </trkpt>
      <trkpt lat="46.23082" lon="4.68593">
        <ele>322.507507324</ele>
        <time>2015-11-05T14:05:16.188Z</time>
      </trkpt>
      <trkpt lat="46.23074" lon="4.68592">
        <ele>320.836242676</ele>
        <time>2015-11-05T14:05:25.208Z</time>
      </trkpt>
      <trkpt lat="46.23072" lon="4.68593">
        <ele>320.632629395</ele>
        <time>2015-11-05T14:05:26.201Z</time>
      </trkpt>
      <trkpt lat="46.23066" lon="4.68599">
        <ele>319.581573486</ele>
        <time>2015-11-05T14:05:33.217Z</time>
      </trkpt>
      <trkpt lat="46.23065" lon="4.68601">
        <ele>319.526184082</ele>
        <time>2015-11-05T14:05:34.19Z</time>
      </trkpt>
      <trkpt lat="46.23064" lon="4.68613">
        <ele>319.93637085</ele>
        <time>2015-11-05T14:05:44.333Z</time>
      </trkpt>
      <trkpt lat="46.23064" lon="4.68615">
        <ele>320.086181641</ele>
        <time>2015-11-05T14:05:45.202Z</time>
      </trkpt>
      <trkpt lat="46.23066" lon="4.68627">
        <ele>320.500701904</ele>
        <time>2015-11-05T14:05:52.208Z</time>
      </trkpt>
      <trkpt lat="46.23066" lon="4.6863">
        <ele>320.472290039</ele>
        <time>2015-11-05T14:05:53.195Z</time>
      </trkpt>
      <trkpt lat="46.23066" lon="4.68643">
        <ele>320.467529297</ele>
        <time>2015-11-05T14:06:02.215Z</time>
      </trkpt>
      <trkpt lat="46.23065" lon="4.68645">
        <ele>320.504516602</ele>
        <time>2015-11-05T14:06:03.198Z</time>
      </trkpt>
      <trkpt lat="46.23063" lon="4.68657">
        <ele>320.536865234</ele>
        <time>2015-11-05T14:06:09.214Z</time>
      </trkpt>
      <trkpt lat="46.23063" lon="4.68659">
        <ele>320.518005371</ele>
        <time>2015-11-05T14:06:10.19Z</time>
      </trkpt>
      <trkpt lat="46.23062" lon="4.6867">
        <ele>320.978546143</ele>
        <time>2015-11-05T14:06:17.211Z</time>
      </trkpt>
      <trkpt lat="46.23062" lon="4.68672">
        <ele>321.115142822</ele>
        <time>2015-11-05T14:06:18.198Z</time>
      </trkpt>
      <trkpt lat="46.23063" lon="4.68684">
        <ele>321.614379883</ele>
        <time>2015-11-05T14:06:24.204Z</time>
      </trkpt>
      <trkpt lat="46.23063" lon="4.68686">
        <ele>321.628448486</ele>
        <time>2015-11-05T14:06:25.194Z</time>
      </trkpt>
      <trkpt lat="46.23062" lon="4.68697">
        <ele>321.283111572</ele>
        <time>2015-11-05T14:06:34.225Z</time>
      </trkpt>
      <trkpt lat="46.23062" lon="4.68699">
        <ele>321.206665039</ele>
        <time>2015-11-05T14:06:35.178Z</time>
      </trkpt>
      <trkpt lat="46.2306" lon="4.68711">
        <ele>321.234924316</ele>
        <time>2015-11-05T14:06:44.248Z</time>
      </trkpt>
      <trkpt lat="46.2306" lon="4.68713">
        <ele>321.231384277</ele>
        <time>2015-11-05T14:06:45.193Z</time>
      </trkpt>
      <trkpt lat="46.23061" lon="4.68726">
        <ele>320.90725708</ele>
        <time>2015-11-05T14:06:52.207Z</time>
      </trkpt>
      <trkpt lat="46.23061" lon="4.68728">
        <ele>320.808898926</ele>
        <time>2015-11-05T14:06:53.202Z</time>
      </trkpt>
      <trkpt lat="46.23062" lon="4.6874">
        <ele>320.505462646</ele>
        <time>2015-11-05T14:06:59.204Z</time>
      </trkpt>
      <trkpt lat="46.23062" lon="4.68741">
        <ele>320.468902588</ele>
        <time>2015-11-05T14:07:00.2Z</time>
      </trkpt>
      <trkpt lat="46.23059" lon="4.68752">
        <ele>319.870788574</ele>
        <time>2015-11-05T14:07:08.217Z</time>
      </trkpt>
      <trkpt lat="46.23059" lon="4.68754">
        <ele>319.889648438</ele>
        <time>2015-11-05T14:07:09.195Z</time>
      </trkpt>
      <trkpt lat="46.23058" lon="4.68766">
        <ele>320.737762451</ele>
        <time>2015-11-05T14:07:16.214Z</time>
      </trkpt>
      <trkpt lat="46.23058" lon="4.68769">
        <ele>320.899597168</ele>
        <time>2015-11-05T14:07:17.198Z</time>
      </trkpt>
      <trkpt lat="46.23057" lon="4.68781">
        <ele>321.444732666</ele>
        <time>2015-11-05T14:07:24.214Z</time>
      </trkpt>
      <trkpt lat="46.23057" lon="4.68783">
        <ele>321.547393799</ele>
        <time>2015-11-05T14:07:25.193Z</time>
      </trkpt>
      <trkpt lat="46.23056" lon="4.68795">
        <ele>322.047180176</ele>
        <time>2015-11-05T14:07:31.213Z</time>
      </trkpt>
      <trkpt lat="46.23055" lon="4.68797">
        <ele>322.027130127</ele>
        <time>2015-11-05T14:07:32.195Z</time>
      </trkpt>
      <trkpt lat="46.23054" lon="4.6881">
        <ele>322.1065979</ele>
        <time>2015-11-05T14:07:38.211Z</time>
      </trkpt>
      <trkpt lat="46.23054" lon="4.68812">
        <ele>322.123718262</ele>
        <time>2015-11-05T14:07:39.209Z</time>
      </trkpt>
      <trkpt lat="46.23054" lon="4.68823">
        <ele>322.064453125</ele>
        <time>2015-11-05T14:07:44.271Z</time>
      </trkpt>
      <trkpt lat="46.23054" lon="4.68826">
        <ele>322.013153076</ele>
        <time>2015-11-05T14:07:45.194Z</time>
      </trkpt>
      <trkpt lat="46.23053" lon="4.68837">
        <ele>321.898498535</ele>
        <time>2015-11-05T14:07:51.212Z</time>
      </trkpt>
      <trkpt lat="46.23053" lon="4.6884">
        <ele>321.873962402</ele>
        <time>2015-11-05T14:07:52.195Z</time>
      </trkpt>
      <trkpt lat="46.23051" lon="4.68851">
        <ele>321.758209229</ele>
        <time>2015-11-05T14:07:58.238Z</time>
      </trkpt>
      <trkpt lat="46.2305" lon="4.68853">
        <ele>321.755249023</ele>
        <time>2015-11-05T14:07:59.195Z</time>
      </trkpt>
      <trkpt lat="46.23047" lon="4.68865">
        <ele>321.841186523</ele>
        <time>2015-11-05T14:08:07.213Z</time>
      </trkpt>
      <trkpt lat="46.23047" lon="4.68865">
        <ele>321.855255127</ele>
        <time>2015-11-05T14:08:08.195Z</time>
      </trkpt>
      <trkpt lat="46.23046" lon="4.68876">
        <ele>321.559906006</ele>
        <time>2015-11-05T14:08:12.219Z</time>
      </trkpt>
      <trkpt lat="46.23046" lon="4.68879">
        <ele>321.500915527</ele>
        <time>2015-11-05T14:08:13.218Z</time>
      </trkpt>
      <trkpt lat="46.23048" lon="4.6889">
        <ele>321.339477539</ele>
        <time>2015-11-05T14:08:18.201Z</time>
      </trkpt>
      <trkpt lat="46.23048" lon="4.68893">
        <ele>321.338104248</ele>
        <time>2015-11-05T14:08:19.189Z</time>
      </trkpt>
      <trkpt lat="46.23046" lon="4.68905">
        <ele>320.968017578</ele>
        <time>2015-11-05T14:08:25.216Z</time>
      </trkpt>
      <trkpt lat="46.23046" lon="4.68906">
        <ele>320.898620605</ele>
        <time>2015-11-05T14:08:26.162Z</time>
      </trkpt>
      <trkpt lat="46.23046" lon="4.68918">
        <ele>320.428253174</ele>
        <time>2015-11-05T14:08:31.198Z</time>
      </trkpt>
      <trkpt lat="46.23046" lon="4.6892">
        <ele>320.340820312</ele>
        <time>2015-11-05T14:08:32.185Z</time>
      </trkpt>
      <trkpt lat="46.23044" lon="4.68931">
        <ele>319.65625</ele>
        <time>2015-11-05T14:08:37.211Z</time>
      </trkpt>
      <trkpt lat="46.23044" lon="4.68933">
        <ele>319.485412598</ele>
        <time>2015-11-05T14:08:38.184Z</time>
      </trkpt>
      <trkpt lat="46.23045" lon="4.68945">
        <ele>318.496612549</ele>
        <time>2015-11-05T14:08:44.202Z</time>
      </trkpt>
      <trkpt lat="46.23044" lon="4.68947">
        <ele>318.345001221</ele>
        <time>2015-11-05T14:08:45.189Z</time>
      </trkpt>
      <trkpt lat="46.23042" lon="4.68958">
        <ele>317.38973999</ele>
        <time>2015-11-05T14:08:51.203Z</time>
      </trkpt>
      <trkpt lat="46.23042" lon="4.6896">
        <ele>317.232849121</ele>
        <time>2015-11-05T14:08:52.212Z</time>
      </trkpt>
      <trkpt lat="46.2304" lon="4.68972">
        <ele>316.471679688</ele>
        <time>2015-11-05T14:08:59.207Z</time>
      </trkpt>
      <trkpt lat="46.23039" lon="4.68973">
        <ele>316.456085205</ele>
        <time>2015-11-05T14:09:00.19Z</time>
      </trkpt>
      <trkpt lat="46.23034" lon="4.68983">
        <ele>316.114013672</ele>
        <time>2015-11-05T14:09:08.206Z</time>
      </trkpt>
      <trkpt lat="46.23033" lon="4.68984">
        <ele>316.032012939</ele>
        <time>2015-11-05T14:09:09.165Z</time>
      </trkpt>
      <trkpt lat="46.2303" lon="4.68995">
        <ele>315.39831543</ele>
        <time>2015-11-05T14:09:24.207Z</time>
      </trkpt>
      <trkpt lat="46.2303" lon="4.68997">
        <ele>315.411560059</ele>
        <time>2015-11-05T14:09:25.179Z</time>
      </trkpt>
      <trkpt lat="46.23028" lon="4.69008">
        <ele>314.993927002</ele>
        <time>2015-11-05T14:09:28.215Z</time>
      </trkpt>
      <trkpt lat="46.23028" lon="4.69011">
        <ele>314.822387695</ele>
        <time>2015-11-05T14:09:29.19Z</time>
      </trkpt>
      <trkpt lat="46.23026" lon="4.69022">
        <ele>314.026245117</ele>
        <time>2015-11-05T14:09:34.239Z</time>
      </trkpt>
      <trkpt lat="46.23025" lon="4.69025">
        <ele>313.989013672</ele>
        <time>2015-11-05T14:09:35.185Z</time>
      </trkpt>
      <trkpt lat="46.23022" lon="4.69034">
        <ele>313.036499023</ele>
        <time>2015-11-05T14:09:42.203Z</time>
      </trkpt>
      <trkpt lat="46.23021" lon="4.69037">
        <ele>312.855621338</ele>
        <time>2015-11-05T14:09:43.202Z</time>
      </trkpt>
      <trkpt lat="46.23015" lon="4.69045">
        <ele>311.495544434</ele>
        <time>2015-11-05T14:09:49.199Z</time>
      </trkpt>
      <trkpt lat="46.23014" lon="4.69046">
        <ele>311.320617676</ele>
        <time>2015-11-05T14:09:50.193Z</time>
      </trkpt>
      <trkpt lat="46.2301" lon="4.69055">
        <ele>311.317840576</ele>
        <time>2015-11-05T14:09:57.326Z</time>
      </trkpt>
      <trkpt lat="46.23009" lon="4.69057">
        <ele>311.376831055</ele>
        <time>2015-11-05T14:09:58.181Z</time>
      </trkpt>
      <trkpt lat="46.23004" lon="4.69067">
        <ele>311.100952148</ele>
        <time>2015-11-05T14:10:03.199Z</time>
      </trkpt>
      <trkpt lat="46.23003" lon="4.69068">
        <ele>311.008056641</ele>
        <time>2015-11-05T14:10:04.191Z</time>
      </trkpt>
      <trkpt lat="46.23" lon="4.69077">
        <ele>310.574493408</ele>
        <time>2015-11-05T14:10:09.202Z</time>
      </trkpt>
      <trkpt lat="46.22998" lon="4.69079">
        <ele>310.496856689</ele>
        <time>2015-11-05T14:10:10.2Z</time>
      </trkpt>
      <trkpt lat="46.22995" lon="4.6909">
        <ele>310.134552002</ele>
        <time>2015-11-05T14:10:15.223Z</time>
      </trkpt>
      <trkpt lat="46.22994" lon="4.69092">
        <ele>310.076446533</ele>
        <time>2015-11-05T14:10:16.197Z</time>
      </trkpt>
      <trkpt lat="46.2299" lon="4.69104">
        <ele>309.746063232</ele>
        <time>2015-11-05T14:10:22.209Z</time>
      </trkpt>
      <trkpt lat="46.2299" lon="4.69105">
        <ele>309.647369385</ele>
        <time>2015-11-05T14:10:23.197Z</time>
      </trkpt>
      <trkpt lat="46.22986" lon="4.69117">
        <ele>308.930541992</ele>
        <time>2015-11-05T14:10:29.208Z</time>
      </trkpt>
      <trkpt lat="46.22985" lon="4.69119">
        <ele>308.848022461</ele>
        <time>2015-11-05T14:10:30.201Z</time>
      </trkpt>
      <trkpt lat="46.22983" lon="4.6913">
        <ele>308.342956543</ele>
        <time>2015-11-05T14:10:35.207Z</time>
      </trkpt>
      <trkpt lat="46.22983" lon="4.69132">
        <ele>308.206298828</ele>
        <time>2015-11-05T14:10:36.197Z</time>
      </trkpt>
      <trkpt lat="46.22981" lon="4.69143">
        <ele>307.708953857</ele>
        <time>2015-11-05T14:10:42.21Z</time>
      </trkpt>
      <trkpt lat="46.22981" lon="4.69145">
        <ele>307.724456787</ele>
        <time>2015-11-05T14:10:43.212Z</time>
      </trkpt>
      <trkpt lat="46.22979" lon="4.69157">
        <ele>307.404083252</ele>
        <time>2015-11-05T14:10:48.212Z</time>
      </trkpt>
      <trkpt lat="46.2298" lon="4.69159">
        <ele>307.358154297</ele>
        <time>2015-11-05T14:10:49.19Z</time>
      </trkpt>
      <trkpt lat="46.22982" lon="4.69169">
        <ele>307.488006592</ele>
        <time>2015-11-05T14:10:57.21Z</time>
      </trkpt>
      <trkpt lat="46.22982" lon="4.69172">
        <ele>307.549255371</ele>
        <time>2015-11-05T14:10:58.177Z</time>
      </trkpt>
      <trkpt lat="46.22982" lon="4.69185">
        <ele>307.773498535</ele>
        <time>2015-11-05T14:11:04.218Z</time>
      </trkpt>
      <trkpt lat="46.22982" lon="4.69187">
        <ele>307.739318848</ele>
        <time>2015-11-05T14:11:05.198Z</time>
      </trkpt>
      <trkpt lat="46.22981" lon="4.69196">
        <ele>307.785644531</ele>
        <time>2015-11-05T14:11:10.244Z</time>
      </trkpt>
      <trkpt lat="46.22981" lon="4.692">
        <ele>307.809234619</ele>
        <time>2015-11-05T14:11:11.19Z</time>
      </trkpt>
      <trkpt lat="46.2298" lon="4.69212">
        <ele>307.356842041</ele>
        <time>2015-11-05T14:11:18.235Z</time>
      </trkpt>
      <trkpt lat="46.2298" lon="4.69214">
        <ele>307.310241699</ele>
        <time>2015-11-05T14:11:19.202Z</time>
      </trkpt>
      <trkpt lat="46.22978" lon="4.69226">
        <ele>307.353424072</ele>
        <time>2015-11-05T14:11:26.183Z</time>
      </trkpt>
      <trkpt lat="46.22978" lon="4.69228">
        <ele>307.361694336</ele>
        <time>2015-11-05T14:11:27.192Z</time>
      </trkpt>
      <trkpt lat="46.22977" lon="4.6924">
        <ele>307.383911133</ele>
        <time>2015-11-05T14:11:33.207Z</time>
      </trkpt>
      <trkpt lat="46.22977" lon="4.69243">
        <ele>307.362091064</ele>
        <time>2015-11-05T14:11:34.199Z</time>
      </trkpt>
      <trkpt lat="46.22978" lon="4.69256">
        <ele>307.3253479</ele>
        <time>2015-11-05T14:11:40.208Z</time>
      </trkpt>
      <trkpt lat="46.22978" lon="4.69258">
        <ele>307.343414307</ele>
        <time>2015-11-05T14:11:41.201Z</time>
      </trkpt>
      <trkpt lat="46.22978" lon="4.6927">
        <ele>307.464691162</ele>
        <time>2015-11-05T14:11:47.274Z</time>
      </trkpt>
      <trkpt lat="46.22978" lon="4.69272">
        <ele>307.450836182</ele>
        <time>2015-11-05T14:11:48.193Z</time>
      </trkpt>
      <trkpt lat="46.22974" lon="4.69283">
        <ele>307.206634521</ele>
        <time>2015-11-05T14:11:56.244Z</time>
      </trkpt>
      <trkpt lat="46.22973" lon="4.69284">
        <ele>307.194763184</ele>
        <time>2015-11-05T14:11:57.19Z</time>
      </trkpt>
      <trkpt lat="46.22966" lon="4.69281">
        <ele>303.936218262</ele>
        <time>2015-11-05T14:13:18.213Z</time>
      </trkpt>
      <trkpt lat="46.22964" lon="4.6928">
        <ele>303.780792236</ele>
        <time>2015-11-05T14:13:19.205Z</time>
      </trkpt>
      <trkpt lat="46.22955" lon="4.6928">
        <ele>302.730560303</ele>
        <time>2015-11-05T14:13:25.23Z</time>
      </trkpt>
      <trkpt lat="46.22953" lon="4.6928">
        <ele>302.570159912</ele>
        <time>2015-11-05T14:13:26.204Z</time>
      </trkpt>
      <trkpt lat="46.22946" lon="4.69274">
        <ele>302.127044678</ele>
        <time>2015-11-05T14:13:35.255Z</time>
      </trkpt>
      <trkpt lat="46.22946" lon="4.69273">
        <ele>302.103912354</ele>
        <time>2015-11-05T14:13:36.193Z</time>
      </trkpt>
      <trkpt lat="46.22939" lon="4.69267">
        <ele>301.461883545</ele>
        <time>2015-11-05T14:13:42.207Z</time>
      </trkpt>
      <trkpt lat="46.22938" lon="4.69266">
        <ele>301.350280762</ele>
        <time>2015-11-05T14:13:43.192Z</time>
      </trkpt>
      <trkpt lat="46.2293" lon="4.69261">
        <ele>300.793762207</ele>
        <time>2015-11-05T14:13:49.207Z</time>
      </trkpt>
      <trkpt lat="46.22929" lon="4.6926">
        <ele>300.74810791</ele>
        <time>2015-11-05T14:13:50.201Z</time>
      </trkpt>
      <trkpt lat="46.22922" lon="4.69254">
        <ele>300.359771729</ele>
        <time>2015-11-05T14:13:57.209Z</time>
      </trkpt>
      <trkpt lat="46.2292" lon="4.69253">
        <ele>300.33694458</ele>
        <time>2015-11-05T14:13:58.168Z</time>
      </trkpt>
      <trkpt lat="46.22913" lon="4.69247">
        <ele>300.599304199</ele>
        <time>2015-11-05T14:14:04.215Z</time>
      </trkpt>
      <trkpt lat="46.22912" lon="4.69245">
        <ele>300.638549805</ele>
        <time>2015-11-05T14:14:05.181Z</time>
      </trkpt>
      <trkpt lat="46.22905" lon="4.6924">
        <ele>300.752044678</ele>
        <time>2015-11-05T14:14:11.215Z</time>
      </trkpt>
      <trkpt lat="46.22904" lon="4.69239">
        <ele>300.701446533</ele>
        <time>2015-11-05T14:14:12.199Z</time>
      </trkpt>
      <trkpt lat="46.22898" lon="4.69231">
        <ele>300.662017822</ele>
        <time>2015-11-05T14:14:18.204Z</time>
      </trkpt>
      <trkpt lat="46.22897" lon="4.6923">
        <ele>300.626068115</ele>
        <time>2015-11-05T14:14:19.198Z</time>
      </trkpt>
      <trkpt lat="46.22892" lon="4.69221">
        <ele>300.527069092</ele>
        <time>2015-11-05T14:14:26.208Z</time>
      </trkpt>
      <trkpt lat="46.22891" lon="4.69219">
        <ele>300.478179932</ele>
        <time>2015-11-05T14:14:27.2Z</time>
      </trkpt>
      <trkpt lat="46.22887" lon="4.69209">
        <ele>300.190063477</ele>
        <time>2015-11-05T14:14:34.219Z</time>
      </trkpt>
      <trkpt lat="46.22885" lon="4.69207">
        <ele>300.151397705</ele>
        <time>2015-11-05T14:14:35.197Z</time>
      </trkpt>
      <trkpt lat="46.22879" lon="4.692">
        <ele>299.94708252</ele>
        <time>2015-11-05T14:14:40.222Z</time>
      </trkpt>
      <trkpt lat="46.22878" lon="4.69199">
        <ele>299.953704834</ele>
        <time>2015-11-05T14:14:41.198Z</time>
      </trkpt>
      <trkpt lat="46.2287" lon="4.69194">
        <ele>300.137908936</ele>
        <time>2015-11-05T14:14:45.336Z</time>
      </trkpt>
      <trkpt lat="46.22869" lon="4.69194">
        <ele>300.305480957</ele>
        <time>2015-11-05T14:14:46.197Z</time>
      </trkpt>
      <trkpt lat="46.22862" lon="4.69188">
        <ele>300.744232178</ele>
        <time>2015-11-05T14:14:53.207Z</time>
      </trkpt>
      <trkpt lat="46.22861" lon="4.69186">
        <ele>300.808563232</ele>
        <time>2015-11-05T14:14:54.202Z</time>
      </trkpt>
      <trkpt lat="46.22855" lon="4.69179">
        <ele>300.921295166</ele>
        <time>2015-11-05T14:15:00.251Z</time>
      </trkpt>
      <trkpt lat="46.22854" lon="4.69178">
        <ele>301.008331299</ele>
        <time>2015-11-05T14:15:01.184Z</time>
      </trkpt>
      <trkpt lat="46.22848" lon="4.69171">
        <ele>301.07043457</ele>
        <time>2015-11-05T14:15:07.202Z</time>
      </trkpt>
      <trkpt lat="46.22847" lon="4.69169">
        <ele>300.986938477</ele>
        <time>2015-11-05T14:15:08.184Z</time>
      </trkpt>
      <trkpt lat="46.22843" lon="4.69159">
        <ele>300.498138428</ele>
        <time>2015-11-05T14:15:15.329Z</time>
      </trkpt>
      <trkpt lat="46.22842" lon="4.69157">
        <ele>300.430541992</ele>
        <time>2015-11-05T14:15:16.188Z</time>
      </trkpt>
      <trkpt lat="46.22834" lon="4.69152">
        <ele>300.277954102</ele>
        <time>2015-11-05T14:15:20.203Z</time>
      </trkpt>
      <trkpt lat="46.22833" lon="4.69151">
        <ele>300.239929199</ele>
        <time>2015-11-05T14:15:21.189Z</time>
      </trkpt>
      <trkpt lat="46.22826" lon="4.69144">
        <ele>299.326934814</ele>
        <time>2015-11-05T14:15:27.203Z</time>
      </trkpt>
      <trkpt lat="46.22825" lon="4.69143">
        <ele>299.204559326</ele>
        <time>2015-11-05T14:15:28.227Z</time>
      </trkpt>
      <trkpt lat="46.2282" lon="4.69133">
        <ele>298.777282715</ele>
        <time>2015-11-05T14:15:36.212Z</time>
      </trkpt>
      <trkpt lat="46.2282" lon="4.69132">
        <ele>298.65826416</ele>
        <time>2015-11-05T14:15:37.184Z</time>
      </trkpt>
      <trkpt lat="46.22815" lon="4.69126">
        <ele>298.375396729</ele>
        <time>2015-11-05T14:15:42.231Z</time>
      </trkpt>
      <trkpt lat="46.22812" lon="4.69124">
        <ele>298.389068604</ele>
        <time>2015-11-05T14:15:43.19Z</time>
      </trkpt>
      <trkpt lat="46.22805" lon="4.69121">
        <ele>298.832946777</ele>
        <time>2015-11-05T14:15:48.199Z</time>
      </trkpt>
      <trkpt lat="46.22803" lon="4.6912">
        <ele>298.845214844</ele>
        <time>2015-11-05T14:15:49.193Z</time>
      </trkpt>
      <trkpt lat="46.22796" lon="4.69113">
        <ele>299.295043945</ele>
        <time>2015-11-05T14:15:56.203Z</time>
      </trkpt>
      <trkpt lat="46.22795" lon="4.69112">
        <ele>299.351898193</ele>
        <time>2015-11-05T14:15:57.197Z</time>
      </trkpt>
      <trkpt lat="46.22788" lon="4.69104">
        <ele>299.865356445</ele>
        <time>2015-11-05T14:16:04.198Z</time>
      </trkpt>
      <trkpt lat="46.22787" lon="4.69103">
        <ele>299.893096924</ele>
        <time>2015-11-05T14:16:05.189Z</time>
      </trkpt>
      <trkpt lat="46.2278" lon="4.69095">
        <ele>300.047607422</ele>
        <time>2015-11-05T14:16:11.213Z</time>
      </trkpt>
      <trkpt lat="46.22779" lon="4.69094">
        <ele>300.043884277</ele>
        <time>2015-11-05T14:16:12.189Z</time>
      </trkpt>
      <trkpt lat="46.22773" lon="4.69086">
        <ele>300.51159668</ele>
        <time>2015-11-05T14:16:20.211Z</time>
      </trkpt>
      <trkpt lat="46.22772" lon="4.69085">
        <ele>300.550933838</ele>
        <time>2015-11-05T14:16:21.19Z</time>
      </trkpt>
      <trkpt lat="46.22765" lon="4.69077">
        <ele>300.653320312</ele>
        <time>2015-11-05T14:16:27.204Z</time>
      </trkpt>
      <trkpt lat="46.22763" lon="4.69076">
        <ele>300.659912109</ele>
        <time>2015-11-05T14:16:28.203Z</time>
      </trkpt>
      <trkpt lat="46.22757" lon="4.69068">
        <ele>300.970184326</ele>
        <time>2015-11-05T14:16:36.198Z</time>
      </trkpt>
      <trkpt lat="46.22755" lon="4.69067">
        <ele>300.975097656</ele>
        <time>2015-11-05T14:16:37.18Z</time>
      </trkpt>
      <trkpt lat="46.22748" lon="4.69065">
        <ele>301.60333252</ele>
        <time>2015-11-05T14:16:42.218Z</time>
      </trkpt>
      <trkpt lat="46.22746" lon="4.69065">
        <ele>301.674072266</ele>
        <time>2015-11-05T14:16:43.19Z</time>
      </trkpt>
      <trkpt lat="46.22739" lon="4.69061">
        <ele>301.408355713</ele>
        <time>2015-11-05T14:16:48.199Z</time>
      </trkpt>
      <trkpt lat="46.22737" lon="4.69059">
        <ele>301.369812012</ele>
        <time>2015-11-05T14:16:49.19Z</time>
      </trkpt>
      <trkpt lat="46.2273" lon="4.69055">
        <ele>301.068817139</ele>
        <time>2015-11-05T14:16:55.198Z</time>
      </trkpt>
      <trkpt lat="46.22728" lon="4.69054">
        <ele>301.050445557</ele>
        <time>2015-11-05T14:16:56.19Z</time>
      </trkpt>
      <trkpt lat="46.2272" lon="4.69051">
        <ele>300.928131104</ele>
        <time>2015-11-05T14:17:02.193Z</time>
      </trkpt>
      <trkpt lat="46.22719" lon="4.69051">
        <ele>300.930297852</ele>
        <time>2015-11-05T14:17:03.19Z</time>
      </trkpt>
      <trkpt lat="46.22711" lon="4.69048">
        <ele>301.360809326</ele>
        <time>2015-11-05T14:17:09.205Z</time>
      </trkpt>
      <trkpt lat="46.2271" lon="4.69048">
        <ele>301.47845459</ele>
        <time>2015-11-05T14:17:10.194Z</time>
      </trkpt>
      <trkpt lat="46.22703" lon="4.69043">
        <ele>301.667236328</ele>
        <time>2015-11-05T14:17:16.202Z</time>
      </trkpt>
      <trkpt lat="46.22702" lon="4.69042">
        <ele>301.801574707</ele>
        <time>2015-11-05T14:17:17.193Z</time>
      </trkpt>
      <trkpt lat="46.22695" lon="4.69035">
        <ele>302.436004639</ele>
        <time>2015-11-05T14:17:23.217Z</time>
      </trkpt>
      <trkpt lat="46.22694" lon="4.69034">
        <ele>302.536682129</ele>
        <time>2015-11-05T14:17:24.194Z</time>
      </trkpt>
      <trkpt lat="46.22688" lon="4.69027">
        <ele>303.068756104</ele>
        <time>2015-11-05T14:17:30.204Z</time>
      </trkpt>
      <trkpt lat="46.22687" lon="4.69026">
        <ele>303.03024292</ele>
        <time>2015-11-05T14:17:31.186Z</time>
      </trkpt>
      <trkpt lat="46.2268" lon="4.69019">
        <ele>303.150543213</ele>
        <time>2015-11-05T14:17:38.216Z</time>
      </trkpt>
      <trkpt lat="46.22679" lon="4.69018">
        <ele>303.183013916</ele>
        <time>2015-11-05T14:17:39.191Z</time>
      </trkpt>
      <trkpt lat="46.22672" lon="4.69012">
        <ele>303.50390625</ele>
        <time>2015-11-05T14:17:45.224Z</time>
      </trkpt>
      <trkpt lat="46.22671" lon="4.69011">
        <ele>303.565551758</ele>
        <time>2015-11-05T14:17:46.192Z</time>
      </trkpt>
      <trkpt lat="46.22663" lon="4.69004">
        <ele>303.883514404</ele>
        <time>2015-11-05T14:17:53.224Z</time>
      </trkpt>
      <trkpt lat="46.22663" lon="4.69003">
        <ele>303.959594727</ele>
        <time>2015-11-05T14:17:54.199Z</time>
      </trkpt>
      <trkpt lat="46.22656" lon="4.68996">
        <ele>304.192932129</ele>
        <time>2015-11-05T14:18:00.214Z</time>
      </trkpt>
      <trkpt lat="46.22655" lon="4.68996">
        <ele>304.230743408</ele>
        <time>2015-11-05T14:18:01.194Z</time>
      </trkpt>
      <trkpt lat="46.22649" lon="4.68988">
        <ele>304.615570068</ele>
        <time>2015-11-05T14:18:08.216Z</time>
      </trkpt>
      <trkpt lat="46.22648" lon="4.68986">
        <ele>304.710235596</ele>
        <time>2015-11-05T14:18:09.193Z</time>
      </trkpt>
      <trkpt lat="46.2264" lon="4.68986">
        <ele>305.262268066</ele>
        <time>2015-11-05T14:18:16.211Z</time>
      </trkpt>
      <trkpt lat="46.22639" lon="4.68986">
        <ele>305.235839844</ele>
        <time>2015-11-05T14:18:17.192Z</time>
      </trkpt>
      <trkpt lat="46.22631" lon="4.68993">
        <ele>305.002655029</ele>
        <time>2015-11-05T14:18:24.233Z</time>
      </trkpt>
      <trkpt lat="46.2263" lon="4.68994">
        <ele>304.972320557</ele>
        <time>2015-11-05T14:18:25.193Z</time>
      </trkpt>
      <trkpt lat="46.22625" lon="4.69002">
        <ele>305.284362793</ele>
        <time>2015-11-05T14:18:33.225Z</time>
      </trkpt>
      <trkpt lat="46.22623" lon="4.69004">
        <ele>305.210784912</ele>
        <time>2015-11-05T14:18:34.194Z</time>
      </trkpt>
      <trkpt lat="46.22616" lon="4.6901">
        <ele>307.353179932</ele>
        <time>2015-11-05T14:18:55.195Z</time>
      </trkpt>
      <trkpt lat="46.22615" lon="4.69012">
        <ele>307.359191895</ele>
        <time>2015-11-05T14:18:56.188Z</time>
      </trkpt>
      <trkpt lat="46.22609" lon="4.69021">
        <ele>307.257324219</ele>
        <time>2015-11-05T14:19:03.211Z</time>
      </trkpt>
      <trkpt lat="46.22608" lon="4.69022">
        <ele>307.23059082</ele>
        <time>2015-11-05T14:19:04.184Z</time>
      </trkpt>
      <trkpt lat="46.22601" lon="4.69029">
        <ele>306.678497314</ele>
        <time>2015-11-05T14:19:11.213Z</time>
      </trkpt>
      <trkpt lat="46.226" lon="4.6903">
        <ele>306.581390381</ele>
        <time>2015-11-05T14:19:12.187Z</time>
      </trkpt>
      <trkpt lat="46.22593" lon="4.69037">
        <ele>306.088867188</ele>
        <time>2015-11-05T14:19:24.209Z</time>
      </trkpt>
      <trkpt lat="46.22591" lon="4.69036">
        <ele>306.036743164</ele>
        <time>2015-11-05T14:19:25.184Z</time>
      </trkpt>
      <trkpt lat="46.22582" lon="4.69036">
        <ele>307.926483154</ele>
        <time>2015-11-05T14:19:46.218Z</time>
      </trkpt>
      <trkpt lat="46.22582" lon="4.69037">
        <ele>307.976013184</ele>
        <time>2015-11-05T14:19:47.186Z</time>
      </trkpt>
      <trkpt lat="46.22574" lon="4.69042">
        <ele>310.229400635</ele>
        <time>2015-11-05T14:20:00.197Z</time>
      </trkpt>
      <trkpt lat="46.22573" lon="4.69042">
        <ele>310.430664062</ele>
        <time>2015-11-05T14:20:01.178Z</time>
      </trkpt>
      <trkpt lat="46.22568" lon="4.69033">
        <ele>313.419830322</ele>
        <time>2015-11-05T14:20:15.221Z</time>
      </trkpt>
      <trkpt lat="46.22567" lon="4.69032">
        <ele>313.667480469</ele>
        <time>2015-11-05T14:20:16.188Z</time>
      </trkpt>
      <trkpt lat="46.22563" lon="4.69022">
        <ele>315.300048828</ele>
        <time>2015-11-05T14:20:24.264Z</time>
      </trkpt>
      <trkpt lat="46.22562" lon="4.6902">
        <ele>315.460235596</ele>
        <time>2015-11-05T14:20:25.181Z</time>
      </trkpt>
      <trkpt lat="46.22557" lon="4.69011">
        <ele>316.850128174</ele>
        <time>2015-11-05T14:20:34.203Z</time>
      </trkpt>
      <trkpt lat="46.22556" lon="4.6901">
        <ele>316.964355469</ele>
        <time>2015-11-05T14:20:35.187Z</time>
      </trkpt>
      <trkpt lat="46.22548" lon="4.69004">
        <ele>317.930969238</ele>
        <time>2015-11-05T14:20:44.206Z</time>
      </trkpt>
      <trkpt lat="46.22547" lon="4.69004">
        <ele>318.072387695</ele>
        <time>2015-11-05T14:20:45.199Z</time>
      </trkpt>
      <trkpt lat="46.22539" lon="4.68999">
        <ele>319.032867432</ele>
        <time>2015-11-05T14:20:53.197Z</time>
      </trkpt>
      <trkpt lat="46.22538" lon="4.68998">
        <ele>319.160827637</ele>
        <time>2015-11-05T14:20:54.188Z</time>
      </trkpt>
      <trkpt lat="46.22532" lon="4.69007">
        <ele>321.903625488</ele>
        <time>2015-11-05T14:21:08.199Z</time>
      </trkpt>
      <trkpt lat="46.22531" lon="4.69008">
        <ele>322.186157227</ele>
        <time>2015-11-05T14:21:09.183Z</time>
      </trkpt>
      <trkpt lat="46.22525" lon="4.69017">
        <ele>323.864837646</ele>
        <time>2015-11-05T14:21:17.2Z</time>
      </trkpt>
      <trkpt lat="46.22525" lon="4.69018">
        <ele>324.098052979</ele>
        <time>2015-11-05T14:21:18.191Z</time>
      </trkpt>
      <trkpt lat="46.22517" lon="4.69025">
        <ele>327.431060791</ele>
        <time>2015-11-05T14:21:32.199Z</time>
      </trkpt>
      <trkpt lat="46.22517" lon="4.69025">
        <ele>327.700408936</ele>
        <time>2015-11-05T14:21:33.178Z</time>
      </trkpt>
      <trkpt lat="46.22511" lon="4.69034">
        <ele>329.1378479</ele>
        <time>2015-11-05T14:21:42.204Z</time>
      </trkpt>
      <trkpt lat="46.2251" lon="4.69035">
        <ele>329.356628418</ele>
        <time>2015-11-05T14:21:43.19Z</time>
      </trkpt>
      <trkpt lat="46.22505" lon="4.69046">
        <ele>331.060089111</ele>
        <time>2015-11-05T14:21:53.213Z</time>
      </trkpt>
      <trkpt lat="46.22504" lon="4.69047">
        <ele>331.235748291</ele>
        <time>2015-11-05T14:21:54.189Z</time>
      </trkpt>
      <trkpt lat="46.22498" lon="4.69056">
        <ele>332.53805542</ele>
        <time>2015-11-05T14:22:03.223Z</time>
      </trkpt>
      <trkpt lat="46.22497" lon="4.69057">
        <ele>332.65234375</ele>
        <time>2015-11-05T14:22:04.188Z</time>
      </trkpt>
      <trkpt lat="46.2249" lon="4.69065">
        <ele>334.136505127</ele>
        <time>2015-11-05T14:22:12.2Z</time>
      </trkpt>
      <trkpt lat="46.22489" lon="4.69065">
        <ele>334.199615479</ele>
        <time>2015-11-05T14:22:13.19Z</time>
      </trkpt>
      <trkpt lat="46.22482" lon="4.6907">
        <ele>335.668334961</ele>
        <time>2015-11-05T14:22:24.219Z</time>
      </trkpt>
      <trkpt lat="46.22481" lon="4.69072">
        <ele>335.82824707</ele>
        <time>2015-11-05T14:22:25.202Z</time>
      </trkpt>
      <trkpt lat="46.22474" lon="4.69079">
        <ele>336.978149414</ele>
        <time>2015-11-05T14:22:31.206Z</time>
      </trkpt>
      <trkpt lat="46.22473" lon="4.6908">
        <ele>336.992401123</ele>
        <time>2015-11-05T14:22:32.201Z</time>
      </trkpt>
      <trkpt lat="46.22466" lon="4.69087">
        <ele>337.396789551</ele>
        <time>2015-11-05T14:22:39.203Z</time>
      </trkpt>
      <trkpt lat="46.22465" lon="4.69088">
        <ele>337.612213135</ele>
        <time>2015-11-05T14:22:40.19Z</time>
      </trkpt>
      <trkpt lat="46.22456" lon="4.69091">
        <ele>338.126251221</ele>
        <time>2015-11-05T14:22:45.207Z</time>
      </trkpt>
      <trkpt lat="46.22454" lon="4.69091">
        <ele>338.170501709</ele>
        <time>2015-11-05T14:22:46.194Z</time>
      </trkpt>
      <trkpt lat="46.22446" lon="4.69091">
        <ele>338.42779541</ele>
        <time>2015-11-05T14:22:52.235Z</time>
      </trkpt>
      <trkpt lat="46.22445" lon="4.6909">
        <ele>338.526916504</ele>
        <time>2015-11-05T14:22:53.192Z</time>
      </trkpt>
      <trkpt lat="46.22436" lon="4.69087">
        <ele>338.80847168</ele>
        <time>2015-11-05T14:23:00.204Z</time>
      </trkpt>
      <trkpt lat="46.22435" lon="4.69087">
        <ele>338.806762695</ele>
        <time>2015-11-05T14:23:01.193Z</time>
      </trkpt>
      <trkpt lat="46.22426" lon="4.69085">
        <ele>340.318511963</ele>
        <time>2015-11-05T14:23:10.214Z</time>
      </trkpt>
      <trkpt lat="46.22425" lon="4.69085">
        <ele>340.441558838</ele>
        <time>2015-11-05T14:23:11.192Z</time>
      </trkpt>
      <trkpt lat="46.22416" lon="4.69083">
        <ele>341.407104492</ele>
        <time>2015-11-05T14:23:20.208Z</time>
      </trkpt>
      <trkpt lat="46.22415" lon="4.69083">
        <ele>341.607269287</ele>
        <time>2015-11-05T14:23:21.201Z</time>
      </trkpt>
      <trkpt lat="46.22407" lon="4.6908">
        <ele>342.250274658</ele>
        <time>2015-11-05T14:23:34.213Z</time>
      </trkpt>
      <trkpt lat="46.22406" lon="4.69079">
        <ele>342.175994873</ele>
        <time>2015-11-05T14:23:35.193Z</time>
      </trkpt>
      <trkpt lat="46.22398" lon="4.69075">
        <ele>342.393188477</ele>
        <time>2015-11-05T14:23:44.23Z</time>
      </trkpt>
      <trkpt lat="46.22396" lon="4.69075">
        <ele>342.624786377</ele>
        <time>2015-11-05T14:23:45.206Z</time>
      </trkpt>
      <trkpt lat="46.22389" lon="4.69072">
        <ele>343.767883301</ele>
        <time>2015-11-05T14:23:54.235Z</time>
      </trkpt>
      <trkpt lat="46.22387" lon="4.69072">
        <ele>344.00982666</ele>
        <time>2015-11-05T14:23:55.197Z</time>
      </trkpt>
      <trkpt lat="46.22378" lon="4.69069">
        <ele>345.67767334</ele>
        <time>2015-11-05T14:24:08.197Z</time>
      </trkpt>
      <trkpt lat="46.22377" lon="4.69069">
        <ele>345.888824463</ele>
        <time>2015-11-05T14:24:09.187Z</time>
      </trkpt>
      <trkpt lat="46.2237" lon="4.6907">
        <ele>348.727752686</ele>
        <time>2015-11-05T14:24:28.202Z</time>
      </trkpt>
      <trkpt lat="46.22366" lon="4.6907">
        <ele>348.822052002</ele>
        <time>2015-11-05T14:24:29.187Z</time>
      </trkpt>
      <trkpt lat="46.22357" lon="4.69073">
        <ele>349.228790283</ele>
        <time>2015-11-05T14:24:31.199Z</time>
      </trkpt>
      <trkpt lat="46.22353" lon="4.69073">
        <ele>349.401885986</ele>
        <time>2015-11-05T14:24:32.192Z</time>
      </trkpt>
      <trkpt lat="46.22347" lon="4.69074">
        <ele>349.616027832</ele>
        <time>2015-11-05T14:24:34.197Z</time>
      </trkpt>
      <trkpt lat="46.22344" lon="4.69074">
        <ele>349.751739502</ele>
        <time>2015-11-05T14:24:35.187Z</time>
      </trkpt>
      <trkpt lat="46.22337" lon="4.69077">
        <ele>350.404968262</ele>
        <time>2015-11-05T14:24:39.212Z</time>
      </trkpt>
      <trkpt lat="46.22335" lon="4.69077">
        <ele>350.604370117</ele>
        <time>2015-11-05T14:24:40.177Z</time>
      </trkpt>
      <trkpt lat="46.22326" lon="4.69074">
        <ele>353.03793335</ele>
        <time>2015-11-05T14:24:50.249Z</time>
      </trkpt>
      <trkpt lat="46.22325" lon="4.69074">
        <ele>353.256164551</ele>
        <time>2015-11-05T14:24:51.187Z</time>
      </trkpt>
      <trkpt lat="46.22316" lon="4.69072">
        <ele>355.249603271</ele>
        <time>2015-11-05T14:25:05.2Z</time>
      </trkpt>
      <trkpt lat="46.22316" lon="4.69072">
        <ele>355.264007568</ele>
        <time>2015-11-05T14:25:06.225Z</time>
      </trkpt>
      <trkpt lat="46.22309" lon="4.69066">
        <ele>355.816253662</ele>
        <time>2015-11-05T14:25:14.199Z</time>
      </trkpt>
      <trkpt lat="46.22308" lon="4.69065">
        <ele>355.821136475</ele>
        <time>2015-11-05T14:25:15.2Z</time>
      </trkpt>
      <trkpt lat="46.22299" lon="4.69064">
        <ele>355.596405029</ele>
        <time>2015-11-05T14:25:25.228Z</time>
      </trkpt>
      <trkpt lat="46.22299" lon="4.69064">
        <ele>355.594726562</ele>
        <time>2015-11-05T14:25:26.176Z</time>
      </trkpt>
      <trkpt lat="46.22293" lon="4.69068">
        <ele>361.716064453</ele>
        <time>2015-11-05T14:26:27.249Z</time>
      </trkpt>
      <trkpt lat="46.2229" lon="4.69072">
        <ele>362.213928223</ele>
        <time>2015-11-05T14:26:28.189Z</time>
      </trkpt>
      <trkpt lat="46.22288" lon="4.69078">
        <ele>363.661712646</ele>
        <time>2015-11-05T14:26:31.28Z</time>
      </trkpt>
      <trkpt lat="46.22286" lon="4.69085">
        <ele>364.029327393</ele>
        <time>2015-11-05T14:26:32.191Z</time>
      </trkpt>
      <trkpt lat="46.22283" lon="4.69094">
        <ele>364.411651611</ele>
        <time>2015-11-05T14:26:33.206Z</time>
      </trkpt>
      <trkpt lat="46.2228" lon="4.69102">
        <ele>364.823547363</ele>
        <time>2015-11-05T14:26:34.2Z</time>
      </trkpt>
      <trkpt lat="46.22277" lon="4.69109">
        <ele>365.14755249</ele>
        <time>2015-11-05T14:26:35.259Z</time>
      </trkpt>
      <trkpt lat="46.22273" lon="4.69116">
        <ele>365.464416504</ele>
        <time>2015-11-05T14:26:36.227Z</time>
      </trkpt>
      <trkpt lat="46.22268" lon="4.69124">
        <ele>365.81362915</ele>
        <time>2015-11-05T14:26:37.215Z</time>
      </trkpt>
      <trkpt lat="46.22265" lon="4.69128">
        <ele>366.217071533</ele>
        <time>2015-11-05T14:26:38.188Z</time>
      </trkpt>
      <trkpt lat="46.2226" lon="4.69134">
        <ele>367.056121826</ele>
        <time>2015-11-05T14:26:40.201Z</time>
      </trkpt>
      <trkpt lat="46.22256" lon="4.69138">
        <ele>367.414459229</ele>
        <time>2015-11-05T14:26:41.193Z</time>
      </trkpt>
      <trkpt lat="46.22251" lon="4.69143">
        <ele>368.417327881</ele>
        <time>2015-11-05T14:26:44.204Z</time>
      </trkpt>
      <trkpt lat="46.22249" lon="4.69146">
        <ele>368.837432861</ele>
        <time>2015-11-05T14:26:45.189Z</time>
      </trkpt>
      <trkpt lat="46.22242" lon="4.69152">
        <ele>369.886169434</ele>
        <time>2015-11-05T14:26:50.224Z</time>
      </trkpt>
      <trkpt lat="46.22239" lon="4.69154">
        <ele>369.996948242</ele>
        <time>2015-11-05T14:26:51.191Z</time>
      </trkpt>
      <trkpt lat="46.22234" lon="4.6916">
        <ele>370.455749512</ele>
        <time>2015-11-05T14:26:53.208Z</time>
      </trkpt>
      <trkpt lat="46.22232" lon="4.69163">
        <ele>370.720062256</ele>
        <time>2015-11-05T14:26:54.194Z</time>
      </trkpt>
      <trkpt lat="46.22225" lon="4.6917">
        <ele>371.782989502</ele>
        <time>2015-11-05T14:27:00.209Z</time>
      </trkpt>
      <trkpt lat="46.22224" lon="4.69171">
        <ele>372.002502441</ele>
        <time>2015-11-05T14:27:01.224Z</time>
      </trkpt>
      <trkpt lat="46.22216" lon="4.69177">
        <ele>372.943481445</ele>
        <time>2015-11-05T14:27:09.213Z</time>
      </trkpt>
      <trkpt lat="46.22215" lon="4.69178">
        <ele>373.078765869</ele>
        <time>2015-11-05T14:27:10.206Z</time>
      </trkpt>
      <trkpt lat="46.22208" lon="4.69182">
        <ele>373.544494629</ele>
        <time>2015-11-05T14:27:17.218Z</time>
      </trkpt>
      <trkpt lat="46.22207" lon="4.69183">
        <ele>373.720550537</ele>
        <time>2015-11-05T14:27:18.186Z</time>
      </trkpt>
      <trkpt lat="46.22199" lon="4.69189">
        <ele>375.083099365</ele>
        <time>2015-11-05T14:27:28.222Z</time>
      </trkpt>
      <trkpt lat="46.22198" lon="4.69189">
        <ele>375.295257568</ele>
        <time>2015-11-05T14:27:29.207Z</time>
      </trkpt>
      <trkpt lat="46.22191" lon="4.69195">
        <ele>375.734680176</ele>
        <time>2015-11-05T14:27:37.308Z</time>
      </trkpt>
      <trkpt lat="46.22189" lon="4.69196">
        <ele>375.839660645</ele>
        <time>2015-11-05T14:27:38.173Z</time>
      </trkpt>
      <trkpt lat="46.22182" lon="4.69203">
        <ele>376.718597412</ele>
        <time>2015-11-05T14:27:47.212Z</time>
      </trkpt>
      <trkpt lat="46.22181" lon="4.69203">
        <ele>377.035675049</ele>
        <time>2015-11-05T14:27:48.196Z</time>
      </trkpt>
      <trkpt lat="46.22172" lon="4.69206">
        <ele>378.506744385</ele>
        <time>2015-11-05T14:27:55.218Z</time>
      </trkpt>
      <trkpt lat="46.22171" lon="4.69207">
        <ele>378.789520264</ele>
        <time>2015-11-05T14:27:56.202Z</time>
      </trkpt>
      <trkpt lat="46.22164" lon="4.69211">
        <ele>380.569519043</ele>
        <time>2015-11-05T14:28:06.189Z</time>
      </trkpt>
      <trkpt lat="46.22163" lon="4.69212">
        <ele>380.696380615</ele>
        <time>2015-11-05T14:28:07.193Z</time>
      </trkpt>
      <trkpt lat="46.22158" lon="4.69223">
        <ele>385.873199463</ele>
        <time>2015-11-05T14:28:29.219Z</time>
      </trkpt>
      <trkpt lat="46.22158" lon="4.69223">
        <ele>386.1925354</ele>
        <time>2015-11-05T14:28:30.19Z</time>
      </trkpt>
      <trkpt lat="46.22162" lon="4.69234">
        <ele>388.186645508</ele>
        <time>2015-11-05T14:28:44.21Z</time>
      </trkpt>
      <trkpt lat="46.22163" lon="4.69235">
        <ele>388.193847656</ele>
        <time>2015-11-05T14:28:45.198Z</time>
      </trkpt>
      <trkpt lat="46.22168" lon="4.69244">
        <ele>389.486724854</ele>
        <time>2015-11-05T14:28:53.221Z</time>
      </trkpt>
      <trkpt lat="46.22169" lon="4.69245">
        <ele>389.765930176</ele>
        <time>2015-11-05T14:28:54.192Z</time>
      </trkpt>
      <trkpt lat="46.22174" lon="4.69255">
        <ele>391.396026611</ele>
        <time>2015-11-05T14:29:04.232Z</time>
      </trkpt>
      <trkpt lat="46.22175" lon="4.69255">
        <ele>391.475311279</ele>
        <time>2015-11-05T14:29:05.195Z</time>
      </trkpt>
      <trkpt lat="46.22182" lon="4.69262">
        <ele>393.04385376</ele>
        <time>2015-11-05T14:29:14.217Z</time>
      </trkpt>
      <trkpt lat="46.22183" lon="4.69262">
        <ele>393.186981201</ele>
        <time>2015-11-05T14:29:15.181Z</time>
      </trkpt>
      <trkpt lat="46.22189" lon="4.69271">
        <ele>394.645782471</ele>
        <time>2015-11-05T14:29:26.204Z</time>
      </trkpt>
      <trkpt lat="46.2219" lon="4.69272">
        <ele>394.694976807</ele>
        <time>2015-11-05T14:29:27.179Z</time>
      </trkpt>
      <trkpt lat="46.22196" lon="4.6928">
        <ele>395.103210449</ele>
        <time>2015-11-05T14:29:35.193Z</time>
      </trkpt>
      <trkpt lat="46.22196" lon="4.69282">
        <ele>395.187957764</ele>
        <time>2015-11-05T14:29:36.168Z</time>
      </trkpt>
      <trkpt lat="46.22202" lon="4.69291">
        <ele>396.788665771</ele>
        <time>2015-11-05T14:29:47.191Z</time>
      </trkpt>
      <trkpt lat="46.22203" lon="4.69292">
        <ele>397.002380371</ele>
        <time>2015-11-05T14:29:48.177Z</time>
      </trkpt>
      <trkpt lat="46.22208" lon="4.69303">
        <ele>399.485900879</ele>
        <time>2015-11-05T14:29:58.188Z</time>
      </trkpt>
      <trkpt lat="46.22209" lon="4.69303">
        <ele>399.650115967</ele>
        <time>2015-11-05T14:29:59.189Z</time>
      </trkpt>
      <trkpt lat="46.22216" lon="4.69309">
        <ele>402.704376221</ele>
        <time>2015-11-05T14:30:11.191Z</time>
      </trkpt>
      <trkpt lat="46.22217" lon="4.6931">
        <ele>402.91494751</ele>
        <time>2015-11-05T14:30:12.178Z</time>
      </trkpt>
      <trkpt lat="46.22222" lon="4.6932">
        <ele>404.309448242</ele>
        <time>2015-11-05T14:30:23.194Z</time>
      </trkpt>
      <trkpt lat="46.22222" lon="4.69322">
        <ele>404.217987061</ele>
        <time>2015-11-05T14:30:24.191Z</time>
      </trkpt>
      <trkpt lat="46.22215" lon="4.69329">
        <ele>406.247283936</ele>
        <time>2015-11-05T14:30:55.193Z</time>
      </trkpt>
      <trkpt lat="46.22214" lon="4.69329">
        <ele>406.605285645</ele>
        <time>2015-11-05T14:30:56.183Z</time>
      </trkpt>
      <trkpt lat="46.22206" lon="4.69329">
        <ele>408.589630127</ele>
        <time>2015-11-05T14:31:13.193Z</time>
      </trkpt>
      <trkpt lat="46.22205" lon="4.69329">
        <ele>408.864868164</ele>
        <time>2015-11-05T14:31:14.18Z</time>
      </trkpt>
      <trkpt lat="46.22196" lon="4.69329">
        <ele>409.753814697</ele>
        <time>2015-11-05T14:31:22.19Z</time>
      </trkpt>
      <trkpt lat="46.22196" lon="4.69329">
        <ele>409.952789307</ele>
        <time>2015-11-05T14:31:23.181Z</time>
      </trkpt>
      <trkpt lat="46.22187" lon="4.6933">
        <ele>411.192260742</ele>
        <time>2015-11-05T14:31:36.2Z</time>
      </trkpt>
      <trkpt lat="46.22186" lon="4.6933">
        <ele>411.43737793</ele>
        <time>2015-11-05T14:31:37.204Z</time>
      </trkpt>
      <trkpt lat="46.22177" lon="4.69331">
        <ele>413.388427734</ele>
        <time>2015-11-05T14:31:54.211Z</time>
      </trkpt>
      <trkpt lat="46.22177" lon="4.69331">
        <ele>413.398895264</ele>
        <time>2015-11-05T14:31:55.188Z</time>
      </trkpt>
      <trkpt lat="46.22169" lon="4.69328">
        <ele>413.336181641</ele>
        <time>2015-11-05T14:32:09.207Z</time>
      </trkpt>
      <trkpt lat="46.22166" lon="4.69328">
        <ele>413.442199707</ele>
        <time>2015-11-05T14:32:10.182Z</time>
      </trkpt>
      <trkpt lat="46.22158" lon="4.69328">
        <ele>413.764251709</ele>
        <time>2015-11-05T14:32:15.229Z</time>
      </trkpt>
      <trkpt lat="46.22156" lon="4.69328">
        <ele>413.867218018</ele>
        <time>2015-11-05T14:32:16.183Z</time>
      </trkpt>
      <trkpt lat="46.22147" lon="4.69327">
        <ele>414.463378906</ele>
        <time>2015-11-05T14:32:21.195Z</time>
      </trkpt>
      <trkpt lat="46.22146" lon="4.69327">
        <ele>414.632324219</ele>
        <time>2015-11-05T14:32:22.192Z</time>
      </trkpt>
      <trkpt lat="46.22137" lon="4.69327">
        <ele>415.274139404</ele>
        <time>2015-11-05T14:32:33.228Z</time>
      </trkpt>
      <trkpt lat="46.22136" lon="4.69327">
        <ele>415.299987793</ele>
        <time>2015-11-05T14:32:34.184Z</time>
      </trkpt>
      <trkpt lat="46.22128" lon="4.69328">
        <ele>415.809204102</ele>
        <time>2015-11-05T14:32:42.256Z</time>
      </trkpt>
      <trkpt lat="46.22126" lon="4.69328">
        <ele>415.818511963</ele>
        <time>2015-11-05T14:32:43.185Z</time>
      </trkpt>
      <trkpt lat="46.22118" lon="4.69333">
        <ele>417.236480713</ele>
        <time>2015-11-05T14:32:56.216Z</time>
      </trkpt>
      <trkpt lat="46.22116" lon="4.69333">
        <ele>417.425598145</ele>
        <time>2015-11-05T14:32:57.185Z</time>
      </trkpt>
      <trkpt lat="46.22107" lon="4.69337">
        <ele>419.158905029</ele>
        <time>2015-11-05T14:33:10.216Z</time>
      </trkpt>
      <trkpt lat="46.22107" lon="4.69337">
        <ele>419.436676025</ele>
        <time>2015-11-05T14:33:11.197Z</time>
      </trkpt>
      <trkpt lat="46.22099" lon="4.69336">
        <ele>420.691009521</ele>
        <time>2015-11-05T14:33:18.212Z</time>
      </trkpt>
      <trkpt lat="46.22097" lon="4.69335">
        <ele>421.000732422</ele>
        <time>2015-11-05T14:33:19.197Z</time>
      </trkpt>
      <trkpt lat="46.22088" lon="4.69336">
        <ele>422.016815186</ele>
        <time>2015-11-05T14:33:24.211Z</time>
      </trkpt>
      <trkpt lat="46.22087" lon="4.69336">
        <ele>422.23928833</ele>
        <time>2015-11-05T14:33:25.196Z</time>
      </trkpt>
      <trkpt lat="46.22078" lon="4.69338">
        <ele>423.852905273</ele>
        <time>2015-11-05T14:33:34.232Z</time>
      </trkpt>
      <trkpt lat="46.22077" lon="4.69338">
        <ele>423.965820312</ele>
        <time>2015-11-05T14:33:35.199Z</time>
      </trkpt>
      <trkpt lat="46.22069" lon="4.69341">
        <ele>425.957794189</ele>
        <time>2015-11-05T14:33:44.216Z</time>
      </trkpt>
      <trkpt lat="46.22068" lon="4.69342">
        <ele>426.195159912</ele>
        <time>2015-11-05T14:33:45.188Z</time>
      </trkpt>
      <trkpt lat="46.22059" lon="4.69345">
        <ele>427.95489502</ele>
        <time>2015-11-05T14:33:56.221Z</time>
      </trkpt>
      <trkpt lat="46.22059" lon="4.69345">
        <ele>428.231628418</ele>
        <time>2015-11-05T14:33:57.19Z</time>
      </trkpt>
      <trkpt lat="46.2205" lon="4.69347">
        <ele>430.519714355</ele>
        <time>2015-11-05T14:34:08.225Z</time>
      </trkpt>
      <trkpt lat="46.22049" lon="4.69347">
        <ele>430.729156494</ele>
        <time>2015-11-05T14:34:09.208Z</time>
      </trkpt>
      <trkpt lat="46.22041" lon="4.69349">
        <ele>435.328796387</ele>
        <time>2015-11-05T14:34:24.224Z</time>
      </trkpt>
      <trkpt lat="46.2204" lon="4.69349">
        <ele>435.73248291</ele>
        <time>2015-11-05T14:34:25.194Z</time>
      </trkpt>
      <trkpt lat="46.22032" lon="4.69352">
        <ele>437.264770508</ele>
        <time>2015-11-05T14:34:31.189Z</time>
      </trkpt>
      <trkpt lat="46.2203" lon="4.69353">
        <ele>437.474304199</ele>
        <time>2015-11-05T14:34:32.177Z</time>
      </trkpt>
      <trkpt lat="46.22024" lon="4.69361">
        <ele>438.005401611</ele>
        <time>2015-11-05T14:34:39.188Z</time>
      </trkpt>
      <trkpt lat="46.22024" lon="4.69364">
        <ele>437.88571167</ele>
        <time>2015-11-05T14:34:40.179Z</time>
      </trkpt>
      <trkpt lat="46.2203" lon="4.69374">
        <ele>438.696777344</ele>
        <time>2015-11-05T14:34:53.188Z</time>
      </trkpt>
      <trkpt lat="46.2203" lon="4.69374">
        <ele>438.889160156</ele>
        <time>2015-11-05T14:34:54.181Z</time>
      </trkpt>
      <trkpt lat="46.22039" lon="4.69379">
        <ele>441.806060791</ele>
        <time>2015-11-05T14:35:10.194Z</time>
      </trkpt>
      <trkpt lat="46.22039" lon="4.6938">
        <ele>442.094665527</ele>
        <time>2015-11-05T14:35:11.178Z</time>
      </trkpt>
      <trkpt lat="46.22047" lon="4.69383">
        <ele>446.010925293</ele>
        <time>2015-11-05T14:35:22.196Z</time>
      </trkpt>
      <trkpt lat="46.22048" lon="4.69384">
        <ele>446.245239258</ele>
        <time>2015-11-05T14:35:23.223Z</time>
      </trkpt>
      <trkpt lat="46.22055" lon="4.69389">
        <ele>447.996704102</ele>
        <time>2015-11-05T14:35:31.196Z</time>
      </trkpt>
      <trkpt lat="46.22056" lon="4.6939">
        <ele>448.104095459</ele>
        <time>2015-11-05T14:35:32.19Z</time>
      </trkpt>
      <trkpt lat="46.22063" lon="4.69395">
        <ele>450.340606689</ele>
        <time>2015-11-05T14:35:42.199Z</time>
      </trkpt>
      <trkpt lat="46.22064" lon="4.69396">
        <ele>450.553955078</ele>
        <time>2015-11-05T14:35:43.2Z</time>
      </trkpt>
      <trkpt lat="46.22071" lon="4.69402">
        <ele>452.085754395</ele>
        <time>2015-11-05T14:35:49.191Z</time>
      </trkpt>
      <trkpt lat="46.22072" lon="4.69404">
        <ele>452.52154541</ele>
        <time>2015-11-05T14:35:50.173Z</time>
      </trkpt>
      <trkpt lat="46.22078" lon="4.6941">
        <ele>454.177978516</ele>
        <time>2015-11-05T14:35:55.192Z</time>
      </trkpt>
      <trkpt lat="46.22079" lon="4.69411">
        <ele>454.326416016</ele>
        <time>2015-11-05T14:35:56.18Z</time>
      </trkpt>
      <trkpt lat="46.22071" lon="4.69414">
        <ele>457.111022949</ele>
        <time>2015-11-05T14:36:29.194Z</time>
      </trkpt>
      <trkpt lat="46.2207" lon="4.69415">
        <ele>457.367340088</ele>
        <time>2015-11-05T14:36:30.182Z</time>
      </trkpt>
      <trkpt lat="46.22062" lon="4.69417">
        <ele>459.322784424</ele>
        <time>2015-11-05T14:36:39.189Z</time>
      </trkpt>
      <trkpt lat="46.22061" lon="4.69418">
        <ele>459.436248779</ele>
        <time>2015-11-05T14:36:40.187Z</time>
      </trkpt>
      <trkpt lat="46.22052" lon="4.69421">
        <ele>458.957275391</ele>
        <time>2015-11-05T14:36:52.202Z</time>
      </trkpt>
      <trkpt lat="46.22051" lon="4.69422">
        <ele>459.052703857</ele>
        <time>2015-11-05T14:36:53.19Z</time>
      </trkpt>
      <trkpt lat="46.22045" lon="4.69428">
        <ele>459.495056152</ele>
        <time>2015-11-05T14:37:05.194Z</time>
      </trkpt>
      <trkpt lat="46.22044" lon="4.69429">
        <ele>459.511383057</ele>
        <time>2015-11-05T14:37:06.181Z</time>
      </trkpt>
      <trkpt lat="46.22036" lon="4.69432">
        <ele>460.00201416</ele>
        <time>2015-11-05T14:37:14.178Z</time>
      </trkpt>
      <trkpt lat="46.22035" lon="4.69432">
        <ele>460.051055908</ele>
        <time>2015-11-05T14:37:15.182Z</time>
      </trkpt>
      <trkpt lat="46.22027" lon="4.69436">
        <ele>461.921600342</ele>
        <time>2015-11-05T14:37:22.197Z</time>
      </trkpt>
      <trkpt lat="46.22026" lon="4.69437">
        <ele>462.373657227</ele>
        <time>2015-11-05T14:37:23.188Z</time>
      </trkpt>
      <trkpt lat="46.22018" lon="4.69442">
        <ele>463.863708496</ele>
        <time>2015-11-05T14:37:30.211Z</time>
      </trkpt>
      <trkpt lat="46.22017" lon="4.69443">
        <ele>464.116912842</ele>
        <time>2015-11-05T14:37:31.208Z</time>
      </trkpt>
      <trkpt lat="46.22009" lon="4.69447">
        <ele>465.71572876</ele>
        <time>2015-11-05T14:37:41.213Z</time>
      </trkpt>
      <trkpt lat="46.22008" lon="4.69448">
        <ele>465.795623779</ele>
        <time>2015-11-05T14:37:42.184Z</time>
      </trkpt>
      <trkpt lat="46.22001" lon="4.69452">
        <ele>467.770080566</ele>
        <time>2015-11-05T14:37:54.2Z</time>
      </trkpt>
      <trkpt lat="46.22" lon="4.69452">
        <ele>467.936065674</ele>
        <time>2015-11-05T14:37:55.183Z</time>
      </trkpt>
      <trkpt lat="46.21992" lon="4.69458">
        <ele>469.65335083</ele>
        <time>2015-11-05T14:38:03.207Z</time>
      </trkpt>
      <trkpt lat="46.21991" lon="4.69459">
        <ele>469.913848877</ele>
        <time>2015-11-05T14:38:04.183Z</time>
      </trkpt>
      <trkpt lat="46.21985" lon="4.69467">
        <ele>473.597595215</ele>
        <time>2015-11-05T14:38:16.194Z</time>
      </trkpt>
      <trkpt lat="46.21984" lon="4.69469">
        <ele>473.807159424</ele>
        <time>2015-11-05T14:38:17.197Z</time>
      </trkpt>
      <trkpt lat="46.21984" lon="4.69482">
        <ele>475.359619141</ele>
        <time>2015-11-05T14:38:26.246Z</time>
      </trkpt>
      <trkpt lat="46.21984" lon="4.69482">
        <ele>475.44140625</ele>
        <time>2015-11-05T14:38:27.19Z</time>
      </trkpt>
      <trkpt lat="46.21991" lon="4.69488">
        <ele>475.485626221</ele>
        <time>2015-11-05T14:38:38.206Z</time>
      </trkpt>
      <trkpt lat="46.21991" lon="4.69489">
        <ele>475.431274414</ele>
        <time>2015-11-05T14:38:39.185Z</time>
      </trkpt>
      <trkpt lat="46.22" lon="4.69492">
        <ele>474.565734863</ele>
        <time>2015-11-05T14:38:50.199Z</time>
      </trkpt>
      <trkpt lat="46.22001" lon="4.69492">
        <ele>474.599975586</ele>
        <time>2015-11-05T14:38:51.184Z</time>
      </trkpt>
      <trkpt lat="46.22009" lon="4.69495">
        <ele>474.447357178</ele>
        <time>2015-11-05T14:39:02.2Z</time>
      </trkpt>
      <trkpt lat="46.2201" lon="4.69495">
        <ele>474.526062012</ele>
        <time>2015-11-05T14:39:03.189Z</time>
      </trkpt>
      <trkpt lat="46.22018" lon="4.69499">
        <ele>474.737030029</ele>
        <time>2015-11-05T14:39:13.23Z</time>
      </trkpt>
      <trkpt lat="46.22019" lon="4.695">
        <ele>474.723876953</ele>
        <time>2015-11-05T14:39:14.189Z</time>
      </trkpt>
      <trkpt lat="46.22027" lon="4.69504">
        <ele>475.999542236</ele>
        <time>2015-11-05T14:39:22.257Z</time>
      </trkpt>
      <trkpt lat="46.22027" lon="4.69504">
        <ele>476.131011963</ele>
        <time>2015-11-05T14:39:23.193Z</time>
      </trkpt>
      <trkpt lat="46.22035" lon="4.69509">
        <ele>478.233459473</ele>
        <time>2015-11-05T14:39:34.215Z</time>
      </trkpt>
      <trkpt lat="46.22036" lon="4.69509">
        <ele>478.458068848</ele>
        <time>2015-11-05T14:39:35.204Z</time>
      </trkpt>
      <trkpt lat="46.22044" lon="4.69514">
        <ele>479.355621338</ele>
        <time>2015-11-05T14:39:45.209Z</time>
      </trkpt>
      <trkpt lat="46.22045" lon="4.69514">
        <ele>479.483459473</ele>
        <time>2015-11-05T14:39:46.189Z</time>
      </trkpt>
      <trkpt lat="46.22053" lon="4.69519">
        <ele>480.929595947</ele>
        <time>2015-11-05T14:39:55.222Z</time>
      </trkpt>
      <trkpt lat="46.22054" lon="4.6952">
        <ele>481.052886963</ele>
        <time>2015-11-05T14:39:56.173Z</time>
      </trkpt>
      <trkpt lat="46.22061" lon="4.69524">
        <ele>481.235168457</ele>
        <time>2015-11-05T14:40:04.223Z</time>
      </trkpt>
      <trkpt lat="46.22062" lon="4.69525">
        <ele>481.263763428</ele>
        <time>2015-11-05T14:40:05.172Z</time>
      </trkpt>
      <trkpt lat="46.22069" lon="4.69532">
        <ele>483.124603271</ele>
        <time>2015-11-05T14:40:19.189Z</time>
      </trkpt>
      <trkpt lat="46.2207" lon="4.69533">
        <ele>483.323822021</ele>
        <time>2015-11-05T14:40:20.178Z</time>
      </trkpt>
      <trkpt lat="46.22069" lon="4.69546">
        <ele>484.82019043</ele>
        <time>2015-11-05T14:40:41.268Z</time>
      </trkpt>
      <trkpt lat="46.22069" lon="4.69546">
        <ele>484.857513428</ele>
        <time>2015-11-05T14:40:42.17Z</time>
      </trkpt>
      <trkpt lat="46.22061" lon="4.6955">
        <ele>486.266357422</ele>
        <time>2015-11-05T14:40:59.191Z</time>
      </trkpt>
      <trkpt lat="46.2206" lon="4.69549">
        <ele>486.402587891</ele>
        <time>2015-11-05T14:41:00.204Z</time>
      </trkpt>
      <trkpt lat="46.22052" lon="4.69549">
        <ele>486.511505127</ele>
        <time>2015-11-05T14:41:08.192Z</time>
      </trkpt>
      <trkpt lat="46.22051" lon="4.6955">
        <ele>486.513427734</ele>
        <time>2015-11-05T14:41:09.19Z</time>
      </trkpt>
      <trkpt lat="46.22043" lon="4.69549">
        <ele>486.772125244</ele>
        <time>2015-11-05T14:41:14.188Z</time>
      </trkpt>
      <trkpt lat="46.22041" lon="4.69549">
        <ele>486.8309021</ele>
        <time>2015-11-05T14:41:15.179Z</time>
      </trkpt>
      <trkpt lat="46.22033" lon="4.69551">
        <ele>487.943786621</ele>
        <time>2015-11-05T14:41:26.195Z</time>
      </trkpt>
      <trkpt lat="46.22032" lon="4.69551">
        <ele>487.967681885</ele>
        <time>2015-11-05T14:41:27.179Z</time>
      </trkpt>
      <trkpt lat="46.22023" lon="4.69553">
        <ele>488.348693848</ele>
        <time>2015-11-05T14:41:34.188Z</time>
      </trkpt>
      <trkpt lat="46.22022" lon="4.69553">
        <ele>488.383789062</ele>
        <time>2015-11-05T14:41:35.176Z</time>
      </trkpt>
      <trkpt lat="46.22013" lon="4.69556">
        <ele>489.588531494</ele>
        <time>2015-11-05T14:41:43.189Z</time>
      </trkpt>
      <trkpt lat="46.22012" lon="4.69557">
        <ele>489.696990967</ele>
        <time>2015-11-05T14:41:44.182Z</time>
      </trkpt>
      <trkpt lat="46.22004" lon="4.69561">
        <ele>490.386291504</ele>
        <time>2015-11-05T14:41:53.205Z</time>
      </trkpt>
      <trkpt lat="46.22003" lon="4.69561">
        <ele>490.586395264</ele>
        <time>2015-11-05T14:41:54.18Z</time>
      </trkpt>
      <trkpt lat="46.21994" lon="4.69563">
        <ele>491.850646973</ele>
        <time>2015-11-05T14:42:01.188Z</time>
      </trkpt>
      <trkpt lat="46.21993" lon="4.69563">
        <ele>492.047607422</ele>
        <time>2015-11-05T14:42:02.184Z</time>
      </trkpt>
      <trkpt lat="46.21985" lon="4.69565">
        <ele>493.397857666</ele>
        <time>2015-11-05T14:42:10.19Z</time>
      </trkpt>
      <trkpt lat="46.21984" lon="4.69565">
        <ele>493.544403076</ele>
        <time>2015-11-05T14:42:11.183Z</time>
      </trkpt>
      <trkpt lat="46.21976" lon="4.69569">
        <ele>494.910339355</ele>
        <time>2015-11-05T14:42:20.2Z</time>
      </trkpt>
      <trkpt lat="46.21975" lon="4.69569">
        <ele>495.062713623</ele>
        <time>2015-11-05T14:42:21.18Z</time>
      </trkpt>
      <trkpt lat="46.21967" lon="4.69573">
        <ele>496.151367188</ele>
        <time>2015-11-05T14:42:28.194Z</time>
      </trkpt>
      <trkpt lat="46.21966" lon="4.69573">
        <ele>496.29800415</ele>
        <time>2015-11-05T14:42:29.185Z</time>
      </trkpt>
      <trkpt lat="46.21958" lon="4.69575">
        <ele>497.563293457</ele>
        <time>2015-11-05T14:42:37.201Z</time>
      </trkpt>
      <trkpt lat="46.21957" lon="4.69575">
        <ele>497.668670654</ele>
        <time>2015-11-05T14:42:38.198Z</time>
      </trkpt>
      <trkpt lat="46.21949" lon="4.69577">
        <ele>498.368377686</ele>
        <time>2015-11-05T14:42:47.235Z</time>
      </trkpt>
      <trkpt lat="46.21948" lon="4.69577">
        <ele>498.527832031</ele>
        <time>2015-11-05T14:42:48.183Z</time>
      </trkpt>
      <trkpt lat="46.21939" lon="4.69577">
        <ele>500.743133545</ele>
        <time>2015-11-05T14:43:00.193Z</time>
      </trkpt>
      <trkpt lat="46.21938" lon="4.69577">
        <ele>500.981292725</ele>
        <time>2015-11-05T14:43:01.181Z</time>
      </trkpt>
      <trkpt lat="46.2193" lon="4.69578">
        <ele>502.850311279</ele>
        <time>2015-11-05T14:43:12.195Z</time>
      </trkpt>
      <trkpt lat="46.21929" lon="4.69577">
        <ele>502.922027588</ele>
        <time>2015-11-05T14:43:13.182Z</time>
      </trkpt>
      <trkpt lat="46.2192" lon="4.69577">
        <ele>502.296844482</ele>
        <time>2015-11-05T14:43:21.204Z</time>
      </trkpt>
      <trkpt lat="46.21919" lon="4.69577">
        <ele>502.169891357</ele>
        <time>2015-11-05T14:43:22.183Z</time>
      </trkpt>
      <trkpt lat="46.2191" lon="4.69577">
        <ele>501.575317383</ele>
        <time>2015-11-05T14:43:30.196Z</time>
      </trkpt>
      <trkpt lat="46.2191" lon="4.69577">
        <ele>501.492431641</ele>
        <time>2015-11-05T14:43:31.183Z</time>
      </trkpt>
      <trkpt lat="46.21904" lon="4.6957">
        <ele>501.205718994</ele>
        <time>2015-11-05T14:43:42.204Z</time>
      </trkpt>
      <trkpt lat="46.21903" lon="4.69569">
        <ele>501.317260742</ele>
        <time>2015-11-05T14:43:43.183Z</time>
      </trkpt>
      <trkpt lat="46.21897" lon="4.69559">
        <ele>502.316162109</ele>
        <time>2015-11-05T14:43:53.203Z</time>
      </trkpt>
      <trkpt lat="46.21896" lon="4.69558">
        <ele>502.33883667</ele>
        <time>2015-11-05T14:43:54.185Z</time>
      </trkpt>
      <trkpt lat="46.2189" lon="4.69552">
        <ele>501.99230957</ele>
        <time>2015-11-05T14:43:59.222Z</time>
      </trkpt>
      <trkpt lat="46.21886" lon="4.6955">
        <ele>501.967132568</ele>
        <time>2015-11-05T14:44:00.185Z</time>
      </trkpt>
      <trkpt lat="46.21878" lon="4.69554">
        <ele>501.988952637</ele>
        <time>2015-11-05T14:44:09.203Z</time>
      </trkpt>
      <trkpt lat="46.21878" lon="4.69555">
        <ele>502.048828125</ele>
        <time>2015-11-05T14:44:10.184Z</time>
      </trkpt>
      <trkpt lat="46.21873" lon="4.69565">
        <ele>501.626831055</ele>
        <time>2015-11-05T14:44:20.203Z</time>
      </trkpt>
      <trkpt lat="46.21872" lon="4.69566">
        <ele>501.637268066</ele>
        <time>2015-11-05T14:44:21.184Z</time>
      </trkpt>
      <trkpt lat="46.21866" lon="4.69575">
        <ele>501.991973877</ele>
        <time>2015-11-05T14:44:30.197Z</time>
      </trkpt>
      <trkpt lat="46.21866" lon="4.69576">
        <ele>502.053619385</ele>
        <time>2015-11-05T14:44:31.187Z</time>
      </trkpt>
      <trkpt lat="46.2186" lon="4.69586">
        <ele>502.57208252</ele>
        <time>2015-11-05T14:44:42.199Z</time>
      </trkpt>
      <trkpt lat="46.2186" lon="4.69587">
        <ele>502.674255371</ele>
        <time>2015-11-05T14:44:43.187Z</time>
      </trkpt>
      <trkpt lat="46.21854" lon="4.69596">
        <ele>503.617126465</ele>
        <time>2015-11-05T14:44:53.201Z</time>
      </trkpt>
      <trkpt lat="46.21854" lon="4.69597">
        <ele>503.766357422</ele>
        <time>2015-11-05T14:44:54.192Z</time>
      </trkpt>
      <trkpt lat="46.21848" lon="4.69607">
        <ele>504.903564453</ele>
        <time>2015-11-05T14:45:05.199Z</time>
      </trkpt>
      <trkpt lat="46.21848" lon="4.69608">
        <ele>505.055450439</ele>
        <time>2015-11-05T14:45:06.2Z</time>
      </trkpt>
      <trkpt lat="46.21843" lon="4.69619">
        <ele>505.987976074</ele>
        <time>2015-11-05T14:45:16.221Z</time>
      </trkpt>
      <trkpt lat="46.21843" lon="4.6962">
        <ele>506.139648438</ele>
        <time>2015-11-05T14:45:17.189Z</time>
      </trkpt>
      <trkpt lat="46.21842" lon="4.69632">
        <ele>508.453643799</ele>
        <time>2015-11-05T14:45:34.221Z</time>
      </trkpt>
      <trkpt lat="46.21842" lon="4.69633">
        <ele>508.535919189</ele>
        <time>2015-11-05T14:45:35.172Z</time>
      </trkpt>
      <trkpt lat="46.21834" lon="4.69633">
        <ele>512.101379395</ele>
        <time>2015-11-05T14:47:22.197Z</time>
      </trkpt>
      <trkpt lat="46.21833" lon="4.69632">
        <ele>512.061035156</ele>
        <time>2015-11-05T14:47:23.187Z</time>
      </trkpt>
      <trkpt lat="46.21838" lon="4.69633">
        <ele>512.163146973</ele>
        <time>2015-11-05T14:48:05.075Z</time>
      </trkpt>
    </trkseg>
  </trk>
</gpx>